<?xml version="1.0" encoding="UTF-8" standalone="no" ?>
<gpx xmlns="http://www.topografix.com/GPX/1/1" xmlns:xsi="http://www.w3.org/2001/XMLSchema-instance" xsi:schemaLocation="http://www.topografix.com/GPX/1/1 http://www.topografix.com/GPX/1/1/gpx.xsd" version="1.1" creator="VisuGPX - https://www.visugpx.com">
  <metadata>
    <name>Peyrieu 08-2019 par Ambleon</name>
    <desc><![CDATA[Au départ du tennis 
Sans difficulté 
]]></desc>
  </metadata>
  <trk>
    <name><![CDATA[SityTrail - Peyrieu 2019 par Ambleon]]></name>
    <trkseg>
      <trkpt lat="45.67649" lon="5.67903">
        <ele>227</ele>
        <time>2019-08-24T09:21:19.609Z</time>
      </trkpt>
      <trkpt lat="45.67649" lon="5.67903">
        <ele>227</ele>
        <time>2019-08-24T09:21:25.602Z</time>
      </trkpt>
      <trkpt lat="45.6765" lon="5.67902">
        <ele>228</ele>
        <time>2019-08-24T09:21:30.597Z</time>
      </trkpt>
      <trkpt lat="45.67651" lon="5.679">
        <ele>228</ele>
        <time>2019-08-24T09:21:35.596Z</time>
      </trkpt>
      <trkpt lat="45.67656" lon="5.67896">
        <ele>229</ele>
        <time>2019-08-24T09:21:40.608Z</time>
      </trkpt>
      <trkpt lat="45.67663" lon="5.67894">
        <ele>229</ele>
        <time>2019-08-24T09:21:45.606Z</time>
      </trkpt>
      <trkpt lat="45.67671" lon="5.67893">
        <ele>229</ele>
        <time>2019-08-24T09:21:50.592Z</time>
      </trkpt>
      <trkpt lat="45.67678" lon="5.67894">
        <ele>229</ele>
        <time>2019-08-24T09:21:55.607Z</time>
      </trkpt>
      <trkpt lat="45.67686" lon="5.67897">
        <ele>229</ele>
        <time>2019-08-24T09:22:00.607Z</time>
      </trkpt>
      <trkpt lat="45.67691" lon="5.67896">
        <ele>229</ele>
        <time>2019-08-24T09:22:04.607Z</time>
      </trkpt>
      <trkpt lat="45.67705" lon="5.67889">
        <ele>229</ele>
        <time>2019-08-24T09:22:28.605Z</time>
      </trkpt>
      <trkpt lat="45.67705" lon="5.67889">
        <ele>229</ele>
        <time>2019-08-24T09:22:33.603Z</time>
      </trkpt>
      <trkpt lat="45.67705" lon="5.67889">
        <ele>229</ele>
        <time>2019-08-24T09:22:37.603Z</time>
      </trkpt>
      <trkpt lat="45.67707" lon="5.67885">
        <ele>229</ele>
        <time>2019-08-24T09:22:42.601Z</time>
      </trkpt>
      <trkpt lat="45.67706" lon="5.67874">
        <ele>230</ele>
        <time>2019-08-24T09:22:47.599Z</time>
      </trkpt>
      <trkpt lat="45.67704" lon="5.67867">
        <ele>230</ele>
        <time>2019-08-24T09:22:52.603Z</time>
      </trkpt>
      <trkpt lat="45.67704" lon="5.67863">
        <ele>230</ele>
        <time>2019-08-24T09:22:57.607Z</time>
      </trkpt>
      <trkpt lat="45.67703" lon="5.6786">
        <ele>230</ele>
        <time>2019-08-24T09:23:02.598Z</time>
      </trkpt>
      <trkpt lat="45.67701" lon="5.67853">
        <ele>230</ele>
        <time>2019-08-24T09:23:06.603Z</time>
      </trkpt>
      <trkpt lat="45.67698" lon="5.67845">
        <ele>231</ele>
        <time>2019-08-24T09:23:11.602Z</time>
      </trkpt>
      <trkpt lat="45.67695" lon="5.67836">
        <ele>231</ele>
        <time>2019-08-24T09:23:16.609Z</time>
      </trkpt>
      <trkpt lat="45.67693" lon="5.67829">
        <ele>231</ele>
        <time>2019-08-24T09:23:21.604Z</time>
      </trkpt>
      <trkpt lat="45.6769" lon="5.67822">
        <ele>231</ele>
        <time>2019-08-24T09:23:26.605Z</time>
      </trkpt>
      <trkpt lat="45.67687" lon="5.67813">
        <ele>231</ele>
        <time>2019-08-24T09:23:31.599Z</time>
      </trkpt>
      <trkpt lat="45.67683" lon="5.67803">
        <ele>231</ele>
        <time>2019-08-24T09:23:36.604Z</time>
      </trkpt>
      <trkpt lat="45.67679" lon="5.67794">
        <ele>231</ele>
        <time>2019-08-24T09:23:41.605Z</time>
      </trkpt>
      <trkpt lat="45.67676" lon="5.67783">
        <ele>231</ele>
        <time>2019-08-24T09:23:46.602Z</time>
      </trkpt>
      <trkpt lat="45.67679" lon="5.67765">
        <ele>231</ele>
        <time>2019-08-24T09:24:13.589Z</time>
      </trkpt>
      <trkpt lat="45.6768" lon="5.67764">
        <ele>231</ele>
        <time>2019-08-24T09:24:17.608Z</time>
      </trkpt>
      <trkpt lat="45.6768" lon="5.67764">
        <ele>231</ele>
        <time>2019-08-24T09:24:22.604Z</time>
      </trkpt>
      <trkpt lat="45.6768" lon="5.67763">
        <ele>233</ele>
        <time>2019-08-24T09:24:27.603Z</time>
      </trkpt>
      <trkpt lat="45.67682" lon="5.67762">
        <ele>232</ele>
        <time>2019-08-24T09:24:32.591Z</time>
      </trkpt>
      <trkpt lat="45.67679" lon="5.67762">
        <ele>233</ele>
        <time>2019-08-24T09:25:30.595Z</time>
      </trkpt>
      <trkpt lat="45.6768" lon="5.67761">
        <ele>233</ele>
        <time>2019-08-24T09:25:35.573Z</time>
      </trkpt>
      <trkpt lat="45.67682" lon="5.67755">
        <ele>232</ele>
        <time>2019-08-24T09:25:39.602Z</time>
      </trkpt>
      <trkpt lat="45.67684" lon="5.67745">
        <ele>232</ele>
        <time>2019-08-24T09:25:44.604Z</time>
      </trkpt>
      <trkpt lat="45.67687" lon="5.67737">
        <ele>232</ele>
        <time>2019-08-24T09:25:49.599Z</time>
      </trkpt>
      <trkpt lat="45.67689" lon="5.67726">
        <ele>234</ele>
        <time>2019-08-24T09:25:54.604Z</time>
      </trkpt>
      <trkpt lat="45.67695" lon="5.67721">
        <ele>234</ele>
        <time>2019-08-24T09:25:59.599Z</time>
      </trkpt>
      <trkpt lat="45.67699" lon="5.67713">
        <ele>234</ele>
        <time>2019-08-24T09:26:04.599Z</time>
      </trkpt>
      <trkpt lat="45.67703" lon="5.67706">
        <ele>236</ele>
        <time>2019-08-24T09:26:09.607Z</time>
      </trkpt>
      <trkpt lat="45.67711" lon="5.67701">
        <ele>237</ele>
        <time>2019-08-24T09:26:14.593Z</time>
      </trkpt>
      <trkpt lat="45.67717" lon="5.67696">
        <ele>237</ele>
        <time>2019-08-24T09:26:19.621Z</time>
      </trkpt>
      <trkpt lat="45.67723" lon="5.67691">
        <ele>237</ele>
        <time>2019-08-24T09:26:24.603Z</time>
      </trkpt>
      <trkpt lat="45.67729" lon="5.67686">
        <ele>237</ele>
        <time>2019-08-24T09:26:28.603Z</time>
      </trkpt>
      <trkpt lat="45.67732" lon="5.67686">
        <ele>237</ele>
        <time>2019-08-24T09:26:33.602Z</time>
      </trkpt>
      <trkpt lat="45.67738" lon="5.67684">
        <ele>237</ele>
        <time>2019-08-24T09:26:37.603Z</time>
      </trkpt>
      <trkpt lat="45.67745" lon="5.67679">
        <ele>240</ele>
        <time>2019-08-24T09:26:42.601Z</time>
      </trkpt>
      <trkpt lat="45.67749" lon="5.67674">
        <ele>240</ele>
        <time>2019-08-24T09:26:46.613Z</time>
      </trkpt>
      <trkpt lat="45.67754" lon="5.67668">
        <ele>240</ele>
        <time>2019-08-24T09:26:51.594Z</time>
      </trkpt>
      <trkpt lat="45.67759" lon="5.6766">
        <ele>240</ele>
        <time>2019-08-24T09:26:56.614Z</time>
      </trkpt>
      <trkpt lat="45.67763" lon="5.67655">
        <ele>240</ele>
        <time>2019-08-24T09:27:01.605Z</time>
      </trkpt>
      <trkpt lat="45.6777" lon="5.67649">
        <ele>241</ele>
        <time>2019-08-24T09:27:05.611Z</time>
      </trkpt>
      <trkpt lat="45.67776" lon="5.67645">
        <ele>241</ele>
        <time>2019-08-24T09:27:09.613Z</time>
      </trkpt>
      <trkpt lat="45.67781" lon="5.67639">
        <ele>241</ele>
        <time>2019-08-24T09:27:14.609Z</time>
      </trkpt>
      <trkpt lat="45.67787" lon="5.67636">
        <ele>241</ele>
        <time>2019-08-24T09:27:19.600Z</time>
      </trkpt>
      <trkpt lat="45.67793" lon="5.67629">
        <ele>241</ele>
        <time>2019-08-24T09:27:24.596Z</time>
      </trkpt>
      <trkpt lat="45.67798" lon="5.67624">
        <ele>243</ele>
        <time>2019-08-24T09:27:28.610Z</time>
      </trkpt>
      <trkpt lat="45.67804" lon="5.67618">
        <ele>243</ele>
        <time>2019-08-24T09:27:33.607Z</time>
      </trkpt>
      <trkpt lat="45.67808" lon="5.67613">
        <ele>243</ele>
        <time>2019-08-24T09:27:38.608Z</time>
      </trkpt>
      <trkpt lat="45.67816" lon="5.67611">
        <ele>243</ele>
        <time>2019-08-24T09:27:43.603Z</time>
      </trkpt>
      <trkpt lat="45.67823" lon="5.67609">
        <ele>245</ele>
        <time>2019-08-24T09:27:47.598Z</time>
      </trkpt>
      <trkpt lat="45.67827" lon="5.67609">
        <ele>245</ele>
        <time>2019-08-24T09:27:51.604Z</time>
      </trkpt>
      <trkpt lat="45.6783" lon="5.67604">
        <ele>245</ele>
        <time>2019-08-24T09:27:55.613Z</time>
      </trkpt>
      <trkpt lat="45.67832" lon="5.67597">
        <ele>246</ele>
        <time>2019-08-24T09:28:00.593Z</time>
      </trkpt>
      <trkpt lat="45.67824" lon="5.67576">
        <ele>246</ele>
        <time>2019-08-24T09:28:18.603Z</time>
      </trkpt>
      <trkpt lat="45.67824" lon="5.67575">
        <ele>246</ele>
        <time>2019-08-24T09:28:23.607Z</time>
      </trkpt>
      <trkpt lat="45.67825" lon="5.67569">
        <ele>246</ele>
        <time>2019-08-24T09:28:28.607Z</time>
      </trkpt>
      <trkpt lat="45.67824" lon="5.67558">
        <ele>246</ele>
        <time>2019-08-24T09:28:33.598Z</time>
      </trkpt>
      <trkpt lat="45.67821" lon="5.67547">
        <ele>246</ele>
        <time>2019-08-24T09:28:38.602Z</time>
      </trkpt>
      <trkpt lat="45.6782" lon="5.67537">
        <ele>246</ele>
        <time>2019-08-24T09:28:43.603Z</time>
      </trkpt>
      <trkpt lat="45.67823" lon="5.67528">
        <ele>246</ele>
        <time>2019-08-24T09:28:48.613Z</time>
      </trkpt>
      <trkpt lat="45.67827" lon="5.67523">
        <ele>246</ele>
        <time>2019-08-24T09:28:52.598Z</time>
      </trkpt>
      <trkpt lat="45.67834" lon="5.67515">
        <ele>246</ele>
        <time>2019-08-24T09:28:57.600Z</time>
      </trkpt>
      <trkpt lat="45.67838" lon="5.6751">
        <ele>247</ele>
        <time>2019-08-24T09:29:01.609Z</time>
      </trkpt>
      <trkpt lat="45.67843" lon="5.67504">
        <ele>247</ele>
        <time>2019-08-24T09:29:06.610Z</time>
      </trkpt>
      <trkpt lat="45.67846" lon="5.67496">
        <ele>247</ele>
        <time>2019-08-24T09:29:11.611Z</time>
      </trkpt>
      <trkpt lat="45.67848" lon="5.67489">
        <ele>248</ele>
        <time>2019-08-24T09:29:15.614Z</time>
      </trkpt>
      <trkpt lat="45.6785" lon="5.67478">
        <ele>248</ele>
        <time>2019-08-24T09:29:20.602Z</time>
      </trkpt>
      <trkpt lat="45.67851" lon="5.6747">
        <ele>248</ele>
        <time>2019-08-24T09:29:24.608Z</time>
      </trkpt>
      <trkpt lat="45.67853" lon="5.6746">
        <ele>248</ele>
        <time>2019-08-24T09:29:29.610Z</time>
      </trkpt>
      <trkpt lat="45.67854" lon="5.67449">
        <ele>249</ele>
        <time>2019-08-24T09:29:34.606Z</time>
      </trkpt>
      <trkpt lat="45.67857" lon="5.67443">
        <ele>249</ele>
        <time>2019-08-24T09:29:38.616Z</time>
      </trkpt>
      <trkpt lat="45.6786" lon="5.67436">
        <ele>249</ele>
        <time>2019-08-24T09:29:43.615Z</time>
      </trkpt>
      <trkpt lat="45.67862" lon="5.67426">
        <ele>249</ele>
        <time>2019-08-24T09:29:48.610Z</time>
      </trkpt>
      <trkpt lat="45.67864" lon="5.67417">
        <ele>249</ele>
        <time>2019-08-24T09:29:53.604Z</time>
      </trkpt>
      <trkpt lat="45.67865" lon="5.67406">
        <ele>249</ele>
        <time>2019-08-24T09:29:58.610Z</time>
      </trkpt>
      <trkpt lat="45.67866" lon="5.67399">
        <ele>251</ele>
        <time>2019-08-24T09:30:02.609Z</time>
      </trkpt>
      <trkpt lat="45.67866" lon="5.67392">
        <ele>251</ele>
        <time>2019-08-24T09:30:07.602Z</time>
      </trkpt>
      <trkpt lat="45.67867" lon="5.67383">
        <ele>251</ele>
        <time>2019-08-24T09:30:12.601Z</time>
      </trkpt>
      <trkpt lat="45.67865" lon="5.67375">
        <ele>252</ele>
        <time>2019-08-24T09:30:16.611Z</time>
      </trkpt>
      <trkpt lat="45.67863" lon="5.67365">
        <ele>252</ele>
        <time>2019-08-24T09:30:21.602Z</time>
      </trkpt>
      <trkpt lat="45.67861" lon="5.67354">
        <ele>252</ele>
        <time>2019-08-24T09:30:26.597Z</time>
      </trkpt>
      <trkpt lat="45.67862" lon="5.67345">
        <ele>255</ele>
        <time>2019-08-24T09:30:31.604Z</time>
      </trkpt>
      <trkpt lat="45.67862" lon="5.67336">
        <ele>255</ele>
        <time>2019-08-24T09:30:36.598Z</time>
      </trkpt>
      <trkpt lat="45.67864" lon="5.67326">
        <ele>255</ele>
        <time>2019-08-24T09:30:41.605Z</time>
      </trkpt>
      <trkpt lat="45.67865" lon="5.67318">
        <ele>260</ele>
        <time>2019-08-24T09:30:46.615Z</time>
      </trkpt>
      <trkpt lat="45.67867" lon="5.67308">
        <ele>260</ele>
        <time>2019-08-24T09:30:51.614Z</time>
      </trkpt>
      <trkpt lat="45.6787" lon="5.673">
        <ele>260</ele>
        <time>2019-08-24T09:30:56.620Z</time>
      </trkpt>
      <trkpt lat="45.67873" lon="5.67292">
        <ele>260</ele>
        <time>2019-08-24T09:31:01.610Z</time>
      </trkpt>
      <trkpt lat="45.67876" lon="5.67284">
        <ele>263</ele>
        <time>2019-08-24T09:31:06.623Z</time>
      </trkpt>
      <trkpt lat="45.6788" lon="5.67277">
        <ele>263</ele>
        <time>2019-08-24T09:31:11.604Z</time>
      </trkpt>
      <trkpt lat="45.67885" lon="5.67271">
        <ele>263</ele>
        <time>2019-08-24T09:31:16.595Z</time>
      </trkpt>
      <trkpt lat="45.67889" lon="5.67266">
        <ele>263</ele>
        <time>2019-08-24T09:31:21.619Z</time>
      </trkpt>
      <trkpt lat="45.67895" lon="5.67265">
        <ele>263</ele>
        <time>2019-08-24T09:31:26.578Z</time>
      </trkpt>
      <trkpt lat="45.67901" lon="5.67262">
        <ele>268</ele>
        <time>2019-08-24T09:31:31.582Z</time>
      </trkpt>
      <trkpt lat="45.67908" lon="5.67255">
        <ele>264</ele>
        <time>2019-08-24T09:31:36.586Z</time>
      </trkpt>
      <trkpt lat="45.67913" lon="5.67248">
        <ele>264</ele>
        <time>2019-08-24T09:31:40.603Z</time>
      </trkpt>
      <trkpt lat="45.67915" lon="5.67242">
        <ele>264</ele>
        <time>2019-08-24T09:31:44.613Z</time>
      </trkpt>
      <trkpt lat="45.67922" lon="5.67236">
        <ele>267</ele>
        <time>2019-08-24T09:31:49.595Z</time>
      </trkpt>
      <trkpt lat="45.67926" lon="5.67228">
        <ele>267</ele>
        <time>2019-08-24T09:31:54.604Z</time>
      </trkpt>
      <trkpt lat="45.6793" lon="5.67221">
        <ele>267</ele>
        <time>2019-08-24T09:31:59.602Z</time>
      </trkpt>
      <trkpt lat="45.67932" lon="5.67211">
        <ele>266</ele>
        <time>2019-08-24T09:32:04.618Z</time>
      </trkpt>
      <trkpt lat="45.67934" lon="5.67203">
        <ele>272</ele>
        <time>2019-08-24T09:32:09.602Z</time>
      </trkpt>
      <trkpt lat="45.67938" lon="5.67199">
        <ele>272</ele>
        <time>2019-08-24T09:32:13.615Z</time>
      </trkpt>
      <trkpt lat="45.67945" lon="5.67192">
        <ele>272</ele>
        <time>2019-08-24T09:32:18.604Z</time>
      </trkpt>
      <trkpt lat="45.67951" lon="5.67186">
        <ele>272</ele>
        <time>2019-08-24T09:32:23.604Z</time>
      </trkpt>
      <trkpt lat="45.6796" lon="5.67184">
        <ele>272</ele>
        <time>2019-08-24T09:32:28.608Z</time>
      </trkpt>
      <trkpt lat="45.67967" lon="5.67183">
        <ele>272</ele>
        <time>2019-08-24T09:32:33.596Z</time>
      </trkpt>
      <trkpt lat="45.67973" lon="5.67182">
        <ele>272</ele>
        <time>2019-08-24T09:32:38.607Z</time>
      </trkpt>
      <trkpt lat="45.67976" lon="5.6718">
        <ele>284</ele>
        <time>2019-08-24T09:32:43.608Z</time>
      </trkpt>
      <trkpt lat="45.6798" lon="5.67178">
        <ele>284</ele>
        <time>2019-08-24T09:32:48.591Z</time>
      </trkpt>
      <trkpt lat="45.67986" lon="5.67174">
        <ele>284</ele>
        <time>2019-08-24T09:32:52.607Z</time>
      </trkpt>
      <trkpt lat="45.67994" lon="5.67174">
        <ele>284</ele>
        <time>2019-08-24T09:32:57.605Z</time>
      </trkpt>
      <trkpt lat="45.68" lon="5.67172">
        <ele>284</ele>
        <time>2019-08-24T09:33:02.589Z</time>
      </trkpt>
      <trkpt lat="45.68005" lon="5.67171">
        <ele>284</ele>
        <time>2019-08-24T09:33:07.603Z</time>
      </trkpt>
      <trkpt lat="45.68008" lon="5.67166">
        <ele>284</ele>
        <time>2019-08-24T09:33:12.621Z</time>
      </trkpt>
      <trkpt lat="45.68014" lon="5.67163">
        <ele>279</ele>
        <time>2019-08-24T09:33:17.607Z</time>
      </trkpt>
      <trkpt lat="45.6802" lon="5.6716">
        <ele>279</ele>
        <time>2019-08-24T09:33:22.590Z</time>
      </trkpt>
      <trkpt lat="45.68026" lon="5.67156">
        <ele>279</ele>
        <time>2019-08-24T09:33:27.610Z</time>
      </trkpt>
      <trkpt lat="45.68031" lon="5.67155">
        <ele>279</ele>
        <time>2019-08-24T09:33:32.610Z</time>
      </trkpt>
      <trkpt lat="45.68035" lon="5.67152">
        <ele>289</ele>
        <time>2019-08-24T09:33:36.615Z</time>
      </trkpt>
      <trkpt lat="45.68041" lon="5.67148">
        <ele>289</ele>
        <time>2019-08-24T09:33:41.604Z</time>
      </trkpt>
      <trkpt lat="45.68046" lon="5.67146">
        <ele>285</ele>
        <time>2019-08-24T09:33:45.614Z</time>
      </trkpt>
      <trkpt lat="45.68051" lon="5.6714">
        <ele>285</ele>
        <time>2019-08-24T09:33:50.599Z</time>
      </trkpt>
      <trkpt lat="45.68055" lon="5.67135">
        <ele>285</ele>
        <time>2019-08-24T09:33:54.614Z</time>
      </trkpt>
      <trkpt lat="45.68063" lon="5.67129">
        <ele>285</ele>
        <time>2019-08-24T09:33:59.604Z</time>
      </trkpt>
      <trkpt lat="45.68071" lon="5.67124">
        <ele>293</ele>
        <time>2019-08-24T09:34:04.616Z</time>
      </trkpt>
      <trkpt lat="45.68075" lon="5.67119">
        <ele>293</ele>
        <time>2019-08-24T09:34:09.601Z</time>
      </trkpt>
      <trkpt lat="45.68083" lon="5.67114">
        <ele>293</ele>
        <time>2019-08-24T09:34:14.613Z</time>
      </trkpt>
      <trkpt lat="45.68089" lon="5.6711">
        <ele>293</ele>
        <time>2019-08-24T09:34:19.602Z</time>
      </trkpt>
      <trkpt lat="45.68095" lon="5.67107">
        <ele>293</ele>
        <time>2019-08-24T09:34:24.598Z</time>
      </trkpt>
      <trkpt lat="45.68101" lon="5.67103">
        <ele>291</ele>
        <time>2019-08-24T09:34:29.608Z</time>
      </trkpt>
      <trkpt lat="45.68108" lon="5.67099">
        <ele>291</ele>
        <time>2019-08-24T09:34:34.611Z</time>
      </trkpt>
      <trkpt lat="45.68114" lon="5.67096">
        <ele>297</ele>
        <time>2019-08-24T09:34:39.603Z</time>
      </trkpt>
      <trkpt lat="45.6812" lon="5.67093">
        <ele>297</ele>
        <time>2019-08-24T09:34:44.625Z</time>
      </trkpt>
      <trkpt lat="45.68126" lon="5.67084">
        <ele>297</ele>
        <time>2019-08-24T09:34:49.603Z</time>
      </trkpt>
      <trkpt lat="45.68132" lon="5.67079">
        <ele>297</ele>
        <time>2019-08-24T09:34:54.605Z</time>
      </trkpt>
      <trkpt lat="45.68136" lon="5.67077">
        <ele>297</ele>
        <time>2019-08-24T09:34:59.612Z</time>
      </trkpt>
      <trkpt lat="45.68142" lon="5.67074">
        <ele>297</ele>
        <time>2019-08-24T09:35:04.605Z</time>
      </trkpt>
      <trkpt lat="45.68144" lon="5.67074">
        <ele>297</ele>
        <time>2019-08-24T09:35:09.599Z</time>
      </trkpt>
      <trkpt lat="45.68146" lon="5.67072">
        <ele>297</ele>
        <time>2019-08-24T09:35:14.611Z</time>
      </trkpt>
      <trkpt lat="45.68156" lon="5.67071">
        <ele>299</ele>
        <time>2019-08-24T09:35:19.608Z</time>
      </trkpt>
      <trkpt lat="45.68163" lon="5.6707">
        <ele>299</ele>
        <time>2019-08-24T09:35:24.594Z</time>
      </trkpt>
      <trkpt lat="45.68169" lon="5.67071">
        <ele>299</ele>
        <time>2019-08-24T09:35:28.609Z</time>
      </trkpt>
      <trkpt lat="45.68176" lon="5.67073">
        <ele>299</ele>
        <time>2019-08-24T09:35:33.606Z</time>
      </trkpt>
      <trkpt lat="45.68182" lon="5.67077">
        <ele>299</ele>
        <time>2019-08-24T09:35:38.601Z</time>
      </trkpt>
      <trkpt lat="45.68189" lon="5.67081">
        <ele>299</ele>
        <time>2019-08-24T09:35:43.605Z</time>
      </trkpt>
      <trkpt lat="45.68196" lon="5.67079">
        <ele>299</ele>
        <time>2019-08-24T09:35:48.605Z</time>
      </trkpt>
      <trkpt lat="45.68194" lon="5.6707">
        <ele>299</ele>
        <time>2019-08-24T09:35:53.598Z</time>
      </trkpt>
      <trkpt lat="45.68188" lon="5.6706">
        <ele>303</ele>
        <time>2019-08-24T09:35:58.595Z</time>
      </trkpt>
      <trkpt lat="45.68182" lon="5.67055">
        <ele>303</ele>
        <time>2019-08-24T09:36:03.607Z</time>
      </trkpt>
      <trkpt lat="45.68176" lon="5.6705">
        <ele>302</ele>
        <time>2019-08-24T09:36:08.599Z</time>
      </trkpt>
      <trkpt lat="45.6817" lon="5.67049">
        <ele>302</ele>
        <time>2019-08-24T09:36:13.609Z</time>
      </trkpt>
      <trkpt lat="45.68165" lon="5.67048">
        <ele>302</ele>
        <time>2019-08-24T09:36:18.606Z</time>
      </trkpt>
      <trkpt lat="45.68159" lon="5.67047">
        <ele>302</ele>
        <time>2019-08-24T09:36:23.598Z</time>
      </trkpt>
      <trkpt lat="45.68154" lon="5.67045">
        <ele>302</ele>
        <time>2019-08-24T09:36:28.602Z</time>
      </trkpt>
      <trkpt lat="45.68152" lon="5.67043">
        <ele>301</ele>
        <time>2019-08-24T09:36:33.608Z</time>
      </trkpt>
      <trkpt lat="45.68154" lon="5.67039">
        <ele>306</ele>
        <time>2019-08-24T09:36:38.613Z</time>
      </trkpt>
      <trkpt lat="45.68158" lon="5.67037">
        <ele>306</ele>
        <time>2019-08-24T09:36:43.600Z</time>
      </trkpt>
      <trkpt lat="45.68161" lon="5.67036">
        <ele>306</ele>
        <time>2019-08-24T09:36:47.586Z</time>
      </trkpt>
      <trkpt lat="45.68171" lon="5.67035">
        <ele>306</ele>
        <time>2019-08-24T09:36:52.602Z</time>
      </trkpt>
      <trkpt lat="45.68182" lon="5.67034">
        <ele>307</ele>
        <time>2019-08-24T09:36:57.605Z</time>
      </trkpt>
      <trkpt lat="45.68189" lon="5.67036">
        <ele>307</ele>
        <time>2019-08-24T09:37:02.594Z</time>
      </trkpt>
      <trkpt lat="45.68194" lon="5.67033">
        <ele>307</ele>
        <time>2019-08-24T09:37:07.599Z</time>
      </trkpt>
      <trkpt lat="45.682" lon="5.67034">
        <ele>307</ele>
        <time>2019-08-24T09:37:11.612Z</time>
      </trkpt>
      <trkpt lat="45.68207" lon="5.67037">
        <ele>307</ele>
        <time>2019-08-24T09:37:16.599Z</time>
      </trkpt>
      <trkpt lat="45.68213" lon="5.67039">
        <ele>310</ele>
        <time>2019-08-24T09:37:21.600Z</time>
      </trkpt>
      <trkpt lat="45.68218" lon="5.67043">
        <ele>305</ele>
        <time>2019-08-24T09:37:26.614Z</time>
      </trkpt>
      <trkpt lat="45.68222" lon="5.67049">
        <ele>305</ele>
        <time>2019-08-24T09:37:31.584Z</time>
      </trkpt>
      <trkpt lat="45.68227" lon="5.67055">
        <ele>305</ele>
        <time>2019-08-24T09:37:36.597Z</time>
      </trkpt>
      <trkpt lat="45.68229" lon="5.67062">
        <ele>305</ele>
        <time>2019-08-24T09:37:41.599Z</time>
      </trkpt>
      <trkpt lat="45.68232" lon="5.6707">
        <ele>301</ele>
        <time>2019-08-24T09:37:46.609Z</time>
      </trkpt>
      <trkpt lat="45.68234" lon="5.67077">
        <ele>301</ele>
        <time>2019-08-24T09:37:50.635Z</time>
      </trkpt>
      <trkpt lat="45.6824" lon="5.67081">
        <ele>305</ele>
        <time>2019-08-24T09:37:55.605Z</time>
      </trkpt>
      <trkpt lat="45.68245" lon="5.67075">
        <ele>305</ele>
        <time>2019-08-24T09:38:00.601Z</time>
      </trkpt>
      <trkpt lat="45.68245" lon="5.67068">
        <ele>310</ele>
        <time>2019-08-24T09:38:05.606Z</time>
      </trkpt>
      <trkpt lat="45.68243" lon="5.67059">
        <ele>310</ele>
        <time>2019-08-24T09:38:10.604Z</time>
      </trkpt>
      <trkpt lat="45.68241" lon="5.67048">
        <ele>310</ele>
        <time>2019-08-24T09:38:15.602Z</time>
      </trkpt>
      <trkpt lat="45.6824" lon="5.67043">
        <ele>310</ele>
        <time>2019-08-24T09:38:19.601Z</time>
      </trkpt>
      <trkpt lat="45.68241" lon="5.67037">
        <ele>316</ele>
        <time>2019-08-24T09:38:24.586Z</time>
      </trkpt>
      <trkpt lat="45.68242" lon="5.67036">
        <ele>316</ele>
        <time>2019-08-24T09:38:28.593Z</time>
      </trkpt>
      <trkpt lat="45.68244" lon="5.67031">
        <ele>316</ele>
        <time>2019-08-24T09:38:33.607Z</time>
      </trkpt>
      <trkpt lat="45.68249" lon="5.67028">
        <ele>316</ele>
        <time>2019-08-24T09:38:38.583Z</time>
      </trkpt>
      <trkpt lat="45.68251" lon="5.6702">
        <ele>316</ele>
        <time>2019-08-24T09:38:42.582Z</time>
      </trkpt>
      <trkpt lat="45.68256" lon="5.67014">
        <ele>316</ele>
        <time>2019-08-24T09:38:46.593Z</time>
      </trkpt>
      <trkpt lat="45.6826" lon="5.67007">
        <ele>323</ele>
        <time>2019-08-24T09:38:51.607Z</time>
      </trkpt>
      <trkpt lat="45.68264" lon="5.67001">
        <ele>329</ele>
        <time>2019-08-24T09:38:55.605Z</time>
      </trkpt>
      <trkpt lat="45.68266" lon="5.66992">
        <ele>329</ele>
        <time>2019-08-24T09:39:00.588Z</time>
      </trkpt>
      <trkpt lat="45.68266" lon="5.66982">
        <ele>334</ele>
        <time>2019-08-24T09:39:05.607Z</time>
      </trkpt>
      <trkpt lat="45.68266" lon="5.66973">
        <ele>334</ele>
        <time>2019-08-24T09:39:10.606Z</time>
      </trkpt>
      <trkpt lat="45.68267" lon="5.66962">
        <ele>334</ele>
        <time>2019-08-24T09:39:15.602Z</time>
      </trkpt>
      <trkpt lat="45.68272" lon="5.66957">
        <ele>337</ele>
        <time>2019-08-24T09:39:20.602Z</time>
      </trkpt>
      <trkpt lat="45.6828" lon="5.66955">
        <ele>337</ele>
        <time>2019-08-24T09:39:25.606Z</time>
      </trkpt>
      <trkpt lat="45.68279" lon="5.66947">
        <ele>337</ele>
        <time>2019-08-24T09:39:30.595Z</time>
      </trkpt>
      <trkpt lat="45.68278" lon="5.6694">
        <ele>337</ele>
        <time>2019-08-24T09:39:35.604Z</time>
      </trkpt>
      <trkpt lat="45.68278" lon="5.66934">
        <ele>337</ele>
        <time>2019-08-24T09:39:40.597Z</time>
      </trkpt>
      <trkpt lat="45.68281" lon="5.66917">
        <ele>340</ele>
        <time>2019-08-24T09:39:50.609Z</time>
      </trkpt>
      <trkpt lat="45.68281" lon="5.66914">
        <ele>340</ele>
        <time>2019-08-24T09:39:55.600Z</time>
      </trkpt>
      <trkpt lat="45.68281" lon="5.66914">
        <ele>340</ele>
        <time>2019-08-24T09:40:00.596Z</time>
      </trkpt>
      <trkpt lat="45.68281" lon="5.66913">
        <ele>340</ele>
        <time>2019-08-24T09:40:05.598Z</time>
      </trkpt>
      <trkpt lat="45.6828" lon="5.66902">
        <ele>346</ele>
        <time>2019-08-24T09:40:10.597Z</time>
      </trkpt>
      <trkpt lat="45.68282" lon="5.66894">
        <ele>346</ele>
        <time>2019-08-24T09:40:15.614Z</time>
      </trkpt>
      <trkpt lat="45.68284" lon="5.66885">
        <ele>346</ele>
        <time>2019-08-24T09:40:20.611Z</time>
      </trkpt>
      <trkpt lat="45.68286" lon="5.66876">
        <ele>346</ele>
        <time>2019-08-24T09:40:25.593Z</time>
      </trkpt>
      <trkpt lat="45.68287" lon="5.66868">
        <ele>354</ele>
        <time>2019-08-24T09:40:29.604Z</time>
      </trkpt>
      <trkpt lat="45.6829" lon="5.66861">
        <ele>354</ele>
        <time>2019-08-24T09:40:34.597Z</time>
      </trkpt>
      <trkpt lat="45.68294" lon="5.6686">
        <ele>354</ele>
        <time>2019-08-24T09:40:38.578Z</time>
      </trkpt>
      <trkpt lat="45.68299" lon="5.66856">
        <ele>354</ele>
        <time>2019-08-24T09:40:43.610Z</time>
      </trkpt>
      <trkpt lat="45.68304" lon="5.66851">
        <ele>354</ele>
        <time>2019-08-24T09:40:48.578Z</time>
      </trkpt>
      <trkpt lat="45.68309" lon="5.66842">
        <ele>359</ele>
        <time>2019-08-24T09:40:53.588Z</time>
      </trkpt>
      <trkpt lat="45.68314" lon="5.66836">
        <ele>359</ele>
        <time>2019-08-24T09:40:58.611Z</time>
      </trkpt>
      <trkpt lat="45.68317" lon="5.6683">
        <ele>359</ele>
        <time>2019-08-24T09:41:02.604Z</time>
      </trkpt>
      <trkpt lat="45.68318" lon="5.66827">
        <ele>359</ele>
        <time>2019-08-24T09:41:07.607Z</time>
      </trkpt>
      <trkpt lat="45.68324" lon="5.66823">
        <ele>356</ele>
        <time>2019-08-24T09:41:12.603Z</time>
      </trkpt>
      <trkpt lat="45.68328" lon="5.66817">
        <ele>361</ele>
        <time>2019-08-24T09:41:17.607Z</time>
      </trkpt>
      <trkpt lat="45.68331" lon="5.66811">
        <ele>361</ele>
        <time>2019-08-24T09:41:22.616Z</time>
      </trkpt>
      <trkpt lat="45.68334" lon="5.66803">
        <ele>361</ele>
        <time>2019-08-24T09:41:27.595Z</time>
      </trkpt>
      <trkpt lat="45.6834" lon="5.66793">
        <ele>361</ele>
        <time>2019-08-24T09:41:32.600Z</time>
      </trkpt>
      <trkpt lat="45.68345" lon="5.66784">
        <ele>369</ele>
        <time>2019-08-24T09:41:37.600Z</time>
      </trkpt>
      <trkpt lat="45.68346" lon="5.66781">
        <ele>369</ele>
        <time>2019-08-24T09:41:42.582Z</time>
      </trkpt>
      <trkpt lat="45.6835" lon="5.66782">
        <ele>364</ele>
        <time>2019-08-24T09:41:46.604Z</time>
      </trkpt>
      <trkpt lat="45.68356" lon="5.66781">
        <ele>364</ele>
        <time>2019-08-24T09:41:51.607Z</time>
      </trkpt>
      <trkpt lat="45.68364" lon="5.66779">
        <ele>364</ele>
        <time>2019-08-24T09:41:56.603Z</time>
      </trkpt>
      <trkpt lat="45.68367" lon="5.66779">
        <ele>364</ele>
        <time>2019-08-24T09:42:00.606Z</time>
      </trkpt>
      <trkpt lat="45.68373" lon="5.66778">
        <ele>364</ele>
        <time>2019-08-24T09:42:05.607Z</time>
      </trkpt>
      <trkpt lat="45.68377" lon="5.66776">
        <ele>360</ele>
        <time>2019-08-24T09:42:09.603Z</time>
      </trkpt>
      <trkpt lat="45.68382" lon="5.66774">
        <ele>360</ele>
        <time>2019-08-24T09:42:14.590Z</time>
      </trkpt>
      <trkpt lat="45.6839" lon="5.66772">
        <ele>360</ele>
        <time>2019-08-24T09:42:19.619Z</time>
      </trkpt>
      <trkpt lat="45.68398" lon="5.66771">
        <ele>360</ele>
        <time>2019-08-24T09:42:24.601Z</time>
      </trkpt>
      <trkpt lat="45.68404" lon="5.6677">
        <ele>358</ele>
        <time>2019-08-24T09:42:29.601Z</time>
      </trkpt>
      <trkpt lat="45.68411" lon="5.66768">
        <ele>358</ele>
        <time>2019-08-24T09:42:34.604Z</time>
      </trkpt>
      <trkpt lat="45.68417" lon="5.66767">
        <ele>358</ele>
        <time>2019-08-24T09:42:38.598Z</time>
      </trkpt>
      <trkpt lat="45.68423" lon="5.66766">
        <ele>358</ele>
        <time>2019-08-24T09:42:43.602Z</time>
      </trkpt>
      <trkpt lat="45.68429" lon="5.66766">
        <ele>358</ele>
        <time>2019-08-24T09:42:48.607Z</time>
      </trkpt>
      <trkpt lat="45.68435" lon="5.66765">
        <ele>359</ele>
        <time>2019-08-24T09:42:53.604Z</time>
      </trkpt>
      <trkpt lat="45.6844" lon="5.66762">
        <ele>371</ele>
        <time>2019-08-24T09:42:57.610Z</time>
      </trkpt>
      <trkpt lat="45.68446" lon="5.6676">
        <ele>371</ele>
        <time>2019-08-24T09:43:02.597Z</time>
      </trkpt>
      <trkpt lat="45.6845" lon="5.6676">
        <ele>371</ele>
        <time>2019-08-24T09:43:07.622Z</time>
      </trkpt>
      <trkpt lat="45.68457" lon="5.66759">
        <ele>371</ele>
        <time>2019-08-24T09:43:12.611Z</time>
      </trkpt>
      <trkpt lat="45.68462" lon="5.66759">
        <ele>371</ele>
        <time>2019-08-24T09:43:17.600Z</time>
      </trkpt>
      <trkpt lat="45.68468" lon="5.66758">
        <ele>371</ele>
        <time>2019-08-24T09:43:22.601Z</time>
      </trkpt>
      <trkpt lat="45.68472" lon="5.66756">
        <ele>371</ele>
        <time>2019-08-24T09:43:27.601Z</time>
      </trkpt>
      <trkpt lat="45.68477" lon="5.66754">
        <ele>371</ele>
        <time>2019-08-24T09:43:31.602Z</time>
      </trkpt>
      <trkpt lat="45.68482" lon="5.66753">
        <ele>371</ele>
        <time>2019-08-24T09:43:36.607Z</time>
      </trkpt>
      <trkpt lat="45.68488" lon="5.66751">
        <ele>371</ele>
        <time>2019-08-24T09:43:41.613Z</time>
      </trkpt>
      <trkpt lat="45.68494" lon="5.66748">
        <ele>371</ele>
        <time>2019-08-24T09:43:46.590Z</time>
      </trkpt>
      <trkpt lat="45.68498" lon="5.66748">
        <ele>371</ele>
        <time>2019-08-24T09:43:50.603Z</time>
      </trkpt>
      <trkpt lat="45.68502" lon="5.66748">
        <ele>371</ele>
        <time>2019-08-24T09:43:54.618Z</time>
      </trkpt>
      <trkpt lat="45.68509" lon="5.66745">
        <ele>371</ele>
        <time>2019-08-24T09:43:59.595Z</time>
      </trkpt>
      <trkpt lat="45.68515" lon="5.66742">
        <ele>366</ele>
        <time>2019-08-24T09:44:04.600Z</time>
      </trkpt>
      <trkpt lat="45.68523" lon="5.66738">
        <ele>366</ele>
        <time>2019-08-24T09:44:09.596Z</time>
      </trkpt>
      <trkpt lat="45.68529" lon="5.66737">
        <ele>366</ele>
        <time>2019-08-24T09:44:13.600Z</time>
      </trkpt>
      <trkpt lat="45.68532" lon="5.66734">
        <ele>374</ele>
        <time>2019-08-24T09:44:17.612Z</time>
      </trkpt>
      <trkpt lat="45.68536" lon="5.66731">
        <ele>374</ele>
        <time>2019-08-24T09:44:22.598Z</time>
      </trkpt>
      <trkpt lat="45.68539" lon="5.6673">
        <ele>374</ele>
        <time>2019-08-24T09:44:26.627Z</time>
      </trkpt>
      <trkpt lat="45.68543" lon="5.66728">
        <ele>370</ele>
        <time>2019-08-24T09:44:31.572Z</time>
      </trkpt>
      <trkpt lat="45.68548" lon="5.66726">
        <ele>370</ele>
        <time>2019-08-24T09:44:35.585Z</time>
      </trkpt>
      <trkpt lat="45.68552" lon="5.66723">
        <ele>370</ele>
        <time>2019-08-24T09:44:39.605Z</time>
      </trkpt>
      <trkpt lat="45.68558" lon="5.66721">
        <ele>370</ele>
        <time>2019-08-24T09:44:44.616Z</time>
      </trkpt>
      <trkpt lat="45.68562" lon="5.66717">
        <ele>370</ele>
        <time>2019-08-24T09:44:49.623Z</time>
      </trkpt>
      <trkpt lat="45.68568" lon="5.66713">
        <ele>370</ele>
        <time>2019-08-24T09:44:54.616Z</time>
      </trkpt>
      <trkpt lat="45.68579" lon="5.6671">
        <ele>363</ele>
        <time>2019-08-24T09:44:59.597Z</time>
      </trkpt>
      <trkpt lat="45.68586" lon="5.66709">
        <ele>363</ele>
        <time>2019-08-24T09:45:03.624Z</time>
      </trkpt>
      <trkpt lat="45.68594" lon="5.66708">
        <ele>363</ele>
        <time>2019-08-24T09:45:08.620Z</time>
      </trkpt>
      <trkpt lat="45.686" lon="5.66706">
        <ele>364</ele>
        <time>2019-08-24T09:45:13.617Z</time>
      </trkpt>
      <trkpt lat="45.68608" lon="5.667">
        <ele>364</ele>
        <time>2019-08-24T09:45:18.609Z</time>
      </trkpt>
      <trkpt lat="45.68611" lon="5.66692">
        <ele>364</ele>
        <time>2019-08-24T09:45:23.612Z</time>
      </trkpt>
      <trkpt lat="45.68612" lon="5.66685">
        <ele>364</ele>
        <time>2019-08-24T09:45:28.601Z</time>
      </trkpt>
      <trkpt lat="45.68612" lon="5.66679">
        <ele>368</ele>
        <time>2019-08-24T09:45:33.598Z</time>
      </trkpt>
      <trkpt lat="45.6861" lon="5.66675">
        <ele>368</ele>
        <time>2019-08-24T09:45:38.590Z</time>
      </trkpt>
      <trkpt lat="45.68611" lon="5.6667">
        <ele>368</ele>
        <time>2019-08-24T09:45:42.606Z</time>
      </trkpt>
      <trkpt lat="45.68609" lon="5.66662">
        <ele>368</ele>
        <time>2019-08-24T09:45:47.617Z</time>
      </trkpt>
      <trkpt lat="45.68609" lon="5.66657">
        <ele>368</ele>
        <time>2019-08-24T09:45:51.630Z</time>
      </trkpt>
      <trkpt lat="45.68607" lon="5.6665">
        <ele>370</ele>
        <time>2019-08-24T09:45:55.632Z</time>
      </trkpt>
      <trkpt lat="45.68604" lon="5.66639">
        <ele>370</ele>
        <time>2019-08-24T09:46:00.604Z</time>
      </trkpt>
      <trkpt lat="45.68601" lon="5.66632">
        <ele>370</ele>
        <time>2019-08-24T09:46:04.612Z</time>
      </trkpt>
      <trkpt lat="45.686" lon="5.66624">
        <ele>371</ele>
        <time>2019-08-24T09:46:09.624Z</time>
      </trkpt>
      <trkpt lat="45.686" lon="5.66617">
        <ele>371</ele>
        <time>2019-08-24T09:46:14.606Z</time>
      </trkpt>
      <trkpt lat="45.68599" lon="5.66611">
        <ele>371</ele>
        <time>2019-08-24T09:46:18.599Z</time>
      </trkpt>
      <trkpt lat="45.68598" lon="5.66606">
        <ele>371</ele>
        <time>2019-08-24T09:46:23.604Z</time>
      </trkpt>
      <trkpt lat="45.68596" lon="5.66597">
        <ele>373</ele>
        <time>2019-08-24T09:46:28.608Z</time>
      </trkpt>
      <trkpt lat="45.68594" lon="5.66585">
        <ele>373</ele>
        <time>2019-08-24T09:46:33.615Z</time>
      </trkpt>
      <trkpt lat="45.68592" lon="5.66576">
        <ele>373</ele>
        <time>2019-08-24T09:46:38.594Z</time>
      </trkpt>
      <trkpt lat="45.68591" lon="5.6657">
        <ele>373</ele>
        <time>2019-08-24T09:46:42.608Z</time>
      </trkpt>
      <trkpt lat="45.68592" lon="5.66563">
        <ele>373</ele>
        <time>2019-08-24T09:46:47.603Z</time>
      </trkpt>
      <trkpt lat="45.68593" lon="5.66555">
        <ele>373</ele>
        <time>2019-08-24T09:46:52.601Z</time>
      </trkpt>
      <trkpt lat="45.68593" lon="5.66552">
        <ele>373</ele>
        <time>2019-08-24T09:46:56.608Z</time>
      </trkpt>
      <trkpt lat="45.68593" lon="5.66544">
        <ele>373</ele>
        <time>2019-08-24T09:47:01.597Z</time>
      </trkpt>
      <trkpt lat="45.68594" lon="5.66537">
        <ele>372</ele>
        <time>2019-08-24T09:47:05.607Z</time>
      </trkpt>
      <trkpt lat="45.68593" lon="5.66529">
        <ele>372</ele>
        <time>2019-08-24T09:47:09.615Z</time>
      </trkpt>
      <trkpt lat="45.68589" lon="5.66518">
        <ele>372</ele>
        <time>2019-08-24T09:47:14.602Z</time>
      </trkpt>
      <trkpt lat="45.68587" lon="5.66511">
        <ele>374</ele>
        <time>2019-08-24T09:47:19.612Z</time>
      </trkpt>
      <trkpt lat="45.68586" lon="5.66503">
        <ele>374</ele>
        <time>2019-08-24T09:47:24.616Z</time>
      </trkpt>
      <trkpt lat="45.68586" lon="5.66496">
        <ele>374</ele>
        <time>2019-08-24T09:47:29.601Z</time>
      </trkpt>
      <trkpt lat="45.68583" lon="5.66485">
        <ele>375</ele>
        <time>2019-08-24T09:47:33.607Z</time>
      </trkpt>
      <trkpt lat="45.6858" lon="5.66471">
        <ele>375</ele>
        <time>2019-08-24T09:47:38.601Z</time>
      </trkpt>
      <trkpt lat="45.68581" lon="5.66467">
        <ele>375</ele>
        <time>2019-08-24T09:47:42.623Z</time>
      </trkpt>
      <trkpt lat="45.68579" lon="5.66463">
        <ele>375</ele>
        <time>2019-08-24T09:47:47.608Z</time>
      </trkpt>
      <trkpt lat="45.68581" lon="5.66459">
        <ele>375</ele>
        <time>2019-08-24T09:47:51.614Z</time>
      </trkpt>
      <trkpt lat="45.6858" lon="5.66454">
        <ele>374</ele>
        <time>2019-08-24T09:47:56.611Z</time>
      </trkpt>
      <trkpt lat="45.68578" lon="5.66451">
        <ele>374</ele>
        <time>2019-08-24T09:48:01.599Z</time>
      </trkpt>
      <trkpt lat="45.68578" lon="5.6645">
        <ele>374</ele>
        <time>2019-08-24T09:48:06.605Z</time>
      </trkpt>
      <trkpt lat="45.68577" lon="5.66441">
        <ele>374</ele>
        <time>2019-08-24T09:48:26.603Z</time>
      </trkpt>
      <trkpt lat="45.68576" lon="5.66439">
        <ele>374</ele>
        <time>2019-08-24T09:48:31.620Z</time>
      </trkpt>
      <trkpt lat="45.68575" lon="5.66434">
        <ele>374</ele>
        <time>2019-08-24T09:48:35.599Z</time>
      </trkpt>
      <trkpt lat="45.68576" lon="5.66431">
        <ele>374</ele>
        <time>2019-08-24T09:48:40.612Z</time>
      </trkpt>
      <trkpt lat="45.68573" lon="5.66423">
        <ele>373</ele>
        <time>2019-08-24T09:48:45.599Z</time>
      </trkpt>
      <trkpt lat="45.68569" lon="5.66415">
        <ele>372</ele>
        <time>2019-08-24T09:48:50.605Z</time>
      </trkpt>
      <trkpt lat="45.68564" lon="5.66413">
        <ele>372</ele>
        <time>2019-08-24T09:48:54.616Z</time>
      </trkpt>
      <trkpt lat="45.68558" lon="5.66409">
        <ele>372</ele>
        <time>2019-08-24T09:48:59.601Z</time>
      </trkpt>
      <trkpt lat="45.6855" lon="5.6641">
        <ele>372</ele>
        <time>2019-08-24T09:49:05.587Z</time>
      </trkpt>
      <trkpt lat="45.68544" lon="5.66408">
        <ele>372</ele>
        <time>2019-08-24T09:49:09.590Z</time>
      </trkpt>
      <trkpt lat="45.68538" lon="5.66408">
        <ele>373</ele>
        <time>2019-08-24T09:49:14.589Z</time>
      </trkpt>
      <trkpt lat="45.6853" lon="5.66404">
        <ele>373</ele>
        <time>2019-08-24T09:49:19.586Z</time>
      </trkpt>
      <trkpt lat="45.68523" lon="5.66401">
        <ele>370</ele>
        <time>2019-08-24T09:49:24.620Z</time>
      </trkpt>
      <trkpt lat="45.68516" lon="5.66396">
        <ele>370</ele>
        <time>2019-08-24T09:49:29.601Z</time>
      </trkpt>
      <trkpt lat="45.68512" lon="5.66393">
        <ele>373</ele>
        <time>2019-08-24T09:49:33.607Z</time>
      </trkpt>
      <trkpt lat="45.68509" lon="5.6639">
        <ele>373</ele>
        <time>2019-08-24T09:49:38.597Z</time>
      </trkpt>
      <trkpt lat="45.68508" lon="5.66389">
        <ele>373</ele>
        <time>2019-08-24T09:49:43.595Z</time>
      </trkpt>
      <trkpt lat="45.68508" lon="5.66388">
        <ele>373</ele>
        <time>2019-08-24T09:49:47.608Z</time>
      </trkpt>
      <trkpt lat="45.68508" lon="5.66387">
        <ele>373</ele>
        <time>2019-08-24T09:49:52.609Z</time>
      </trkpt>
      <trkpt lat="45.68504" lon="5.66381">
        <ele>373</ele>
        <time>2019-08-24T09:49:57.624Z</time>
      </trkpt>
      <trkpt lat="45.68496" lon="5.66381">
        <ele>373</ele>
        <time>2019-08-24T09:50:02.606Z</time>
      </trkpt>
      <trkpt lat="45.68493" lon="5.66378">
        <ele>373</ele>
        <time>2019-08-24T09:50:06.614Z</time>
      </trkpt>
      <trkpt lat="45.68488" lon="5.66369">
        <ele>367</ele>
        <time>2019-08-24T09:50:11.600Z</time>
      </trkpt>
      <trkpt lat="45.68484" lon="5.66361">
        <ele>375</ele>
        <time>2019-08-24T09:50:15.591Z</time>
      </trkpt>
      <trkpt lat="45.68479" lon="5.66354">
        <ele>375</ele>
        <time>2019-08-24T09:50:20.601Z</time>
      </trkpt>
      <trkpt lat="45.68476" lon="5.66347">
        <ele>370</ele>
        <time>2019-08-24T09:50:25.612Z</time>
      </trkpt>
      <trkpt lat="45.68472" lon="5.66338">
        <ele>370</ele>
        <time>2019-08-24T09:50:30.607Z</time>
      </trkpt>
      <trkpt lat="45.68469" lon="5.66328">
        <ele>370</ele>
        <time>2019-08-24T09:50:35.615Z</time>
      </trkpt>
      <trkpt lat="45.68465" lon="5.66317">
        <ele>367</ele>
        <time>2019-08-24T09:50:40.597Z</time>
      </trkpt>
      <trkpt lat="45.68461" lon="5.66308">
        <ele>367</ele>
        <time>2019-08-24T09:50:45.606Z</time>
      </trkpt>
      <trkpt lat="45.6846" lon="5.66301">
        <ele>367</ele>
        <time>2019-08-24T09:50:50.596Z</time>
      </trkpt>
      <trkpt lat="45.68462" lon="5.66293">
        <ele>367</ele>
        <time>2019-08-24T09:50:55.595Z</time>
      </trkpt>
      <trkpt lat="45.68462" lon="5.66283">
        <ele>365</ele>
        <time>2019-08-24T09:50:59.607Z</time>
      </trkpt>
      <trkpt lat="45.68461" lon="5.66274">
        <ele>365</ele>
        <time>2019-08-24T09:51:03.600Z</time>
      </trkpt>
      <trkpt lat="45.6846" lon="5.66265">
        <ele>365</ele>
        <time>2019-08-24T09:51:08.604Z</time>
      </trkpt>
      <trkpt lat="45.68456" lon="5.66255">
        <ele>380</ele>
        <time>2019-08-24T09:51:13.612Z</time>
      </trkpt>
      <trkpt lat="45.68455" lon="5.66246">
        <ele>380</ele>
        <time>2019-08-24T09:51:18.617Z</time>
      </trkpt>
      <trkpt lat="45.68454" lon="5.66238">
        <ele>380</ele>
        <time>2019-08-24T09:51:23.601Z</time>
      </trkpt>
      <trkpt lat="45.68454" lon="5.66231">
        <ele>379</ele>
        <time>2019-08-24T09:51:27.610Z</time>
      </trkpt>
      <trkpt lat="45.68453" lon="5.6622">
        <ele>379</ele>
        <time>2019-08-24T09:51:32.601Z</time>
      </trkpt>
      <trkpt lat="45.68451" lon="5.66205">
        <ele>378</ele>
        <time>2019-08-24T09:51:37.583Z</time>
      </trkpt>
      <trkpt lat="45.68452" lon="5.66195">
        <ele>378</ele>
        <time>2019-08-24T09:51:41.603Z</time>
      </trkpt>
      <trkpt lat="45.6845" lon="5.66182">
        <ele>378</ele>
        <time>2019-08-24T09:51:46.583Z</time>
      </trkpt>
      <trkpt lat="45.68451" lon="5.66174">
        <ele>377</ele>
        <time>2019-08-24T09:51:50.605Z</time>
      </trkpt>
      <trkpt lat="45.68453" lon="5.66168">
        <ele>377</ele>
        <time>2019-08-24T09:51:54.601Z</time>
      </trkpt>
      <trkpt lat="45.68455" lon="5.66157">
        <ele>377</ele>
        <time>2019-08-24T09:51:59.586Z</time>
      </trkpt>
      <trkpt lat="45.68455" lon="5.66148">
        <ele>374</ele>
        <time>2019-08-24T09:52:03.612Z</time>
      </trkpt>
      <trkpt lat="45.68457" lon="5.66139">
        <ele>374</ele>
        <time>2019-08-24T09:52:08.613Z</time>
      </trkpt>
      <trkpt lat="45.6846" lon="5.66135">
        <ele>373</ele>
        <time>2019-08-24T09:52:13.613Z</time>
      </trkpt>
      <trkpt lat="45.68466" lon="5.66133">
        <ele>373</ele>
        <time>2019-08-24T09:52:17.606Z</time>
      </trkpt>
      <trkpt lat="45.68473" lon="5.66131">
        <ele>373</ele>
        <time>2019-08-24T09:52:22.588Z</time>
      </trkpt>
      <trkpt lat="45.68476" lon="5.6613">
        <ele>373</ele>
        <time>2019-08-24T09:52:26.605Z</time>
      </trkpt>
      <trkpt lat="45.68481" lon="5.66129">
        <ele>373</ele>
        <time>2019-08-24T09:52:31.605Z</time>
      </trkpt>
      <trkpt lat="45.68488" lon="5.66128">
        <ele>376</ele>
        <time>2019-08-24T09:52:36.598Z</time>
      </trkpt>
      <trkpt lat="45.68494" lon="5.66127">
        <ele>376</ele>
        <time>2019-08-24T09:52:40.611Z</time>
      </trkpt>
      <trkpt lat="45.685" lon="5.66127">
        <ele>376</ele>
        <time>2019-08-24T09:52:45.608Z</time>
      </trkpt>
      <trkpt lat="45.68506" lon="5.66126">
        <ele>376</ele>
        <time>2019-08-24T09:52:50.602Z</time>
      </trkpt>
      <trkpt lat="45.68509" lon="5.6612">
        <ele>380</ele>
        <time>2019-08-24T09:52:55.609Z</time>
      </trkpt>
      <trkpt lat="45.68516" lon="5.66117">
        <ele>384</ele>
        <time>2019-08-24T09:53:00.585Z</time>
      </trkpt>
      <trkpt lat="45.68526" lon="5.66114">
        <ele>384</ele>
        <time>2019-08-24T09:53:05.613Z</time>
      </trkpt>
      <trkpt lat="45.68532" lon="5.66109">
        <ele>384</ele>
        <time>2019-08-24T09:53:10.608Z</time>
      </trkpt>
      <trkpt lat="45.68536" lon="5.66106">
        <ele>384</ele>
        <time>2019-08-24T09:53:15.607Z</time>
      </trkpt>
      <trkpt lat="45.6854" lon="5.66103">
        <ele>384</ele>
        <time>2019-08-24T09:53:19.614Z</time>
      </trkpt>
      <trkpt lat="45.68545" lon="5.661">
        <ele>383</ele>
        <time>2019-08-24T09:53:24.607Z</time>
      </trkpt>
      <trkpt lat="45.68551" lon="5.66097">
        <ele>390</ele>
        <time>2019-08-24T09:53:29.611Z</time>
      </trkpt>
      <trkpt lat="45.68555" lon="5.66094">
        <ele>390</ele>
        <time>2019-08-24T09:53:33.603Z</time>
      </trkpt>
      <trkpt lat="45.68565" lon="5.66093">
        <ele>390</ele>
        <time>2019-08-24T09:53:38.605Z</time>
      </trkpt>
      <trkpt lat="45.68572" lon="5.66092">
        <ele>390</ele>
        <time>2019-08-24T09:53:43.591Z</time>
      </trkpt>
      <trkpt lat="45.68575" lon="5.6609">
        <ele>390</ele>
        <time>2019-08-24T09:53:47.607Z</time>
      </trkpt>
      <trkpt lat="45.68585" lon="5.66091">
        <ele>390</ele>
        <time>2019-08-24T09:53:52.600Z</time>
      </trkpt>
      <trkpt lat="45.68591" lon="5.66091">
        <ele>390</ele>
        <time>2019-08-24T09:53:56.616Z</time>
      </trkpt>
      <trkpt lat="45.68597" lon="5.66091">
        <ele>391</ele>
        <time>2019-08-24T09:54:01.578Z</time>
      </trkpt>
      <trkpt lat="45.68602" lon="5.66091">
        <ele>391</ele>
        <time>2019-08-24T09:54:05.594Z</time>
      </trkpt>
      <trkpt lat="45.68611" lon="5.66091">
        <ele>391</ele>
        <time>2019-08-24T09:54:10.605Z</time>
      </trkpt>
      <trkpt lat="45.68615" lon="5.66091">
        <ele>391</ele>
        <time>2019-08-24T09:54:15.604Z</time>
      </trkpt>
      <trkpt lat="45.68625" lon="5.66089">
        <ele>389</ele>
        <time>2019-08-24T09:54:20.593Z</time>
      </trkpt>
      <trkpt lat="45.68637" lon="5.66089">
        <ele>389</ele>
        <time>2019-08-24T09:54:25.603Z</time>
      </trkpt>
      <trkpt lat="45.68645" lon="5.66088">
        <ele>389</ele>
        <time>2019-08-24T09:54:30.605Z</time>
      </trkpt>
      <trkpt lat="45.68651" lon="5.66084">
        <ele>389</ele>
        <time>2019-08-24T09:54:35.591Z</time>
      </trkpt>
      <trkpt lat="45.68652" lon="5.66083">
        <ele>389</ele>
        <time>2019-08-24T09:54:40.602Z</time>
      </trkpt>
      <trkpt lat="45.68654" lon="5.66078">
        <ele>388</ele>
        <time>2019-08-24T09:54:44.621Z</time>
      </trkpt>
      <trkpt lat="45.6866" lon="5.66071">
        <ele>388</ele>
        <time>2019-08-24T09:54:49.601Z</time>
      </trkpt>
      <trkpt lat="45.68665" lon="5.66066">
        <ele>396</ele>
        <time>2019-08-24T09:54:53.597Z</time>
      </trkpt>
      <trkpt lat="45.68671" lon="5.66063">
        <ele>396</ele>
        <time>2019-08-24T09:54:58.607Z</time>
      </trkpt>
      <trkpt lat="45.68676" lon="5.66058">
        <ele>396</ele>
        <time>2019-08-24T09:55:03.599Z</time>
      </trkpt>
      <trkpt lat="45.68683" lon="5.66054">
        <ele>396</ele>
        <time>2019-08-24T09:55:08.599Z</time>
      </trkpt>
      <trkpt lat="45.68688" lon="5.66048">
        <ele>396</ele>
        <time>2019-08-24T09:55:13.591Z</time>
      </trkpt>
      <trkpt lat="45.68693" lon="5.66045">
        <ele>396</ele>
        <time>2019-08-24T09:55:17.599Z</time>
      </trkpt>
      <trkpt lat="45.68698" lon="5.66042">
        <ele>396</ele>
        <time>2019-08-24T09:55:22.603Z</time>
      </trkpt>
      <trkpt lat="45.68711" lon="5.66037">
        <ele>400</ele>
        <time>2019-08-24T09:55:27.585Z</time>
      </trkpt>
      <trkpt lat="45.68719" lon="5.66037">
        <ele>400</ele>
        <time>2019-08-24T09:55:32.607Z</time>
      </trkpt>
      <trkpt lat="45.68723" lon="5.66036">
        <ele>400</ele>
        <time>2019-08-24T09:55:36.612Z</time>
      </trkpt>
      <trkpt lat="45.68731" lon="5.66033">
        <ele>400</ele>
        <time>2019-08-24T09:55:41.579Z</time>
      </trkpt>
      <trkpt lat="45.68736" lon="5.66031">
        <ele>400</ele>
        <time>2019-08-24T09:55:45.586Z</time>
      </trkpt>
      <trkpt lat="45.68743" lon="5.66028">
        <ele>397</ele>
        <time>2019-08-24T09:55:50.609Z</time>
      </trkpt>
      <trkpt lat="45.68748" lon="5.66026">
        <ele>397</ele>
        <time>2019-08-24T09:55:55.588Z</time>
      </trkpt>
      <trkpt lat="45.68755" lon="5.66027">
        <ele>397</ele>
        <time>2019-08-24T09:55:59.589Z</time>
      </trkpt>
      <trkpt lat="45.68762" lon="5.66029">
        <ele>397</ele>
        <time>2019-08-24T09:56:04.615Z</time>
      </trkpt>
      <trkpt lat="45.68769" lon="5.6603">
        <ele>398</ele>
        <time>2019-08-24T09:56:09.600Z</time>
      </trkpt>
      <trkpt lat="45.68776" lon="5.66031">
        <ele>398</ele>
        <time>2019-08-24T09:56:14.600Z</time>
      </trkpt>
      <trkpt lat="45.68782" lon="5.6603">
        <ele>398</ele>
        <time>2019-08-24T09:56:19.602Z</time>
      </trkpt>
      <trkpt lat="45.68788" lon="5.6603">
        <ele>398</ele>
        <time>2019-08-24T09:56:24.607Z</time>
      </trkpt>
      <trkpt lat="45.68793" lon="5.66032">
        <ele>402</ele>
        <time>2019-08-24T09:56:29.613Z</time>
      </trkpt>
      <trkpt lat="45.68799" lon="5.66033">
        <ele>402</ele>
        <time>2019-08-24T09:56:34.620Z</time>
      </trkpt>
      <trkpt lat="45.68805" lon="5.66032">
        <ele>402</ele>
        <time>2019-08-24T09:56:39.595Z</time>
      </trkpt>
      <trkpt lat="45.68811" lon="5.66034">
        <ele>402</ele>
        <time>2019-08-24T09:56:44.615Z</time>
      </trkpt>
      <trkpt lat="45.68817" lon="5.66031">
        <ele>402</ele>
        <time>2019-08-24T09:56:49.602Z</time>
      </trkpt>
      <trkpt lat="45.68826" lon="5.66028">
        <ele>403</ele>
        <time>2019-08-24T09:56:54.600Z</time>
      </trkpt>
      <trkpt lat="45.6883" lon="5.66028">
        <ele>403</ele>
        <time>2019-08-24T09:56:59.584Z</time>
      </trkpt>
      <trkpt lat="45.68836" lon="5.66027">
        <ele>403</ele>
        <time>2019-08-24T09:57:04.601Z</time>
      </trkpt>
      <trkpt lat="45.68841" lon="5.66023">
        <ele>403</ele>
        <time>2019-08-24T09:57:09.582Z</time>
      </trkpt>
      <trkpt lat="45.68842" lon="5.66022">
        <ele>403</ele>
        <time>2019-08-24T09:57:13.586Z</time>
      </trkpt>
      <trkpt lat="45.68844" lon="5.66022">
        <ele>403</ele>
        <time>2019-08-24T09:57:17.596Z</time>
      </trkpt>
      <trkpt lat="45.68848" lon="5.66023">
        <ele>403</ele>
        <time>2019-08-24T09:57:21.613Z</time>
      </trkpt>
      <trkpt lat="45.6885" lon="5.66024">
        <ele>403</ele>
        <time>2019-08-24T09:57:25.598Z</time>
      </trkpt>
      <trkpt lat="45.68858" lon="5.66024">
        <ele>403</ele>
        <time>2019-08-24T09:57:30.611Z</time>
      </trkpt>
      <trkpt lat="45.68865" lon="5.66026">
        <ele>403</ele>
        <time>2019-08-24T09:57:35.604Z</time>
      </trkpt>
      <trkpt lat="45.68873" lon="5.66026">
        <ele>403</ele>
        <time>2019-08-24T09:57:40.605Z</time>
      </trkpt>
      <trkpt lat="45.68878" lon="5.66026">
        <ele>402</ele>
        <time>2019-08-24T09:57:45.603Z</time>
      </trkpt>
      <trkpt lat="45.68881" lon="5.66025">
        <ele>402</ele>
        <time>2019-08-24T09:57:49.612Z</time>
      </trkpt>
      <trkpt lat="45.68895" lon="5.66021">
        <ele>402</ele>
        <time>2019-08-24T09:57:54.599Z</time>
      </trkpt>
      <trkpt lat="45.68907" lon="5.66016">
        <ele>403</ele>
        <time>2019-08-24T09:57:59.600Z</time>
      </trkpt>
      <trkpt lat="45.68918" lon="5.66014">
        <ele>403</ele>
        <time>2019-08-24T09:58:04.606Z</time>
      </trkpt>
      <trkpt lat="45.68924" lon="5.66012">
        <ele>401</ele>
        <time>2019-08-24T09:58:09.593Z</time>
      </trkpt>
      <trkpt lat="45.68931" lon="5.6601">
        <ele>403</ele>
        <time>2019-08-24T09:58:14.619Z</time>
      </trkpt>
      <trkpt lat="45.68936" lon="5.6601">
        <ele>403</ele>
        <time>2019-08-24T09:58:18.605Z</time>
      </trkpt>
      <trkpt lat="45.6894" lon="5.66009">
        <ele>403</ele>
        <time>2019-08-24T09:58:23.607Z</time>
      </trkpt>
      <trkpt lat="45.68942" lon="5.66007">
        <ele>403</ele>
        <time>2019-08-24T09:58:27.602Z</time>
      </trkpt>
      <trkpt lat="45.68944" lon="5.66002">
        <ele>403</ele>
        <time>2019-08-24T09:58:32.607Z</time>
      </trkpt>
      <trkpt lat="45.68948" lon="5.66">
        <ele>403</ele>
        <time>2019-08-24T09:58:37.632Z</time>
      </trkpt>
      <trkpt lat="45.68951" lon="5.65999">
        <ele>403</ele>
        <time>2019-08-24T09:58:42.620Z</time>
      </trkpt>
      <trkpt lat="45.68955" lon="5.65996">
        <ele>403</ele>
        <time>2019-08-24T09:58:47.633Z</time>
      </trkpt>
      <trkpt lat="45.68963" lon="5.65998">
        <ele>405</ele>
        <time>2019-08-24T09:58:52.583Z</time>
      </trkpt>
      <trkpt lat="45.6897" lon="5.65995">
        <ele>405</ele>
        <time>2019-08-24T09:58:57.584Z</time>
      </trkpt>
      <trkpt lat="45.68979" lon="5.65995">
        <ele>405</ele>
        <time>2019-08-24T09:59:02.591Z</time>
      </trkpt>
      <trkpt lat="45.68987" lon="5.65997">
        <ele>405</ele>
        <time>2019-08-24T09:59:07.583Z</time>
      </trkpt>
      <trkpt lat="45.68993" lon="5.65998">
        <ele>405</ele>
        <time>2019-08-24T09:59:11.618Z</time>
      </trkpt>
      <trkpt lat="45.68999" lon="5.65998">
        <ele>405</ele>
        <time>2019-08-24T09:59:15.610Z</time>
      </trkpt>
      <trkpt lat="45.69007" lon="5.66">
        <ele>405</ele>
        <time>2019-08-24T09:59:20.599Z</time>
      </trkpt>
      <trkpt lat="45.69013" lon="5.65998">
        <ele>405</ele>
        <time>2019-08-24T09:59:25.581Z</time>
      </trkpt>
      <trkpt lat="45.69015" lon="5.65993">
        <ele>404</ele>
        <time>2019-08-24T09:59:30.616Z</time>
      </trkpt>
      <trkpt lat="45.69021" lon="5.65989">
        <ele>404</ele>
        <time>2019-08-24T09:59:35.599Z</time>
      </trkpt>
      <trkpt lat="45.69029" lon="5.65984">
        <ele>403</ele>
        <time>2019-08-24T09:59:40.617Z</time>
      </trkpt>
      <trkpt lat="45.69037" lon="5.6598">
        <ele>403</ele>
        <time>2019-08-24T09:59:45.608Z</time>
      </trkpt>
      <trkpt lat="45.69043" lon="5.65975">
        <ele>398</ele>
        <time>2019-08-24T09:59:50.597Z</time>
      </trkpt>
      <trkpt lat="45.69047" lon="5.65973">
        <ele>398</ele>
        <time>2019-08-24T09:59:54.609Z</time>
      </trkpt>
      <trkpt lat="45.69056" lon="5.6597">
        <ele>398</ele>
        <time>2019-08-24T09:59:59.600Z</time>
      </trkpt>
      <trkpt lat="45.69065" lon="5.65968">
        <ele>398</ele>
        <time>2019-08-24T10:00:04.620Z</time>
      </trkpt>
      <trkpt lat="45.69071" lon="5.65966">
        <ele>394</ele>
        <time>2019-08-24T10:00:09.597Z</time>
      </trkpt>
      <trkpt lat="45.69075" lon="5.65965">
        <ele>394</ele>
        <time>2019-08-24T10:00:14.595Z</time>
      </trkpt>
      <trkpt lat="45.69078" lon="5.65963">
        <ele>394</ele>
        <time>2019-08-24T10:00:19.618Z</time>
      </trkpt>
      <trkpt lat="45.69083" lon="5.65961">
        <ele>394</ele>
        <time>2019-08-24T10:00:24.608Z</time>
      </trkpt>
      <trkpt lat="45.69087" lon="5.65961">
        <ele>394</ele>
        <time>2019-08-24T10:00:28.603Z</time>
      </trkpt>
      <trkpt lat="45.69092" lon="5.65961">
        <ele>394</ele>
        <time>2019-08-24T10:00:33.597Z</time>
      </trkpt>
      <trkpt lat="45.69096" lon="5.65956">
        <ele>393</ele>
        <time>2019-08-24T10:00:38.616Z</time>
      </trkpt>
      <trkpt lat="45.691" lon="5.6595">
        <ele>389</ele>
        <time>2019-08-24T10:00:43.602Z</time>
      </trkpt>
      <trkpt lat="45.69106" lon="5.65944">
        <ele>389</ele>
        <time>2019-08-24T10:00:48.596Z</time>
      </trkpt>
      <trkpt lat="45.6911" lon="5.65942">
        <ele>389</ele>
        <time>2019-08-24T10:00:52.612Z</time>
      </trkpt>
      <trkpt lat="45.69118" lon="5.65938">
        <ele>389</ele>
        <time>2019-08-24T10:00:57.608Z</time>
      </trkpt>
      <trkpt lat="45.69127" lon="5.65935">
        <ele>382</ele>
        <time>2019-08-24T10:01:02.600Z</time>
      </trkpt>
      <trkpt lat="45.69133" lon="5.65933">
        <ele>382</ele>
        <time>2019-08-24T10:01:07.606Z</time>
      </trkpt>
      <trkpt lat="45.69139" lon="5.65931">
        <ele>382</ele>
        <time>2019-08-24T10:01:12.611Z</time>
      </trkpt>
      <trkpt lat="45.69141" lon="5.65931">
        <ele>382</ele>
        <time>2019-08-24T10:01:17.607Z</time>
      </trkpt>
      <trkpt lat="45.69142" lon="5.65931">
        <ele>382</ele>
        <time>2019-08-24T10:01:22.598Z</time>
      </trkpt>
      <trkpt lat="45.69145" lon="5.6593">
        <ele>384</ele>
        <time>2019-08-24T10:01:26.603Z</time>
      </trkpt>
      <trkpt lat="45.6915" lon="5.65928">
        <ele>384</ele>
        <time>2019-08-24T10:01:31.609Z</time>
      </trkpt>
      <trkpt lat="45.69153" lon="5.65926">
        <ele>374</ele>
        <time>2019-08-24T10:01:36.601Z</time>
      </trkpt>
      <trkpt lat="45.69157" lon="5.65925">
        <ele>374</ele>
        <time>2019-08-24T10:01:41.611Z</time>
      </trkpt>
      <trkpt lat="45.6916" lon="5.65923">
        <ele>374</ele>
        <time>2019-08-24T10:01:46.600Z</time>
      </trkpt>
      <trkpt lat="45.69162" lon="5.65922">
        <ele>374</ele>
        <time>2019-08-24T10:01:51.607Z</time>
      </trkpt>
      <trkpt lat="45.69162" lon="5.65921">
        <ele>374</ele>
        <time>2019-08-24T10:01:56.612Z</time>
      </trkpt>
      <trkpt lat="45.69163" lon="5.6592">
        <ele>374</ele>
        <time>2019-08-24T10:02:01.605Z</time>
      </trkpt>
      <trkpt lat="45.69163" lon="5.6592">
        <ele>374</ele>
        <time>2019-08-24T10:02:06.618Z</time>
      </trkpt>
      <trkpt lat="45.69164" lon="5.6592">
        <ele>374</ele>
        <time>2019-08-24T10:02:11.610Z</time>
      </trkpt>
      <trkpt lat="45.69172" lon="5.65918">
        <ele>374</ele>
        <time>2019-08-24T10:02:16.613Z</time>
      </trkpt>
      <trkpt lat="45.69178" lon="5.65916">
        <ele>374</ele>
        <time>2019-08-24T10:02:21.606Z</time>
      </trkpt>
      <trkpt lat="45.69185" lon="5.65914">
        <ele>363</ele>
        <time>2019-08-24T10:02:26.608Z</time>
      </trkpt>
      <trkpt lat="45.69188" lon="5.65914">
        <ele>363</ele>
        <time>2019-08-24T10:02:31.613Z</time>
      </trkpt>
      <trkpt lat="45.69194" lon="5.65911">
        <ele>363</ele>
        <time>2019-08-24T10:02:36.599Z</time>
      </trkpt>
      <trkpt lat="45.69204" lon="5.65908">
        <ele>363</ele>
        <time>2019-08-24T10:02:40.616Z</time>
      </trkpt>
      <trkpt lat="45.69206" lon="5.65908">
        <ele>363</ele>
        <time>2019-08-24T10:02:45.602Z</time>
      </trkpt>
      <trkpt lat="45.6921" lon="5.65904">
        <ele>361</ele>
        <time>2019-08-24T10:02:50.607Z</time>
      </trkpt>
      <trkpt lat="45.69216" lon="5.65897">
        <ele>361</ele>
        <time>2019-08-24T10:02:55.604Z</time>
      </trkpt>
      <trkpt lat="45.69225" lon="5.65891">
        <ele>361</ele>
        <time>2019-08-24T10:02:59.585Z</time>
      </trkpt>
      <trkpt lat="45.6923" lon="5.65884">
        <ele>361</ele>
        <time>2019-08-24T10:03:04.610Z</time>
      </trkpt>
      <trkpt lat="45.69238" lon="5.65875">
        <ele>352</ele>
        <time>2019-08-24T10:03:09.588Z</time>
      </trkpt>
      <trkpt lat="45.69243" lon="5.65871">
        <ele>353</ele>
        <time>2019-08-24T10:03:13.603Z</time>
      </trkpt>
      <trkpt lat="45.6925" lon="5.65866">
        <ele>353</ele>
        <time>2019-08-24T10:03:18.616Z</time>
      </trkpt>
      <trkpt lat="45.69257" lon="5.65862">
        <ele>353</ele>
        <time>2019-08-24T10:03:23.602Z</time>
      </trkpt>
      <trkpt lat="45.69261" lon="5.65858">
        <ele>353</ele>
        <time>2019-08-24T10:03:27.596Z</time>
      </trkpt>
      <trkpt lat="45.69265" lon="5.65855">
        <ele>346</ele>
        <time>2019-08-24T10:03:31.614Z</time>
      </trkpt>
      <trkpt lat="45.69271" lon="5.65843">
        <ele>351</ele>
        <time>2019-08-24T10:03:36.605Z</time>
      </trkpt>
      <trkpt lat="45.69286" lon="5.6583">
        <ele>351</ele>
        <time>2019-08-24T10:03:41.618Z</time>
      </trkpt>
      <trkpt lat="45.69302" lon="5.65817">
        <ele>353</ele>
        <time>2019-08-24T10:03:45.602Z</time>
      </trkpt>
      <trkpt lat="45.69323" lon="5.65804">
        <ele>348</ele>
        <time>2019-08-24T10:03:50.596Z</time>
      </trkpt>
      <trkpt lat="45.69345" lon="5.6579">
        <ele>352</ele>
        <time>2019-08-24T10:03:55.604Z</time>
      </trkpt>
      <trkpt lat="45.69368" lon="5.65767">
        <ele>350</ele>
        <time>2019-08-24T10:04:00.593Z</time>
      </trkpt>
      <trkpt lat="45.69381" lon="5.65755">
        <ele>350</ele>
        <time>2019-08-24T10:04:05.612Z</time>
      </trkpt>
      <trkpt lat="45.69389" lon="5.65748">
        <ele>350</ele>
        <time>2019-08-24T10:04:10.591Z</time>
      </trkpt>
      <trkpt lat="45.69395" lon="5.65741">
        <ele>350</ele>
        <time>2019-08-24T10:04:14.595Z</time>
      </trkpt>
      <trkpt lat="45.69403" lon="5.65732">
        <ele>349</ele>
        <time>2019-08-24T10:04:19.615Z</time>
      </trkpt>
      <trkpt lat="45.69414" lon="5.65724">
        <ele>349</ele>
        <time>2019-08-24T10:04:24.610Z</time>
      </trkpt>
      <trkpt lat="45.69422" lon="5.65716">
        <ele>349</ele>
        <time>2019-08-24T10:04:29.601Z</time>
      </trkpt>
      <trkpt lat="45.69431" lon="5.65709">
        <ele>349</ele>
        <time>2019-08-24T10:04:34.596Z</time>
      </trkpt>
      <trkpt lat="45.69438" lon="5.65701">
        <ele>350</ele>
        <time>2019-08-24T10:04:39.606Z</time>
      </trkpt>
      <trkpt lat="45.69444" lon="5.65693">
        <ele>350</ele>
        <time>2019-08-24T10:04:44.580Z</time>
      </trkpt>
      <trkpt lat="45.69449" lon="5.65687">
        <ele>350</ele>
        <time>2019-08-24T10:04:48.610Z</time>
      </trkpt>
      <trkpt lat="45.69453" lon="5.65683">
        <ele>350</ele>
        <time>2019-08-24T10:04:52.599Z</time>
      </trkpt>
      <trkpt lat="45.69459" lon="5.65677">
        <ele>352</ele>
        <time>2019-08-24T10:04:57.598Z</time>
      </trkpt>
      <trkpt lat="45.69463" lon="5.65672">
        <ele>352</ele>
        <time>2019-08-24T10:05:01.587Z</time>
      </trkpt>
      <trkpt lat="45.69468" lon="5.65667">
        <ele>352</ele>
        <time>2019-08-24T10:05:05.603Z</time>
      </trkpt>
      <trkpt lat="45.69474" lon="5.65664">
        <ele>352</ele>
        <time>2019-08-24T10:05:10.599Z</time>
      </trkpt>
      <trkpt lat="45.69479" lon="5.65668">
        <ele>352</ele>
        <time>2019-08-24T10:05:15.608Z</time>
      </trkpt>
      <trkpt lat="45.69482" lon="5.65667">
        <ele>352</ele>
        <time>2019-08-24T10:05:19.601Z</time>
      </trkpt>
      <trkpt lat="45.69488" lon="5.6567">
        <ele>355</ele>
        <time>2019-08-24T10:05:24.611Z</time>
      </trkpt>
      <trkpt lat="45.69494" lon="5.65674">
        <ele>355</ele>
        <time>2019-08-24T10:05:29.604Z</time>
      </trkpt>
      <trkpt lat="45.69501" lon="5.65678">
        <ele>355</ele>
        <time>2019-08-24T10:05:34.600Z</time>
      </trkpt>
      <trkpt lat="45.69505" lon="5.65681">
        <ele>355</ele>
        <time>2019-08-24T10:05:38.601Z</time>
      </trkpt>
      <trkpt lat="45.69511" lon="5.65684">
        <ele>355</ele>
        <time>2019-08-24T10:05:42.609Z</time>
      </trkpt>
      <trkpt lat="45.69518" lon="5.65686">
        <ele>359</ele>
        <time>2019-08-24T10:05:47.598Z</time>
      </trkpt>
      <trkpt lat="45.69525" lon="5.65687">
        <ele>359</ele>
        <time>2019-08-24T10:05:52.577Z</time>
      </trkpt>
      <trkpt lat="45.6953" lon="5.65686">
        <ele>359</ele>
        <time>2019-08-24T10:05:56.608Z</time>
      </trkpt>
      <trkpt lat="45.69537" lon="5.65684">
        <ele>359</ele>
        <time>2019-08-24T10:06:01.609Z</time>
      </trkpt>
      <trkpt lat="45.69543" lon="5.65684">
        <ele>362</ele>
        <time>2019-08-24T10:06:05.601Z</time>
      </trkpt>
      <trkpt lat="45.69547" lon="5.65681">
        <ele>362</ele>
        <time>2019-08-24T10:06:10.594Z</time>
      </trkpt>
      <trkpt lat="45.69552" lon="5.65678">
        <ele>359</ele>
        <time>2019-08-24T10:06:15.606Z</time>
      </trkpt>
      <trkpt lat="45.69557" lon="5.65677">
        <ele>359</ele>
        <time>2019-08-24T10:06:19.617Z</time>
      </trkpt>
      <trkpt lat="45.69565" lon="5.65676">
        <ele>359</ele>
        <time>2019-08-24T10:06:24.591Z</time>
      </trkpt>
      <trkpt lat="45.69568" lon="5.65675">
        <ele>359</ele>
        <time>2019-08-24T10:06:28.603Z</time>
      </trkpt>
      <trkpt lat="45.69573" lon="5.65673">
        <ele>362</ele>
        <time>2019-08-24T10:06:33.604Z</time>
      </trkpt>
      <trkpt lat="45.69578" lon="5.6567">
        <ele>362</ele>
        <time>2019-08-24T10:06:38.600Z</time>
      </trkpt>
      <trkpt lat="45.69583" lon="5.65666">
        <ele>362</ele>
        <time>2019-08-24T10:06:42.592Z</time>
      </trkpt>
      <trkpt lat="45.69591" lon="5.6566">
        <ele>362</ele>
        <time>2019-08-24T10:06:47.616Z</time>
      </trkpt>
      <trkpt lat="45.69597" lon="5.65656">
        <ele>368</ele>
        <time>2019-08-24T10:06:52.600Z</time>
      </trkpt>
      <trkpt lat="45.69604" lon="5.6565">
        <ele>364</ele>
        <time>2019-08-24T10:06:57.594Z</time>
      </trkpt>
      <trkpt lat="45.6961" lon="5.65645">
        <ele>364</ele>
        <time>2019-08-24T10:07:01.616Z</time>
      </trkpt>
      <trkpt lat="45.69614" lon="5.6564">
        <ele>364</ele>
        <time>2019-08-24T10:07:05.608Z</time>
      </trkpt>
      <trkpt lat="45.69618" lon="5.65635">
        <ele>364</ele>
        <time>2019-08-24T10:07:10.590Z</time>
      </trkpt>
      <trkpt lat="45.69623" lon="5.65632">
        <ele>364</ele>
        <time>2019-08-24T10:07:14.614Z</time>
      </trkpt>
      <trkpt lat="45.69632" lon="5.65626">
        <ele>370</ele>
        <time>2019-08-24T10:07:19.605Z</time>
      </trkpt>
      <trkpt lat="45.69637" lon="5.65623">
        <ele>364</ele>
        <time>2019-08-24T10:07:23.592Z</time>
      </trkpt>
      <trkpt lat="45.69641" lon="5.65621">
        <ele>364</ele>
        <time>2019-08-24T10:07:28.590Z</time>
      </trkpt>
      <trkpt lat="45.69645" lon="5.65618">
        <ele>364</ele>
        <time>2019-08-24T10:07:33.610Z</time>
      </trkpt>
      <trkpt lat="45.69648" lon="5.65615">
        <ele>364</ele>
        <time>2019-08-24T10:07:38.599Z</time>
      </trkpt>
      <trkpt lat="45.69653" lon="5.65613">
        <ele>370</ele>
        <time>2019-08-24T10:07:42.608Z</time>
      </trkpt>
      <trkpt lat="45.6966" lon="5.6561">
        <ele>370</ele>
        <time>2019-08-24T10:07:47.622Z</time>
      </trkpt>
      <trkpt lat="45.69665" lon="5.65606">
        <ele>370</ele>
        <time>2019-08-24T10:07:52.609Z</time>
      </trkpt>
      <trkpt lat="45.6967" lon="5.65603">
        <ele>370</ele>
        <time>2019-08-24T10:07:57.617Z</time>
      </trkpt>
      <trkpt lat="45.69676" lon="5.656">
        <ele>370</ele>
        <time>2019-08-24T10:08:02.596Z</time>
      </trkpt>
      <trkpt lat="45.6968" lon="5.65596">
        <ele>366</ele>
        <time>2019-08-24T10:08:07.603Z</time>
      </trkpt>
      <trkpt lat="45.69683" lon="5.65592">
        <ele>370</ele>
        <time>2019-08-24T10:08:11.619Z</time>
      </trkpt>
      <trkpt lat="45.69688" lon="5.65588">
        <ele>370</ele>
        <time>2019-08-24T10:08:16.590Z</time>
      </trkpt>
      <trkpt lat="45.69697" lon="5.65582">
        <ele>370</ele>
        <time>2019-08-24T10:08:21.601Z</time>
      </trkpt>
      <trkpt lat="45.69704" lon="5.6558">
        <ele>370</ele>
        <time>2019-08-24T10:08:26.598Z</time>
      </trkpt>
      <trkpt lat="45.69708" lon="5.65577">
        <ele>370</ele>
        <time>2019-08-24T10:08:31.612Z</time>
      </trkpt>
      <trkpt lat="45.69713" lon="5.65575">
        <ele>372</ele>
        <time>2019-08-24T10:08:36.590Z</time>
      </trkpt>
      <trkpt lat="45.69718" lon="5.65571">
        <ele>372</ele>
        <time>2019-08-24T10:08:40.620Z</time>
      </trkpt>
      <trkpt lat="45.69722" lon="5.65566">
        <ele>368</ele>
        <time>2019-08-24T10:08:45.608Z</time>
      </trkpt>
      <trkpt lat="45.69726" lon="5.65563">
        <ele>368</ele>
        <time>2019-08-24T10:08:49.600Z</time>
      </trkpt>
      <trkpt lat="45.69733" lon="5.65559">
        <ele>368</ele>
        <time>2019-08-24T10:08:54.595Z</time>
      </trkpt>
      <trkpt lat="45.69741" lon="5.65558">
        <ele>372</ele>
        <time>2019-08-24T10:08:59.613Z</time>
      </trkpt>
      <trkpt lat="45.69748" lon="5.65555">
        <ele>372</ele>
        <time>2019-08-24T10:09:04.602Z</time>
      </trkpt>
      <trkpt lat="45.69754" lon="5.65554">
        <ele>372</ele>
        <time>2019-08-24T10:09:09.598Z</time>
      </trkpt>
      <trkpt lat="45.69761" lon="5.65554">
        <ele>372</ele>
        <time>2019-08-24T10:09:14.586Z</time>
      </trkpt>
      <trkpt lat="45.69767" lon="5.65554">
        <ele>375</ele>
        <time>2019-08-24T10:09:18.609Z</time>
      </trkpt>
      <trkpt lat="45.69776" lon="5.65552">
        <ele>375</ele>
        <time>2019-08-24T10:09:23.606Z</time>
      </trkpt>
      <trkpt lat="45.69782" lon="5.65551">
        <ele>375</ele>
        <time>2019-08-24T10:09:28.585Z</time>
      </trkpt>
      <trkpt lat="45.69786" lon="5.6555">
        <ele>375</ele>
        <time>2019-08-24T10:09:33.604Z</time>
      </trkpt>
      <trkpt lat="45.69789" lon="5.65548">
        <ele>375</ele>
        <time>2019-08-24T10:09:37.607Z</time>
      </trkpt>
      <trkpt lat="45.69798" lon="5.65541">
        <ele>370</ele>
        <time>2019-08-24T10:09:42.603Z</time>
      </trkpt>
      <trkpt lat="45.69801" lon="5.65538">
        <ele>370</ele>
        <time>2019-08-24T10:09:47.617Z</time>
      </trkpt>
      <trkpt lat="45.69804" lon="5.65537">
        <ele>370</ele>
        <time>2019-08-24T10:09:51.604Z</time>
      </trkpt>
      <trkpt lat="45.69808" lon="5.65532">
        <ele>370</ele>
        <time>2019-08-24T10:09:55.622Z</time>
      </trkpt>
      <trkpt lat="45.69813" lon="5.65528">
        <ele>370</ele>
        <time>2019-08-24T10:09:59.614Z</time>
      </trkpt>
      <trkpt lat="45.69821" lon="5.65525">
        <ele>369</ele>
        <time>2019-08-24T10:10:03.623Z</time>
      </trkpt>
      <trkpt lat="45.6983" lon="5.65516">
        <ele>369</ele>
        <time>2019-08-24T10:10:08.599Z</time>
      </trkpt>
      <trkpt lat="45.69836" lon="5.65508">
        <ele>367</ele>
        <time>2019-08-24T10:10:13.614Z</time>
      </trkpt>
      <trkpt lat="45.69841" lon="5.65499">
        <ele>367</ele>
        <time>2019-08-24T10:10:18.605Z</time>
      </trkpt>
      <trkpt lat="45.69847" lon="5.65491">
        <ele>367</ele>
        <time>2019-08-24T10:10:23.614Z</time>
      </trkpt>
      <trkpt lat="45.6985" lon="5.65483">
        <ele>366</ele>
        <time>2019-08-24T10:10:28.594Z</time>
      </trkpt>
      <trkpt lat="45.69854" lon="5.65472">
        <ele>366</ele>
        <time>2019-08-24T10:10:33.614Z</time>
      </trkpt>
      <trkpt lat="45.69857" lon="5.65461">
        <ele>366</ele>
        <time>2019-08-24T10:10:38.598Z</time>
      </trkpt>
      <trkpt lat="45.6986" lon="5.65457">
        <ele>363</ele>
        <time>2019-08-24T10:10:42.605Z</time>
      </trkpt>
      <trkpt lat="45.69865" lon="5.65453">
        <ele>363</ele>
        <time>2019-08-24T10:10:47.595Z</time>
      </trkpt>
      <trkpt lat="45.69869" lon="5.65447">
        <ele>363</ele>
        <time>2019-08-24T10:10:51.632Z</time>
      </trkpt>
      <trkpt lat="45.69873" lon="5.6544">
        <ele>363</ele>
        <time>2019-08-24T10:10:55.631Z</time>
      </trkpt>
      <trkpt lat="45.69874" lon="5.65439">
        <ele>363</ele>
        <time>2019-08-24T10:11:00.614Z</time>
      </trkpt>
      <trkpt lat="45.69876" lon="5.65434">
        <ele>366</ele>
        <time>2019-08-24T10:11:05.629Z</time>
      </trkpt>
      <trkpt lat="45.69877" lon="5.6543">
        <ele>362</ele>
        <time>2019-08-24T10:11:10.586Z</time>
      </trkpt>
      <trkpt lat="45.6988" lon="5.65426">
        <ele>362</ele>
        <time>2019-08-24T10:11:14.606Z</time>
      </trkpt>
      <trkpt lat="45.69883" lon="5.65422">
        <ele>362</ele>
        <time>2019-08-24T10:11:19.618Z</time>
      </trkpt>
      <trkpt lat="45.69884" lon="5.65421">
        <ele>362</ele>
        <time>2019-08-24T10:11:23.622Z</time>
      </trkpt>
      <trkpt lat="45.69888" lon="5.65416">
        <ele>362</ele>
        <time>2019-08-24T10:11:28.604Z</time>
      </trkpt>
      <trkpt lat="45.6989" lon="5.65413">
        <ele>362</ele>
        <time>2019-08-24T10:11:32.608Z</time>
      </trkpt>
      <trkpt lat="45.69891" lon="5.65411">
        <ele>362</ele>
        <time>2019-08-24T10:11:37.614Z</time>
      </trkpt>
      <trkpt lat="45.69892" lon="5.65409">
        <ele>362</ele>
        <time>2019-08-24T10:11:52.588Z</time>
      </trkpt>
      <trkpt lat="45.69893" lon="5.65408">
        <ele>362</ele>
        <time>2019-08-24T10:11:56.623Z</time>
      </trkpt>
      <trkpt lat="45.69894" lon="5.65408">
        <ele>362</ele>
        <time>2019-08-24T10:12:00.608Z</time>
      </trkpt>
      <trkpt lat="45.69897" lon="5.65402">
        <ele>357</ele>
        <time>2019-08-24T10:12:05.633Z</time>
      </trkpt>
      <trkpt lat="45.69897" lon="5.65398">
        <ele>357</ele>
        <time>2019-08-24T10:12:10.593Z</time>
      </trkpt>
      <trkpt lat="45.69898" lon="5.65397">
        <ele>357</ele>
        <time>2019-08-24T10:12:20.603Z</time>
      </trkpt>
      <trkpt lat="45.69898" lon="5.65396">
        <ele>357</ele>
        <time>2019-08-24T10:12:25.600Z</time>
      </trkpt>
      <trkpt lat="45.69898" lon="5.65395">
        <ele>357</ele>
        <time>2019-08-24T10:12:29.629Z</time>
      </trkpt>
      <trkpt lat="45.69899" lon="5.65387">
        <ele>357</ele>
        <time>2019-08-24T10:12:34.615Z</time>
      </trkpt>
      <trkpt lat="45.699" lon="5.65381">
        <ele>357</ele>
        <time>2019-08-24T10:12:39.616Z</time>
      </trkpt>
      <trkpt lat="45.69904" lon="5.65374">
        <ele>350</ele>
        <time>2019-08-24T10:12:44.613Z</time>
      </trkpt>
      <trkpt lat="45.69907" lon="5.65369">
        <ele>350</ele>
        <time>2019-08-24T10:12:48.589Z</time>
      </trkpt>
      <trkpt lat="45.6991" lon="5.65364">
        <ele>350</ele>
        <time>2019-08-24T10:12:53.620Z</time>
      </trkpt>
      <trkpt lat="45.69913" lon="5.65359">
        <ele>350</ele>
        <time>2019-08-24T10:12:57.640Z</time>
      </trkpt>
      <trkpt lat="45.69917" lon="5.65355">
        <ele>350</ele>
        <time>2019-08-24T10:13:02.596Z</time>
      </trkpt>
      <trkpt lat="45.6992" lon="5.65348">
        <ele>350</ele>
        <time>2019-08-24T10:13:06.593Z</time>
      </trkpt>
      <trkpt lat="45.69922" lon="5.65342">
        <ele>344</ele>
        <time>2019-08-24T10:13:10.603Z</time>
      </trkpt>
      <trkpt lat="45.69922" lon="5.65341">
        <ele>344</ele>
        <time>2019-08-24T10:13:15.620Z</time>
      </trkpt>
      <trkpt lat="45.69923" lon="5.65339">
        <ele>344</ele>
        <time>2019-08-24T10:13:20.586Z</time>
      </trkpt>
      <trkpt lat="45.69925" lon="5.65336">
        <ele>344</ele>
        <time>2019-08-24T10:13:24.607Z</time>
      </trkpt>
      <trkpt lat="45.69927" lon="5.65331">
        <ele>344</ele>
        <time>2019-08-24T10:13:29.602Z</time>
      </trkpt>
      <trkpt lat="45.69928" lon="5.65326">
        <ele>344</ele>
        <time>2019-08-24T10:13:33.598Z</time>
      </trkpt>
      <trkpt lat="45.69931" lon="5.6532">
        <ele>344</ele>
        <time>2019-08-24T10:13:37.609Z</time>
      </trkpt>
      <trkpt lat="45.69935" lon="5.65312">
        <ele>337</ele>
        <time>2019-08-24T10:13:42.599Z</time>
      </trkpt>
      <trkpt lat="45.6994" lon="5.65305">
        <ele>337</ele>
        <time>2019-08-24T10:13:46.606Z</time>
      </trkpt>
      <trkpt lat="45.69945" lon="5.65301">
        <ele>337</ele>
        <time>2019-08-24T10:13:51.608Z</time>
      </trkpt>
      <trkpt lat="45.69949" lon="5.65296">
        <ele>337</ele>
        <time>2019-08-24T10:13:55.605Z</time>
      </trkpt>
      <trkpt lat="45.69952" lon="5.65295">
        <ele>337</ele>
        <time>2019-08-24T10:14:00.614Z</time>
      </trkpt>
      <trkpt lat="45.69952" lon="5.65295">
        <ele>337</ele>
        <time>2019-08-24T10:14:05.613Z</time>
      </trkpt>
      <trkpt lat="45.69954" lon="5.65293">
        <ele>337</ele>
        <time>2019-08-24T10:14:10.611Z</time>
      </trkpt>
      <trkpt lat="45.69959" lon="5.65286">
        <ele>329</ele>
        <time>2019-08-24T10:14:15.608Z</time>
      </trkpt>
      <trkpt lat="45.69963" lon="5.65279">
        <ele>329</ele>
        <time>2019-08-24T10:14:20.600Z</time>
      </trkpt>
      <trkpt lat="45.69963" lon="5.65278">
        <ele>329</ele>
        <time>2019-08-24T10:14:25.601Z</time>
      </trkpt>
      <trkpt lat="45.69966" lon="5.65274">
        <ele>329</ele>
        <time>2019-08-24T10:14:30.604Z</time>
      </trkpt>
      <trkpt lat="45.69969" lon="5.65268">
        <ele>329</ele>
        <time>2019-08-24T10:14:35.614Z</time>
      </trkpt>
      <trkpt lat="45.69972" lon="5.65263">
        <ele>325</ele>
        <time>2019-08-24T10:14:40.608Z</time>
      </trkpt>
      <trkpt lat="45.69975" lon="5.65257">
        <ele>325</ele>
        <time>2019-08-24T10:14:44.599Z</time>
      </trkpt>
      <trkpt lat="45.69977" lon="5.65252">
        <ele>325</ele>
        <time>2019-08-24T10:14:49.611Z</time>
      </trkpt>
      <trkpt lat="45.69983" lon="5.65251">
        <ele>325</ele>
        <time>2019-08-24T10:14:54.602Z</time>
      </trkpt>
      <trkpt lat="45.69987" lon="5.65249">
        <ele>322</ele>
        <time>2019-08-24T10:14:58.596Z</time>
      </trkpt>
      <trkpt lat="45.69993" lon="5.65245">
        <ele>322</ele>
        <time>2019-08-24T10:15:02.612Z</time>
      </trkpt>
      <trkpt lat="45.69996" lon="5.65241">
        <ele>322</ele>
        <time>2019-08-24T10:15:07.607Z</time>
      </trkpt>
      <trkpt lat="45.69999" lon="5.65239">
        <ele>322</ele>
        <time>2019-08-24T10:15:12.612Z</time>
      </trkpt>
      <trkpt lat="45.70001" lon="5.65233">
        <ele>320</ele>
        <time>2019-08-24T10:15:45.591Z</time>
      </trkpt>
      <trkpt lat="45.70001" lon="5.65233">
        <ele>320</ele>
        <time>2019-08-24T10:15:50.602Z</time>
      </trkpt>
      <trkpt lat="45.70002" lon="5.65232">
        <ele>320</ele>
        <time>2019-08-24T10:15:55.601Z</time>
      </trkpt>
      <trkpt lat="45.70004" lon="5.65228">
        <ele>320</ele>
        <time>2019-08-24T10:16:00.610Z</time>
      </trkpt>
      <trkpt lat="45.70005" lon="5.65223">
        <ele>320</ele>
        <time>2019-08-24T10:16:05.597Z</time>
      </trkpt>
      <trkpt lat="45.70008" lon="5.65219">
        <ele>320</ele>
        <time>2019-08-24T10:16:10.604Z</time>
      </trkpt>
      <trkpt lat="45.70011" lon="5.65216">
        <ele>320</ele>
        <time>2019-08-24T10:16:14.616Z</time>
      </trkpt>
      <trkpt lat="45.70019" lon="5.65205">
        <ele>320</ele>
        <time>2019-08-24T10:16:19.599Z</time>
      </trkpt>
      <trkpt lat="45.70022" lon="5.65195">
        <ele>320</ele>
        <time>2019-08-24T10:16:24.598Z</time>
      </trkpt>
      <trkpt lat="45.70023" lon="5.65193">
        <ele>320</ele>
        <time>2019-08-24T10:16:39.600Z</time>
      </trkpt>
      <trkpt lat="45.70023" lon="5.65193">
        <ele>320</ele>
        <time>2019-08-24T10:16:43.615Z</time>
      </trkpt>
      <trkpt lat="45.70024" lon="5.6519">
        <ele>320</ele>
        <time>2019-08-24T10:16:48.610Z</time>
      </trkpt>
      <trkpt lat="45.70027" lon="5.65186">
        <ele>320</ele>
        <time>2019-08-24T10:16:52.617Z</time>
      </trkpt>
      <trkpt lat="45.70032" lon="5.6518">
        <ele>321</ele>
        <time>2019-08-24T10:16:57.606Z</time>
      </trkpt>
      <trkpt lat="45.70035" lon="5.65176">
        <ele>321</ele>
        <time>2019-08-24T10:17:02.616Z</time>
      </trkpt>
      <trkpt lat="45.70038" lon="5.65172">
        <ele>321</ele>
        <time>2019-08-24T10:17:07.602Z</time>
      </trkpt>
      <trkpt lat="45.70042" lon="5.65164">
        <ele>324</ele>
        <time>2019-08-24T10:17:12.608Z</time>
      </trkpt>
      <trkpt lat="45.70045" lon="5.65157">
        <ele>324</ele>
        <time>2019-08-24T10:17:17.609Z</time>
      </trkpt>
      <trkpt lat="45.7005" lon="5.6515">
        <ele>324</ele>
        <time>2019-08-24T10:17:22.608Z</time>
      </trkpt>
      <trkpt lat="45.70057" lon="5.65142">
        <ele>324</ele>
        <time>2019-08-24T10:17:27.612Z</time>
      </trkpt>
      <trkpt lat="45.7006" lon="5.65138">
        <ele>324</ele>
        <time>2019-08-24T10:17:32.603Z</time>
      </trkpt>
      <trkpt lat="45.70064" lon="5.6513">
        <ele>324</ele>
        <time>2019-08-24T10:17:37.601Z</time>
      </trkpt>
      <trkpt lat="45.70069" lon="5.65122">
        <ele>324</ele>
        <time>2019-08-24T10:17:42.607Z</time>
      </trkpt>
      <trkpt lat="45.70074" lon="5.65115">
        <ele>325</ele>
        <time>2019-08-24T10:17:47.611Z</time>
      </trkpt>
      <trkpt lat="45.70079" lon="5.6511">
        <ele>325</ele>
        <time>2019-08-24T10:17:52.609Z</time>
      </trkpt>
      <trkpt lat="45.70081" lon="5.65105">
        <ele>325</ele>
        <time>2019-08-24T10:17:56.618Z</time>
      </trkpt>
      <trkpt lat="45.70088" lon="5.651">
        <ele>325</ele>
        <time>2019-08-24T10:18:01.616Z</time>
      </trkpt>
      <trkpt lat="45.70092" lon="5.65095">
        <ele>325</ele>
        <time>2019-08-24T10:18:06.606Z</time>
      </trkpt>
      <trkpt lat="45.70096" lon="5.65091">
        <ele>325</ele>
        <time>2019-08-24T10:18:11.612Z</time>
      </trkpt>
      <trkpt lat="45.701" lon="5.65085">
        <ele>325</ele>
        <time>2019-08-24T10:18:16.610Z</time>
      </trkpt>
      <trkpt lat="45.70105" lon="5.65079">
        <ele>325</ele>
        <time>2019-08-24T10:18:21.602Z</time>
      </trkpt>
      <trkpt lat="45.7011" lon="5.65075">
        <ele>325</ele>
        <time>2019-08-24T10:18:25.613Z</time>
      </trkpt>
      <trkpt lat="45.70116" lon="5.65071">
        <ele>325</ele>
        <time>2019-08-24T10:18:30.598Z</time>
      </trkpt>
      <trkpt lat="45.70118" lon="5.6507">
        <ele>325</ele>
        <time>2019-08-24T10:18:34.595Z</time>
      </trkpt>
      <trkpt lat="45.70118" lon="5.6507">
        <ele>325</ele>
        <time>2019-08-24T10:18:39.613Z</time>
      </trkpt>
      <trkpt lat="45.70119" lon="5.6507">
        <ele>325</ele>
        <time>2019-08-24T10:18:44.603Z</time>
      </trkpt>
      <trkpt lat="45.70123" lon="5.65067">
        <ele>326</ele>
        <time>2019-08-24T10:18:49.601Z</time>
      </trkpt>
      <trkpt lat="45.70125" lon="5.6506">
        <ele>326</ele>
        <time>2019-08-24T10:18:53.608Z</time>
      </trkpt>
      <trkpt lat="45.70123" lon="5.65054">
        <ele>326</ele>
        <time>2019-08-24T10:18:57.609Z</time>
      </trkpt>
      <trkpt lat="45.70119" lon="5.65048">
        <ele>326</ele>
        <time>2019-08-24T10:19:02.602Z</time>
      </trkpt>
      <trkpt lat="45.70113" lon="5.6504">
        <ele>326</ele>
        <time>2019-08-24T10:19:07.612Z</time>
      </trkpt>
      <trkpt lat="45.70109" lon="5.65033">
        <ele>326</ele>
        <time>2019-08-24T10:19:12.618Z</time>
      </trkpt>
      <trkpt lat="45.70104" lon="5.65027">
        <ele>326</ele>
        <time>2019-08-24T10:19:17.601Z</time>
      </trkpt>
      <trkpt lat="45.70099" lon="5.65019">
        <ele>326</ele>
        <time>2019-08-24T10:19:22.607Z</time>
      </trkpt>
      <trkpt lat="45.70095" lon="5.65013">
        <ele>325</ele>
        <time>2019-08-24T10:19:26.614Z</time>
      </trkpt>
      <trkpt lat="45.70091" lon="5.65005">
        <ele>325</ele>
        <time>2019-08-24T10:19:31.611Z</time>
      </trkpt>
      <trkpt lat="45.70086" lon="5.64999">
        <ele>325</ele>
        <time>2019-08-24T10:19:35.617Z</time>
      </trkpt>
      <trkpt lat="45.70081" lon="5.64993">
        <ele>325</ele>
        <time>2019-08-24T10:19:40.605Z</time>
      </trkpt>
      <trkpt lat="45.70075" lon="5.64987">
        <ele>325</ele>
        <time>2019-08-24T10:19:45.614Z</time>
      </trkpt>
      <trkpt lat="45.70071" lon="5.64982">
        <ele>327</ele>
        <time>2019-08-24T10:19:49.602Z</time>
      </trkpt>
      <trkpt lat="45.70066" lon="5.64976">
        <ele>322</ele>
        <time>2019-08-24T10:19:54.607Z</time>
      </trkpt>
      <trkpt lat="45.70062" lon="5.64969">
        <ele>322</ele>
        <time>2019-08-24T10:19:59.620Z</time>
      </trkpt>
      <trkpt lat="45.70056" lon="5.64963">
        <ele>322</ele>
        <time>2019-08-24T10:20:04.601Z</time>
      </trkpt>
      <trkpt lat="45.70051" lon="5.64958">
        <ele>325</ele>
        <time>2019-08-24T10:20:08.612Z</time>
      </trkpt>
      <trkpt lat="45.70045" lon="5.64953">
        <ele>325</ele>
        <time>2019-08-24T10:20:13.613Z</time>
      </trkpt>
      <trkpt lat="45.7004" lon="5.64948">
        <ele>320</ele>
        <time>2019-08-24T10:20:18.595Z</time>
      </trkpt>
      <trkpt lat="45.70035" lon="5.64943">
        <ele>320</ele>
        <time>2019-08-24T10:20:23.605Z</time>
      </trkpt>
      <trkpt lat="45.70031" lon="5.64937">
        <ele>320</ele>
        <time>2019-08-24T10:20:27.609Z</time>
      </trkpt>
      <trkpt lat="45.70026" lon="5.64932">
        <ele>320</ele>
        <time>2019-08-24T10:20:31.586Z</time>
      </trkpt>
      <trkpt lat="45.7002" lon="5.64925">
        <ele>322</ele>
        <time>2019-08-24T10:20:36.606Z</time>
      </trkpt>
      <trkpt lat="45.70014" lon="5.64919">
        <ele>322</ele>
        <time>2019-08-24T10:20:41.618Z</time>
      </trkpt>
      <trkpt lat="45.70009" lon="5.64912">
        <ele>318</ele>
        <time>2019-08-24T10:20:46.604Z</time>
      </trkpt>
      <trkpt lat="45.70005" lon="5.64906">
        <ele>318</ele>
        <time>2019-08-24T10:20:50.598Z</time>
      </trkpt>
      <trkpt lat="45.7" lon="5.64901">
        <ele>320</ele>
        <time>2019-08-24T10:20:54.607Z</time>
      </trkpt>
      <trkpt lat="45.69996" lon="5.64896">
        <ele>320</ele>
        <time>2019-08-24T10:20:58.615Z</time>
      </trkpt>
      <trkpt lat="45.6999" lon="5.64891">
        <ele>320</ele>
        <time>2019-08-24T10:21:03.608Z</time>
      </trkpt>
      <trkpt lat="45.69986" lon="5.64888">
        <ele>317</ele>
        <time>2019-08-24T10:21:07.622Z</time>
      </trkpt>
      <trkpt lat="45.6998" lon="5.64882">
        <ele>317</ele>
        <time>2019-08-24T10:21:12.611Z</time>
      </trkpt>
      <trkpt lat="45.69975" lon="5.64875">
        <ele>319</ele>
        <time>2019-08-24T10:21:17.608Z</time>
      </trkpt>
      <trkpt lat="45.69971" lon="5.64872">
        <ele>319</ele>
        <time>2019-08-24T10:21:22.612Z</time>
      </trkpt>
      <trkpt lat="45.6997" lon="5.6487">
        <ele>319</ele>
        <time>2019-08-24T10:21:26.612Z</time>
      </trkpt>
      <trkpt lat="45.69965" lon="5.64868">
        <ele>319</ele>
        <time>2019-08-24T10:21:31.616Z</time>
      </trkpt>
      <trkpt lat="45.69958" lon="5.64862">
        <ele>316</ele>
        <time>2019-08-24T10:21:36.611Z</time>
      </trkpt>
      <trkpt lat="45.69952" lon="5.64858">
        <ele>316</ele>
        <time>2019-08-24T10:21:40.613Z</time>
      </trkpt>
      <trkpt lat="45.69945" lon="5.64852">
        <ele>316</ele>
        <time>2019-08-24T10:21:45.612Z</time>
      </trkpt>
      <trkpt lat="45.69939" lon="5.64844">
        <ele>320</ele>
        <time>2019-08-24T10:21:50.614Z</time>
      </trkpt>
      <trkpt lat="45.69934" lon="5.64836">
        <ele>320</ele>
        <time>2019-08-24T10:21:55.624Z</time>
      </trkpt>
      <trkpt lat="45.69928" lon="5.64829">
        <ele>316</ele>
        <time>2019-08-24T10:22:00.608Z</time>
      </trkpt>
      <trkpt lat="45.69923" lon="5.64822">
        <ele>316</ele>
        <time>2019-08-24T10:22:05.613Z</time>
      </trkpt>
      <trkpt lat="45.69918" lon="5.64818">
        <ele>319</ele>
        <time>2019-08-24T10:22:09.612Z</time>
      </trkpt>
      <trkpt lat="45.69913" lon="5.64813">
        <ele>319</ele>
        <time>2019-08-24T10:22:14.603Z</time>
      </trkpt>
      <trkpt lat="45.69908" lon="5.64807">
        <ele>319</ele>
        <time>2019-08-24T10:22:19.607Z</time>
      </trkpt>
      <trkpt lat="45.69902" lon="5.648">
        <ele>313</ele>
        <time>2019-08-24T10:22:24.604Z</time>
      </trkpt>
      <trkpt lat="45.69899" lon="5.64793">
        <ele>313</ele>
        <time>2019-08-24T10:22:28.613Z</time>
      </trkpt>
      <trkpt lat="45.69895" lon="5.64789">
        <ele>316</ele>
        <time>2019-08-24T10:22:33.609Z</time>
      </trkpt>
      <trkpt lat="45.69891" lon="5.64785">
        <ele>316</ele>
        <time>2019-08-24T10:22:38.623Z</time>
      </trkpt>
      <trkpt lat="45.6989" lon="5.64781">
        <ele>316</ele>
        <time>2019-08-24T10:22:43.604Z</time>
      </trkpt>
      <trkpt lat="45.69888" lon="5.64778">
        <ele>316</ele>
        <time>2019-08-24T10:22:48.617Z</time>
      </trkpt>
      <trkpt lat="45.69887" lon="5.64774">
        <ele>316</ele>
        <time>2019-08-24T10:22:53.627Z</time>
      </trkpt>
      <trkpt lat="45.69883" lon="5.64765">
        <ele>316</ele>
        <time>2019-08-24T10:22:58.615Z</time>
      </trkpt>
      <trkpt lat="45.69874" lon="5.64748">
        <ele>314</ele>
        <time>2019-08-24T10:23:02.623Z</time>
      </trkpt>
      <trkpt lat="45.69868" lon="5.64738">
        <ele>314</ele>
        <time>2019-08-24T10:23:07.620Z</time>
      </trkpt>
      <trkpt lat="45.69864" lon="5.6473">
        <ele>316</ele>
        <time>2019-08-24T10:23:12.614Z</time>
      </trkpt>
      <trkpt lat="45.6986" lon="5.64723">
        <ele>316</ele>
        <time>2019-08-24T10:23:17.605Z</time>
      </trkpt>
      <trkpt lat="45.69857" lon="5.64715">
        <ele>316</ele>
        <time>2019-08-24T10:23:21.609Z</time>
      </trkpt>
      <trkpt lat="45.69853" lon="5.64707">
        <ele>318</ele>
        <time>2019-08-24T10:23:26.608Z</time>
      </trkpt>
      <trkpt lat="45.69849" lon="5.64702">
        <ele>318</ele>
        <time>2019-08-24T10:23:30.608Z</time>
      </trkpt>
      <trkpt lat="45.69845" lon="5.64697">
        <ele>315</ele>
        <time>2019-08-24T10:23:35.615Z</time>
      </trkpt>
      <trkpt lat="45.69839" lon="5.6469">
        <ele>315</ele>
        <time>2019-08-24T10:23:40.612Z</time>
      </trkpt>
      <trkpt lat="45.69834" lon="5.64684">
        <ele>315</ele>
        <time>2019-08-24T10:23:45.613Z</time>
      </trkpt>
      <trkpt lat="45.69829" lon="5.6468">
        <ele>316</ele>
        <time>2019-08-24T10:23:50.616Z</time>
      </trkpt>
      <trkpt lat="45.69828" lon="5.64678">
        <ele>316</ele>
        <time>2019-08-24T10:23:55.605Z</time>
      </trkpt>
      <trkpt lat="45.69827" lon="5.64676">
        <ele>316</ele>
        <time>2019-08-24T10:23:59.622Z</time>
      </trkpt>
      <trkpt lat="45.69826" lon="5.64674">
        <ele>316</ele>
        <time>2019-08-24T10:24:04.602Z</time>
      </trkpt>
      <trkpt lat="45.69822" lon="5.6467">
        <ele>316</ele>
        <time>2019-08-24T10:24:08.610Z</time>
      </trkpt>
      <trkpt lat="45.69816" lon="5.64665">
        <ele>310</ele>
        <time>2019-08-24T10:24:13.612Z</time>
      </trkpt>
      <trkpt lat="45.69813" lon="5.6466">
        <ele>310</ele>
        <time>2019-08-24T10:24:18.605Z</time>
      </trkpt>
      <trkpt lat="45.69811" lon="5.64652">
        <ele>311</ele>
        <time>2019-08-24T10:24:22.612Z</time>
      </trkpt>
      <trkpt lat="45.69808" lon="5.6464">
        <ele>311</ele>
        <time>2019-08-24T10:24:27.612Z</time>
      </trkpt>
      <trkpt lat="45.69808" lon="5.64629">
        <ele>311</ele>
        <time>2019-08-24T10:24:31.606Z</time>
      </trkpt>
      <trkpt lat="45.69809" lon="5.6462">
        <ele>312</ele>
        <time>2019-08-24T10:24:35.633Z</time>
      </trkpt>
      <trkpt lat="45.69811" lon="5.64608">
        <ele>312</ele>
        <time>2019-08-24T10:24:40.613Z</time>
      </trkpt>
      <trkpt lat="45.69816" lon="5.64598">
        <ele>312</ele>
        <time>2019-08-24T10:24:45.608Z</time>
      </trkpt>
      <trkpt lat="45.69822" lon="5.64589">
        <ele>313</ele>
        <time>2019-08-24T10:24:50.606Z</time>
      </trkpt>
      <trkpt lat="45.69828" lon="5.64581">
        <ele>313</ele>
        <time>2019-08-24T10:24:55.607Z</time>
      </trkpt>
      <trkpt lat="45.69832" lon="5.64573">
        <ele>313</ele>
        <time>2019-08-24T10:25:00.623Z</time>
      </trkpt>
      <trkpt lat="45.69837" lon="5.64564">
        <ele>310</ele>
        <time>2019-08-24T10:25:05.614Z</time>
      </trkpt>
      <trkpt lat="45.69842" lon="5.64556">
        <ele>310</ele>
        <time>2019-08-24T10:25:10.608Z</time>
      </trkpt>
      <trkpt lat="45.69845" lon="5.64549">
        <ele>310</ele>
        <time>2019-08-24T10:25:14.609Z</time>
      </trkpt>
      <trkpt lat="45.6985" lon="5.6454">
        <ele>310</ele>
        <time>2019-08-24T10:25:19.604Z</time>
      </trkpt>
      <trkpt lat="45.69854" lon="5.64532">
        <ele>310</ele>
        <time>2019-08-24T10:25:24.613Z</time>
      </trkpt>
      <trkpt lat="45.69859" lon="5.64524">
        <ele>310</ele>
        <time>2019-08-24T10:25:29.616Z</time>
      </trkpt>
      <trkpt lat="45.69865" lon="5.64517">
        <ele>310</ele>
        <time>2019-08-24T10:25:34.630Z</time>
      </trkpt>
      <trkpt lat="45.69869" lon="5.64508">
        <ele>308</ele>
        <time>2019-08-24T10:25:39.604Z</time>
      </trkpt>
      <trkpt lat="45.69872" lon="5.64502">
        <ele>308</ele>
        <time>2019-08-24T10:25:43.605Z</time>
      </trkpt>
      <trkpt lat="45.69877" lon="5.64492">
        <ele>312</ele>
        <time>2019-08-24T10:25:48.614Z</time>
      </trkpt>
      <trkpt lat="45.69881" lon="5.64483">
        <ele>310</ele>
        <time>2019-08-24T10:25:53.617Z</time>
      </trkpt>
      <trkpt lat="45.69885" lon="5.64476">
        <ele>310</ele>
        <time>2019-08-24T10:25:58.612Z</time>
      </trkpt>
      <trkpt lat="45.69889" lon="5.64468">
        <ele>310</ele>
        <time>2019-08-24T10:26:03.616Z</time>
      </trkpt>
      <trkpt lat="45.69893" lon="5.64461">
        <ele>310</ele>
        <time>2019-08-24T10:26:08.603Z</time>
      </trkpt>
      <trkpt lat="45.69897" lon="5.64455">
        <ele>309</ele>
        <time>2019-08-24T10:26:12.603Z</time>
      </trkpt>
      <trkpt lat="45.69901" lon="5.64446">
        <ele>309</ele>
        <time>2019-08-24T10:26:17.602Z</time>
      </trkpt>
      <trkpt lat="45.69904" lon="5.6444">
        <ele>316</ele>
        <time>2019-08-24T10:26:21.616Z</time>
      </trkpt>
      <trkpt lat="45.69907" lon="5.64432">
        <ele>316</ele>
        <time>2019-08-24T10:26:26.609Z</time>
      </trkpt>
      <trkpt lat="45.6991" lon="5.64423">
        <ele>315</ele>
        <time>2019-08-24T10:26:31.599Z</time>
      </trkpt>
      <trkpt lat="45.69913" lon="5.64415">
        <ele>315</ele>
        <time>2019-08-24T10:26:36.612Z</time>
      </trkpt>
      <trkpt lat="45.69915" lon="5.64405">
        <ele>315</ele>
        <time>2019-08-24T10:26:41.601Z</time>
      </trkpt>
      <trkpt lat="45.69918" lon="5.64396">
        <ele>312</ele>
        <time>2019-08-24T10:26:46.620Z</time>
      </trkpt>
      <trkpt lat="45.69922" lon="5.64388">
        <ele>312</ele>
        <time>2019-08-24T10:26:51.614Z</time>
      </trkpt>
      <trkpt lat="45.69927" lon="5.6438">
        <ele>312</ele>
        <time>2019-08-24T10:26:56.605Z</time>
      </trkpt>
      <trkpt lat="45.69932" lon="5.64371">
        <ele>313</ele>
        <time>2019-08-24T10:27:01.618Z</time>
      </trkpt>
      <trkpt lat="45.69936" lon="5.64363">
        <ele>313</ele>
        <time>2019-08-24T10:27:05.599Z</time>
      </trkpt>
      <trkpt lat="45.6994" lon="5.64353">
        <ele>313</ele>
        <time>2019-08-24T10:27:10.603Z</time>
      </trkpt>
      <trkpt lat="45.69944" lon="5.64346">
        <ele>310</ele>
        <time>2019-08-24T10:27:15.607Z</time>
      </trkpt>
      <trkpt lat="45.69947" lon="5.6434">
        <ele>310</ele>
        <time>2019-08-24T10:27:19.604Z</time>
      </trkpt>
      <trkpt lat="45.6995" lon="5.64334">
        <ele>310</ele>
        <time>2019-08-24T10:27:24.606Z</time>
      </trkpt>
      <trkpt lat="45.69951" lon="5.6433">
        <ele>310</ele>
        <time>2019-08-24T10:27:29.620Z</time>
      </trkpt>
      <trkpt lat="45.69955" lon="5.64321">
        <ele>310</ele>
        <time>2019-08-24T10:27:34.605Z</time>
      </trkpt>
      <trkpt lat="45.69957" lon="5.64313">
        <ele>309</ele>
        <time>2019-08-24T10:27:38.610Z</time>
      </trkpt>
      <trkpt lat="45.69961" lon="5.64306">
        <ele>314</ele>
        <time>2019-08-24T10:27:43.606Z</time>
      </trkpt>
      <trkpt lat="45.69966" lon="5.64298">
        <ele>314</ele>
        <time>2019-08-24T10:27:48.619Z</time>
      </trkpt>
      <trkpt lat="45.6997" lon="5.6429">
        <ele>312</ele>
        <time>2019-08-24T10:27:53.621Z</time>
      </trkpt>
      <trkpt lat="45.69974" lon="5.64282">
        <ele>312</ele>
        <time>2019-08-24T10:27:58.614Z</time>
      </trkpt>
      <trkpt lat="45.69978" lon="5.64274">
        <ele>312</ele>
        <time>2019-08-24T10:28:03.609Z</time>
      </trkpt>
      <trkpt lat="45.69982" lon="5.64266">
        <ele>312</ele>
        <time>2019-08-24T10:28:08.609Z</time>
      </trkpt>
      <trkpt lat="45.69984" lon="5.64256">
        <ele>310</ele>
        <time>2019-08-24T10:28:12.613Z</time>
      </trkpt>
      <trkpt lat="45.69987" lon="5.64246">
        <ele>310</ele>
        <time>2019-08-24T10:28:17.608Z</time>
      </trkpt>
      <trkpt lat="45.69991" lon="5.64238">
        <ele>310</ele>
        <time>2019-08-24T10:28:22.598Z</time>
      </trkpt>
      <trkpt lat="45.69995" lon="5.64232">
        <ele>310</ele>
        <time>2019-08-24T10:28:26.608Z</time>
      </trkpt>
      <trkpt lat="45.69998" lon="5.64224">
        <ele>310</ele>
        <time>2019-08-24T10:28:31.616Z</time>
      </trkpt>
      <trkpt lat="45.70002" lon="5.64216">
        <ele>310</ele>
        <time>2019-08-24T10:28:36.623Z</time>
      </trkpt>
      <trkpt lat="45.70005" lon="5.64207">
        <ele>311</ele>
        <time>2019-08-24T10:28:41.596Z</time>
      </trkpt>
      <trkpt lat="45.70008" lon="5.64201">
        <ele>311</ele>
        <time>2019-08-24T10:28:45.614Z</time>
      </trkpt>
      <trkpt lat="45.70011" lon="5.64192">
        <ele>311</ele>
        <time>2019-08-24T10:28:50.608Z</time>
      </trkpt>
      <trkpt lat="45.70014" lon="5.64185">
        <ele>313</ele>
        <time>2019-08-24T10:28:55.622Z</time>
      </trkpt>
      <trkpt lat="45.70019" lon="5.64178">
        <ele>314</ele>
        <time>2019-08-24T10:29:00.618Z</time>
      </trkpt>
      <trkpt lat="45.70023" lon="5.64169">
        <ele>314</ele>
        <time>2019-08-24T10:29:05.604Z</time>
      </trkpt>
      <trkpt lat="45.70027" lon="5.64161">
        <ele>314</ele>
        <time>2019-08-24T10:29:10.601Z</time>
      </trkpt>
      <trkpt lat="45.7003" lon="5.64153">
        <ele>314</ele>
        <time>2019-08-24T10:29:15.613Z</time>
      </trkpt>
      <trkpt lat="45.70032" lon="5.64144">
        <ele>314</ele>
        <time>2019-08-24T10:29:20.616Z</time>
      </trkpt>
      <trkpt lat="45.70035" lon="5.64135">
        <ele>314</ele>
        <time>2019-08-24T10:29:25.615Z</time>
      </trkpt>
      <trkpt lat="45.70038" lon="5.64129">
        <ele>314</ele>
        <time>2019-08-24T10:29:30.616Z</time>
      </trkpt>
      <trkpt lat="45.70041" lon="5.64119">
        <ele>315</ele>
        <time>2019-08-24T10:29:35.612Z</time>
      </trkpt>
      <trkpt lat="45.70047" lon="5.64112">
        <ele>316</ele>
        <time>2019-08-24T10:29:40.603Z</time>
      </trkpt>
      <trkpt lat="45.7005" lon="5.64106">
        <ele>316</ele>
        <time>2019-08-24T10:29:44.610Z</time>
      </trkpt>
      <trkpt lat="45.70054" lon="5.64101">
        <ele>316</ele>
        <time>2019-08-24T10:29:49.603Z</time>
      </trkpt>
      <trkpt lat="45.70057" lon="5.64097">
        <ele>316</ele>
        <time>2019-08-24T10:29:53.602Z</time>
      </trkpt>
      <trkpt lat="45.7006" lon="5.64092">
        <ele>316</ele>
        <time>2019-08-24T10:29:57.611Z</time>
      </trkpt>
      <trkpt lat="45.70064" lon="5.64084">
        <ele>316</ele>
        <time>2019-08-24T10:30:02.606Z</time>
      </trkpt>
      <trkpt lat="45.70067" lon="5.64075">
        <ele>316</ele>
        <time>2019-08-24T10:30:07.608Z</time>
      </trkpt>
      <trkpt lat="45.70073" lon="5.64069">
        <ele>315</ele>
        <time>2019-08-24T10:30:11.611Z</time>
      </trkpt>
      <trkpt lat="45.70075" lon="5.64061">
        <ele>315</ele>
        <time>2019-08-24T10:30:16.610Z</time>
      </trkpt>
      <trkpt lat="45.70075" lon="5.64055">
        <ele>315</ele>
        <time>2019-08-24T10:30:20.606Z</time>
      </trkpt>
      <trkpt lat="45.70071" lon="5.64047">
        <ele>315</ele>
        <time>2019-08-24T10:30:25.625Z</time>
      </trkpt>
      <trkpt lat="45.70066" lon="5.64038">
        <ele>313</ele>
        <time>2019-08-24T10:30:30.614Z</time>
      </trkpt>
      <trkpt lat="45.70063" lon="5.6403">
        <ele>313</ele>
        <time>2019-08-24T10:30:35.610Z</time>
      </trkpt>
      <trkpt lat="45.70061" lon="5.64023">
        <ele>313</ele>
        <time>2019-08-24T10:30:39.616Z</time>
      </trkpt>
      <trkpt lat="45.7006" lon="5.64014">
        <ele>313</ele>
        <time>2019-08-24T10:30:44.605Z</time>
      </trkpt>
      <trkpt lat="45.7006" lon="5.64004">
        <ele>312</ele>
        <time>2019-08-24T10:30:49.597Z</time>
      </trkpt>
      <trkpt lat="45.70062" lon="5.63997">
        <ele>312</ele>
        <time>2019-08-24T10:30:53.596Z</time>
      </trkpt>
      <trkpt lat="45.70063" lon="5.6399">
        <ele>312</ele>
        <time>2019-08-24T10:30:57.611Z</time>
      </trkpt>
      <trkpt lat="45.70067" lon="5.6398">
        <ele>311</ele>
        <time>2019-08-24T10:31:02.601Z</time>
      </trkpt>
      <trkpt lat="45.70069" lon="5.63971">
        <ele>311</ele>
        <time>2019-08-24T10:31:07.603Z</time>
      </trkpt>
      <trkpt lat="45.70071" lon="5.63964">
        <ele>311</ele>
        <time>2019-08-24T10:31:11.605Z</time>
      </trkpt>
      <trkpt lat="45.70073" lon="5.63954">
        <ele>310</ele>
        <time>2019-08-24T10:31:16.614Z</time>
      </trkpt>
      <trkpt lat="45.70075" lon="5.63947">
        <ele>310</ele>
        <time>2019-08-24T10:31:20.616Z</time>
      </trkpt>
      <trkpt lat="45.70077" lon="5.63936">
        <ele>310</ele>
        <time>2019-08-24T10:31:25.603Z</time>
      </trkpt>
      <trkpt lat="45.7008" lon="5.63926">
        <ele>310</ele>
        <time>2019-08-24T10:31:30.607Z</time>
      </trkpt>
      <trkpt lat="45.70081" lon="5.63917">
        <ele>310</ele>
        <time>2019-08-24T10:31:34.616Z</time>
      </trkpt>
      <trkpt lat="45.70083" lon="5.63908">
        <ele>310</ele>
        <time>2019-08-24T10:31:39.614Z</time>
      </trkpt>
      <trkpt lat="45.70085" lon="5.63898">
        <ele>309</ele>
        <time>2019-08-24T10:31:44.609Z</time>
      </trkpt>
      <trkpt lat="45.70088" lon="5.63892">
        <ele>309</ele>
        <time>2019-08-24T10:31:49.616Z</time>
      </trkpt>
      <trkpt lat="45.7009" lon="5.63883">
        <ele>309</ele>
        <time>2019-08-24T10:31:54.613Z</time>
      </trkpt>
      <trkpt lat="45.70092" lon="5.63874">
        <ele>309</ele>
        <time>2019-08-24T10:31:59.605Z</time>
      </trkpt>
      <trkpt lat="45.70093" lon="5.63865">
        <ele>309</ele>
        <time>2019-08-24T10:32:03.612Z</time>
      </trkpt>
      <trkpt lat="45.70098" lon="5.6384">
        <ele>308</ele>
        <time>2019-08-24T10:32:08.623Z</time>
      </trkpt>
      <trkpt lat="45.70106" lon="5.63803">
        <ele>308</ele>
        <time>2019-08-24T10:32:13.598Z</time>
      </trkpt>
      <trkpt lat="45.70117" lon="5.63756">
        <ele>308</ele>
        <time>2019-08-24T10:32:18.610Z</time>
      </trkpt>
      <trkpt lat="45.70126" lon="5.63742">
        <ele>309</ele>
        <time>2019-08-24T10:32:23.607Z</time>
      </trkpt>
      <trkpt lat="45.70127" lon="5.63732">
        <ele>309</ele>
        <time>2019-08-24T10:32:28.602Z</time>
      </trkpt>
      <trkpt lat="45.7013" lon="5.63725">
        <ele>309</ele>
        <time>2019-08-24T10:32:32.622Z</time>
      </trkpt>
      <trkpt lat="45.70133" lon="5.63719">
        <ele>309</ele>
        <time>2019-08-24T10:32:37.608Z</time>
      </trkpt>
      <trkpt lat="45.70133" lon="5.6371">
        <ele>309</ele>
        <time>2019-08-24T10:32:42.609Z</time>
      </trkpt>
      <trkpt lat="45.70134" lon="5.63705">
        <ele>309</ele>
        <time>2019-08-24T10:32:47.614Z</time>
      </trkpt>
      <trkpt lat="45.70134" lon="5.63698">
        <ele>309</ele>
        <time>2019-08-24T10:32:52.607Z</time>
      </trkpt>
      <trkpt lat="45.70136" lon="5.63687">
        <ele>309</ele>
        <time>2019-08-24T10:32:57.607Z</time>
      </trkpt>
      <trkpt lat="45.70135" lon="5.63678">
        <ele>309</ele>
        <time>2019-08-24T10:33:01.612Z</time>
      </trkpt>
      <trkpt lat="45.70135" lon="5.63669">
        <ele>309</ele>
        <time>2019-08-24T10:33:06.612Z</time>
      </trkpt>
      <trkpt lat="45.70135" lon="5.63659">
        <ele>309</ele>
        <time>2019-08-24T10:33:11.598Z</time>
      </trkpt>
      <trkpt lat="45.70136" lon="5.63648">
        <ele>309</ele>
        <time>2019-08-24T10:33:16.608Z</time>
      </trkpt>
      <trkpt lat="45.70136" lon="5.6364">
        <ele>309</ele>
        <time>2019-08-24T10:33:21.627Z</time>
      </trkpt>
      <trkpt lat="45.70136" lon="5.63631">
        <ele>309</ele>
        <time>2019-08-24T10:33:25.610Z</time>
      </trkpt>
      <trkpt lat="45.70138" lon="5.63624">
        <ele>310</ele>
        <time>2019-08-24T10:33:30.603Z</time>
      </trkpt>
      <trkpt lat="45.70139" lon="5.63619">
        <ele>310</ele>
        <time>2019-08-24T10:33:34.623Z</time>
      </trkpt>
      <trkpt lat="45.7014" lon="5.63613">
        <ele>310</ele>
        <time>2019-08-24T10:33:39.609Z</time>
      </trkpt>
      <trkpt lat="45.70142" lon="5.63606">
        <ele>310</ele>
        <time>2019-08-24T10:33:44.610Z</time>
      </trkpt>
      <trkpt lat="45.70145" lon="5.63597">
        <ele>310</ele>
        <time>2019-08-24T10:33:49.614Z</time>
      </trkpt>
      <trkpt lat="45.70151" lon="5.63588">
        <ele>310</ele>
        <time>2019-08-24T10:33:54.607Z</time>
      </trkpt>
      <trkpt lat="45.70155" lon="5.63578">
        <ele>310</ele>
        <time>2019-08-24T10:33:59.623Z</time>
      </trkpt>
      <trkpt lat="45.70154" lon="5.63571">
        <ele>310</ele>
        <time>2019-08-24T10:34:04.605Z</time>
      </trkpt>
      <trkpt lat="45.70153" lon="5.63558">
        <ele>311</ele>
        <time>2019-08-24T10:34:46.596Z</time>
      </trkpt>
      <trkpt lat="45.70153" lon="5.63558">
        <ele>311</ele>
        <time>2019-08-24T10:34:50.597Z</time>
      </trkpt>
      <trkpt lat="45.70153" lon="5.63557">
        <ele>311</ele>
        <time>2019-08-24T10:34:54.608Z</time>
      </trkpt>
      <trkpt lat="45.70154" lon="5.63555">
        <ele>311</ele>
        <time>2019-08-24T10:34:59.615Z</time>
      </trkpt>
      <trkpt lat="45.70154" lon="5.63554">
        <ele>311</ele>
        <time>2019-08-24T10:35:04.606Z</time>
      </trkpt>
      <trkpt lat="45.70152" lon="5.63555">
        <ele>310</ele>
        <time>2019-08-24T10:36:53.597Z</time>
      </trkpt>
      <trkpt lat="45.70152" lon="5.63555">
        <ele>310</ele>
        <time>2019-08-24T10:36:58.595Z</time>
      </trkpt>
      <trkpt lat="45.7015" lon="5.63556">
        <ele>310</ele>
        <time>2019-08-24T10:37:03.606Z</time>
      </trkpt>
      <trkpt lat="45.70146" lon="5.63558">
        <ele>310</ele>
        <time>2019-08-24T10:37:08.610Z</time>
      </trkpt>
      <trkpt lat="45.70144" lon="5.63554">
        <ele>310</ele>
        <time>2019-08-24T10:37:13.620Z</time>
      </trkpt>
      <trkpt lat="45.70138" lon="5.63548">
        <ele>310</ele>
        <time>2019-08-24T10:37:26.620Z</time>
      </trkpt>
      <trkpt lat="45.70138" lon="5.63544">
        <ele>310</ele>
        <time>2019-08-24T10:37:31.610Z</time>
      </trkpt>
      <trkpt lat="45.70138" lon="5.63544">
        <ele>310</ele>
        <time>2019-08-24T10:37:35.630Z</time>
      </trkpt>
      <trkpt lat="45.70136" lon="5.63543">
        <ele>310</ele>
        <time>2019-08-24T10:37:39.600Z</time>
      </trkpt>
      <trkpt lat="45.70136" lon="5.63541">
        <ele>312</ele>
        <time>2019-08-24T10:37:43.619Z</time>
      </trkpt>
      <trkpt lat="45.70136" lon="5.63537">
        <ele>312</ele>
        <time>2019-08-24T10:38:12.597Z</time>
      </trkpt>
      <trkpt lat="45.70136" lon="5.63536">
        <ele>312</ele>
        <time>2019-08-24T10:38:16.610Z</time>
      </trkpt>
      <trkpt lat="45.70135" lon="5.63534">
        <ele>312</ele>
        <time>2019-08-24T10:38:21.606Z</time>
      </trkpt>
      <trkpt lat="45.70132" lon="5.6353">
        <ele>312</ele>
        <time>2019-08-24T10:38:26.603Z</time>
      </trkpt>
      <trkpt lat="45.70131" lon="5.63529">
        <ele>312</ele>
        <time>2019-08-24T10:38:30.612Z</time>
      </trkpt>
      <trkpt lat="45.7013" lon="5.63528">
        <ele>312</ele>
        <time>2019-08-24T10:38:34.605Z</time>
      </trkpt>
      <trkpt lat="45.7012" lon="5.63516">
        <ele>310</ele>
        <time>2019-08-24T10:38:39.610Z</time>
      </trkpt>
      <trkpt lat="45.70109" lon="5.63484">
        <ele>312</ele>
        <time>2019-08-24T10:38:44.607Z</time>
      </trkpt>
      <trkpt lat="45.70105" lon="5.63465">
        <ele>312</ele>
        <time>2019-08-24T10:38:48.617Z</time>
      </trkpt>
      <trkpt lat="45.70103" lon="5.63452">
        <ele>315</ele>
        <time>2019-08-24T10:38:53.620Z</time>
      </trkpt>
      <trkpt lat="45.70104" lon="5.63442">
        <ele>315</ele>
        <time>2019-08-24T10:38:58.627Z</time>
      </trkpt>
      <trkpt lat="45.70106" lon="5.63432">
        <ele>315</ele>
        <time>2019-08-24T10:39:03.590Z</time>
      </trkpt>
      <trkpt lat="45.70109" lon="5.63425">
        <ele>318</ele>
        <time>2019-08-24T10:39:07.601Z</time>
      </trkpt>
      <trkpt lat="45.70109" lon="5.63415">
        <ele>318</ele>
        <time>2019-08-24T10:39:11.611Z</time>
      </trkpt>
      <trkpt lat="45.70111" lon="5.63407">
        <ele>318</ele>
        <time>2019-08-24T10:39:16.606Z</time>
      </trkpt>
      <trkpt lat="45.70113" lon="5.63398">
        <ele>320</ele>
        <time>2019-08-24T10:39:21.612Z</time>
      </trkpt>
      <trkpt lat="45.70113" lon="5.63389">
        <ele>320</ele>
        <time>2019-08-24T10:39:26.620Z</time>
      </trkpt>
      <trkpt lat="45.70114" lon="5.63378">
        <ele>320</ele>
        <time>2019-08-24T10:39:31.612Z</time>
      </trkpt>
      <trkpt lat="45.70115" lon="5.63371">
        <ele>321</ele>
        <time>2019-08-24T10:39:35.612Z</time>
      </trkpt>
      <trkpt lat="45.70114" lon="5.63364">
        <ele>321</ele>
        <time>2019-08-24T10:39:40.614Z</time>
      </trkpt>
      <trkpt lat="45.70111" lon="5.63354">
        <ele>321</ele>
        <time>2019-08-24T10:39:45.607Z</time>
      </trkpt>
      <trkpt lat="45.70109" lon="5.63345">
        <ele>321</ele>
        <time>2019-08-24T10:39:50.606Z</time>
      </trkpt>
      <trkpt lat="45.70106" lon="5.63338">
        <ele>321</ele>
        <time>2019-08-24T10:39:55.619Z</time>
      </trkpt>
      <trkpt lat="45.70101" lon="5.63327">
        <ele>321</ele>
        <time>2019-08-24T10:40:00.605Z</time>
      </trkpt>
      <trkpt lat="45.70099" lon="5.63319">
        <ele>322</ele>
        <time>2019-08-24T10:40:05.615Z</time>
      </trkpt>
      <trkpt lat="45.70096" lon="5.6331">
        <ele>325</ele>
        <time>2019-08-24T10:40:10.605Z</time>
      </trkpt>
      <trkpt lat="45.70091" lon="5.63301">
        <ele>325</ele>
        <time>2019-08-24T10:40:15.617Z</time>
      </trkpt>
      <trkpt lat="45.70072" lon="5.63295">
        <ele>325</ele>
        <time>2019-08-24T10:40:20.603Z</time>
      </trkpt>
      <trkpt lat="45.70048" lon="5.63303">
        <ele>328</ele>
        <time>2019-08-24T10:40:24.613Z</time>
      </trkpt>
      <trkpt lat="45.70016" lon="5.6332">
        <ele>331</ele>
        <time>2019-08-24T10:40:29.597Z</time>
      </trkpt>
      <trkpt lat="45.70003" lon="5.63323">
        <ele>333</ele>
        <time>2019-08-24T10:40:33.626Z</time>
      </trkpt>
      <trkpt lat="45.69995" lon="5.63322">
        <ele>333</ele>
        <time>2019-08-24T10:40:38.605Z</time>
      </trkpt>
      <trkpt lat="45.6999" lon="5.63318">
        <ele>333</ele>
        <time>2019-08-24T10:40:42.605Z</time>
      </trkpt>
      <trkpt lat="45.69986" lon="5.63313">
        <ele>335</ele>
        <time>2019-08-24T10:40:46.615Z</time>
      </trkpt>
      <trkpt lat="45.69982" lon="5.63303">
        <ele>335</ele>
        <time>2019-08-24T10:40:51.617Z</time>
      </trkpt>
      <trkpt lat="45.6998" lon="5.63293">
        <ele>335</ele>
        <time>2019-08-24T10:40:56.603Z</time>
      </trkpt>
      <trkpt lat="45.6998" lon="5.63285">
        <ele>339</ele>
        <time>2019-08-24T10:41:01.607Z</time>
      </trkpt>
      <trkpt lat="45.69978" lon="5.63279">
        <ele>339</ele>
        <time>2019-08-24T10:41:06.597Z</time>
      </trkpt>
      <trkpt lat="45.69977" lon="5.63271">
        <ele>339</ele>
        <time>2019-08-24T10:41:11.608Z</time>
      </trkpt>
      <trkpt lat="45.69976" lon="5.63266">
        <ele>339</ele>
        <time>2019-08-24T10:41:16.603Z</time>
      </trkpt>
      <trkpt lat="45.69974" lon="5.63257">
        <ele>342</ele>
        <time>2019-08-24T10:41:21.614Z</time>
      </trkpt>
      <trkpt lat="45.69972" lon="5.63246">
        <ele>342</ele>
        <time>2019-08-24T10:41:26.612Z</time>
      </trkpt>
      <trkpt lat="45.6997" lon="5.63236">
        <ele>342</ele>
        <time>2019-08-24T10:41:31.598Z</time>
      </trkpt>
      <trkpt lat="45.6997" lon="5.63229">
        <ele>344</ele>
        <time>2019-08-24T10:41:35.617Z</time>
      </trkpt>
      <trkpt lat="45.69968" lon="5.63221">
        <ele>344</ele>
        <time>2019-08-24T10:41:40.602Z</time>
      </trkpt>
      <trkpt lat="45.69965" lon="5.63216">
        <ele>344</ele>
        <time>2019-08-24T10:41:44.608Z</time>
      </trkpt>
      <trkpt lat="45.69962" lon="5.63207">
        <ele>348</ele>
        <time>2019-08-24T10:41:49.605Z</time>
      </trkpt>
      <trkpt lat="45.69959" lon="5.63197">
        <ele>348</ele>
        <time>2019-08-24T10:41:54.613Z</time>
      </trkpt>
      <trkpt lat="45.69958" lon="5.63189">
        <ele>349</ele>
        <time>2019-08-24T10:41:59.595Z</time>
      </trkpt>
      <trkpt lat="45.69956" lon="5.63182">
        <ele>349</ele>
        <time>2019-08-24T10:42:04.619Z</time>
      </trkpt>
      <trkpt lat="45.69954" lon="5.63172">
        <ele>352</ele>
        <time>2019-08-24T10:42:09.610Z</time>
      </trkpt>
      <trkpt lat="45.69953" lon="5.63161">
        <ele>352</ele>
        <time>2019-08-24T10:42:14.619Z</time>
      </trkpt>
      <trkpt lat="45.69954" lon="5.63152">
        <ele>355</ele>
        <time>2019-08-24T10:42:19.609Z</time>
      </trkpt>
      <trkpt lat="45.69954" lon="5.63144">
        <ele>355</ele>
        <time>2019-08-24T10:42:24.606Z</time>
      </trkpt>
      <trkpt lat="45.69957" lon="5.63136">
        <ele>355</ele>
        <time>2019-08-24T10:42:29.623Z</time>
      </trkpt>
      <trkpt lat="45.69961" lon="5.6313">
        <ele>355</ele>
        <time>2019-08-24T10:42:34.617Z</time>
      </trkpt>
      <trkpt lat="45.6996" lon="5.63122">
        <ele>357</ele>
        <time>2019-08-24T10:42:39.627Z</time>
      </trkpt>
      <trkpt lat="45.69958" lon="5.63112">
        <ele>357</ele>
        <time>2019-08-24T10:42:44.606Z</time>
      </trkpt>
      <trkpt lat="45.69957" lon="5.63103">
        <ele>357</ele>
        <time>2019-08-24T10:42:49.609Z</time>
      </trkpt>
      <trkpt lat="45.69956" lon="5.63094">
        <ele>360</ele>
        <time>2019-08-24T10:42:54.602Z</time>
      </trkpt>
      <trkpt lat="45.69954" lon="5.63088">
        <ele>360</ele>
        <time>2019-08-24T10:42:58.617Z</time>
      </trkpt>
      <trkpt lat="45.69951" lon="5.63078">
        <ele>360</ele>
        <time>2019-08-24T10:43:03.610Z</time>
      </trkpt>
      <trkpt lat="45.69946" lon="5.63071">
        <ele>360</ele>
        <time>2019-08-24T10:43:08.607Z</time>
      </trkpt>
      <trkpt lat="45.69946" lon="5.6307">
        <ele>360</ele>
        <time>2019-08-24T10:43:12.601Z</time>
      </trkpt>
      <trkpt lat="45.69943" lon="5.63065">
        <ele>364</ele>
        <time>2019-08-24T10:43:17.601Z</time>
      </trkpt>
      <trkpt lat="45.6994" lon="5.6306">
        <ele>364</ele>
        <time>2019-08-24T10:43:21.609Z</time>
      </trkpt>
      <trkpt lat="45.69937" lon="5.63056">
        <ele>364</ele>
        <time>2019-08-24T10:43:26.618Z</time>
      </trkpt>
      <trkpt lat="45.69933" lon="5.63049">
        <ele>364</ele>
        <time>2019-08-24T10:43:31.623Z</time>
      </trkpt>
      <trkpt lat="45.69928" lon="5.63039">
        <ele>366</ele>
        <time>2019-08-24T10:43:36.602Z</time>
      </trkpt>
      <trkpt lat="45.69923" lon="5.63034">
        <ele>366</ele>
        <time>2019-08-24T10:43:40.611Z</time>
      </trkpt>
      <trkpt lat="45.69919" lon="5.63027">
        <ele>366</ele>
        <time>2019-08-24T10:43:45.617Z</time>
      </trkpt>
      <trkpt lat="45.69914" lon="5.6302">
        <ele>366</ele>
        <time>2019-08-24T10:43:50.600Z</time>
      </trkpt>
      <trkpt lat="45.6991" lon="5.63014">
        <ele>366</ele>
        <time>2019-08-24T10:43:54.617Z</time>
      </trkpt>
      <trkpt lat="45.69907" lon="5.63009">
        <ele>369</ele>
        <time>2019-08-24T10:43:58.611Z</time>
      </trkpt>
      <trkpt lat="45.69904" lon="5.63002">
        <ele>369</ele>
        <time>2019-08-24T10:44:02.619Z</time>
      </trkpt>
      <trkpt lat="45.699" lon="5.62996">
        <ele>368</ele>
        <time>2019-08-24T10:44:07.600Z</time>
      </trkpt>
      <trkpt lat="45.69898" lon="5.62991">
        <ele>368</ele>
        <time>2019-08-24T10:44:12.609Z</time>
      </trkpt>
      <trkpt lat="45.69896" lon="5.62985">
        <ele>371</ele>
        <time>2019-08-24T10:44:16.620Z</time>
      </trkpt>
      <trkpt lat="45.69894" lon="5.62976">
        <ele>371</ele>
        <time>2019-08-24T10:44:21.611Z</time>
      </trkpt>
      <trkpt lat="45.69891" lon="5.62968">
        <ele>371</ele>
        <time>2019-08-24T10:44:26.603Z</time>
      </trkpt>
      <trkpt lat="45.69888" lon="5.62962">
        <ele>371</ele>
        <time>2019-08-24T10:44:30.617Z</time>
      </trkpt>
      <trkpt lat="45.69885" lon="5.62955">
        <ele>373</ele>
        <time>2019-08-24T10:44:35.601Z</time>
      </trkpt>
      <trkpt lat="45.69884" lon="5.62948">
        <ele>373</ele>
        <time>2019-08-24T10:44:39.627Z</time>
      </trkpt>
      <trkpt lat="45.6988" lon="5.62937">
        <ele>373</ele>
        <time>2019-08-24T10:44:44.604Z</time>
      </trkpt>
      <trkpt lat="45.69876" lon="5.62931">
        <ele>373</ele>
        <time>2019-08-24T10:44:48.611Z</time>
      </trkpt>
      <trkpt lat="45.6987" lon="5.62915">
        <ele>373</ele>
        <time>2019-08-24T10:45:15.604Z</time>
      </trkpt>
      <trkpt lat="45.6987" lon="5.62915">
        <ele>373</ele>
        <time>2019-08-24T10:45:20.602Z</time>
      </trkpt>
      <trkpt lat="45.6987" lon="5.62915">
        <ele>373</ele>
        <time>2019-08-24T10:45:25.602Z</time>
      </trkpt>
      <trkpt lat="45.6987" lon="5.62914">
        <ele>373</ele>
        <time>2019-08-24T10:45:30.596Z</time>
      </trkpt>
      <trkpt lat="45.69869" lon="5.62914">
        <ele>373</ele>
        <time>2019-08-24T10:45:35.612Z</time>
      </trkpt>
      <trkpt lat="45.69868" lon="5.62915">
        <ele>373</ele>
        <time>2019-08-24T10:46:03.593Z</time>
      </trkpt>
      <trkpt lat="45.69869" lon="5.62915">
        <ele>373</ele>
        <time>2019-08-24T10:46:07.599Z</time>
      </trkpt>
      <trkpt lat="45.69866" lon="5.62913">
        <ele>373</ele>
        <time>2019-08-24T10:46:12.613Z</time>
      </trkpt>
      <trkpt lat="45.6986" lon="5.62916">
        <ele>373</ele>
        <time>2019-08-24T10:46:17.624Z</time>
      </trkpt>
      <trkpt lat="45.69852" lon="5.62919">
        <ele>373</ele>
        <time>2019-08-24T10:46:22.617Z</time>
      </trkpt>
      <trkpt lat="45.69846" lon="5.62922">
        <ele>371</ele>
        <time>2019-08-24T10:46:27.604Z</time>
      </trkpt>
      <trkpt lat="45.69841" lon="5.62922">
        <ele>371</ele>
        <time>2019-08-24T10:46:32.605Z</time>
      </trkpt>
      <trkpt lat="45.69838" lon="5.62918">
        <ele>371</ele>
        <time>2019-08-24T10:46:37.597Z</time>
      </trkpt>
      <trkpt lat="45.69834" lon="5.62913">
        <ele>371</ele>
        <time>2019-08-24T10:46:41.600Z</time>
      </trkpt>
      <trkpt lat="45.6983" lon="5.6291">
        <ele>371</ele>
        <time>2019-08-24T10:46:46.596Z</time>
      </trkpt>
      <trkpt lat="45.69825" lon="5.62907">
        <ele>371</ele>
        <time>2019-08-24T10:46:50.614Z</time>
      </trkpt>
      <trkpt lat="45.69821" lon="5.62902">
        <ele>370</ele>
        <time>2019-08-24T10:46:55.606Z</time>
      </trkpt>
      <trkpt lat="45.69816" lon="5.62899">
        <ele>364</ele>
        <time>2019-08-24T10:46:59.618Z</time>
      </trkpt>
      <trkpt lat="45.69817" lon="5.62891">
        <ele>364</ele>
        <time>2019-08-24T10:47:04.612Z</time>
      </trkpt>
      <trkpt lat="45.6982" lon="5.62882">
        <ele>370</ele>
        <time>2019-08-24T10:47:09.606Z</time>
      </trkpt>
      <trkpt lat="45.69823" lon="5.62872">
        <ele>368</ele>
        <time>2019-08-24T10:47:14.614Z</time>
      </trkpt>
      <trkpt lat="45.69826" lon="5.62863">
        <ele>368</ele>
        <time>2019-08-24T10:47:19.606Z</time>
      </trkpt>
      <trkpt lat="45.69829" lon="5.62855">
        <ele>368</ele>
        <time>2019-08-24T10:47:24.614Z</time>
      </trkpt>
      <trkpt lat="45.6983" lon="5.62848">
        <ele>368</ele>
        <time>2019-08-24T10:47:28.615Z</time>
      </trkpt>
      <trkpt lat="45.69831" lon="5.6284">
        <ele>366</ele>
        <time>2019-08-24T10:47:33.605Z</time>
      </trkpt>
      <trkpt lat="45.69832" lon="5.62833">
        <ele>366</ele>
        <time>2019-08-24T10:47:37.616Z</time>
      </trkpt>
      <trkpt lat="45.69832" lon="5.62826">
        <ele>366</ele>
        <time>2019-08-24T10:47:41.609Z</time>
      </trkpt>
      <trkpt lat="45.69833" lon="5.62818">
        <ele>364</ele>
        <time>2019-08-24T10:47:46.604Z</time>
      </trkpt>
      <trkpt lat="45.69834" lon="5.62811">
        <ele>364</ele>
        <time>2019-08-24T10:47:50.605Z</time>
      </trkpt>
      <trkpt lat="45.69834" lon="5.628">
        <ele>364</ele>
        <time>2019-08-24T10:47:55.622Z</time>
      </trkpt>
      <trkpt lat="45.69834" lon="5.62788">
        <ele>361</ele>
        <time>2019-08-24T10:48:00.605Z</time>
      </trkpt>
      <trkpt lat="45.69834" lon="5.62779">
        <ele>361</ele>
        <time>2019-08-24T10:48:04.603Z</time>
      </trkpt>
      <trkpt lat="45.69832" lon="5.62768">
        <ele>361</ele>
        <time>2019-08-24T10:48:09.595Z</time>
      </trkpt>
      <trkpt lat="45.69832" lon="5.62761">
        <ele>360</ele>
        <time>2019-08-24T10:48:13.615Z</time>
      </trkpt>
      <trkpt lat="45.69834" lon="5.62753">
        <ele>360</ele>
        <time>2019-08-24T10:48:18.589Z</time>
      </trkpt>
      <trkpt lat="45.69835" lon="5.62746">
        <ele>360</ele>
        <time>2019-08-24T10:48:22.618Z</time>
      </trkpt>
      <trkpt lat="45.69836" lon="5.62736">
        <ele>360</ele>
        <time>2019-08-24T10:48:27.633Z</time>
      </trkpt>
      <trkpt lat="45.69836" lon="5.62727">
        <ele>359</ele>
        <time>2019-08-24T10:48:32.611Z</time>
      </trkpt>
      <trkpt lat="45.69838" lon="5.62717">
        <ele>359</ele>
        <time>2019-08-24T10:48:37.618Z</time>
      </trkpt>
      <trkpt lat="45.69839" lon="5.62709">
        <ele>359</ele>
        <time>2019-08-24T10:48:42.612Z</time>
      </trkpt>
      <trkpt lat="45.69839" lon="5.62701">
        <ele>356</ele>
        <time>2019-08-24T10:48:46.614Z</time>
      </trkpt>
      <trkpt lat="45.6984" lon="5.62691">
        <ele>356</ele>
        <time>2019-08-24T10:48:51.613Z</time>
      </trkpt>
      <trkpt lat="45.69842" lon="5.6268">
        <ele>354</ele>
        <time>2019-08-24T10:48:56.601Z</time>
      </trkpt>
      <trkpt lat="45.69843" lon="5.62673">
        <ele>354</ele>
        <time>2019-08-24T10:49:00.614Z</time>
      </trkpt>
      <trkpt lat="45.69844" lon="5.62664">
        <ele>354</ele>
        <time>2019-08-24T10:49:05.616Z</time>
      </trkpt>
      <trkpt lat="45.69846" lon="5.62654">
        <ele>354</ele>
        <time>2019-08-24T10:49:10.618Z</time>
      </trkpt>
      <trkpt lat="45.69847" lon="5.62646">
        <ele>357</ele>
        <time>2019-08-24T10:49:15.619Z</time>
      </trkpt>
      <trkpt lat="45.6985" lon="5.62637">
        <ele>357</ele>
        <time>2019-08-24T10:49:20.612Z</time>
      </trkpt>
      <trkpt lat="45.69851" lon="5.62626">
        <ele>357</ele>
        <time>2019-08-24T10:49:24.612Z</time>
      </trkpt>
      <trkpt lat="45.6985" lon="5.62614">
        <ele>356</ele>
        <time>2019-08-24T10:49:29.622Z</time>
      </trkpt>
      <trkpt lat="45.6985" lon="5.62603">
        <ele>356</ele>
        <time>2019-08-24T10:49:34.612Z</time>
      </trkpt>
      <trkpt lat="45.6985" lon="5.62593">
        <ele>354</ele>
        <time>2019-08-24T10:49:39.596Z</time>
      </trkpt>
      <trkpt lat="45.69849" lon="5.62583">
        <ele>354</ele>
        <time>2019-08-24T10:49:44.608Z</time>
      </trkpt>
      <trkpt lat="45.69848" lon="5.62572">
        <ele>354</ele>
        <time>2019-08-24T10:49:49.594Z</time>
      </trkpt>
      <trkpt lat="45.69847" lon="5.62561">
        <ele>349</ele>
        <time>2019-08-24T10:49:54.612Z</time>
      </trkpt>
      <trkpt lat="45.69845" lon="5.62551">
        <ele>349</ele>
        <time>2019-08-24T10:49:59.606Z</time>
      </trkpt>
      <trkpt lat="45.69842" lon="5.62542">
        <ele>349</ele>
        <time>2019-08-24T10:50:03.599Z</time>
      </trkpt>
      <trkpt lat="45.69841" lon="5.62535">
        <ele>349</ele>
        <time>2019-08-24T10:50:08.610Z</time>
      </trkpt>
      <trkpt lat="45.69836" lon="5.62529">
        <ele>349</ele>
        <time>2019-08-24T10:50:13.613Z</time>
      </trkpt>
      <trkpt lat="45.69832" lon="5.62523">
        <ele>349</ele>
        <time>2019-08-24T10:50:17.608Z</time>
      </trkpt>
      <trkpt lat="45.6983" lon="5.6252">
        <ele>349</ele>
        <time>2019-08-24T10:50:22.600Z</time>
      </trkpt>
      <trkpt lat="45.69829" lon="5.62511">
        <ele>349</ele>
        <time>2019-08-24T10:50:27.620Z</time>
      </trkpt>
      <trkpt lat="45.69828" lon="5.62506">
        <ele>349</ele>
        <time>2019-08-24T10:50:31.640Z</time>
      </trkpt>
      <trkpt lat="45.69827" lon="5.62497">
        <ele>349</ele>
        <time>2019-08-24T10:50:36.612Z</time>
      </trkpt>
      <trkpt lat="45.69828" lon="5.62489">
        <ele>349</ele>
        <time>2019-08-24T10:50:40.630Z</time>
      </trkpt>
      <trkpt lat="45.69826" lon="5.6247">
        <ele>350</ele>
        <time>2019-08-24T10:50:44.608Z</time>
      </trkpt>
      <trkpt lat="45.69825" lon="5.6246">
        <ele>350</ele>
        <time>2019-08-24T10:50:48.616Z</time>
      </trkpt>
      <trkpt lat="45.69824" lon="5.6245">
        <ele>352</ele>
        <time>2019-08-24T10:50:53.606Z</time>
      </trkpt>
      <trkpt lat="45.69822" lon="5.62441">
        <ele>352</ele>
        <time>2019-08-24T10:50:57.640Z</time>
      </trkpt>
      <trkpt lat="45.69822" lon="5.62433">
        <ele>352</ele>
        <time>2019-08-24T10:51:02.593Z</time>
      </trkpt>
      <trkpt lat="45.6982" lon="5.62426">
        <ele>353</ele>
        <time>2019-08-24T10:51:06.613Z</time>
      </trkpt>
      <trkpt lat="45.6982" lon="5.62416">
        <ele>353</ele>
        <time>2019-08-24T10:51:11.602Z</time>
      </trkpt>
      <trkpt lat="45.69819" lon="5.62407">
        <ele>355</ele>
        <time>2019-08-24T10:51:16.631Z</time>
      </trkpt>
      <trkpt lat="45.69818" lon="5.62399">
        <ele>355</ele>
        <time>2019-08-24T10:51:21.597Z</time>
      </trkpt>
      <trkpt lat="45.69818" lon="5.62394">
        <ele>355</ele>
        <time>2019-08-24T10:51:25.636Z</time>
      </trkpt>
      <trkpt lat="45.69814" lon="5.62384">
        <ele>355</ele>
        <time>2019-08-24T10:51:30.608Z</time>
      </trkpt>
      <trkpt lat="45.6981" lon="5.62374">
        <ele>355</ele>
        <time>2019-08-24T10:51:35.601Z</time>
      </trkpt>
      <trkpt lat="45.69808" lon="5.62365">
        <ele>355</ele>
        <time>2019-08-24T10:51:39.633Z</time>
      </trkpt>
      <trkpt lat="45.69807" lon="5.6236">
        <ele>355</ele>
        <time>2019-08-24T10:51:44.598Z</time>
      </trkpt>
      <trkpt lat="45.69804" lon="5.62362">
        <ele>355</ele>
        <time>2019-08-24T10:51:48.611Z</time>
      </trkpt>
      <trkpt lat="45.69796" lon="5.62366">
        <ele>355</ele>
        <time>2019-08-24T10:51:53.593Z</time>
      </trkpt>
      <trkpt lat="45.69788" lon="5.62369">
        <ele>360</ele>
        <time>2019-08-24T10:51:58.602Z</time>
      </trkpt>
      <trkpt lat="45.6978" lon="5.62358">
        <ele>360</ele>
        <time>2019-08-24T12:02:16.869Z</time>
      </trkpt>
      <trkpt lat="45.69789" lon="5.62354">
        <ele>360</ele>
        <time>2019-08-24T12:02:21.871Z</time>
      </trkpt>
      <trkpt lat="45.69795" lon="5.62348">
        <ele>355</ele>
        <time>2019-08-24T12:02:26.874Z</time>
      </trkpt>
      <trkpt lat="45.69798" lon="5.62341">
        <ele>354</ele>
        <time>2019-08-24T12:02:30.867Z</time>
      </trkpt>
      <trkpt lat="45.69801" lon="5.62331">
        <ele>354</ele>
        <time>2019-08-24T12:02:35.872Z</time>
      </trkpt>
      <trkpt lat="45.69802" lon="5.62321">
        <ele>354</ele>
        <time>2019-08-24T12:02:40.863Z</time>
      </trkpt>
      <trkpt lat="45.69799" lon="5.62313">
        <ele>354</ele>
        <time>2019-08-24T12:02:45.882Z</time>
      </trkpt>
      <trkpt lat="45.69797" lon="5.62303">
        <ele>354</ele>
        <time>2019-08-24T12:02:50.866Z</time>
      </trkpt>
      <trkpt lat="45.69796" lon="5.62298">
        <ele>354</ele>
        <time>2019-08-24T12:02:55.875Z</time>
      </trkpt>
      <trkpt lat="45.69795" lon="5.62293">
        <ele>354</ele>
        <time>2019-08-24T12:03:00.864Z</time>
      </trkpt>
      <trkpt lat="45.69793" lon="5.62285">
        <ele>353</ele>
        <time>2019-08-24T12:03:04.874Z</time>
      </trkpt>
      <trkpt lat="45.6979" lon="5.62274">
        <ele>353</ele>
        <time>2019-08-24T12:03:09.862Z</time>
      </trkpt>
      <trkpt lat="45.69787" lon="5.62265">
        <ele>353</ele>
        <time>2019-08-24T12:03:14.875Z</time>
      </trkpt>
      <trkpt lat="45.69787" lon="5.62256">
        <ele>350</ele>
        <time>2019-08-24T12:03:19.870Z</time>
      </trkpt>
      <trkpt lat="45.69789" lon="5.62247">
        <ele>350</ele>
        <time>2019-08-24T12:03:24.882Z</time>
      </trkpt>
      <trkpt lat="45.69794" lon="5.62244">
        <ele>351</ele>
        <time>2019-08-24T12:03:29.868Z</time>
      </trkpt>
      <trkpt lat="45.69799" lon="5.62243">
        <ele>351</ele>
        <time>2019-08-24T12:03:34.861Z</time>
      </trkpt>
      <trkpt lat="45.69806" lon="5.62241">
        <ele>351</ele>
        <time>2019-08-24T12:03:39.862Z</time>
      </trkpt>
      <trkpt lat="45.69813" lon="5.62239">
        <ele>351</ele>
        <time>2019-08-24T12:03:44.869Z</time>
      </trkpt>
      <trkpt lat="45.69815" lon="5.62238">
        <ele>351</ele>
        <time>2019-08-24T12:03:49.869Z</time>
      </trkpt>
      <trkpt lat="45.69822" lon="5.62232">
        <ele>352</ele>
        <time>2019-08-24T12:03:54.871Z</time>
      </trkpt>
      <trkpt lat="45.69829" lon="5.62225">
        <ele>352</ele>
        <time>2019-08-24T12:03:59.861Z</time>
      </trkpt>
      <trkpt lat="45.69833" lon="5.6222">
        <ele>352</ele>
        <time>2019-08-24T12:04:03.885Z</time>
      </trkpt>
      <trkpt lat="45.69838" lon="5.62218">
        <ele>352</ele>
        <time>2019-08-24T12:04:08.862Z</time>
      </trkpt>
      <trkpt lat="45.69843" lon="5.62214">
        <ele>352</ele>
        <time>2019-08-24T12:04:13.870Z</time>
      </trkpt>
      <trkpt lat="45.69847" lon="5.62208">
        <ele>352</ele>
        <time>2019-08-24T12:04:18.860Z</time>
      </trkpt>
      <trkpt lat="45.69851" lon="5.62203">
        <ele>355</ele>
        <time>2019-08-24T12:04:22.875Z</time>
      </trkpt>
      <trkpt lat="45.69855" lon="5.62195">
        <ele>355</ele>
        <time>2019-08-24T12:04:27.863Z</time>
      </trkpt>
      <trkpt lat="45.6986" lon="5.62188">
        <ele>355</ele>
        <time>2019-08-24T12:04:32.876Z</time>
      </trkpt>
      <trkpt lat="45.69864" lon="5.62177">
        <ele>352</ele>
        <time>2019-08-24T12:04:37.867Z</time>
      </trkpt>
      <trkpt lat="45.69868" lon="5.62165">
        <ele>352</ele>
        <time>2019-08-24T12:04:42.865Z</time>
      </trkpt>
      <trkpt lat="45.69871" lon="5.62151">
        <ele>349</ele>
        <time>2019-08-24T12:04:47.880Z</time>
      </trkpt>
      <trkpt lat="45.69872" lon="5.62137">
        <ele>349</ele>
        <time>2019-08-24T12:04:52.878Z</time>
      </trkpt>
      <trkpt lat="45.69873" lon="5.62127">
        <ele>349</ele>
        <time>2019-08-24T12:05:17.865Z</time>
      </trkpt>
      <trkpt lat="45.69873" lon="5.62133">
        <ele>349</ele>
        <time>2019-08-24T12:05:22.862Z</time>
      </trkpt>
      <trkpt lat="45.6987" lon="5.62143">
        <ele>349</ele>
        <time>2019-08-24T12:05:26.874Z</time>
      </trkpt>
      <trkpt lat="45.69861" lon="5.62173">
        <ele>352</ele>
        <time>2019-08-24T12:05:31.865Z</time>
      </trkpt>
      <trkpt lat="45.69852" lon="5.6219">
        <ele>355</ele>
        <time>2019-08-24T12:05:35.877Z</time>
      </trkpt>
      <trkpt lat="45.69847" lon="5.62199">
        <ele>351</ele>
        <time>2019-08-24T12:05:40.869Z</time>
      </trkpt>
      <trkpt lat="45.69844" lon="5.62204">
        <ele>351</ele>
        <time>2019-08-24T12:05:44.878Z</time>
      </trkpt>
      <trkpt lat="45.69839" lon="5.62213">
        <ele>352</ele>
        <time>2019-08-24T12:05:49.861Z</time>
      </trkpt>
      <trkpt lat="45.69835" lon="5.62219">
        <ele>352</ele>
        <time>2019-08-24T12:05:53.869Z</time>
      </trkpt>
      <trkpt lat="45.69831" lon="5.62234">
        <ele>352</ele>
        <time>2019-08-24T12:06:06.878Z</time>
      </trkpt>
      <trkpt lat="45.69836" lon="5.62232">
        <ele>352</ele>
        <time>2019-08-24T12:06:11.869Z</time>
      </trkpt>
      <trkpt lat="45.69841" lon="5.62231">
        <ele>352</ele>
        <time>2019-08-24T12:06:16.871Z</time>
      </trkpt>
      <trkpt lat="45.69847" lon="5.62231">
        <ele>352</ele>
        <time>2019-08-24T12:06:20.863Z</time>
      </trkpt>
      <trkpt lat="45.69852" lon="5.62232">
        <ele>357</ele>
        <time>2019-08-24T12:06:25.869Z</time>
      </trkpt>
      <trkpt lat="45.69859" lon="5.62231">
        <ele>357</ele>
        <time>2019-08-24T12:06:30.882Z</time>
      </trkpt>
      <trkpt lat="45.69861" lon="5.6223">
        <ele>357</ele>
        <time>2019-08-24T12:06:35.873Z</time>
      </trkpt>
      <trkpt lat="45.6987" lon="5.62226">
        <ele>357</ele>
        <time>2019-08-24T12:06:40.877Z</time>
      </trkpt>
      <trkpt lat="45.69874" lon="5.62225">
        <ele>357</ele>
        <time>2019-08-24T12:06:45.878Z</time>
      </trkpt>
      <trkpt lat="45.69881" lon="5.62223">
        <ele>362</ele>
        <time>2019-08-24T12:06:50.873Z</time>
      </trkpt>
      <trkpt lat="45.69883" lon="5.62223">
        <ele>362</ele>
        <time>2019-08-24T12:06:55.879Z</time>
      </trkpt>
      <trkpt lat="45.69888" lon="5.62222">
        <ele>362</ele>
        <time>2019-08-24T12:06:59.878Z</time>
      </trkpt>
      <trkpt lat="45.69894" lon="5.62223">
        <ele>362</ele>
        <time>2019-08-24T12:07:04.870Z</time>
      </trkpt>
      <trkpt lat="45.69899" lon="5.62223">
        <ele>362</ele>
        <time>2019-08-24T12:07:09.878Z</time>
      </trkpt>
      <trkpt lat="45.69905" lon="5.62217">
        <ele>368</ele>
        <time>2019-08-24T12:07:14.875Z</time>
      </trkpt>
      <trkpt lat="45.69907" lon="5.62209">
        <ele>368</ele>
        <time>2019-08-24T12:07:19.861Z</time>
      </trkpt>
      <trkpt lat="45.69909" lon="5.62204">
        <ele>368</ele>
        <time>2019-08-24T12:07:23.876Z</time>
      </trkpt>
      <trkpt lat="45.69913" lon="5.62199">
        <ele>368</ele>
        <time>2019-08-24T12:07:28.872Z</time>
      </trkpt>
      <trkpt lat="45.69915" lon="5.62193">
        <ele>368</ele>
        <time>2019-08-24T12:07:32.860Z</time>
      </trkpt>
      <trkpt lat="45.69918" lon="5.6219">
        <ele>368</ele>
        <time>2019-08-24T12:07:36.865Z</time>
      </trkpt>
      <trkpt lat="45.69923" lon="5.62191">
        <ele>368</ele>
        <time>2019-08-24T12:07:41.874Z</time>
      </trkpt>
      <trkpt lat="45.69927" lon="5.62192">
        <ele>368</ele>
        <time>2019-08-24T12:07:45.883Z</time>
      </trkpt>
      <trkpt lat="45.69932" lon="5.62188">
        <ele>374</ele>
        <time>2019-08-24T12:07:50.867Z</time>
      </trkpt>
      <trkpt lat="45.69937" lon="5.62185">
        <ele>374</ele>
        <time>2019-08-24T12:07:55.863Z</time>
      </trkpt>
      <trkpt lat="45.69942" lon="5.62181">
        <ele>374</ele>
        <time>2019-08-24T12:08:00.863Z</time>
      </trkpt>
      <trkpt lat="45.69947" lon="5.62176">
        <ele>374</ele>
        <time>2019-08-24T12:08:05.856Z</time>
      </trkpt>
      <trkpt lat="45.69952" lon="5.62169">
        <ele>374</ele>
        <time>2019-08-24T12:08:10.860Z</time>
      </trkpt>
      <trkpt lat="45.69956" lon="5.62165">
        <ele>374</ele>
        <time>2019-08-24T12:08:14.865Z</time>
      </trkpt>
      <trkpt lat="45.69961" lon="5.62163">
        <ele>381</ele>
        <time>2019-08-24T12:08:19.868Z</time>
      </trkpt>
      <trkpt lat="45.69968" lon="5.62164">
        <ele>381</ele>
        <time>2019-08-24T12:08:24.867Z</time>
      </trkpt>
      <trkpt lat="45.69973" lon="5.62162">
        <ele>381</ele>
        <time>2019-08-24T12:08:29.875Z</time>
      </trkpt>
      <trkpt lat="45.69974" lon="5.6216">
        <ele>381</ele>
        <time>2019-08-24T12:08:34.868Z</time>
      </trkpt>
      <trkpt lat="45.69977" lon="5.62157">
        <ele>381</ele>
        <time>2019-08-24T12:08:39.871Z</time>
      </trkpt>
      <trkpt lat="45.69981" lon="5.62151">
        <ele>382</ele>
        <time>2019-08-24T12:08:44.864Z</time>
      </trkpt>
      <trkpt lat="45.69983" lon="5.62146">
        <ele>382</ele>
        <time>2019-08-24T12:08:48.878Z</time>
      </trkpt>
      <trkpt lat="45.69986" lon="5.62142">
        <ele>391</ele>
        <time>2019-08-24T12:08:53.866Z</time>
      </trkpt>
      <trkpt lat="45.69988" lon="5.62137">
        <ele>391</ele>
        <time>2019-08-24T12:08:58.865Z</time>
      </trkpt>
      <trkpt lat="45.69991" lon="5.6213">
        <ele>391</ele>
        <time>2019-08-24T12:09:03.867Z</time>
      </trkpt>
      <trkpt lat="45.69995" lon="5.62124">
        <ele>391</ele>
        <time>2019-08-24T12:09:08.867Z</time>
      </trkpt>
      <trkpt lat="45.69996" lon="5.62117">
        <ele>391</ele>
        <time>2019-08-24T12:09:13.860Z</time>
      </trkpt>
      <trkpt lat="45.69998" lon="5.62107">
        <ele>391</ele>
        <time>2019-08-24T12:09:17.875Z</time>
      </trkpt>
      <trkpt lat="45.7" lon="5.62102">
        <ele>391</ele>
        <time>2019-08-24T12:09:22.859Z</time>
      </trkpt>
      <trkpt lat="45.70002" lon="5.62095">
        <ele>390</ele>
        <time>2019-08-24T12:09:27.874Z</time>
      </trkpt>
      <trkpt lat="45.70006" lon="5.62088">
        <ele>390</ele>
        <time>2019-08-24T12:09:32.866Z</time>
      </trkpt>
      <trkpt lat="45.70009" lon="5.62081">
        <ele>390</ele>
        <time>2019-08-24T12:09:37.870Z</time>
      </trkpt>
      <trkpt lat="45.70014" lon="5.62074">
        <ele>398</ele>
        <time>2019-08-24T12:09:42.862Z</time>
      </trkpt>
      <trkpt lat="45.70016" lon="5.62071">
        <ele>398</ele>
        <time>2019-08-24T12:09:46.876Z</time>
      </trkpt>
      <trkpt lat="45.7002" lon="5.62067">
        <ele>395</ele>
        <time>2019-08-24T12:09:51.872Z</time>
      </trkpt>
      <trkpt lat="45.70023" lon="5.62062">
        <ele>395</ele>
        <time>2019-08-24T12:09:56.872Z</time>
      </trkpt>
      <trkpt lat="45.70029" lon="5.62055">
        <ele>395</ele>
        <time>2019-08-24T12:10:01.861Z</time>
      </trkpt>
      <trkpt lat="45.70032" lon="5.62052">
        <ele>395</ele>
        <time>2019-08-24T12:10:05.865Z</time>
      </trkpt>
      <trkpt lat="45.70035" lon="5.62046">
        <ele>395</ele>
        <time>2019-08-24T12:10:10.858Z</time>
      </trkpt>
      <trkpt lat="45.70038" lon="5.62044">
        <ele>395</ele>
        <time>2019-08-24T12:10:14.866Z</time>
      </trkpt>
      <trkpt lat="45.70042" lon="5.6204">
        <ele>398</ele>
        <time>2019-08-24T12:10:18.868Z</time>
      </trkpt>
      <trkpt lat="45.70047" lon="5.62036">
        <ele>398</ele>
        <time>2019-08-24T12:10:23.863Z</time>
      </trkpt>
      <trkpt lat="45.70054" lon="5.62028">
        <ele>398</ele>
        <time>2019-08-24T12:10:28.869Z</time>
      </trkpt>
      <trkpt lat="45.70059" lon="5.6202">
        <ele>398</ele>
        <time>2019-08-24T12:10:33.871Z</time>
      </trkpt>
      <trkpt lat="45.70061" lon="5.62014">
        <ele>398</ele>
        <time>2019-08-24T12:10:38.851Z</time>
      </trkpt>
      <trkpt lat="45.70064" lon="5.6201">
        <ele>391</ele>
        <time>2019-08-24T12:10:42.860Z</time>
      </trkpt>
      <trkpt lat="45.70068" lon="5.62005">
        <ele>391</ele>
        <time>2019-08-24T12:10:47.860Z</time>
      </trkpt>
      <trkpt lat="45.70073" lon="5.62">
        <ele>396</ele>
        <time>2019-08-24T12:10:51.861Z</time>
      </trkpt>
      <trkpt lat="45.70078" lon="5.61997">
        <ele>396</ele>
        <time>2019-08-24T12:11:41.860Z</time>
      </trkpt>
      <trkpt lat="45.70078" lon="5.61997">
        <ele>396</ele>
        <time>2019-08-24T12:11:45.882Z</time>
      </trkpt>
      <trkpt lat="45.70076" lon="5.61997">
        <ele>396</ele>
        <time>2019-08-24T12:11:49.900Z</time>
      </trkpt>
      <trkpt lat="45.70074" lon="5.61998">
        <ele>396</ele>
        <time>2019-08-24T12:11:54.863Z</time>
      </trkpt>
      <trkpt lat="45.70069" lon="5.61999">
        <ele>391</ele>
        <time>2019-08-24T12:11:59.866Z</time>
      </trkpt>
      <trkpt lat="45.70067" lon="5.61999">
        <ele>391</ele>
        <time>2019-08-24T12:12:03.868Z</time>
      </trkpt>
      <trkpt lat="45.70065" lon="5.61998">
        <ele>391</ele>
        <time>2019-08-24T12:12:08.859Z</time>
      </trkpt>
      <trkpt lat="45.70062" lon="5.61998">
        <ele>391</ele>
        <time>2019-08-24T12:12:12.866Z</time>
      </trkpt>
      <trkpt lat="45.70056" lon="5.61999">
        <ele>391</ele>
        <time>2019-08-24T12:12:17.869Z</time>
      </trkpt>
      <trkpt lat="45.70052" lon="5.62002">
        <ele>391</ele>
        <time>2019-08-24T12:12:22.867Z</time>
      </trkpt>
      <trkpt lat="45.70049" lon="5.62006">
        <ele>391</ele>
        <time>2019-08-24T12:12:26.873Z</time>
      </trkpt>
      <trkpt lat="45.70044" lon="5.62009">
        <ele>391</ele>
        <time>2019-08-24T12:12:31.871Z</time>
      </trkpt>
      <trkpt lat="45.70039" lon="5.6201">
        <ele>382</ele>
        <time>2019-08-24T12:12:36.870Z</time>
      </trkpt>
      <trkpt lat="45.70034" lon="5.62011">
        <ele>382</ele>
        <time>2019-08-24T12:12:41.861Z</time>
      </trkpt>
      <trkpt lat="45.70031" lon="5.62013">
        <ele>382</ele>
        <time>2019-08-24T12:12:45.857Z</time>
      </trkpt>
      <trkpt lat="45.70029" lon="5.62014">
        <ele>382</ele>
        <time>2019-08-24T12:12:50.864Z</time>
      </trkpt>
      <trkpt lat="45.70024" lon="5.62014">
        <ele>391</ele>
        <time>2019-08-24T12:12:55.861Z</time>
      </trkpt>
      <trkpt lat="45.70021" lon="5.62015">
        <ele>391</ele>
        <time>2019-08-24T12:12:59.878Z</time>
      </trkpt>
      <trkpt lat="45.70016" lon="5.62014">
        <ele>391</ele>
        <time>2019-08-24T12:13:04.866Z</time>
      </trkpt>
      <trkpt lat="45.70012" lon="5.62009">
        <ele>376</ele>
        <time>2019-08-24T12:13:08.871Z</time>
      </trkpt>
      <trkpt lat="45.7001" lon="5.62004">
        <ele>376</ele>
        <time>2019-08-24T12:13:13.872Z</time>
      </trkpt>
      <trkpt lat="45.70008" lon="5.61998">
        <ele>376</ele>
        <time>2019-08-24T12:13:18.863Z</time>
      </trkpt>
      <trkpt lat="45.70007" lon="5.61993">
        <ele>376</ele>
        <time>2019-08-24T12:13:23.876Z</time>
      </trkpt>
      <trkpt lat="45.70004" lon="5.61986">
        <ele>374</ele>
        <time>2019-08-24T12:13:28.875Z</time>
      </trkpt>
      <trkpt lat="45.70002" lon="5.61981">
        <ele>374</ele>
        <time>2019-08-24T12:13:33.877Z</time>
      </trkpt>
      <trkpt lat="45.69999" lon="5.61973">
        <ele>374</ele>
        <time>2019-08-24T12:13:38.860Z</time>
      </trkpt>
      <trkpt lat="45.69997" lon="5.6197">
        <ele>374</ele>
        <time>2019-08-24T12:13:43.858Z</time>
      </trkpt>
      <trkpt lat="45.69995" lon="5.61967">
        <ele>374</ele>
        <time>2019-08-24T12:13:47.876Z</time>
      </trkpt>
      <trkpt lat="45.69991" lon="5.61962">
        <ele>374</ele>
        <time>2019-08-24T12:13:52.878Z</time>
      </trkpt>
      <trkpt lat="45.69989" lon="5.61956">
        <ele>371</ele>
        <time>2019-08-24T12:13:57.873Z</time>
      </trkpt>
      <trkpt lat="45.69985" lon="5.61951">
        <ele>366</ele>
        <time>2019-08-24T12:14:01.877Z</time>
      </trkpt>
      <trkpt lat="45.69983" lon="5.61948">
        <ele>366</ele>
        <time>2019-08-24T12:14:05.886Z</time>
      </trkpt>
      <trkpt lat="45.69979" lon="5.61944">
        <ele>366</ele>
        <time>2019-08-24T12:14:10.882Z</time>
      </trkpt>
      <trkpt lat="45.69976" lon="5.61937">
        <ele>366</ele>
        <time>2019-08-24T12:14:15.875Z</time>
      </trkpt>
      <trkpt lat="45.69976" lon="5.61928">
        <ele>365</ele>
        <time>2019-08-24T12:14:20.877Z</time>
      </trkpt>
      <trkpt lat="45.69977" lon="5.6192">
        <ele>365</ele>
        <time>2019-08-24T12:14:25.872Z</time>
      </trkpt>
      <trkpt lat="45.69978" lon="5.61912">
        <ele>365</ele>
        <time>2019-08-24T12:14:30.879Z</time>
      </trkpt>
      <trkpt lat="45.69979" lon="5.61903">
        <ele>363</ele>
        <time>2019-08-24T12:14:35.870Z</time>
      </trkpt>
      <trkpt lat="45.69983" lon="5.61893">
        <ele>363</ele>
        <time>2019-08-24T12:14:40.869Z</time>
      </trkpt>
      <trkpt lat="45.69982" lon="5.61889">
        <ele>363</ele>
        <time>2019-08-24T12:14:44.880Z</time>
      </trkpt>
      <trkpt lat="45.69981" lon="5.61882">
        <ele>363</ele>
        <time>2019-08-24T12:14:48.872Z</time>
      </trkpt>
      <trkpt lat="45.69977" lon="5.61873">
        <ele>360</ele>
        <time>2019-08-24T12:14:53.866Z</time>
      </trkpt>
      <trkpt lat="45.69973" lon="5.61867">
        <ele>360</ele>
        <time>2019-08-24T12:14:58.855Z</time>
      </trkpt>
      <trkpt lat="45.69971" lon="5.61865">
        <ele>360</ele>
        <time>2019-08-24T12:15:03.879Z</time>
      </trkpt>
      <trkpt lat="45.69968" lon="5.61861">
        <ele>360</ele>
        <time>2019-08-24T12:15:08.856Z</time>
      </trkpt>
      <trkpt lat="45.69965" lon="5.6186">
        <ele>360</ele>
        <time>2019-08-24T12:15:12.874Z</time>
      </trkpt>
      <trkpt lat="45.6996" lon="5.61857">
        <ele>360</ele>
        <time>2019-08-24T12:15:16.885Z</time>
      </trkpt>
      <trkpt lat="45.69952" lon="5.61849">
        <ele>357</ele>
        <time>2019-08-24T12:15:21.866Z</time>
      </trkpt>
      <trkpt lat="45.69944" lon="5.61845">
        <ele>357</ele>
        <time>2019-08-24T12:15:26.866Z</time>
      </trkpt>
      <trkpt lat="45.69938" lon="5.6184">
        <ele>357</ele>
        <time>2019-08-24T12:15:31.857Z</time>
      </trkpt>
      <trkpt lat="45.69932" lon="5.61833">
        <ele>357</ele>
        <time>2019-08-24T12:15:35.866Z</time>
      </trkpt>
      <trkpt lat="45.69929" lon="5.61826">
        <ele>358</ele>
        <time>2019-08-24T12:15:40.863Z</time>
      </trkpt>
      <trkpt lat="45.69931" lon="5.61818">
        <ele>362</ele>
        <time>2019-08-24T12:15:45.835Z</time>
      </trkpt>
      <trkpt lat="45.69935" lon="5.61813">
        <ele>362</ele>
        <time>2019-08-24T12:15:49.877Z</time>
      </trkpt>
      <trkpt lat="45.69937" lon="5.61808">
        <ele>362</ele>
        <time>2019-08-24T12:15:53.867Z</time>
      </trkpt>
      <trkpt lat="45.69939" lon="5.61801">
        <ele>362</ele>
        <time>2019-08-24T12:15:58.877Z</time>
      </trkpt>
      <trkpt lat="45.69942" lon="5.61795">
        <ele>362</ele>
        <time>2019-08-24T12:16:03.859Z</time>
      </trkpt>
      <trkpt lat="45.69946" lon="5.6179">
        <ele>367</ele>
        <time>2019-08-24T12:16:08.870Z</time>
      </trkpt>
      <trkpt lat="45.69949" lon="5.61787">
        <ele>367</ele>
        <time>2019-08-24T12:16:12.864Z</time>
      </trkpt>
      <trkpt lat="45.69953" lon="5.61785">
        <ele>367</ele>
        <time>2019-08-24T12:16:16.874Z</time>
      </trkpt>
      <trkpt lat="45.69958" lon="5.61778">
        <ele>367</ele>
        <time>2019-08-24T12:16:21.869Z</time>
      </trkpt>
      <trkpt lat="45.6996" lon="5.6177">
        <ele>364</ele>
        <time>2019-08-24T12:16:26.869Z</time>
      </trkpt>
      <trkpt lat="45.69962" lon="5.61764">
        <ele>364</ele>
        <time>2019-08-24T12:16:30.864Z</time>
      </trkpt>
      <trkpt lat="45.69965" lon="5.61756">
        <ele>370</ele>
        <time>2019-08-24T12:16:35.867Z</time>
      </trkpt>
      <trkpt lat="45.6997" lon="5.61748">
        <ele>370</ele>
        <time>2019-08-24T12:16:40.871Z</time>
      </trkpt>
      <trkpt lat="45.69974" lon="5.61742">
        <ele>370</ele>
        <time>2019-08-24T12:16:45.874Z</time>
      </trkpt>
      <trkpt lat="45.69977" lon="5.61737">
        <ele>370</ele>
        <time>2019-08-24T12:16:50.863Z</time>
      </trkpt>
      <trkpt lat="45.69982" lon="5.61736">
        <ele>379</ele>
        <time>2019-08-24T12:16:54.876Z</time>
      </trkpt>
      <trkpt lat="45.69986" lon="5.6173">
        <ele>379</ele>
        <time>2019-08-24T12:16:59.869Z</time>
      </trkpt>
      <trkpt lat="45.69989" lon="5.6172">
        <ele>368</ele>
        <time>2019-08-24T12:17:04.878Z</time>
      </trkpt>
      <trkpt lat="45.69994" lon="5.61713">
        <ele>368</ele>
        <time>2019-08-24T12:17:09.863Z</time>
      </trkpt>
      <trkpt lat="45.69999" lon="5.61708">
        <ele>372</ele>
        <time>2019-08-24T12:17:14.863Z</time>
      </trkpt>
      <trkpt lat="45.70001" lon="5.61705">
        <ele>372</ele>
        <time>2019-08-24T12:17:18.864Z</time>
      </trkpt>
      <trkpt lat="45.70003" lon="5.617">
        <ele>372</ele>
        <time>2019-08-24T12:17:23.862Z</time>
      </trkpt>
      <trkpt lat="45.70007" lon="5.61696">
        <ele>372</ele>
        <time>2019-08-24T12:17:28.855Z</time>
      </trkpt>
      <trkpt lat="45.7001" lon="5.61691">
        <ele>372</ele>
        <time>2019-08-24T12:17:32.868Z</time>
      </trkpt>
      <trkpt lat="45.70017" lon="5.61685">
        <ele>365</ele>
        <time>2019-08-24T12:17:37.871Z</time>
      </trkpt>
      <trkpt lat="45.70021" lon="5.61682">
        <ele>365</ele>
        <time>2019-08-24T12:17:42.887Z</time>
      </trkpt>
      <trkpt lat="45.70023" lon="5.61684">
        <ele>365</ele>
        <time>2019-08-24T12:17:47.873Z</time>
      </trkpt>
      <trkpt lat="45.70032" lon="5.61684">
        <ele>365</ele>
        <time>2019-08-24T12:17:52.871Z</time>
      </trkpt>
      <trkpt lat="45.70038" lon="5.61678">
        <ele>365</ele>
        <time>2019-08-24T12:17:57.875Z</time>
      </trkpt>
      <trkpt lat="45.70039" lon="5.61674">
        <ele>365</ele>
        <time>2019-08-24T12:18:01.880Z</time>
      </trkpt>
      <trkpt lat="45.70039" lon="5.61667">
        <ele>365</ele>
        <time>2019-08-24T12:18:06.875Z</time>
      </trkpt>
      <trkpt lat="45.70038" lon="5.61661">
        <ele>365</ele>
        <time>2019-08-24T12:18:11.876Z</time>
      </trkpt>
      <trkpt lat="45.70038" lon="5.61657">
        <ele>365</ele>
        <time>2019-08-24T12:18:15.883Z</time>
      </trkpt>
      <trkpt lat="45.70039" lon="5.61653">
        <ele>365</ele>
        <time>2019-08-24T12:18:20.861Z</time>
      </trkpt>
      <trkpt lat="45.70041" lon="5.61647">
        <ele>370</ele>
        <time>2019-08-24T12:18:24.869Z</time>
      </trkpt>
      <trkpt lat="45.70044" lon="5.61641">
        <ele>367</ele>
        <time>2019-08-24T12:18:29.881Z</time>
      </trkpt>
      <trkpt lat="45.70047" lon="5.61631">
        <ele>367</ele>
        <time>2019-08-24T12:18:34.875Z</time>
      </trkpt>
      <trkpt lat="45.7005" lon="5.61621">
        <ele>370</ele>
        <time>2019-08-24T12:18:38.868Z</time>
      </trkpt>
      <trkpt lat="45.70055" lon="5.61616">
        <ele>370</ele>
        <time>2019-08-24T12:18:43.880Z</time>
      </trkpt>
      <trkpt lat="45.70059" lon="5.61614">
        <ele>370</ele>
        <time>2019-08-24T12:18:48.865Z</time>
      </trkpt>
      <trkpt lat="45.70062" lon="5.61612">
        <ele>370</ele>
        <time>2019-08-24T12:18:52.875Z</time>
      </trkpt>
      <trkpt lat="45.70067" lon="5.61607">
        <ele>370</ele>
        <time>2019-08-24T12:18:57.865Z</time>
      </trkpt>
      <trkpt lat="45.70074" lon="5.61602">
        <ele>367</ele>
        <time>2019-08-24T12:19:02.863Z</time>
      </trkpt>
      <trkpt lat="45.70078" lon="5.61601">
        <ele>367</ele>
        <time>2019-08-24T12:19:06.865Z</time>
      </trkpt>
      <trkpt lat="45.70083" lon="5.61599">
        <ele>367</ele>
        <time>2019-08-24T12:19:11.872Z</time>
      </trkpt>
      <trkpt lat="45.70088" lon="5.61596">
        <ele>368</ele>
        <time>2019-08-24T12:19:15.882Z</time>
      </trkpt>
      <trkpt lat="45.70091" lon="5.61592">
        <ele>368</ele>
        <time>2019-08-24T12:19:20.860Z</time>
      </trkpt>
      <trkpt lat="45.70096" lon="5.6159">
        <ele>368</ele>
        <time>2019-08-24T12:19:25.862Z</time>
      </trkpt>
      <trkpt lat="45.70101" lon="5.61588">
        <ele>366</ele>
        <time>2019-08-24T12:19:29.872Z</time>
      </trkpt>
      <trkpt lat="45.70106" lon="5.61586">
        <ele>366</ele>
        <time>2019-08-24T12:19:34.870Z</time>
      </trkpt>
      <trkpt lat="45.70111" lon="5.61584">
        <ele>366</ele>
        <time>2019-08-24T12:19:38.877Z</time>
      </trkpt>
      <trkpt lat="45.70119" lon="5.61585">
        <ele>366</ele>
        <time>2019-08-24T12:19:43.872Z</time>
      </trkpt>
      <trkpt lat="45.70124" lon="5.61585">
        <ele>366</ele>
        <time>2019-08-24T12:19:48.878Z</time>
      </trkpt>
      <trkpt lat="45.70131" lon="5.61585">
        <ele>370</ele>
        <time>2019-08-24T12:19:53.881Z</time>
      </trkpt>
      <trkpt lat="45.70139" lon="5.61587">
        <ele>370</ele>
        <time>2019-08-24T12:19:58.881Z</time>
      </trkpt>
      <trkpt lat="45.70145" lon="5.61587">
        <ele>370</ele>
        <time>2019-08-24T12:20:03.876Z</time>
      </trkpt>
      <trkpt lat="45.70152" lon="5.61588">
        <ele>370</ele>
        <time>2019-08-24T12:20:08.862Z</time>
      </trkpt>
      <trkpt lat="45.70159" lon="5.61589">
        <ele>373</ele>
        <time>2019-08-24T12:20:13.862Z</time>
      </trkpt>
      <trkpt lat="45.70166" lon="5.61594">
        <ele>373</ele>
        <time>2019-08-24T12:20:18.859Z</time>
      </trkpt>
      <trkpt lat="45.70171" lon="5.616">
        <ele>373</ele>
        <time>2019-08-24T12:20:23.868Z</time>
      </trkpt>
      <trkpt lat="45.70175" lon="5.61606">
        <ele>373</ele>
        <time>2019-08-24T12:20:28.874Z</time>
      </trkpt>
      <trkpt lat="45.70179" lon="5.61612">
        <ele>373</ele>
        <time>2019-08-24T12:20:33.865Z</time>
      </trkpt>
      <trkpt lat="45.70182" lon="5.61615">
        <ele>376</ele>
        <time>2019-08-24T12:20:37.877Z</time>
      </trkpt>
      <trkpt lat="45.70186" lon="5.61618">
        <ele>376</ele>
        <time>2019-08-24T12:20:42.867Z</time>
      </trkpt>
      <trkpt lat="45.70191" lon="5.61617">
        <ele>376</ele>
        <time>2019-08-24T12:20:47.870Z</time>
      </trkpt>
      <trkpt lat="45.70195" lon="5.61616">
        <ele>376</ele>
        <time>2019-08-24T12:20:52.865Z</time>
      </trkpt>
      <trkpt lat="45.70199" lon="5.61616">
        <ele>376</ele>
        <time>2019-08-24T12:20:56.876Z</time>
      </trkpt>
      <trkpt lat="45.70203" lon="5.61613">
        <ele>376</ele>
        <time>2019-08-24T12:21:01.881Z</time>
      </trkpt>
      <trkpt lat="45.70207" lon="5.61609">
        <ele>376</ele>
        <time>2019-08-24T12:21:06.867Z</time>
      </trkpt>
      <trkpt lat="45.70211" lon="5.61607">
        <ele>379</ele>
        <time>2019-08-24T12:21:10.876Z</time>
      </trkpt>
      <trkpt lat="45.70213" lon="5.61602">
        <ele>379</ele>
        <time>2019-08-24T12:21:15.873Z</time>
      </trkpt>
      <trkpt lat="45.70215" lon="5.61595">
        <ele>379</ele>
        <time>2019-08-24T12:21:19.867Z</time>
      </trkpt>
      <trkpt lat="45.70215" lon="5.61582">
        <ele>379</ele>
        <time>2019-08-24T12:21:24.853Z</time>
      </trkpt>
      <trkpt lat="45.70217" lon="5.61575">
        <ele>379</ele>
        <time>2019-08-24T12:21:28.880Z</time>
      </trkpt>
      <trkpt lat="45.70222" lon="5.61569">
        <ele>380</ele>
        <time>2019-08-24T12:21:33.871Z</time>
      </trkpt>
      <trkpt lat="45.70228" lon="5.61564">
        <ele>380</ele>
        <time>2019-08-24T12:21:38.853Z</time>
      </trkpt>
      <trkpt lat="45.70231" lon="5.6156">
        <ele>380</ele>
        <time>2019-08-24T12:21:42.861Z</time>
      </trkpt>
      <trkpt lat="45.70235" lon="5.61555">
        <ele>380</ele>
        <time>2019-08-24T12:21:47.862Z</time>
      </trkpt>
      <trkpt lat="45.70239" lon="5.61553">
        <ele>381</ele>
        <time>2019-08-24T12:21:51.862Z</time>
      </trkpt>
      <trkpt lat="45.70244" lon="5.61552">
        <ele>381</ele>
        <time>2019-08-24T12:21:55.873Z</time>
      </trkpt>
      <trkpt lat="45.70252" lon="5.61553">
        <ele>381</ele>
        <time>2019-08-24T12:22:00.865Z</time>
      </trkpt>
      <trkpt lat="45.70257" lon="5.61555">
        <ele>381</ele>
        <time>2019-08-24T12:22:05.864Z</time>
      </trkpt>
      <trkpt lat="45.70259" lon="5.61556">
        <ele>381</ele>
        <time>2019-08-24T12:22:10.868Z</time>
      </trkpt>
      <trkpt lat="45.70263" lon="5.61562">
        <ele>381</ele>
        <time>2019-08-24T12:22:15.868Z</time>
      </trkpt>
      <trkpt lat="45.70268" lon="5.6157">
        <ele>380</ele>
        <time>2019-08-24T12:22:20.865Z</time>
      </trkpt>
      <trkpt lat="45.70274" lon="5.61577">
        <ele>380</ele>
        <time>2019-08-24T12:22:25.876Z</time>
      </trkpt>
      <trkpt lat="45.70279" lon="5.61583">
        <ele>380</ele>
        <time>2019-08-24T12:22:30.879Z</time>
      </trkpt>
      <trkpt lat="45.70282" lon="5.6159">
        <ele>380</ele>
        <time>2019-08-24T12:22:35.876Z</time>
      </trkpt>
      <trkpt lat="45.70285" lon="5.61599">
        <ele>379</ele>
        <time>2019-08-24T12:22:40.871Z</time>
      </trkpt>
      <trkpt lat="45.70288" lon="5.61605">
        <ele>379</ele>
        <time>2019-08-24T12:22:44.884Z</time>
      </trkpt>
      <trkpt lat="45.70293" lon="5.61611">
        <ele>381</ele>
        <time>2019-08-24T12:22:49.863Z</time>
      </trkpt>
      <trkpt lat="45.70298" lon="5.61618">
        <ele>381</ele>
        <time>2019-08-24T12:22:54.865Z</time>
      </trkpt>
      <trkpt lat="45.70302" lon="5.61624">
        <ele>381</ele>
        <time>2019-08-24T12:22:59.866Z</time>
      </trkpt>
      <trkpt lat="45.70307" lon="5.61632">
        <ele>383</ele>
        <time>2019-08-24T12:23:04.873Z</time>
      </trkpt>
      <trkpt lat="45.70312" lon="5.6164">
        <ele>383</ele>
        <time>2019-08-24T12:23:09.884Z</time>
      </trkpt>
      <trkpt lat="45.70316" lon="5.61646">
        <ele>383</ele>
        <time>2019-08-24T12:23:14.860Z</time>
      </trkpt>
      <trkpt lat="45.70317" lon="5.61647">
        <ele>383</ele>
        <time>2019-08-24T12:23:18.868Z</time>
      </trkpt>
      <trkpt lat="45.70323" lon="5.61646">
        <ele>385</ele>
        <time>2019-08-24T12:23:23.869Z</time>
      </trkpt>
      <trkpt lat="45.70327" lon="5.61646">
        <ele>385</ele>
        <time>2019-08-24T12:23:28.864Z</time>
      </trkpt>
      <trkpt lat="45.70331" lon="5.6164">
        <ele>385</ele>
        <time>2019-08-24T12:23:33.860Z</time>
      </trkpt>
      <trkpt lat="45.70336" lon="5.61635">
        <ele>385</ele>
        <time>2019-08-24T12:23:38.858Z</time>
      </trkpt>
      <trkpt lat="45.7034" lon="5.61631">
        <ele>385</ele>
        <time>2019-08-24T12:23:43.849Z</time>
      </trkpt>
      <trkpt lat="45.70343" lon="5.61627">
        <ele>385</ele>
        <time>2019-08-24T12:23:47.858Z</time>
      </trkpt>
      <trkpt lat="45.70348" lon="5.61621">
        <ele>387</ele>
        <time>2019-08-24T12:23:52.865Z</time>
      </trkpt>
      <trkpt lat="45.70353" lon="5.61617">
        <ele>387</ele>
        <time>2019-08-24T12:23:56.868Z</time>
      </trkpt>
      <trkpt lat="45.70357" lon="5.61613">
        <ele>387</ele>
        <time>2019-08-24T12:24:00.847Z</time>
      </trkpt>
      <trkpt lat="45.70361" lon="5.61608">
        <ele>387</ele>
        <time>2019-08-24T12:24:04.861Z</time>
      </trkpt>
      <trkpt lat="45.70365" lon="5.61604">
        <ele>387</ele>
        <time>2019-08-24T12:24:09.875Z</time>
      </trkpt>
      <trkpt lat="45.70368" lon="5.61597">
        <ele>387</ele>
        <time>2019-08-24T12:24:14.868Z</time>
      </trkpt>
      <trkpt lat="45.70373" lon="5.6159">
        <ele>384</ele>
        <time>2019-08-24T12:24:19.853Z</time>
      </trkpt>
      <trkpt lat="45.70378" lon="5.61583">
        <ele>391</ele>
        <time>2019-08-24T12:24:24.871Z</time>
      </trkpt>
      <trkpt lat="45.70384" lon="5.61579">
        <ele>391</ele>
        <time>2019-08-24T12:24:29.861Z</time>
      </trkpt>
      <trkpt lat="45.70387" lon="5.61572">
        <ele>391</ele>
        <time>2019-08-24T12:24:34.870Z</time>
      </trkpt>
      <trkpt lat="45.7039" lon="5.61566">
        <ele>389</ele>
        <time>2019-08-24T12:24:39.871Z</time>
      </trkpt>
      <trkpt lat="45.70395" lon="5.6156">
        <ele>389</ele>
        <time>2019-08-24T12:24:44.875Z</time>
      </trkpt>
      <trkpt lat="45.70398" lon="5.6155">
        <ele>389</ele>
        <time>2019-08-24T12:24:49.868Z</time>
      </trkpt>
      <trkpt lat="45.704" lon="5.61545">
        <ele>389</ele>
        <time>2019-08-24T12:24:53.867Z</time>
      </trkpt>
      <trkpt lat="45.70402" lon="5.61538">
        <ele>388</ele>
        <time>2019-08-24T12:24:58.853Z</time>
      </trkpt>
      <trkpt lat="45.70406" lon="5.61534">
        <ele>394</ele>
        <time>2019-08-24T12:25:02.852Z</time>
      </trkpt>
      <trkpt lat="45.70411" lon="5.6153">
        <ele>394</ele>
        <time>2019-08-24T12:25:07.857Z</time>
      </trkpt>
      <trkpt lat="45.70413" lon="5.61526">
        <ele>394</ele>
        <time>2019-08-24T12:25:12.874Z</time>
      </trkpt>
      <trkpt lat="45.70417" lon="5.61522">
        <ele>394</ele>
        <time>2019-08-24T12:25:16.860Z</time>
      </trkpt>
      <trkpt lat="45.70419" lon="5.61517">
        <ele>394</ele>
        <time>2019-08-24T12:25:20.866Z</time>
      </trkpt>
      <trkpt lat="45.70423" lon="5.6151">
        <ele>391</ele>
        <time>2019-08-24T12:25:25.873Z</time>
      </trkpt>
      <trkpt lat="45.70428" lon="5.61505">
        <ele>391</ele>
        <time>2019-08-24T12:25:30.865Z</time>
      </trkpt>
      <trkpt lat="45.70433" lon="5.61494">
        <ele>395</ele>
        <time>2019-08-24T12:25:35.869Z</time>
      </trkpt>
      <trkpt lat="45.70439" lon="5.61487">
        <ele>395</ele>
        <time>2019-08-24T12:25:40.876Z</time>
      </trkpt>
      <trkpt lat="45.70443" lon="5.61478">
        <ele>389</ele>
        <time>2019-08-24T12:25:45.855Z</time>
      </trkpt>
      <trkpt lat="45.70447" lon="5.61471">
        <ele>389</ele>
        <time>2019-08-24T12:25:49.867Z</time>
      </trkpt>
      <trkpt lat="45.7045" lon="5.61468">
        <ele>389</ele>
        <time>2019-08-24T12:25:54.869Z</time>
      </trkpt>
      <trkpt lat="45.70454" lon="5.61461">
        <ele>389</ele>
        <time>2019-08-24T12:25:59.861Z</time>
      </trkpt>
      <trkpt lat="45.70458" lon="5.61452">
        <ele>385</ele>
        <time>2019-08-24T12:26:03.870Z</time>
      </trkpt>
      <trkpt lat="45.70462" lon="5.61449">
        <ele>387</ele>
        <time>2019-08-24T12:26:08.854Z</time>
      </trkpt>
      <trkpt lat="45.70466" lon="5.61446">
        <ele>387</ele>
        <time>2019-08-24T12:26:13.870Z</time>
      </trkpt>
      <trkpt lat="45.70473" lon="5.61445">
        <ele>387</ele>
        <time>2019-08-24T12:26:18.867Z</time>
      </trkpt>
      <trkpt lat="45.70479" lon="5.61445">
        <ele>387</ele>
        <time>2019-08-24T12:26:23.857Z</time>
      </trkpt>
      <trkpt lat="45.70486" lon="5.61445">
        <ele>386</ele>
        <time>2019-08-24T12:26:27.873Z</time>
      </trkpt>
      <trkpt lat="45.70493" lon="5.61441">
        <ele>386</ele>
        <time>2019-08-24T12:26:32.847Z</time>
      </trkpt>
      <trkpt lat="45.70498" lon="5.61437">
        <ele>386</ele>
        <time>2019-08-24T12:26:36.865Z</time>
      </trkpt>
      <trkpt lat="45.70503" lon="5.61431">
        <ele>386</ele>
        <time>2019-08-24T12:26:41.867Z</time>
      </trkpt>
      <trkpt lat="45.70507" lon="5.61426">
        <ele>384</ele>
        <time>2019-08-24T12:26:46.857Z</time>
      </trkpt>
      <trkpt lat="45.70511" lon="5.61418">
        <ele>384</ele>
        <time>2019-08-24T12:26:51.878Z</time>
      </trkpt>
      <trkpt lat="45.70516" lon="5.6141">
        <ele>384</ele>
        <time>2019-08-24T12:26:56.854Z</time>
      </trkpt>
      <trkpt lat="45.70519" lon="5.61406">
        <ele>384</ele>
        <time>2019-08-24T12:27:01.856Z</time>
      </trkpt>
      <trkpt lat="45.70524" lon="5.61403">
        <ele>384</ele>
        <time>2019-08-24T12:27:05.854Z</time>
      </trkpt>
      <trkpt lat="45.7053" lon="5.614">
        <ele>384</ele>
        <time>2019-08-24T12:27:10.869Z</time>
      </trkpt>
      <trkpt lat="45.70536" lon="5.61398">
        <ele>384</ele>
        <time>2019-08-24T12:27:15.862Z</time>
      </trkpt>
      <trkpt lat="45.70541" lon="5.61397">
        <ele>384</ele>
        <time>2019-08-24T12:27:20.863Z</time>
      </trkpt>
      <trkpt lat="45.70546" lon="5.61394">
        <ele>384</ele>
        <time>2019-08-24T12:27:24.866Z</time>
      </trkpt>
      <trkpt lat="45.70551" lon="5.61389">
        <ele>384</ele>
        <time>2019-08-24T12:27:29.867Z</time>
      </trkpt>
      <trkpt lat="45.70556" lon="5.61382">
        <ele>384</ele>
        <time>2019-08-24T12:27:34.864Z</time>
      </trkpt>
      <trkpt lat="45.70559" lon="5.61373">
        <ele>384</ele>
        <time>2019-08-24T12:27:39.867Z</time>
      </trkpt>
      <trkpt lat="45.70563" lon="5.6137">
        <ele>384</ele>
        <time>2019-08-24T12:27:44.868Z</time>
      </trkpt>
      <trkpt lat="45.70566" lon="5.61366">
        <ele>384</ele>
        <time>2019-08-24T12:27:48.878Z</time>
      </trkpt>
      <trkpt lat="45.70571" lon="5.61364">
        <ele>382</ele>
        <time>2019-08-24T12:27:53.863Z</time>
      </trkpt>
      <trkpt lat="45.70576" lon="5.61356">
        <ele>382</ele>
        <time>2019-08-24T12:27:58.861Z</time>
      </trkpt>
      <trkpt lat="45.70581" lon="5.61349">
        <ele>382</ele>
        <time>2019-08-24T12:28:03.878Z</time>
      </trkpt>
      <trkpt lat="45.70583" lon="5.61346">
        <ele>383</ele>
        <time>2019-08-24T12:28:08.871Z</time>
      </trkpt>
      <trkpt lat="45.70589" lon="5.61338">
        <ele>383</ele>
        <time>2019-08-24T12:28:13.862Z</time>
      </trkpt>
      <trkpt lat="45.70598" lon="5.61333">
        <ele>381</ele>
        <time>2019-08-24T12:28:18.871Z</time>
      </trkpt>
      <trkpt lat="45.70605" lon="5.61325">
        <ele>381</ele>
        <time>2019-08-24T12:28:23.866Z</time>
      </trkpt>
      <trkpt lat="45.7061" lon="5.6132">
        <ele>381</ele>
        <time>2019-08-24T12:28:28.859Z</time>
      </trkpt>
      <trkpt lat="45.70615" lon="5.61319">
        <ele>383</ele>
        <time>2019-08-24T12:28:32.873Z</time>
      </trkpt>
      <trkpt lat="45.70622" lon="5.61319">
        <ele>383</ele>
        <time>2019-08-24T12:28:36.868Z</time>
      </trkpt>
      <trkpt lat="45.70628" lon="5.61315">
        <ele>382</ele>
        <time>2019-08-24T12:28:41.869Z</time>
      </trkpt>
      <trkpt lat="45.70635" lon="5.61313">
        <ele>382</ele>
        <time>2019-08-24T12:28:46.867Z</time>
      </trkpt>
      <trkpt lat="45.70641" lon="5.61306">
        <ele>382</ele>
        <time>2019-08-24T12:28:50.880Z</time>
      </trkpt>
      <trkpt lat="45.70646" lon="5.613">
        <ele>382</ele>
        <time>2019-08-24T12:28:54.867Z</time>
      </trkpt>
      <trkpt lat="45.70652" lon="5.61298">
        <ele>382</ele>
        <time>2019-08-24T12:28:59.868Z</time>
      </trkpt>
      <trkpt lat="45.70657" lon="5.61295">
        <ele>381</ele>
        <time>2019-08-24T12:29:04.857Z</time>
      </trkpt>
      <trkpt lat="45.70661" lon="5.61292">
        <ele>381</ele>
        <time>2019-08-24T12:29:08.851Z</time>
      </trkpt>
      <trkpt lat="45.70667" lon="5.6129">
        <ele>382</ele>
        <time>2019-08-24T12:29:13.863Z</time>
      </trkpt>
      <trkpt lat="45.70674" lon="5.61287">
        <ele>382</ele>
        <time>2019-08-24T12:29:18.867Z</time>
      </trkpt>
      <trkpt lat="45.70679" lon="5.61286">
        <ele>382</ele>
        <time>2019-08-24T12:29:22.889Z</time>
      </trkpt>
      <trkpt lat="45.70688" lon="5.61288">
        <ele>382</ele>
        <time>2019-08-24T12:29:27.853Z</time>
      </trkpt>
      <trkpt lat="45.70693" lon="5.61285">
        <ele>382</ele>
        <time>2019-08-24T12:29:32.870Z</time>
      </trkpt>
      <trkpt lat="45.70699" lon="5.6128">
        <ele>382</ele>
        <time>2019-08-24T12:29:37.851Z</time>
      </trkpt>
      <trkpt lat="45.70705" lon="5.61275">
        <ele>382</ele>
        <time>2019-08-24T12:29:41.861Z</time>
      </trkpt>
      <trkpt lat="45.70712" lon="5.61272">
        <ele>380</ele>
        <time>2019-08-24T12:29:46.867Z</time>
      </trkpt>
      <trkpt lat="45.70719" lon="5.61267">
        <ele>380</ele>
        <time>2019-08-24T12:29:51.880Z</time>
      </trkpt>
      <trkpt lat="45.70725" lon="5.6126">
        <ele>383</ele>
        <time>2019-08-24T12:29:56.868Z</time>
      </trkpt>
      <trkpt lat="45.70729" lon="5.61253">
        <ele>383</ele>
        <time>2019-08-24T12:30:01.873Z</time>
      </trkpt>
      <trkpt lat="45.70736" lon="5.61246">
        <ele>383</ele>
        <time>2019-08-24T12:30:06.866Z</time>
      </trkpt>
      <trkpt lat="45.7074" lon="5.61242">
        <ele>385</ele>
        <time>2019-08-24T12:30:11.863Z</time>
      </trkpt>
      <trkpt lat="45.70746" lon="5.61239">
        <ele>385</ele>
        <time>2019-08-24T12:30:16.859Z</time>
      </trkpt>
      <trkpt lat="45.70752" lon="5.61234">
        <ele>387</ele>
        <time>2019-08-24T12:30:21.841Z</time>
      </trkpt>
      <trkpt lat="45.70757" lon="5.6123">
        <ele>387</ele>
        <time>2019-08-24T12:30:26.867Z</time>
      </trkpt>
      <trkpt lat="45.70763" lon="5.61227">
        <ele>387</ele>
        <time>2019-08-24T12:30:31.852Z</time>
      </trkpt>
      <trkpt lat="45.70768" lon="5.61225">
        <ele>391</ele>
        <time>2019-08-24T12:30:35.871Z</time>
      </trkpt>
      <trkpt lat="45.70775" lon="5.61222">
        <ele>391</ele>
        <time>2019-08-24T12:30:40.870Z</time>
      </trkpt>
      <trkpt lat="45.70782" lon="5.61219">
        <ele>391</ele>
        <time>2019-08-24T12:30:45.865Z</time>
      </trkpt>
      <trkpt lat="45.70787" lon="5.61217">
        <ele>391</ele>
        <time>2019-08-24T12:30:49.864Z</time>
      </trkpt>
      <trkpt lat="45.70794" lon="5.61213">
        <ele>397</ele>
        <time>2019-08-24T12:30:54.874Z</time>
      </trkpt>
      <trkpt lat="45.708" lon="5.61209">
        <ele>397</ele>
        <time>2019-08-24T12:30:59.848Z</time>
      </trkpt>
      <trkpt lat="45.70804" lon="5.61205">
        <ele>395</ele>
        <time>2019-08-24T12:31:03.874Z</time>
      </trkpt>
      <trkpt lat="45.70808" lon="5.61198">
        <ele>395</ele>
        <time>2019-08-24T12:31:08.855Z</time>
      </trkpt>
      <trkpt lat="45.70812" lon="5.61194">
        <ele>395</ele>
        <time>2019-08-24T12:31:12.861Z</time>
      </trkpt>
      <trkpt lat="45.70818" lon="5.61187">
        <ele>395</ele>
        <time>2019-08-24T12:31:17.850Z</time>
      </trkpt>
      <trkpt lat="45.70822" lon="5.61182">
        <ele>398</ele>
        <time>2019-08-24T12:31:22.853Z</time>
      </trkpt>
      <trkpt lat="45.70826" lon="5.61177">
        <ele>395</ele>
        <time>2019-08-24T12:31:26.878Z</time>
      </trkpt>
      <trkpt lat="45.70831" lon="5.61174">
        <ele>395</ele>
        <time>2019-08-24T12:31:31.841Z</time>
      </trkpt>
      <trkpt lat="45.70836" lon="5.61169">
        <ele>395</ele>
        <time>2019-08-24T12:31:35.870Z</time>
      </trkpt>
      <trkpt lat="45.70842" lon="5.6117">
        <ele>395</ele>
        <time>2019-08-24T12:31:40.861Z</time>
      </trkpt>
      <trkpt lat="45.70849" lon="5.6117">
        <ele>393</ele>
        <time>2019-08-24T12:31:45.859Z</time>
      </trkpt>
      <trkpt lat="45.70854" lon="5.61173">
        <ele>393</ele>
        <time>2019-08-24T12:31:50.870Z</time>
      </trkpt>
      <trkpt lat="45.70859" lon="5.61174">
        <ele>393</ele>
        <time>2019-08-24T12:31:55.862Z</time>
      </trkpt>
      <trkpt lat="45.70863" lon="5.61173">
        <ele>393</ele>
        <time>2019-08-24T12:32:00.865Z</time>
      </trkpt>
      <trkpt lat="45.7087" lon="5.61174">
        <ele>393</ele>
        <time>2019-08-24T12:32:05.866Z</time>
      </trkpt>
      <trkpt lat="45.70876" lon="5.61178">
        <ele>392</ele>
        <time>2019-08-24T12:32:10.857Z</time>
      </trkpt>
      <trkpt lat="45.70882" lon="5.6118">
        <ele>392</ele>
        <time>2019-08-24T12:32:14.868Z</time>
      </trkpt>
      <trkpt lat="45.7089" lon="5.61182">
        <ele>396</ele>
        <time>2019-08-24T12:32:19.846Z</time>
      </trkpt>
      <trkpt lat="45.70896" lon="5.61183">
        <ele>396</ele>
        <time>2019-08-24T12:32:23.866Z</time>
      </trkpt>
      <trkpt lat="45.70903" lon="5.61186">
        <ele>392</ele>
        <time>2019-08-24T12:32:28.860Z</time>
      </trkpt>
      <trkpt lat="45.7091" lon="5.61187">
        <ele>392</ele>
        <time>2019-08-24T12:32:33.840Z</time>
      </trkpt>
      <trkpt lat="45.70916" lon="5.61188">
        <ele>392</ele>
        <time>2019-08-24T12:32:37.861Z</time>
      </trkpt>
      <trkpt lat="45.70924" lon="5.61189">
        <ele>392</ele>
        <time>2019-08-24T12:32:42.857Z</time>
      </trkpt>
      <trkpt lat="45.70926" lon="5.6119">
        <ele>392</ele>
        <time>2019-08-24T12:32:46.871Z</time>
      </trkpt>
      <trkpt lat="45.70933" lon="5.61191">
        <ele>386</ele>
        <time>2019-08-24T12:32:51.860Z</time>
      </trkpt>
      <trkpt lat="45.70945" lon="5.61192">
        <ele>386</ele>
        <time>2019-08-24T12:32:56.868Z</time>
      </trkpt>
      <trkpt lat="45.70949" lon="5.61193">
        <ele>386</ele>
        <time>2019-08-24T12:33:01.851Z</time>
      </trkpt>
      <trkpt lat="45.70954" lon="5.6119">
        <ele>386</ele>
        <time>2019-08-24T12:33:06.853Z</time>
      </trkpt>
      <trkpt lat="45.70958" lon="5.61192">
        <ele>386</ele>
        <time>2019-08-24T12:33:10.853Z</time>
      </trkpt>
      <trkpt lat="45.70965" lon="5.61194">
        <ele>379</ele>
        <time>2019-08-24T12:33:15.845Z</time>
      </trkpt>
      <trkpt lat="45.70969" lon="5.61197">
        <ele>379</ele>
        <time>2019-08-24T12:33:20.848Z</time>
      </trkpt>
      <trkpt lat="45.70974" lon="5.61201">
        <ele>379</ele>
        <time>2019-08-24T12:33:24.864Z</time>
      </trkpt>
      <trkpt lat="45.70981" lon="5.61204">
        <ele>379</ele>
        <time>2019-08-24T12:33:29.854Z</time>
      </trkpt>
      <trkpt lat="45.70988" lon="5.61203">
        <ele>378</ele>
        <time>2019-08-24T12:33:34.862Z</time>
      </trkpt>
      <trkpt lat="45.70994" lon="5.61205">
        <ele>378</ele>
        <time>2019-08-24T12:33:39.866Z</time>
      </trkpt>
      <trkpt lat="45.70998" lon="5.61204">
        <ele>378</ele>
        <time>2019-08-24T12:33:43.849Z</time>
      </trkpt>
      <trkpt lat="45.71009" lon="5.61204">
        <ele>378</ele>
        <time>2019-08-24T12:33:48.866Z</time>
      </trkpt>
      <trkpt lat="45.7102" lon="5.612">
        <ele>378</ele>
        <time>2019-08-24T12:33:53.841Z</time>
      </trkpt>
      <trkpt lat="45.71024" lon="5.61199">
        <ele>378</ele>
        <time>2019-08-24T12:33:57.858Z</time>
      </trkpt>
      <trkpt lat="45.71033" lon="5.61198">
        <ele>378</ele>
        <time>2019-08-24T12:34:02.869Z</time>
      </trkpt>
      <trkpt lat="45.71039" lon="5.612">
        <ele>378</ele>
        <time>2019-08-24T12:34:07.854Z</time>
      </trkpt>
      <trkpt lat="45.71042" lon="5.612">
        <ele>377</ele>
        <time>2019-08-24T12:34:12.868Z</time>
      </trkpt>
      <trkpt lat="45.71053" lon="5.612">
        <ele>377</ele>
        <time>2019-08-24T12:34:17.860Z</time>
      </trkpt>
      <trkpt lat="45.71059" lon="5.61198">
        <ele>377</ele>
        <time>2019-08-24T12:34:22.867Z</time>
      </trkpt>
      <trkpt lat="45.71067" lon="5.61194">
        <ele>377</ele>
        <time>2019-08-24T12:34:27.837Z</time>
      </trkpt>
      <trkpt lat="45.71074" lon="5.61191">
        <ele>373</ele>
        <time>2019-08-24T12:34:31.850Z</time>
      </trkpt>
      <trkpt lat="45.71081" lon="5.61189">
        <ele>373</ele>
        <time>2019-08-24T12:34:35.853Z</time>
      </trkpt>
      <trkpt lat="45.71084" lon="5.61188">
        <ele>373</ele>
        <time>2019-08-24T12:34:40.862Z</time>
      </trkpt>
      <trkpt lat="45.71096" lon="5.61186">
        <ele>373</ele>
        <time>2019-08-24T12:34:45.860Z</time>
      </trkpt>
      <trkpt lat="45.71105" lon="5.61184">
        <ele>374</ele>
        <time>2019-08-24T12:34:50.868Z</time>
      </trkpt>
      <trkpt lat="45.71109" lon="5.61185">
        <ele>374</ele>
        <time>2019-08-24T12:34:55.850Z</time>
      </trkpt>
      <trkpt lat="45.71111" lon="5.61184">
        <ele>374</ele>
        <time>2019-08-24T12:35:00.871Z</time>
      </trkpt>
      <trkpt lat="45.71112" lon="5.61183">
        <ele>374</ele>
        <time>2019-08-24T12:35:05.868Z</time>
      </trkpt>
      <trkpt lat="45.71114" lon="5.61182">
        <ele>374</ele>
        <time>2019-08-24T12:35:10.868Z</time>
      </trkpt>
      <trkpt lat="45.71121" lon="5.61179">
        <ele>368</ele>
        <time>2019-08-24T12:35:15.851Z</time>
      </trkpt>
      <trkpt lat="45.71133" lon="5.61177">
        <ele>367</ele>
        <time>2019-08-24T12:35:19.843Z</time>
      </trkpt>
      <trkpt lat="45.71142" lon="5.61178">
        <ele>367</ele>
        <time>2019-08-24T12:35:23.873Z</time>
      </trkpt>
      <trkpt lat="45.71156" lon="5.61182">
        <ele>370</ele>
        <time>2019-08-24T12:35:28.853Z</time>
      </trkpt>
      <trkpt lat="45.71164" lon="5.61185">
        <ele>370</ele>
        <time>2019-08-24T12:35:33.856Z</time>
      </trkpt>
      <trkpt lat="45.71169" lon="5.61185">
        <ele>370</ele>
        <time>2019-08-24T12:35:38.844Z</time>
      </trkpt>
      <trkpt lat="45.71171" lon="5.61185">
        <ele>370</ele>
        <time>2019-08-24T12:35:43.861Z</time>
      </trkpt>
      <trkpt lat="45.71175" lon="5.61185">
        <ele>370</ele>
        <time>2019-08-24T12:35:47.853Z</time>
      </trkpt>
      <trkpt lat="45.7119" lon="5.61186">
        <ele>373</ele>
        <time>2019-08-24T12:35:52.851Z</time>
      </trkpt>
      <trkpt lat="45.71202" lon="5.61189">
        <ele>373</ele>
        <time>2019-08-24T12:35:57.846Z</time>
      </trkpt>
      <trkpt lat="45.71211" lon="5.61188">
        <ele>376</ele>
        <time>2019-08-24T12:36:02.863Z</time>
      </trkpt>
      <trkpt lat="45.71216" lon="5.61187">
        <ele>376</ele>
        <time>2019-08-24T12:36:07.867Z</time>
      </trkpt>
      <trkpt lat="45.71219" lon="5.61186">
        <ele>376</ele>
        <time>2019-08-24T12:36:12.857Z</time>
      </trkpt>
      <trkpt lat="45.71225" lon="5.61184">
        <ele>376</ele>
        <time>2019-08-24T12:36:17.868Z</time>
      </trkpt>
      <trkpt lat="45.71231" lon="5.61182">
        <ele>376</ele>
        <time>2019-08-24T12:36:22.854Z</time>
      </trkpt>
      <trkpt lat="45.71237" lon="5.61181">
        <ele>378</ele>
        <time>2019-08-24T12:36:26.860Z</time>
      </trkpt>
      <trkpt lat="45.71244" lon="5.61178">
        <ele>375</ele>
        <time>2019-08-24T12:36:31.827Z</time>
      </trkpt>
      <trkpt lat="45.71249" lon="5.6118">
        <ele>375</ele>
        <time>2019-08-24T12:36:35.854Z</time>
      </trkpt>
      <trkpt lat="45.71257" lon="5.61183">
        <ele>378</ele>
        <time>2019-08-24T12:36:40.845Z</time>
      </trkpt>
      <trkpt lat="45.71265" lon="5.61187">
        <ele>381</ele>
        <time>2019-08-24T12:36:44.863Z</time>
      </trkpt>
      <trkpt lat="45.71276" lon="5.61188">
        <ele>381</ele>
        <time>2019-08-24T12:36:49.864Z</time>
      </trkpt>
      <trkpt lat="45.71284" lon="5.61187">
        <ele>381</ele>
        <time>2019-08-24T12:36:54.855Z</time>
      </trkpt>
      <trkpt lat="45.71287" lon="5.61184">
        <ele>381</ele>
        <time>2019-08-24T12:36:59.843Z</time>
      </trkpt>
      <trkpt lat="45.7129" lon="5.61182">
        <ele>381</ele>
        <time>2019-08-24T12:37:04.844Z</time>
      </trkpt>
      <trkpt lat="45.71297" lon="5.61177">
        <ele>382</ele>
        <time>2019-08-24T12:37:08.869Z</time>
      </trkpt>
      <trkpt lat="45.71303" lon="5.61174">
        <ele>382</ele>
        <time>2019-08-24T12:37:12.867Z</time>
      </trkpt>
      <trkpt lat="45.71308" lon="5.61171">
        <ele>382</ele>
        <time>2019-08-24T12:37:17.838Z</time>
      </trkpt>
      <trkpt lat="45.71312" lon="5.61167">
        <ele>382</ele>
        <time>2019-08-24T12:37:21.859Z</time>
      </trkpt>
      <trkpt lat="45.71317" lon="5.61164">
        <ele>382</ele>
        <time>2019-08-24T12:37:26.878Z</time>
      </trkpt>
      <trkpt lat="45.71321" lon="5.61159">
        <ele>383</ele>
        <time>2019-08-24T12:37:31.866Z</time>
      </trkpt>
      <trkpt lat="45.71327" lon="5.61153">
        <ele>383</ele>
        <time>2019-08-24T12:37:36.854Z</time>
      </trkpt>
      <trkpt lat="45.7133" lon="5.6115">
        <ele>378</ele>
        <time>2019-08-24T12:37:40.859Z</time>
      </trkpt>
      <trkpt lat="45.71334" lon="5.61146">
        <ele>378</ele>
        <time>2019-08-24T12:37:44.858Z</time>
      </trkpt>
      <trkpt lat="45.71339" lon="5.6114">
        <ele>378</ele>
        <time>2019-08-24T12:37:49.837Z</time>
      </trkpt>
      <trkpt lat="45.71344" lon="5.61136">
        <ele>378</ele>
        <time>2019-08-24T12:37:53.852Z</time>
      </trkpt>
      <trkpt lat="45.71353" lon="5.61128">
        <ele>381</ele>
        <time>2019-08-24T12:37:58.857Z</time>
      </trkpt>
      <trkpt lat="45.71356" lon="5.61125">
        <ele>381</ele>
        <time>2019-08-24T12:38:02.849Z</time>
      </trkpt>
      <trkpt lat="45.7136" lon="5.61122">
        <ele>376</ele>
        <time>2019-08-24T12:38:07.857Z</time>
      </trkpt>
      <trkpt lat="45.71365" lon="5.61119">
        <ele>376</ele>
        <time>2019-08-24T12:38:12.849Z</time>
      </trkpt>
      <trkpt lat="45.71371" lon="5.61112">
        <ele>376</ele>
        <time>2019-08-24T12:38:17.843Z</time>
      </trkpt>
      <trkpt lat="45.71377" lon="5.61106">
        <ele>378</ele>
        <time>2019-08-24T12:38:22.858Z</time>
      </trkpt>
      <trkpt lat="45.71381" lon="5.61102">
        <ele>378</ele>
        <time>2019-08-24T12:38:27.857Z</time>
      </trkpt>
      <trkpt lat="45.71385" lon="5.61098">
        <ele>378</ele>
        <time>2019-08-24T12:38:31.870Z</time>
      </trkpt>
      <trkpt lat="45.7139" lon="5.61094">
        <ele>375</ele>
        <time>2019-08-24T12:38:36.864Z</time>
      </trkpt>
      <trkpt lat="45.71396" lon="5.61086">
        <ele>375</ele>
        <time>2019-08-24T12:38:41.844Z</time>
      </trkpt>
      <trkpt lat="45.71401" lon="5.61082">
        <ele>375</ele>
        <time>2019-08-24T12:38:45.847Z</time>
      </trkpt>
      <trkpt lat="45.71406" lon="5.61078">
        <ele>376</ele>
        <time>2019-08-24T12:38:50.840Z</time>
      </trkpt>
      <trkpt lat="45.7141" lon="5.61073">
        <ele>376</ele>
        <time>2019-08-24T12:38:54.854Z</time>
      </trkpt>
      <trkpt lat="45.71416" lon="5.61067">
        <ele>372</ele>
        <time>2019-08-24T12:38:59.848Z</time>
      </trkpt>
      <trkpt lat="45.71421" lon="5.61061">
        <ele>372</ele>
        <time>2019-08-24T12:39:03.856Z</time>
      </trkpt>
      <trkpt lat="45.71426" lon="5.61055">
        <ele>372</ele>
        <time>2019-08-24T12:39:08.864Z</time>
      </trkpt>
      <trkpt lat="45.71434" lon="5.61047">
        <ele>374</ele>
        <time>2019-08-24T12:39:13.844Z</time>
      </trkpt>
      <trkpt lat="45.71439" lon="5.6104">
        <ele>370</ele>
        <time>2019-08-24T12:39:17.843Z</time>
      </trkpt>
      <trkpt lat="45.71445" lon="5.61036">
        <ele>370</ele>
        <time>2019-08-24T12:39:22.863Z</time>
      </trkpt>
      <trkpt lat="45.71449" lon="5.61031">
        <ele>370</ele>
        <time>2019-08-24T12:39:27.851Z</time>
      </trkpt>
      <trkpt lat="45.71452" lon="5.61026">
        <ele>370</ele>
        <time>2019-08-24T12:39:31.845Z</time>
      </trkpt>
      <trkpt lat="45.71458" lon="5.6102">
        <ele>370</ele>
        <time>2019-08-24T12:39:36.860Z</time>
      </trkpt>
      <trkpt lat="45.71462" lon="5.61013">
        <ele>370</ele>
        <time>2019-08-24T12:39:41.846Z</time>
      </trkpt>
      <trkpt lat="45.71467" lon="5.61007">
        <ele>370</ele>
        <time>2019-08-24T12:39:45.863Z</time>
      </trkpt>
      <trkpt lat="45.71472" lon="5.61">
        <ele>370</ele>
        <time>2019-08-24T12:39:49.857Z</time>
      </trkpt>
      <trkpt lat="45.71474" lon="5.6099">
        <ele>370</ele>
        <time>2019-08-24T12:39:54.855Z</time>
      </trkpt>
      <trkpt lat="45.71478" lon="5.60982">
        <ele>369</ele>
        <time>2019-08-24T12:39:59.836Z</time>
      </trkpt>
      <trkpt lat="45.7148" lon="5.60973">
        <ele>369</ele>
        <time>2019-08-24T12:40:04.870Z</time>
      </trkpt>
      <trkpt lat="45.71482" lon="5.60965">
        <ele>369</ele>
        <time>2019-08-24T12:40:09.850Z</time>
      </trkpt>
      <trkpt lat="45.71485" lon="5.60955">
        <ele>370</ele>
        <time>2019-08-24T12:40:14.857Z</time>
      </trkpt>
      <trkpt lat="45.71487" lon="5.60948">
        <ele>371</ele>
        <time>2019-08-24T12:40:19.840Z</time>
      </trkpt>
      <trkpt lat="45.71491" lon="5.60939">
        <ele>371</ele>
        <time>2019-08-24T12:40:24.855Z</time>
      </trkpt>
      <trkpt lat="45.71494" lon="5.60928">
        <ele>370</ele>
        <time>2019-08-24T12:40:29.855Z</time>
      </trkpt>
      <trkpt lat="45.71496" lon="5.6092">
        <ele>370</ele>
        <time>2019-08-24T12:40:34.851Z</time>
      </trkpt>
      <trkpt lat="45.71497" lon="5.60911">
        <ele>370</ele>
        <time>2019-08-24T12:40:39.870Z</time>
      </trkpt>
      <trkpt lat="45.715" lon="5.60902">
        <ele>371</ele>
        <time>2019-08-24T12:40:44.856Z</time>
      </trkpt>
      <trkpt lat="45.71501" lon="5.60898">
        <ele>371</ele>
        <time>2019-08-24T12:40:48.863Z</time>
      </trkpt>
      <trkpt lat="45.71503" lon="5.60887">
        <ele>371</ele>
        <time>2019-08-24T12:40:53.841Z</time>
      </trkpt>
      <trkpt lat="45.71507" lon="5.60877">
        <ele>371</ele>
        <time>2019-08-24T12:40:58.858Z</time>
      </trkpt>
      <trkpt lat="45.7151" lon="5.60865">
        <ele>371</ele>
        <time>2019-08-24T12:41:03.845Z</time>
      </trkpt>
      <trkpt lat="45.71512" lon="5.60858">
        <ele>371</ele>
        <time>2019-08-24T12:41:08.862Z</time>
      </trkpt>
      <trkpt lat="45.71516" lon="5.60851">
        <ele>371</ele>
        <time>2019-08-24T12:41:13.860Z</time>
      </trkpt>
      <trkpt lat="45.7152" lon="5.60845">
        <ele>370</ele>
        <time>2019-08-24T12:41:18.859Z</time>
      </trkpt>
      <trkpt lat="45.71524" lon="5.60838">
        <ele>370</ele>
        <time>2019-08-24T12:41:23.853Z</time>
      </trkpt>
      <trkpt lat="45.71529" lon="5.60834">
        <ele>370</ele>
        <time>2019-08-24T12:41:28.861Z</time>
      </trkpt>
      <trkpt lat="45.71535" lon="5.60825">
        <ele>370</ele>
        <time>2019-08-24T12:41:33.863Z</time>
      </trkpt>
      <trkpt lat="45.7154" lon="5.60815">
        <ele>369</ele>
        <time>2019-08-24T12:41:38.863Z</time>
      </trkpt>
      <trkpt lat="45.71542" lon="5.60809">
        <ele>367</ele>
        <time>2019-08-24T12:41:42.854Z</time>
      </trkpt>
      <trkpt lat="45.71548" lon="5.60802">
        <ele>367</ele>
        <time>2019-08-24T12:41:47.871Z</time>
      </trkpt>
      <trkpt lat="45.71553" lon="5.60795">
        <ele>367</ele>
        <time>2019-08-24T12:41:52.866Z</time>
      </trkpt>
      <trkpt lat="45.71556" lon="5.60785">
        <ele>365</ele>
        <time>2019-08-24T12:41:57.857Z</time>
      </trkpt>
      <trkpt lat="45.71561" lon="5.60778">
        <ele>365</ele>
        <time>2019-08-24T12:42:02.846Z</time>
      </trkpt>
      <trkpt lat="45.71566" lon="5.60772">
        <ele>365</ele>
        <time>2019-08-24T12:42:06.858Z</time>
      </trkpt>
      <trkpt lat="45.71572" lon="5.60766">
        <ele>365</ele>
        <time>2019-08-24T12:42:11.883Z</time>
      </trkpt>
      <trkpt lat="45.71579" lon="5.60761">
        <ele>363</ele>
        <time>2019-08-24T12:42:16.854Z</time>
      </trkpt>
      <trkpt lat="45.71586" lon="5.60754">
        <ele>363</ele>
        <time>2019-08-24T12:42:21.849Z</time>
      </trkpt>
      <trkpt lat="45.71591" lon="5.60749">
        <ele>363</ele>
        <time>2019-08-24T12:42:25.856Z</time>
      </trkpt>
      <trkpt lat="45.71598" lon="5.60744">
        <ele>364</ele>
        <time>2019-08-24T12:42:30.870Z</time>
      </trkpt>
      <trkpt lat="45.71603" lon="5.60738">
        <ele>364</ele>
        <time>2019-08-24T12:42:34.882Z</time>
      </trkpt>
      <trkpt lat="45.71609" lon="5.60731">
        <ele>364</ele>
        <time>2019-08-24T12:42:39.880Z</time>
      </trkpt>
      <trkpt lat="45.71614" lon="5.60727">
        <ele>364</ele>
        <time>2019-08-24T12:42:43.859Z</time>
      </trkpt>
      <trkpt lat="45.7162" lon="5.60724">
        <ele>364</ele>
        <time>2019-08-24T12:42:48.850Z</time>
      </trkpt>
      <trkpt lat="45.71624" lon="5.60719">
        <ele>364</ele>
        <time>2019-08-24T12:42:52.871Z</time>
      </trkpt>
      <trkpt lat="45.71631" lon="5.60713">
        <ele>365</ele>
        <time>2019-08-24T12:42:57.854Z</time>
      </trkpt>
      <trkpt lat="45.71637" lon="5.60708">
        <ele>365</ele>
        <time>2019-08-24T12:43:01.855Z</time>
      </trkpt>
      <trkpt lat="45.71642" lon="5.60703">
        <ele>365</ele>
        <time>2019-08-24T12:43:06.856Z</time>
      </trkpt>
      <trkpt lat="45.71649" lon="5.60697">
        <ele>365</ele>
        <time>2019-08-24T12:43:11.855Z</time>
      </trkpt>
      <trkpt lat="45.71654" lon="5.60692">
        <ele>365</ele>
        <time>2019-08-24T12:43:16.867Z</time>
      </trkpt>
      <trkpt lat="45.71662" lon="5.60687">
        <ele>365</ele>
        <time>2019-08-24T12:43:21.845Z</time>
      </trkpt>
      <trkpt lat="45.71668" lon="5.60684">
        <ele>365</ele>
        <time>2019-08-24T12:43:25.852Z</time>
      </trkpt>
      <trkpt lat="45.71674" lon="5.60681">
        <ele>365</ele>
        <time>2019-08-24T12:43:30.865Z</time>
      </trkpt>
      <trkpt lat="45.71683" lon="5.60678">
        <ele>366</ele>
        <time>2019-08-24T12:43:35.847Z</time>
      </trkpt>
      <trkpt lat="45.71689" lon="5.60674">
        <ele>366</ele>
        <time>2019-08-24T12:43:39.853Z</time>
      </trkpt>
      <trkpt lat="45.71695" lon="5.6067">
        <ele>366</ele>
        <time>2019-08-24T12:43:44.852Z</time>
      </trkpt>
      <trkpt lat="45.71702" lon="5.60665">
        <ele>366</ele>
        <time>2019-08-24T12:43:49.840Z</time>
      </trkpt>
      <trkpt lat="45.71709" lon="5.60664">
        <ele>366</ele>
        <time>2019-08-24T12:43:53.866Z</time>
      </trkpt>
      <trkpt lat="45.71715" lon="5.60659">
        <ele>366</ele>
        <time>2019-08-24T12:43:58.867Z</time>
      </trkpt>
      <trkpt lat="45.7172" lon="5.60655">
        <ele>366</ele>
        <time>2019-08-24T12:44:03.857Z</time>
      </trkpt>
      <trkpt lat="45.71726" lon="5.60651">
        <ele>366</ele>
        <time>2019-08-24T12:44:08.856Z</time>
      </trkpt>
      <trkpt lat="45.71732" lon="5.60646">
        <ele>366</ele>
        <time>2019-08-24T12:44:13.847Z</time>
      </trkpt>
      <trkpt lat="45.71738" lon="5.60641">
        <ele>365</ele>
        <time>2019-08-24T12:44:18.861Z</time>
      </trkpt>
      <trkpt lat="45.71744" lon="5.60636">
        <ele>365</ele>
        <time>2019-08-24T12:44:22.859Z</time>
      </trkpt>
      <trkpt lat="45.7175" lon="5.60631">
        <ele>365</ele>
        <time>2019-08-24T12:44:27.866Z</time>
      </trkpt>
      <trkpt lat="45.71759" lon="5.60626">
        <ele>365</ele>
        <time>2019-08-24T12:44:32.857Z</time>
      </trkpt>
      <trkpt lat="45.71767" lon="5.60623">
        <ele>363</ele>
        <time>2019-08-24T12:44:36.865Z</time>
      </trkpt>
      <trkpt lat="45.71776" lon="5.60621">
        <ele>363</ele>
        <time>2019-08-24T12:44:41.855Z</time>
      </trkpt>
      <trkpt lat="45.71784" lon="5.60618">
        <ele>363</ele>
        <time>2019-08-24T12:44:46.865Z</time>
      </trkpt>
      <trkpt lat="45.71792" lon="5.60614">
        <ele>363</ele>
        <time>2019-08-24T12:44:51.856Z</time>
      </trkpt>
      <trkpt lat="45.718" lon="5.60612">
        <ele>363</ele>
        <time>2019-08-24T12:44:56.839Z</time>
      </trkpt>
      <trkpt lat="45.71808" lon="5.60609">
        <ele>363</ele>
        <time>2019-08-24T12:45:01.850Z</time>
      </trkpt>
      <trkpt lat="45.71814" lon="5.60608">
        <ele>363</ele>
        <time>2019-08-24T12:45:06.854Z</time>
      </trkpt>
      <trkpt lat="45.71821" lon="5.60604">
        <ele>363</ele>
        <time>2019-08-24T12:45:11.857Z</time>
      </trkpt>
      <trkpt lat="45.71828" lon="5.60601">
        <ele>363</ele>
        <time>2019-08-24T12:45:16.857Z</time>
      </trkpt>
      <trkpt lat="45.71833" lon="5.60597">
        <ele>364</ele>
        <time>2019-08-24T12:45:20.865Z</time>
      </trkpt>
      <trkpt lat="45.71839" lon="5.60594">
        <ele>364</ele>
        <time>2019-08-24T12:45:24.860Z</time>
      </trkpt>
      <trkpt lat="45.71845" lon="5.6059">
        <ele>364</ele>
        <time>2019-08-24T12:45:29.861Z</time>
      </trkpt>
      <trkpt lat="45.71851" lon="5.60586">
        <ele>364</ele>
        <time>2019-08-24T12:45:34.858Z</time>
      </trkpt>
      <trkpt lat="45.71857" lon="5.60581">
        <ele>364</ele>
        <time>2019-08-24T12:45:39.867Z</time>
      </trkpt>
      <trkpt lat="45.71864" lon="5.60576">
        <ele>364</ele>
        <time>2019-08-24T12:45:44.868Z</time>
      </trkpt>
      <trkpt lat="45.7187" lon="5.60572">
        <ele>364</ele>
        <time>2019-08-24T12:45:49.852Z</time>
      </trkpt>
      <trkpt lat="45.71876" lon="5.60566">
        <ele>366</ele>
        <time>2019-08-24T12:45:54.863Z</time>
      </trkpt>
      <trkpt lat="45.71882" lon="5.6056">
        <ele>366</ele>
        <time>2019-08-24T12:45:59.857Z</time>
      </trkpt>
      <trkpt lat="45.71887" lon="5.60556">
        <ele>366</ele>
        <time>2019-08-24T12:46:03.865Z</time>
      </trkpt>
      <trkpt lat="45.71892" lon="5.60552">
        <ele>366</ele>
        <time>2019-08-24T12:46:08.871Z</time>
      </trkpt>
      <trkpt lat="45.71897" lon="5.60546">
        <ele>366</ele>
        <time>2019-08-24T12:46:13.866Z</time>
      </trkpt>
      <trkpt lat="45.71902" lon="5.60543">
        <ele>366</ele>
        <time>2019-08-24T12:46:17.856Z</time>
      </trkpt>
      <trkpt lat="45.71909" lon="5.60537">
        <ele>368</ele>
        <time>2019-08-24T12:46:22.865Z</time>
      </trkpt>
      <trkpt lat="45.71915" lon="5.60531">
        <ele>368</ele>
        <time>2019-08-24T12:46:27.861Z</time>
      </trkpt>
      <trkpt lat="45.71923" lon="5.60527">
        <ele>368</ele>
        <time>2019-08-24T12:46:32.857Z</time>
      </trkpt>
      <trkpt lat="45.71928" lon="5.60523">
        <ele>368</ele>
        <time>2019-08-24T12:46:37.860Z</time>
      </trkpt>
      <trkpt lat="45.71933" lon="5.60519">
        <ele>370</ele>
        <time>2019-08-24T12:46:41.874Z</time>
      </trkpt>
      <trkpt lat="45.7194" lon="5.60517">
        <ele>370</ele>
        <time>2019-08-24T12:46:46.859Z</time>
      </trkpt>
      <trkpt lat="45.71946" lon="5.60514">
        <ele>370</ele>
        <time>2019-08-24T12:46:51.866Z</time>
      </trkpt>
      <trkpt lat="45.71951" lon="5.60511">
        <ele>371</ele>
        <time>2019-08-24T12:46:56.854Z</time>
      </trkpt>
      <trkpt lat="45.71957" lon="5.60505">
        <ele>371</ele>
        <time>2019-08-24T12:47:01.846Z</time>
      </trkpt>
      <trkpt lat="45.71961" lon="5.60501">
        <ele>375</ele>
        <time>2019-08-24T12:47:05.858Z</time>
      </trkpt>
      <trkpt lat="45.71967" lon="5.60497">
        <ele>375</ele>
        <time>2019-08-24T12:47:10.863Z</time>
      </trkpt>
      <trkpt lat="45.71972" lon="5.60493">
        <ele>375</ele>
        <time>2019-08-24T12:47:15.869Z</time>
      </trkpt>
      <trkpt lat="45.71979" lon="5.6049">
        <ele>375</ele>
        <time>2019-08-24T12:47:20.860Z</time>
      </trkpt>
      <trkpt lat="45.71986" lon="5.60487">
        <ele>375</ele>
        <time>2019-08-24T12:47:25.865Z</time>
      </trkpt>
      <trkpt lat="45.71992" lon="5.60486">
        <ele>380</ele>
        <time>2019-08-24T12:47:30.862Z</time>
      </trkpt>
      <trkpt lat="45.71998" lon="5.60484">
        <ele>380</ele>
        <time>2019-08-24T12:47:35.873Z</time>
      </trkpt>
      <trkpt lat="45.72006" lon="5.60482">
        <ele>380</ele>
        <time>2019-08-24T12:47:40.857Z</time>
      </trkpt>
      <trkpt lat="45.72013" lon="5.60484">
        <ele>380</ele>
        <time>2019-08-24T12:47:45.874Z</time>
      </trkpt>
      <trkpt lat="45.72019" lon="5.60487">
        <ele>382</ele>
        <time>2019-08-24T12:47:50.857Z</time>
      </trkpt>
      <trkpt lat="45.72024" lon="5.60489">
        <ele>382</ele>
        <time>2019-08-24T12:47:54.868Z</time>
      </trkpt>
      <trkpt lat="45.72031" lon="5.60491">
        <ele>382</ele>
        <time>2019-08-24T12:47:58.869Z</time>
      </trkpt>
      <trkpt lat="45.7204" lon="5.60494">
        <ele>382</ele>
        <time>2019-08-24T12:48:03.863Z</time>
      </trkpt>
      <trkpt lat="45.72047" lon="5.60494">
        <ele>384</ele>
        <time>2019-08-24T12:48:08.857Z</time>
      </trkpt>
      <trkpt lat="45.72056" lon="5.60494">
        <ele>384</ele>
        <time>2019-08-24T12:48:13.864Z</time>
      </trkpt>
      <trkpt lat="45.72062" lon="5.60493">
        <ele>384</ele>
        <time>2019-08-24T12:48:17.871Z</time>
      </trkpt>
      <trkpt lat="45.72069" lon="5.60492">
        <ele>384</ele>
        <time>2019-08-24T12:48:22.870Z</time>
      </trkpt>
      <trkpt lat="45.72076" lon="5.60491">
        <ele>386</ele>
        <time>2019-08-24T12:48:27.857Z</time>
      </trkpt>
      <trkpt lat="45.72081" lon="5.6049">
        <ele>386</ele>
        <time>2019-08-24T12:48:31.868Z</time>
      </trkpt>
      <trkpt lat="45.72089" lon="5.60489">
        <ele>386</ele>
        <time>2019-08-24T12:48:36.859Z</time>
      </trkpt>
      <trkpt lat="45.72095" lon="5.60488">
        <ele>386</ele>
        <time>2019-08-24T12:48:40.856Z</time>
      </trkpt>
      <trkpt lat="45.72102" lon="5.60486">
        <ele>385</ele>
        <time>2019-08-24T12:48:45.870Z</time>
      </trkpt>
      <trkpt lat="45.72109" lon="5.60485">
        <ele>385</ele>
        <time>2019-08-24T12:48:50.859Z</time>
      </trkpt>
      <trkpt lat="45.72116" lon="5.60484">
        <ele>385</ele>
        <time>2019-08-24T12:48:55.861Z</time>
      </trkpt>
      <trkpt lat="45.72123" lon="5.60483">
        <ele>385</ele>
        <time>2019-08-24T12:48:59.868Z</time>
      </trkpt>
      <trkpt lat="45.7213" lon="5.60482">
        <ele>385</ele>
        <time>2019-08-24T12:49:04.869Z</time>
      </trkpt>
      <trkpt lat="45.72137" lon="5.60481">
        <ele>385</ele>
        <time>2019-08-24T12:49:09.861Z</time>
      </trkpt>
      <trkpt lat="45.72144" lon="5.6048">
        <ele>385</ele>
        <time>2019-08-24T12:49:14.871Z</time>
      </trkpt>
      <trkpt lat="45.7215" lon="5.60479">
        <ele>385</ele>
        <time>2019-08-24T12:49:19.856Z</time>
      </trkpt>
      <trkpt lat="45.72156" lon="5.60477">
        <ele>385</ele>
        <time>2019-08-24T12:49:24.875Z</time>
      </trkpt>
      <trkpt lat="45.72163" lon="5.60477">
        <ele>385</ele>
        <time>2019-08-24T12:49:29.858Z</time>
      </trkpt>
      <trkpt lat="45.72171" lon="5.60474">
        <ele>385</ele>
        <time>2019-08-24T12:49:34.854Z</time>
      </trkpt>
      <trkpt lat="45.72176" lon="5.60471">
        <ele>385</ele>
        <time>2019-08-24T12:49:38.876Z</time>
      </trkpt>
      <trkpt lat="45.72183" lon="5.60468">
        <ele>385</ele>
        <time>2019-08-24T12:49:43.863Z</time>
      </trkpt>
      <trkpt lat="45.7219" lon="5.60466">
        <ele>385</ele>
        <time>2019-08-24T12:49:47.860Z</time>
      </trkpt>
      <trkpt lat="45.72197" lon="5.60462">
        <ele>385</ele>
        <time>2019-08-24T12:49:52.865Z</time>
      </trkpt>
      <trkpt lat="45.72204" lon="5.60461">
        <ele>385</ele>
        <time>2019-08-24T12:49:57.866Z</time>
      </trkpt>
      <trkpt lat="45.72212" lon="5.60461">
        <ele>383</ele>
        <time>2019-08-24T12:50:02.852Z</time>
      </trkpt>
      <trkpt lat="45.72218" lon="5.60458">
        <ele>383</ele>
        <time>2019-08-24T12:50:06.875Z</time>
      </trkpt>
      <trkpt lat="45.72226" lon="5.60456">
        <ele>383</ele>
        <time>2019-08-24T12:50:11.852Z</time>
      </trkpt>
      <trkpt lat="45.72232" lon="5.60453">
        <ele>383</ele>
        <time>2019-08-24T12:50:15.863Z</time>
      </trkpt>
      <trkpt lat="45.72239" lon="5.60449">
        <ele>381</ele>
        <time>2019-08-24T12:50:20.865Z</time>
      </trkpt>
      <trkpt lat="45.72246" lon="5.60446">
        <ele>381</ele>
        <time>2019-08-24T12:50:25.861Z</time>
      </trkpt>
      <trkpt lat="45.72247" lon="5.60446">
        <ele>381</ele>
        <time>2019-08-24T12:50:29.868Z</time>
      </trkpt>
      <trkpt lat="45.72247" lon="5.60446">
        <ele>381</ele>
        <time>2019-08-24T12:50:33.872Z</time>
      </trkpt>
      <trkpt lat="45.72248" lon="5.60446">
        <ele>381</ele>
        <time>2019-08-24T12:50:38.865Z</time>
      </trkpt>
      <trkpt lat="45.72253" lon="5.60445">
        <ele>381</ele>
        <time>2019-08-24T12:50:42.874Z</time>
      </trkpt>
      <trkpt lat="45.7226" lon="5.60442">
        <ele>381</ele>
        <time>2019-08-24T12:50:47.872Z</time>
      </trkpt>
      <trkpt lat="45.72264" lon="5.60441">
        <ele>380</ele>
        <time>2019-08-24T12:50:56.866Z</time>
      </trkpt>
      <trkpt lat="45.72265" lon="5.60441">
        <ele>380</ele>
        <time>2019-08-24T12:51:01.874Z</time>
      </trkpt>
      <trkpt lat="45.72268" lon="5.60441">
        <ele>380</ele>
        <time>2019-08-24T12:51:06.870Z</time>
      </trkpt>
      <trkpt lat="45.7227" lon="5.60441">
        <ele>380</ele>
        <time>2019-08-24T12:51:10.867Z</time>
      </trkpt>
      <trkpt lat="45.72275" lon="5.6044">
        <ele>380</ele>
        <time>2019-08-24T12:51:15.862Z</time>
      </trkpt>
      <trkpt lat="45.7228" lon="5.60445">
        <ele>380</ele>
        <time>2019-08-24T12:51:20.864Z</time>
      </trkpt>
      <trkpt lat="45.72284" lon="5.6045">
        <ele>380</ele>
        <time>2019-08-24T12:51:24.865Z</time>
      </trkpt>
      <trkpt lat="45.72288" lon="5.60457">
        <ele>380</ele>
        <time>2019-08-24T12:51:29.870Z</time>
      </trkpt>
      <trkpt lat="45.72292" lon="5.60464">
        <ele>381</ele>
        <time>2019-08-24T12:51:33.874Z</time>
      </trkpt>
      <trkpt lat="45.72297" lon="5.60472">
        <ele>379</ele>
        <time>2019-08-24T12:51:38.874Z</time>
      </trkpt>
      <trkpt lat="45.72302" lon="5.60478">
        <ele>379</ele>
        <time>2019-08-24T12:51:43.862Z</time>
      </trkpt>
      <trkpt lat="45.72307" lon="5.60481">
        <ele>379</ele>
        <time>2019-08-24T12:51:48.870Z</time>
      </trkpt>
      <trkpt lat="45.72311" lon="5.60484">
        <ele>379</ele>
        <time>2019-08-24T12:51:52.878Z</time>
      </trkpt>
      <trkpt lat="45.72315" lon="5.60487">
        <ele>381</ele>
        <time>2019-08-24T12:51:57.865Z</time>
      </trkpt>
      <trkpt lat="45.72318" lon="5.6049">
        <ele>381</ele>
        <time>2019-08-24T12:52:01.879Z</time>
      </trkpt>
      <trkpt lat="45.72322" lon="5.60493">
        <ele>378</ele>
        <time>2019-08-24T12:52:06.872Z</time>
      </trkpt>
      <trkpt lat="45.72325" lon="5.60494">
        <ele>378</ele>
        <time>2019-08-24T12:52:10.865Z</time>
      </trkpt>
      <trkpt lat="45.72332" lon="5.60495">
        <ele>378</ele>
        <time>2019-08-24T12:52:15.880Z</time>
      </trkpt>
      <trkpt lat="45.7234" lon="5.60492">
        <ele>378</ele>
        <time>2019-08-24T12:52:20.865Z</time>
      </trkpt>
      <trkpt lat="45.72345" lon="5.60487">
        <ele>378</ele>
        <time>2019-08-24T12:52:24.873Z</time>
      </trkpt>
      <trkpt lat="45.72349" lon="5.60481">
        <ele>372</ele>
        <time>2019-08-24T12:52:29.866Z</time>
      </trkpt>
      <trkpt lat="45.7235" lon="5.60482">
        <ele>372</ele>
        <time>2019-08-24T12:52:33.861Z</time>
      </trkpt>
      <trkpt lat="45.72351" lon="5.60482">
        <ele>372</ele>
        <time>2019-08-24T12:52:38.864Z</time>
      </trkpt>
      <trkpt lat="45.72353" lon="5.60479">
        <ele>372</ele>
        <time>2019-08-24T12:52:42.865Z</time>
      </trkpt>
      <trkpt lat="45.72359" lon="5.60472">
        <ele>372</ele>
        <time>2019-08-24T12:52:47.861Z</time>
      </trkpt>
      <trkpt lat="45.72365" lon="5.60466">
        <ele>372</ele>
        <time>2019-08-24T12:52:52.867Z</time>
      </trkpt>
      <trkpt lat="45.72372" lon="5.60462">
        <ele>372</ele>
        <time>2019-08-24T12:52:57.860Z</time>
      </trkpt>
      <trkpt lat="45.7238" lon="5.6046">
        <ele>369</ele>
        <time>2019-08-24T12:53:02.858Z</time>
      </trkpt>
      <trkpt lat="45.72385" lon="5.60459">
        <ele>369</ele>
        <time>2019-08-24T12:53:06.862Z</time>
      </trkpt>
      <trkpt lat="45.72392" lon="5.60459">
        <ele>369</ele>
        <time>2019-08-24T12:53:11.863Z</time>
      </trkpt>
      <trkpt lat="45.72399" lon="5.60459">
        <ele>369</ele>
        <time>2019-08-24T12:53:16.856Z</time>
      </trkpt>
      <trkpt lat="45.72405" lon="5.60459">
        <ele>366</ele>
        <time>2019-08-24T12:53:20.868Z</time>
      </trkpt>
      <trkpt lat="45.72411" lon="5.60461">
        <ele>366</ele>
        <time>2019-08-24T12:53:25.860Z</time>
      </trkpt>
      <trkpt lat="45.72417" lon="5.60464">
        <ele>366</ele>
        <time>2019-08-24T12:53:30.863Z</time>
      </trkpt>
      <trkpt lat="45.72423" lon="5.60465">
        <ele>366</ele>
        <time>2019-08-24T12:53:35.865Z</time>
      </trkpt>
      <trkpt lat="45.72429" lon="5.60467">
        <ele>366</ele>
        <time>2019-08-24T12:53:40.859Z</time>
      </trkpt>
      <trkpt lat="45.7243" lon="5.60467">
        <ele>366</ele>
        <time>2019-08-24T12:53:45.862Z</time>
      </trkpt>
      <trkpt lat="45.72437" lon="5.6047">
        <ele>365</ele>
        <time>2019-08-24T12:53:50.854Z</time>
      </trkpt>
      <trkpt lat="45.72445" lon="5.60474">
        <ele>365</ele>
        <time>2019-08-24T12:53:55.861Z</time>
      </trkpt>
      <trkpt lat="45.72451" lon="5.6048">
        <ele>365</ele>
        <time>2019-08-24T12:54:00.857Z</time>
      </trkpt>
      <trkpt lat="45.72457" lon="5.60483">
        <ele>365</ele>
        <time>2019-08-24T12:54:04.866Z</time>
      </trkpt>
      <trkpt lat="45.72461" lon="5.60484">
        <ele>363</ele>
        <time>2019-08-24T12:54:09.861Z</time>
      </trkpt>
      <trkpt lat="45.72466" lon="5.60483">
        <ele>363</ele>
        <time>2019-08-24T12:54:13.867Z</time>
      </trkpt>
      <trkpt lat="45.7247" lon="5.6048">
        <ele>363</ele>
        <time>2019-08-24T12:54:18.859Z</time>
      </trkpt>
      <trkpt lat="45.72475" lon="5.60477">
        <ele>363</ele>
        <time>2019-08-24T12:54:22.873Z</time>
      </trkpt>
      <trkpt lat="45.7248" lon="5.60472">
        <ele>363</ele>
        <time>2019-08-24T12:54:27.863Z</time>
      </trkpt>
      <trkpt lat="45.72484" lon="5.60469">
        <ele>363</ele>
        <time>2019-08-24T12:54:32.859Z</time>
      </trkpt>
      <trkpt lat="45.72488" lon="5.60466">
        <ele>361</ele>
        <time>2019-08-24T12:54:36.868Z</time>
      </trkpt>
      <trkpt lat="45.72493" lon="5.60461">
        <ele>361</ele>
        <time>2019-08-24T12:54:41.860Z</time>
      </trkpt>
      <trkpt lat="45.72497" lon="5.60456">
        <ele>363</ele>
        <time>2019-08-24T12:54:45.865Z</time>
      </trkpt>
      <trkpt lat="45.72503" lon="5.60452">
        <ele>363</ele>
        <time>2019-08-24T12:54:50.858Z</time>
      </trkpt>
      <trkpt lat="45.72507" lon="5.60447">
        <ele>363</ele>
        <time>2019-08-24T12:54:55.871Z</time>
      </trkpt>
      <trkpt lat="45.72514" lon="5.60442">
        <ele>360</ele>
        <time>2019-08-24T12:55:00.868Z</time>
      </trkpt>
      <trkpt lat="45.72521" lon="5.60436">
        <ele>360</ele>
        <time>2019-08-24T12:55:05.866Z</time>
      </trkpt>
      <trkpt lat="45.72529" lon="5.60442">
        <ele>360</ele>
        <time>2019-08-24T12:55:10.860Z</time>
      </trkpt>
      <trkpt lat="45.72533" lon="5.6045">
        <ele>360</ele>
        <time>2019-08-24T12:55:14.863Z</time>
      </trkpt>
      <trkpt lat="45.72535" lon="5.60459">
        <ele>359</ele>
        <time>2019-08-24T12:55:19.867Z</time>
      </trkpt>
      <trkpt lat="45.72533" lon="5.60465">
        <ele>359</ele>
        <time>2019-08-24T12:55:24.874Z</time>
      </trkpt>
      <trkpt lat="45.7253" lon="5.60472">
        <ele>359</ele>
        <time>2019-08-24T12:55:29.854Z</time>
      </trkpt>
      <trkpt lat="45.72527" lon="5.60478">
        <ele>359</ele>
        <time>2019-08-24T12:55:33.870Z</time>
      </trkpt>
      <trkpt lat="45.72525" lon="5.60484">
        <ele>359</ele>
        <time>2019-08-24T12:55:38.857Z</time>
      </trkpt>
      <trkpt lat="45.72522" lon="5.6049">
        <ele>357</ele>
        <time>2019-08-24T12:55:43.869Z</time>
      </trkpt>
      <trkpt lat="45.72519" lon="5.60496">
        <ele>357</ele>
        <time>2019-08-24T12:55:48.874Z</time>
      </trkpt>
      <trkpt lat="45.72514" lon="5.60503">
        <ele>357</ele>
        <time>2019-08-24T12:55:53.870Z</time>
      </trkpt>
      <trkpt lat="45.72511" lon="5.60513">
        <ele>360</ele>
        <time>2019-08-24T12:55:58.862Z</time>
      </trkpt>
      <trkpt lat="45.72508" lon="5.60523">
        <ele>357</ele>
        <time>2019-08-24T12:56:03.854Z</time>
      </trkpt>
      <trkpt lat="45.72508" lon="5.60532">
        <ele>357</ele>
        <time>2019-08-24T12:56:07.872Z</time>
      </trkpt>
      <trkpt lat="45.72509" lon="5.60539">
        <ele>357</ele>
        <time>2019-08-24T12:56:12.864Z</time>
      </trkpt>
      <trkpt lat="45.7251" lon="5.60547">
        <ele>354</ele>
        <time>2019-08-24T12:56:16.866Z</time>
      </trkpt>
      <trkpt lat="45.72516" lon="5.6056">
        <ele>351</ele>
        <time>2019-08-24T12:56:21.865Z</time>
      </trkpt>
      <trkpt lat="45.72523" lon="5.60564">
        <ele>351</ele>
        <time>2019-08-24T12:56:26.868Z</time>
      </trkpt>
      <trkpt lat="45.72527" lon="5.60562">
        <ele>351</ele>
        <time>2019-08-24T12:56:31.869Z</time>
      </trkpt>
      <trkpt lat="45.72528" lon="5.6056">
        <ele>351</ele>
        <time>2019-08-24T12:56:36.868Z</time>
      </trkpt>
      <trkpt lat="45.72531" lon="5.60554">
        <ele>351</ele>
        <time>2019-08-24T12:57:29.852Z</time>
      </trkpt>
      <trkpt lat="45.72532" lon="5.60551">
        <ele>351</ele>
        <time>2019-08-24T12:57:34.862Z</time>
      </trkpt>
      <trkpt lat="45.72532" lon="5.60545">
        <ele>351</ele>
        <time>2019-08-24T12:57:39.851Z</time>
      </trkpt>
      <trkpt lat="45.72532" lon="5.60545">
        <ele>351</ele>
        <time>2019-08-24T12:57:44.867Z</time>
      </trkpt>
      <trkpt lat="45.72532" lon="5.60544">
        <ele>351</ele>
        <time>2019-08-24T12:57:49.862Z</time>
      </trkpt>
      <trkpt lat="45.7253" lon="5.60543">
        <ele>351</ele>
        <time>2019-08-24T13:00:39.843Z</time>
      </trkpt>
      <trkpt lat="45.72529" lon="5.60542">
        <ele>351</ele>
        <time>2019-08-24T13:00:44.825Z</time>
      </trkpt>
      <trkpt lat="45.72528" lon="5.60547">
        <ele>351</ele>
        <time>2019-08-24T13:00:48.863Z</time>
      </trkpt>
      <trkpt lat="45.7253" lon="5.60555">
        <ele>351</ele>
        <time>2019-08-24T13:00:53.857Z</time>
      </trkpt>
      <trkpt lat="45.72529" lon="5.60562">
        <ele>351</ele>
        <time>2019-08-24T13:00:57.864Z</time>
      </trkpt>
      <trkpt lat="45.72528" lon="5.60564">
        <ele>351</ele>
        <time>2019-08-24T13:01:02.865Z</time>
      </trkpt>
      <trkpt lat="45.7253" lon="5.60566">
        <ele>351</ele>
        <time>2019-08-24T13:01:07.856Z</time>
      </trkpt>
      <trkpt lat="45.72534" lon="5.60569">
        <ele>351</ele>
        <time>2019-08-24T13:01:11.861Z</time>
      </trkpt>
      <trkpt lat="45.72539" lon="5.60574">
        <ele>350</ele>
        <time>2019-08-24T13:01:16.866Z</time>
      </trkpt>
      <trkpt lat="45.72544" lon="5.60582">
        <ele>352</ele>
        <time>2019-08-24T13:01:21.851Z</time>
      </trkpt>
      <trkpt lat="45.72548" lon="5.60593">
        <ele>352</ele>
        <time>2019-08-24T13:01:26.859Z</time>
      </trkpt>
      <trkpt lat="45.72552" lon="5.606">
        <ele>352</ele>
        <time>2019-08-24T13:01:30.874Z</time>
      </trkpt>
      <trkpt lat="45.72555" lon="5.60609">
        <ele>352</ele>
        <time>2019-08-24T13:01:35.859Z</time>
      </trkpt>
      <trkpt lat="45.72556" lon="5.60617">
        <ele>352</ele>
        <time>2019-08-24T13:01:39.864Z</time>
      </trkpt>
      <trkpt lat="45.72559" lon="5.60624">
        <ele>352</ele>
        <time>2019-08-24T13:01:44.862Z</time>
      </trkpt>
      <trkpt lat="45.7256" lon="5.6063">
        <ele>351</ele>
        <time>2019-08-24T13:01:48.864Z</time>
      </trkpt>
      <trkpt lat="45.72564" lon="5.6064">
        <ele>351</ele>
        <time>2019-08-24T13:01:53.865Z</time>
      </trkpt>
      <trkpt lat="45.72566" lon="5.60647">
        <ele>351</ele>
        <time>2019-08-24T13:01:57.872Z</time>
      </trkpt>
      <trkpt lat="45.7257" lon="5.60656">
        <ele>352</ele>
        <time>2019-08-24T13:02:02.875Z</time>
      </trkpt>
      <trkpt lat="45.72573" lon="5.60663">
        <ele>352</ele>
        <time>2019-08-24T13:02:06.869Z</time>
      </trkpt>
      <trkpt lat="45.72577" lon="5.6067">
        <ele>352</ele>
        <time>2019-08-24T13:02:11.863Z</time>
      </trkpt>
      <trkpt lat="45.72582" lon="5.60678">
        <ele>352</ele>
        <time>2019-08-24T13:02:16.861Z</time>
      </trkpt>
      <trkpt lat="45.72587" lon="5.60684">
        <ele>352</ele>
        <time>2019-08-24T13:02:21.867Z</time>
      </trkpt>
      <trkpt lat="45.7259" lon="5.60688">
        <ele>352</ele>
        <time>2019-08-24T13:02:25.865Z</time>
      </trkpt>
      <trkpt lat="45.72595" lon="5.60695">
        <ele>352</ele>
        <time>2019-08-24T13:02:30.853Z</time>
      </trkpt>
      <trkpt lat="45.72598" lon="5.60701">
        <ele>354</ele>
        <time>2019-08-24T13:02:34.877Z</time>
      </trkpt>
      <trkpt lat="45.72603" lon="5.60708">
        <ele>354</ele>
        <time>2019-08-24T13:02:39.864Z</time>
      </trkpt>
      <trkpt lat="45.72608" lon="5.60714">
        <ele>354</ele>
        <time>2019-08-24T13:02:44.844Z</time>
      </trkpt>
      <trkpt lat="45.72612" lon="5.60719">
        <ele>354</ele>
        <time>2019-08-24T13:02:48.875Z</time>
      </trkpt>
      <trkpt lat="45.72623" lon="5.60737">
        <ele>353</ele>
        <time>2019-08-24T13:03:06.863Z</time>
      </trkpt>
      <trkpt lat="45.72619" lon="5.60743">
        <ele>353</ele>
        <time>2019-08-24T13:03:11.863Z</time>
      </trkpt>
      <trkpt lat="45.72613" lon="5.60752">
        <ele>353</ele>
        <time>2019-08-24T13:03:16.867Z</time>
      </trkpt>
      <trkpt lat="45.72606" lon="5.60763">
        <ele>353</ele>
        <time>2019-08-24T13:03:21.854Z</time>
      </trkpt>
      <trkpt lat="45.72603" lon="5.60772">
        <ele>352</ele>
        <time>2019-08-24T13:03:25.869Z</time>
      </trkpt>
      <trkpt lat="45.726" lon="5.60778">
        <ele>352</ele>
        <time>2019-08-24T13:03:29.859Z</time>
      </trkpt>
      <trkpt lat="45.72597" lon="5.60787">
        <ele>349</ele>
        <time>2019-08-24T13:03:34.858Z</time>
      </trkpt>
      <trkpt lat="45.72595" lon="5.60794">
        <ele>347</ele>
        <time>2019-08-24T13:03:38.863Z</time>
      </trkpt>
      <trkpt lat="45.72595" lon="5.60802">
        <ele>347</ele>
        <time>2019-08-24T13:03:42.876Z</time>
      </trkpt>
      <trkpt lat="45.72595" lon="5.60811">
        <ele>347</ele>
        <time>2019-08-24T13:03:47.869Z</time>
      </trkpt>
      <trkpt lat="45.72594" lon="5.6082">
        <ele>346</ele>
        <time>2019-08-24T13:03:52.873Z</time>
      </trkpt>
      <trkpt lat="45.72592" lon="5.60831">
        <ele>346</ele>
        <time>2019-08-24T13:03:57.872Z</time>
      </trkpt>
      <trkpt lat="45.72592" lon="5.6084">
        <ele>346</ele>
        <time>2019-08-24T13:04:02.878Z</time>
      </trkpt>
      <trkpt lat="45.72591" lon="5.6085">
        <ele>346</ele>
        <time>2019-08-24T13:04:07.856Z</time>
      </trkpt>
      <trkpt lat="45.72591" lon="5.6086">
        <ele>346</ele>
        <time>2019-08-24T13:04:12.859Z</time>
      </trkpt>
      <trkpt lat="45.72591" lon="5.6087">
        <ele>346</ele>
        <time>2019-08-24T13:04:17.859Z</time>
      </trkpt>
      <trkpt lat="45.7259" lon="5.60881">
        <ele>343</ele>
        <time>2019-08-24T13:04:22.862Z</time>
      </trkpt>
      <trkpt lat="45.72589" lon="5.60888">
        <ele>343</ele>
        <time>2019-08-24T13:04:26.873Z</time>
      </trkpt>
      <trkpt lat="45.72589" lon="5.60898">
        <ele>343</ele>
        <time>2019-08-24T13:04:31.873Z</time>
      </trkpt>
      <trkpt lat="45.72589" lon="5.60908">
        <ele>341</ele>
        <time>2019-08-24T13:04:36.863Z</time>
      </trkpt>
      <trkpt lat="45.72589" lon="5.60919">
        <ele>341</ele>
        <time>2019-08-24T13:04:41.863Z</time>
      </trkpt>
      <trkpt lat="45.72588" lon="5.60928">
        <ele>341</ele>
        <time>2019-08-24T13:04:45.870Z</time>
      </trkpt>
      <trkpt lat="45.7259" lon="5.60937">
        <ele>339</ele>
        <time>2019-08-24T13:04:50.869Z</time>
      </trkpt>
      <trkpt lat="45.72592" lon="5.60947">
        <ele>339</ele>
        <time>2019-08-24T13:04:55.856Z</time>
      </trkpt>
      <trkpt lat="45.72592" lon="5.60954">
        <ele>339</ele>
        <time>2019-08-24T13:04:59.859Z</time>
      </trkpt>
      <trkpt lat="45.72592" lon="5.60963">
        <ele>339</ele>
        <time>2019-08-24T13:05:04.861Z</time>
      </trkpt>
      <trkpt lat="45.7259" lon="5.60974">
        <ele>339</ele>
        <time>2019-08-24T13:05:09.872Z</time>
      </trkpt>
      <trkpt lat="45.72588" lon="5.60984">
        <ele>339</ele>
        <time>2019-08-24T13:05:14.877Z</time>
      </trkpt>
      <trkpt lat="45.72587" lon="5.60992">
        <ele>337</ele>
        <time>2019-08-24T13:05:19.865Z</time>
      </trkpt>
      <trkpt lat="45.72586" lon="5.60994">
        <ele>337</ele>
        <time>2019-08-24T13:05:23.866Z</time>
      </trkpt>
      <trkpt lat="45.72585" lon="5.61004">
        <ele>337</ele>
        <time>2019-08-24T13:05:28.862Z</time>
      </trkpt>
      <trkpt lat="45.72585" lon="5.61011">
        <ele>337</ele>
        <time>2019-08-24T13:05:32.871Z</time>
      </trkpt>
      <trkpt lat="45.72584" lon="5.61019">
        <ele>335</ele>
        <time>2019-08-24T13:05:36.862Z</time>
      </trkpt>
      <trkpt lat="45.72583" lon="5.61028">
        <ele>335</ele>
        <time>2019-08-24T13:05:41.877Z</time>
      </trkpt>
      <trkpt lat="45.72582" lon="5.61037">
        <ele>335</ele>
        <time>2019-08-24T13:05:46.866Z</time>
      </trkpt>
      <trkpt lat="45.72583" lon="5.61043">
        <ele>333</ele>
        <time>2019-08-24T13:05:50.880Z</time>
      </trkpt>
      <trkpt lat="45.72587" lon="5.61051">
        <ele>333</ele>
        <time>2019-08-24T13:05:55.876Z</time>
      </trkpt>
      <trkpt lat="45.72602" lon="5.61066">
        <ele>333</ele>
        <time>2019-08-24T13:06:18.854Z</time>
      </trkpt>
      <trkpt lat="45.72603" lon="5.61066">
        <ele>333</ele>
        <time>2019-08-24T13:06:22.874Z</time>
      </trkpt>
      <trkpt lat="45.72603" lon="5.61067">
        <ele>333</ele>
        <time>2019-08-24T13:06:27.868Z</time>
      </trkpt>
      <trkpt lat="45.72603" lon="5.61067">
        <ele>333</ele>
        <time>2019-08-24T13:06:32.863Z</time>
      </trkpt>
      <trkpt lat="45.72603" lon="5.61067">
        <ele>333</ele>
        <time>2019-08-24T13:06:37.861Z</time>
      </trkpt>
      <trkpt lat="45.72605" lon="5.61068">
        <ele>333</ele>
        <time>2019-08-24T13:07:04.849Z</time>
      </trkpt>
      <trkpt lat="45.72605" lon="5.6107">
        <ele>332</ele>
        <time>2019-08-24T13:07:09.851Z</time>
      </trkpt>
      <trkpt lat="45.72606" lon="5.61077">
        <ele>332</ele>
        <time>2019-08-24T13:07:14.870Z</time>
      </trkpt>
      <trkpt lat="45.72608" lon="5.61084">
        <ele>332</ele>
        <time>2019-08-24T13:07:19.853Z</time>
      </trkpt>
      <trkpt lat="45.72611" lon="5.61089">
        <ele>332</ele>
        <time>2019-08-24T13:07:23.864Z</time>
      </trkpt>
      <trkpt lat="45.72615" lon="5.61097">
        <ele>332</ele>
        <time>2019-08-24T13:07:28.862Z</time>
      </trkpt>
      <trkpt lat="45.72618" lon="5.61105">
        <ele>332</ele>
        <time>2019-08-24T13:07:33.872Z</time>
      </trkpt>
      <trkpt lat="45.72622" lon="5.61114">
        <ele>332</ele>
        <time>2019-08-24T13:07:38.877Z</time>
      </trkpt>
      <trkpt lat="45.72625" lon="5.61122">
        <ele>332</ele>
        <time>2019-08-24T13:07:43.864Z</time>
      </trkpt>
      <trkpt lat="45.72626" lon="5.61132">
        <ele>333</ele>
        <time>2019-08-24T13:07:48.882Z</time>
      </trkpt>
      <trkpt lat="45.72623" lon="5.61141">
        <ele>332</ele>
        <time>2019-08-24T13:07:53.861Z</time>
      </trkpt>
      <trkpt lat="45.72619" lon="5.61149">
        <ele>332</ele>
        <time>2019-08-24T13:07:58.858Z</time>
      </trkpt>
      <trkpt lat="45.72616" lon="5.61155">
        <ele>332</ele>
        <time>2019-08-24T13:08:02.858Z</time>
      </trkpt>
      <trkpt lat="45.72613" lon="5.61163">
        <ele>332</ele>
        <time>2019-08-24T13:08:06.871Z</time>
      </trkpt>
      <trkpt lat="45.72612" lon="5.61169">
        <ele>332</ele>
        <time>2019-08-24T13:08:10.865Z</time>
      </trkpt>
      <trkpt lat="45.7261" lon="5.61177">
        <ele>332</ele>
        <time>2019-08-24T13:08:15.876Z</time>
      </trkpt>
      <trkpt lat="45.72609" lon="5.61179">
        <ele>332</ele>
        <time>2019-08-24T13:08:19.866Z</time>
      </trkpt>
      <trkpt lat="45.72609" lon="5.6119">
        <ele>333</ele>
        <time>2019-08-24T13:08:24.861Z</time>
      </trkpt>
      <trkpt lat="45.7261" lon="5.612">
        <ele>333</ele>
        <time>2019-08-24T13:08:29.875Z</time>
      </trkpt>
      <trkpt lat="45.72612" lon="5.61209">
        <ele>334</ele>
        <time>2019-08-24T13:08:34.863Z</time>
      </trkpt>
      <trkpt lat="45.72612" lon="5.61214">
        <ele>334</ele>
        <time>2019-08-24T13:08:38.865Z</time>
      </trkpt>
      <trkpt lat="45.7261" lon="5.61223">
        <ele>334</ele>
        <time>2019-08-24T13:08:43.865Z</time>
      </trkpt>
      <trkpt lat="45.72608" lon="5.6123">
        <ele>334</ele>
        <time>2019-08-24T13:08:47.873Z</time>
      </trkpt>
      <trkpt lat="45.72605" lon="5.61237">
        <ele>335</ele>
        <time>2019-08-24T13:08:51.868Z</time>
      </trkpt>
      <trkpt lat="45.72603" lon="5.61245">
        <ele>335</ele>
        <time>2019-08-24T13:08:55.869Z</time>
      </trkpt>
      <trkpt lat="45.72601" lon="5.61254">
        <ele>335</ele>
        <time>2019-08-24T13:09:00.854Z</time>
      </trkpt>
      <trkpt lat="45.72601" lon="5.61264">
        <ele>335</ele>
        <time>2019-08-24T13:09:05.858Z</time>
      </trkpt>
      <trkpt lat="45.72599" lon="5.61275">
        <ele>335</ele>
        <time>2019-08-24T13:09:10.861Z</time>
      </trkpt>
      <trkpt lat="45.72598" lon="5.61282">
        <ele>335</ele>
        <time>2019-08-24T13:09:14.880Z</time>
      </trkpt>
      <trkpt lat="45.72597" lon="5.61288">
        <ele>336</ele>
        <time>2019-08-24T13:09:19.864Z</time>
      </trkpt>
      <trkpt lat="45.72595" lon="5.61291">
        <ele>336</ele>
        <time>2019-08-24T13:09:23.871Z</time>
      </trkpt>
      <trkpt lat="45.72593" lon="5.61296">
        <ele>336</ele>
        <time>2019-08-24T13:09:28.869Z</time>
      </trkpt>
      <trkpt lat="45.7259" lon="5.61301">
        <ele>336</ele>
        <time>2019-08-24T13:09:33.866Z</time>
      </trkpt>
      <trkpt lat="45.72586" lon="5.61306">
        <ele>336</ele>
        <time>2019-08-24T13:09:38.850Z</time>
      </trkpt>
      <trkpt lat="45.72583" lon="5.6131">
        <ele>336</ele>
        <time>2019-08-24T13:09:42.858Z</time>
      </trkpt>
      <trkpt lat="45.7258" lon="5.61316">
        <ele>336</ele>
        <time>2019-08-24T13:09:46.881Z</time>
      </trkpt>
      <trkpt lat="45.72579" lon="5.61326">
        <ele>336</ele>
        <time>2019-08-24T13:09:51.883Z</time>
      </trkpt>
      <trkpt lat="45.72577" lon="5.61335">
        <ele>336</ele>
        <time>2019-08-24T13:09:56.858Z</time>
      </trkpt>
      <trkpt lat="45.72577" lon="5.61344">
        <ele>336</ele>
        <time>2019-08-24T13:10:01.870Z</time>
      </trkpt>
      <trkpt lat="45.72579" lon="5.61352">
        <ele>334</ele>
        <time>2019-08-24T13:10:06.858Z</time>
      </trkpt>
      <trkpt lat="45.72583" lon="5.61358">
        <ele>334</ele>
        <time>2019-08-24T13:10:10.876Z</time>
      </trkpt>
      <trkpt lat="45.72589" lon="5.61367">
        <ele>334</ele>
        <time>2019-08-24T13:10:15.859Z</time>
      </trkpt>
      <trkpt lat="45.72595" lon="5.61373">
        <ele>334</ele>
        <time>2019-08-24T13:10:20.854Z</time>
      </trkpt>
      <trkpt lat="45.72601" lon="5.61379">
        <ele>333</ele>
        <time>2019-08-24T13:10:25.877Z</time>
      </trkpt>
      <trkpt lat="45.72607" lon="5.61385">
        <ele>333</ele>
        <time>2019-08-24T13:10:30.858Z</time>
      </trkpt>
      <trkpt lat="45.72612" lon="5.61388">
        <ele>333</ele>
        <time>2019-08-24T13:10:34.869Z</time>
      </trkpt>
      <trkpt lat="45.72618" lon="5.61392">
        <ele>333</ele>
        <time>2019-08-24T13:10:39.855Z</time>
      </trkpt>
      <trkpt lat="45.72623" lon="5.61396">
        <ele>333</ele>
        <time>2019-08-24T13:10:43.877Z</time>
      </trkpt>
      <trkpt lat="45.72628" lon="5.614">
        <ele>332</ele>
        <time>2019-08-24T13:10:47.873Z</time>
      </trkpt>
      <trkpt lat="45.72637" lon="5.6141">
        <ele>332</ele>
        <time>2019-08-24T13:10:52.860Z</time>
      </trkpt>
      <trkpt lat="45.72659" lon="5.61427">
        <ele>331</ele>
        <time>2019-08-24T13:10:57.854Z</time>
      </trkpt>
      <trkpt lat="45.72679" lon="5.61448">
        <ele>330</ele>
        <time>2019-08-24T13:11:01.868Z</time>
      </trkpt>
      <trkpt lat="45.72705" lon="5.61473">
        <ele>332</ele>
        <time>2019-08-24T13:11:06.869Z</time>
      </trkpt>
      <trkpt lat="45.72716" lon="5.61487">
        <ele>332</ele>
        <time>2019-08-24T13:11:11.868Z</time>
      </trkpt>
      <trkpt lat="45.72722" lon="5.61493">
        <ele>332</ele>
        <time>2019-08-24T13:11:15.874Z</time>
      </trkpt>
      <trkpt lat="45.72729" lon="5.61498">
        <ele>332</ele>
        <time>2019-08-24T13:11:20.858Z</time>
      </trkpt>
      <trkpt lat="45.72737" lon="5.61503">
        <ele>333</ele>
        <time>2019-08-24T13:11:25.878Z</time>
      </trkpt>
      <trkpt lat="45.72745" lon="5.61508">
        <ele>333</ele>
        <time>2019-08-24T13:11:30.857Z</time>
      </trkpt>
      <trkpt lat="45.72751" lon="5.61512">
        <ele>333</ele>
        <time>2019-08-24T13:11:35.853Z</time>
      </trkpt>
      <trkpt lat="45.72755" lon="5.61515">
        <ele>334</ele>
        <time>2019-08-24T13:11:39.870Z</time>
      </trkpt>
      <trkpt lat="45.72761" lon="5.6152">
        <ele>334</ele>
        <time>2019-08-24T13:11:44.866Z</time>
      </trkpt>
      <trkpt lat="45.72769" lon="5.61525">
        <ele>335</ele>
        <time>2019-08-24T13:11:49.858Z</time>
      </trkpt>
      <trkpt lat="45.72775" lon="5.61529">
        <ele>335</ele>
        <time>2019-08-24T13:11:53.858Z</time>
      </trkpt>
      <trkpt lat="45.7278" lon="5.61534">
        <ele>335</ele>
        <time>2019-08-24T13:11:58.844Z</time>
      </trkpt>
      <trkpt lat="45.72784" lon="5.6154">
        <ele>335</ele>
        <time>2019-08-24T13:12:02.846Z</time>
      </trkpt>
      <trkpt lat="45.72789" lon="5.61549">
        <ele>339</ele>
        <time>2019-08-24T13:12:07.863Z</time>
      </trkpt>
      <trkpt lat="45.72793" lon="5.61557">
        <ele>338</ele>
        <time>2019-08-24T13:12:12.870Z</time>
      </trkpt>
      <trkpt lat="45.72797" lon="5.61563">
        <ele>338</ele>
        <time>2019-08-24T13:12:17.869Z</time>
      </trkpt>
      <trkpt lat="45.728" lon="5.61567">
        <ele>338</ele>
        <time>2019-08-24T13:12:22.858Z</time>
      </trkpt>
      <trkpt lat="45.72804" lon="5.61566">
        <ele>338</ele>
        <time>2019-08-24T13:12:26.870Z</time>
      </trkpt>
      <trkpt lat="45.7281" lon="5.61567">
        <ele>338</ele>
        <time>2019-08-24T13:12:31.856Z</time>
      </trkpt>
      <trkpt lat="45.72816" lon="5.61568">
        <ele>338</ele>
        <time>2019-08-24T13:12:36.861Z</time>
      </trkpt>
      <trkpt lat="45.72824" lon="5.61569">
        <ele>339</ele>
        <time>2019-08-24T13:12:41.858Z</time>
      </trkpt>
      <trkpt lat="45.7283" lon="5.61569">
        <ele>339</ele>
        <time>2019-08-24T13:12:46.850Z</time>
      </trkpt>
      <trkpt lat="45.72834" lon="5.6157">
        <ele>348</ele>
        <time>2019-08-24T13:12:51.852Z</time>
      </trkpt>
      <trkpt lat="45.72839" lon="5.6157">
        <ele>348</ele>
        <time>2019-08-24T13:12:55.878Z</time>
      </trkpt>
      <trkpt lat="45.72844" lon="5.61569">
        <ele>339</ele>
        <time>2019-08-24T13:13:00.862Z</time>
      </trkpt>
      <trkpt lat="45.7285" lon="5.61567">
        <ele>340</ele>
        <time>2019-08-24T13:13:05.855Z</time>
      </trkpt>
      <trkpt lat="45.72859" lon="5.61563">
        <ele>340</ele>
        <time>2019-08-24T13:13:10.848Z</time>
      </trkpt>
      <trkpt lat="45.72865" lon="5.6156">
        <ele>340</ele>
        <time>2019-08-24T13:13:14.863Z</time>
      </trkpt>
      <trkpt lat="45.72872" lon="5.61556">
        <ele>340</ele>
        <time>2019-08-24T13:13:19.866Z</time>
      </trkpt>
      <trkpt lat="45.7288" lon="5.61553">
        <ele>342</ele>
        <time>2019-08-24T13:13:24.856Z</time>
      </trkpt>
      <trkpt lat="45.72887" lon="5.61552">
        <ele>342</ele>
        <time>2019-08-24T13:13:29.854Z</time>
      </trkpt>
      <trkpt lat="45.72895" lon="5.6155">
        <ele>342</ele>
        <time>2019-08-24T13:13:34.850Z</time>
      </trkpt>
      <trkpt lat="45.72902" lon="5.61547">
        <ele>342</ele>
        <time>2019-08-24T13:13:38.850Z</time>
      </trkpt>
      <trkpt lat="45.72907" lon="5.61544">
        <ele>345</ele>
        <time>2019-08-24T13:13:43.859Z</time>
      </trkpt>
      <trkpt lat="45.72912" lon="5.61542">
        <ele>345</ele>
        <time>2019-08-24T13:13:47.862Z</time>
      </trkpt>
      <trkpt lat="45.72917" lon="5.61541">
        <ele>337</ele>
        <time>2019-08-24T13:13:52.849Z</time>
      </trkpt>
      <trkpt lat="45.72922" lon="5.61541">
        <ele>337</ele>
        <time>2019-08-24T13:13:56.861Z</time>
      </trkpt>
      <trkpt lat="45.7293" lon="5.61538">
        <ele>337</ele>
        <time>2019-08-24T13:14:00.846Z</time>
      </trkpt>
      <trkpt lat="45.72937" lon="5.61535">
        <ele>340</ele>
        <time>2019-08-24T13:14:05.863Z</time>
      </trkpt>
      <trkpt lat="45.72946" lon="5.61533">
        <ele>340</ele>
        <time>2019-08-24T13:14:10.858Z</time>
      </trkpt>
      <trkpt lat="45.72954" lon="5.6153">
        <ele>340</ele>
        <time>2019-08-24T13:14:14.859Z</time>
      </trkpt>
      <trkpt lat="45.72964" lon="5.61525">
        <ele>344</ele>
        <time>2019-08-24T13:14:19.861Z</time>
      </trkpt>
      <trkpt lat="45.72975" lon="5.61521">
        <ele>344</ele>
        <time>2019-08-24T13:14:24.851Z</time>
      </trkpt>
      <trkpt lat="45.72985" lon="5.61517">
        <ele>344</ele>
        <time>2019-08-24T13:14:29.863Z</time>
      </trkpt>
      <trkpt lat="45.72993" lon="5.61514">
        <ele>343</ele>
        <time>2019-08-24T13:14:34.853Z</time>
      </trkpt>
      <trkpt lat="45.73001" lon="5.61511">
        <ele>337</ele>
        <time>2019-08-24T13:14:39.851Z</time>
      </trkpt>
      <trkpt lat="45.73006" lon="5.61509">
        <ele>337</ele>
        <time>2019-08-24T13:14:43.863Z</time>
      </trkpt>
      <trkpt lat="45.73012" lon="5.61506">
        <ele>337</ele>
        <time>2019-08-24T13:14:48.854Z</time>
      </trkpt>
      <trkpt lat="45.73017" lon="5.61504">
        <ele>341</ele>
        <time>2019-08-24T13:14:52.855Z</time>
      </trkpt>
      <trkpt lat="45.73025" lon="5.61502">
        <ele>341</ele>
        <time>2019-08-24T13:14:57.855Z</time>
      </trkpt>
      <trkpt lat="45.7303" lon="5.61502">
        <ele>341</ele>
        <time>2019-08-24T13:15:01.861Z</time>
      </trkpt>
      <trkpt lat="45.73037" lon="5.61501">
        <ele>341</ele>
        <time>2019-08-24T13:15:06.865Z</time>
      </trkpt>
      <trkpt lat="45.73042" lon="5.61497">
        <ele>347</ele>
        <time>2019-08-24T13:15:11.849Z</time>
      </trkpt>
      <trkpt lat="45.73048" lon="5.61492">
        <ele>347</ele>
        <time>2019-08-24T13:15:16.838Z</time>
      </trkpt>
      <trkpt lat="45.73053" lon="5.6149">
        <ele>347</ele>
        <time>2019-08-24T13:15:20.880Z</time>
      </trkpt>
      <trkpt lat="45.73059" lon="5.61485">
        <ele>341</ele>
        <time>2019-08-24T13:15:25.860Z</time>
      </trkpt>
      <trkpt lat="45.73063" lon="5.61483">
        <ele>341</ele>
        <time>2019-08-24T13:15:29.866Z</time>
      </trkpt>
      <trkpt lat="45.73071" lon="5.61479">
        <ele>344</ele>
        <time>2019-08-24T13:15:34.843Z</time>
      </trkpt>
      <trkpt lat="45.73079" lon="5.61477">
        <ele>344</ele>
        <time>2019-08-24T13:15:39.862Z</time>
      </trkpt>
      <trkpt lat="45.73086" lon="5.61471">
        <ele>344</ele>
        <time>2019-08-24T13:15:44.848Z</time>
      </trkpt>
      <trkpt lat="45.73093" lon="5.61466">
        <ele>344</ele>
        <time>2019-08-24T13:15:49.863Z</time>
      </trkpt>
      <trkpt lat="45.73098" lon="5.61462">
        <ele>349</ele>
        <time>2019-08-24T13:15:54.850Z</time>
      </trkpt>
      <trkpt lat="45.73105" lon="5.61456">
        <ele>339</ele>
        <time>2019-08-24T13:15:59.862Z</time>
      </trkpt>
      <trkpt lat="45.7311" lon="5.61451">
        <ele>339</ele>
        <time>2019-08-24T13:16:03.856Z</time>
      </trkpt>
      <trkpt lat="45.73118" lon="5.61444">
        <ele>339</ele>
        <time>2019-08-24T13:16:08.851Z</time>
      </trkpt>
      <trkpt lat="45.73124" lon="5.61438">
        <ele>339</ele>
        <time>2019-08-24T13:16:12.870Z</time>
      </trkpt>
      <trkpt lat="45.73131" lon="5.61435">
        <ele>344</ele>
        <time>2019-08-24T13:16:17.849Z</time>
      </trkpt>
      <trkpt lat="45.73136" lon="5.61431">
        <ele>344</ele>
        <time>2019-08-24T13:16:21.858Z</time>
      </trkpt>
      <trkpt lat="45.73142" lon="5.61428">
        <ele>337</ele>
        <time>2019-08-24T13:16:26.849Z</time>
      </trkpt>
      <trkpt lat="45.73148" lon="5.61424">
        <ele>337</ele>
        <time>2019-08-24T13:16:31.860Z</time>
      </trkpt>
      <trkpt lat="45.73151" lon="5.61422">
        <ele>337</ele>
        <time>2019-08-24T13:16:35.859Z</time>
      </trkpt>
      <trkpt lat="45.73158" lon="5.61418">
        <ele>341</ele>
        <time>2019-08-24T13:16:40.856Z</time>
      </trkpt>
      <trkpt lat="45.73167" lon="5.61412">
        <ele>341</ele>
        <time>2019-08-24T13:16:45.860Z</time>
      </trkpt>
      <trkpt lat="45.73174" lon="5.61407">
        <ele>341</ele>
        <time>2019-08-24T13:16:50.838Z</time>
      </trkpt>
      <trkpt lat="45.73178" lon="5.61403">
        <ele>341</ele>
        <time>2019-08-24T13:16:54.857Z</time>
      </trkpt>
      <trkpt lat="45.73188" lon="5.61397">
        <ele>338</ele>
        <time>2019-08-24T13:16:58.865Z</time>
      </trkpt>
      <trkpt lat="45.73197" lon="5.61389">
        <ele>338</ele>
        <time>2019-08-24T13:17:03.847Z</time>
      </trkpt>
      <trkpt lat="45.73204" lon="5.61385">
        <ele>338</ele>
        <time>2019-08-24T13:17:08.875Z</time>
      </trkpt>
      <trkpt lat="45.73205" lon="5.61383">
        <ele>338</ele>
        <time>2019-08-24T13:17:13.859Z</time>
      </trkpt>
      <trkpt lat="45.73206" lon="5.61382">
        <ele>338</ele>
        <time>2019-08-24T13:17:17.860Z</time>
      </trkpt>
      <trkpt lat="45.73212" lon="5.61378">
        <ele>343</ele>
        <time>2019-08-24T13:17:22.860Z</time>
      </trkpt>
      <trkpt lat="45.73216" lon="5.61375">
        <ele>336</ele>
        <time>2019-08-24T13:17:26.866Z</time>
      </trkpt>
      <trkpt lat="45.73223" lon="5.61372">
        <ele>336</ele>
        <time>2019-08-24T13:17:31.861Z</time>
      </trkpt>
      <trkpt lat="45.73229" lon="5.61369">
        <ele>336</ele>
        <time>2019-08-24T13:17:36.844Z</time>
      </trkpt>
      <trkpt lat="45.73234" lon="5.61366">
        <ele>336</ele>
        <time>2019-08-24T13:17:40.853Z</time>
      </trkpt>
      <trkpt lat="45.73238" lon="5.61361">
        <ele>340</ele>
        <time>2019-08-24T13:17:45.867Z</time>
      </trkpt>
      <trkpt lat="45.73243" lon="5.61357">
        <ele>340</ele>
        <time>2019-08-24T13:17:50.856Z</time>
      </trkpt>
      <trkpt lat="45.73247" lon="5.61354">
        <ele>340</ele>
        <time>2019-08-24T13:17:54.889Z</time>
      </trkpt>
      <trkpt lat="45.73252" lon="5.61351">
        <ele>340</ele>
        <time>2019-08-24T13:17:59.850Z</time>
      </trkpt>
      <trkpt lat="45.73257" lon="5.61343">
        <ele>334</ele>
        <time>2019-08-24T13:18:04.869Z</time>
      </trkpt>
      <trkpt lat="45.73263" lon="5.61339">
        <ele>334</ele>
        <time>2019-08-24T13:18:09.864Z</time>
      </trkpt>
      <trkpt lat="45.7327" lon="5.61337">
        <ele>341</ele>
        <time>2019-08-24T13:18:13.848Z</time>
      </trkpt>
      <trkpt lat="45.73278" lon="5.61334">
        <ele>341</ele>
        <time>2019-08-24T13:18:18.849Z</time>
      </trkpt>
      <trkpt lat="45.73292" lon="5.61331">
        <ele>346</ele>
        <time>2019-08-24T13:18:46.847Z</time>
      </trkpt>
      <trkpt lat="45.73293" lon="5.61331">
        <ele>346</ele>
        <time>2019-08-24T13:18:51.868Z</time>
      </trkpt>
      <trkpt lat="45.73294" lon="5.61331">
        <ele>346</ele>
        <time>2019-08-24T13:18:56.861Z</time>
      </trkpt>
      <trkpt lat="45.73294" lon="5.61332">
        <ele>346</ele>
        <time>2019-08-24T13:19:00.846Z</time>
      </trkpt>
      <trkpt lat="45.73293" lon="5.61326">
        <ele>346</ele>
        <time>2019-08-24T13:19:05.856Z</time>
      </trkpt>
      <trkpt lat="45.73297" lon="5.61317">
        <ele>339</ele>
        <time>2019-08-24T13:19:10.838Z</time>
      </trkpt>
      <trkpt lat="45.73303" lon="5.61308">
        <ele>339</ele>
        <time>2019-08-24T13:19:15.865Z</time>
      </trkpt>
      <trkpt lat="45.7331" lon="5.613">
        <ele>339</ele>
        <time>2019-08-24T13:19:20.858Z</time>
      </trkpt>
      <trkpt lat="45.73318" lon="5.61294">
        <ele>339</ele>
        <time>2019-08-24T13:19:25.854Z</time>
      </trkpt>
      <trkpt lat="45.73321" lon="5.61292">
        <ele>342</ele>
        <time>2019-08-24T13:19:29.855Z</time>
      </trkpt>
      <trkpt lat="45.73322" lon="5.61293">
        <ele>342</ele>
        <time>2019-08-24T13:19:34.840Z</time>
      </trkpt>
      <trkpt lat="45.73328" lon="5.6129">
        <ele>336</ele>
        <time>2019-08-24T13:19:39.857Z</time>
      </trkpt>
      <trkpt lat="45.73332" lon="5.61288">
        <ele>336</ele>
        <time>2019-08-24T13:19:43.858Z</time>
      </trkpt>
      <trkpt lat="45.73336" lon="5.61287">
        <ele>336</ele>
        <time>2019-08-24T13:19:48.859Z</time>
      </trkpt>
      <trkpt lat="45.73339" lon="5.61286">
        <ele>336</ele>
        <time>2019-08-24T13:19:53.852Z</time>
      </trkpt>
      <trkpt lat="45.73345" lon="5.61283">
        <ele>336</ele>
        <time>2019-08-24T13:19:58.848Z</time>
      </trkpt>
      <trkpt lat="45.73367" lon="5.61271">
        <ele>343</ele>
        <time>2019-08-24T13:20:03.862Z</time>
      </trkpt>
      <trkpt lat="45.73394" lon="5.61253">
        <ele>345</ele>
        <time>2019-08-24T13:20:08.838Z</time>
      </trkpt>
      <trkpt lat="45.73421" lon="5.61236">
        <ele>345</ele>
        <time>2019-08-24T13:20:13.870Z</time>
      </trkpt>
      <trkpt lat="45.73449" lon="5.61222">
        <ele>346</ele>
        <time>2019-08-24T13:20:18.862Z</time>
      </trkpt>
      <trkpt lat="45.73476" lon="5.6121">
        <ele>345</ele>
        <time>2019-08-24T13:20:23.854Z</time>
      </trkpt>
      <trkpt lat="45.73501" lon="5.61196">
        <ele>341</ele>
        <time>2019-08-24T13:20:28.852Z</time>
      </trkpt>
      <trkpt lat="45.73529" lon="5.61183">
        <ele>346</ele>
        <time>2019-08-24T13:20:33.859Z</time>
      </trkpt>
      <trkpt lat="45.73561" lon="5.61165">
        <ele>342</ele>
        <time>2019-08-24T13:20:38.838Z</time>
      </trkpt>
      <trkpt lat="45.73585" lon="5.61145">
        <ele>339</ele>
        <time>2019-08-24T13:20:42.854Z</time>
      </trkpt>
      <trkpt lat="45.73613" lon="5.61126">
        <ele>342</ele>
        <time>2019-08-24T13:20:47.854Z</time>
      </trkpt>
      <trkpt lat="45.73621" lon="5.61122">
        <ele>337</ele>
        <time>2019-08-24T13:20:52.863Z</time>
      </trkpt>
      <trkpt lat="45.7363" lon="5.61116">
        <ele>341</ele>
        <time>2019-08-24T13:20:57.857Z</time>
      </trkpt>
      <trkpt lat="45.73635" lon="5.61111">
        <ele>341</ele>
        <time>2019-08-24T13:21:01.855Z</time>
      </trkpt>
      <trkpt lat="45.73642" lon="5.61107">
        <ele>341</ele>
        <time>2019-08-24T13:21:05.869Z</time>
      </trkpt>
      <trkpt lat="45.7365" lon="5.61104">
        <ele>341</ele>
        <time>2019-08-24T13:21:10.845Z</time>
      </trkpt>
      <trkpt lat="45.73657" lon="5.61101">
        <ele>345</ele>
        <time>2019-08-24T13:21:14.857Z</time>
      </trkpt>
      <trkpt lat="45.73666" lon="5.611">
        <ele>345</ele>
        <time>2019-08-24T13:21:19.873Z</time>
      </trkpt>
      <trkpt lat="45.73675" lon="5.61097">
        <ele>345</ele>
        <time>2019-08-24T13:21:24.866Z</time>
      </trkpt>
      <trkpt lat="45.73683" lon="5.61093">
        <ele>340</ele>
        <time>2019-08-24T13:21:29.856Z</time>
      </trkpt>
      <trkpt lat="45.7369" lon="5.61092">
        <ele>340</ele>
        <time>2019-08-24T13:21:34.862Z</time>
      </trkpt>
      <trkpt lat="45.73698" lon="5.61091">
        <ele>340</ele>
        <time>2019-08-24T13:21:39.853Z</time>
      </trkpt>
      <trkpt lat="45.73706" lon="5.61089">
        <ele>340</ele>
        <time>2019-08-24T13:21:44.875Z</time>
      </trkpt>
      <trkpt lat="45.73714" lon="5.61087">
        <ele>339</ele>
        <time>2019-08-24T13:21:49.870Z</time>
      </trkpt>
      <trkpt lat="45.73721" lon="5.61088">
        <ele>339</ele>
        <time>2019-08-24T13:21:54.857Z</time>
      </trkpt>
      <trkpt lat="45.73728" lon="5.61093">
        <ele>339</ele>
        <time>2019-08-24T13:21:59.859Z</time>
      </trkpt>
      <trkpt lat="45.73731" lon="5.61099">
        <ele>347</ele>
        <time>2019-08-24T13:22:04.856Z</time>
      </trkpt>
      <trkpt lat="45.73735" lon="5.611">
        <ele>347</ele>
        <time>2019-08-24T13:22:08.854Z</time>
      </trkpt>
      <trkpt lat="45.73737" lon="5.61102">
        <ele>346</ele>
        <time>2019-08-24T13:22:13.866Z</time>
      </trkpt>
      <trkpt lat="45.73748" lon="5.61101">
        <ele>346</ele>
        <time>2019-08-24T13:22:18.840Z</time>
      </trkpt>
      <trkpt lat="45.73752" lon="5.61103">
        <ele>346</ele>
        <time>2019-08-24T13:22:22.860Z</time>
      </trkpt>
      <trkpt lat="45.73757" lon="5.61104">
        <ele>346</ele>
        <time>2019-08-24T13:22:27.858Z</time>
      </trkpt>
      <trkpt lat="45.73761" lon="5.61105">
        <ele>346</ele>
        <time>2019-08-24T13:22:31.873Z</time>
      </trkpt>
      <trkpt lat="45.73767" lon="5.61105">
        <ele>349</ele>
        <time>2019-08-24T13:22:36.852Z</time>
      </trkpt>
      <trkpt lat="45.73773" lon="5.61104">
        <ele>349</ele>
        <time>2019-08-24T13:22:40.870Z</time>
      </trkpt>
      <trkpt lat="45.7378" lon="5.61104">
        <ele>349</ele>
        <time>2019-08-24T13:22:45.854Z</time>
      </trkpt>
      <trkpt lat="45.73785" lon="5.61103">
        <ele>349</ele>
        <time>2019-08-24T13:22:50.863Z</time>
      </trkpt>
      <trkpt lat="45.73793" lon="5.61101">
        <ele>351</ele>
        <time>2019-08-24T13:22:55.867Z</time>
      </trkpt>
      <trkpt lat="45.73799" lon="5.61098">
        <ele>351</ele>
        <time>2019-08-24T13:23:00.877Z</time>
      </trkpt>
      <trkpt lat="45.73807" lon="5.61096">
        <ele>340</ele>
        <time>2019-08-24T13:23:05.861Z</time>
      </trkpt>
      <trkpt lat="45.73816" lon="5.61091">
        <ele>340</ele>
        <time>2019-08-24T13:23:10.845Z</time>
      </trkpt>
      <trkpt lat="45.73822" lon="5.6109">
        <ele>344</ele>
        <time>2019-08-24T13:23:15.867Z</time>
      </trkpt>
      <trkpt lat="45.7383" lon="5.61087">
        <ele>344</ele>
        <time>2019-08-24T13:23:20.857Z</time>
      </trkpt>
      <trkpt lat="45.73835" lon="5.61086">
        <ele>344</ele>
        <time>2019-08-24T13:23:24.876Z</time>
      </trkpt>
      <trkpt lat="45.73843" lon="5.61086">
        <ele>344</ele>
        <time>2019-08-24T13:23:29.860Z</time>
      </trkpt>
      <trkpt lat="45.73851" lon="5.61084">
        <ele>348</ele>
        <time>2019-08-24T13:23:34.858Z</time>
      </trkpt>
      <trkpt lat="45.73858" lon="5.61082">
        <ele>348</ele>
        <time>2019-08-24T13:23:39.865Z</time>
      </trkpt>
      <trkpt lat="45.73863" lon="5.6108">
        <ele>348</ele>
        <time>2019-08-24T13:23:43.868Z</time>
      </trkpt>
      <trkpt lat="45.7387" lon="5.61077">
        <ele>348</ele>
        <time>2019-08-24T13:23:48.865Z</time>
      </trkpt>
      <trkpt lat="45.73877" lon="5.61075">
        <ele>351</ele>
        <time>2019-08-24T13:23:53.865Z</time>
      </trkpt>
      <trkpt lat="45.73883" lon="5.61073">
        <ele>351</ele>
        <time>2019-08-24T13:23:58.843Z</time>
      </trkpt>
      <trkpt lat="45.73888" lon="5.61071">
        <ele>351</ele>
        <time>2019-08-24T13:24:02.853Z</time>
      </trkpt>
      <trkpt lat="45.73892" lon="5.61071">
        <ele>351</ele>
        <time>2019-08-24T13:24:06.842Z</time>
      </trkpt>
      <trkpt lat="45.73896" lon="5.6107">
        <ele>351</ele>
        <time>2019-08-24T13:24:10.863Z</time>
      </trkpt>
      <trkpt lat="45.73902" lon="5.6107">
        <ele>351</ele>
        <time>2019-08-24T13:24:15.874Z</time>
      </trkpt>
      <trkpt lat="45.73909" lon="5.61068">
        <ele>344</ele>
        <time>2019-08-24T13:24:20.850Z</time>
      </trkpt>
      <trkpt lat="45.73914" lon="5.61067">
        <ele>344</ele>
        <time>2019-08-24T13:24:24.861Z</time>
      </trkpt>
      <trkpt lat="45.7392" lon="5.61067">
        <ele>344</ele>
        <time>2019-08-24T13:24:29.867Z</time>
      </trkpt>
      <trkpt lat="45.73927" lon="5.61065">
        <ele>344</ele>
        <time>2019-08-24T13:24:34.855Z</time>
      </trkpt>
      <trkpt lat="45.73933" lon="5.61063">
        <ele>345</ele>
        <time>2019-08-24T13:24:39.849Z</time>
      </trkpt>
      <trkpt lat="45.73941" lon="5.6106">
        <ele>345</ele>
        <time>2019-08-24T13:24:44.885Z</time>
      </trkpt>
      <trkpt lat="45.7395" lon="5.61056">
        <ele>345</ele>
        <time>2019-08-24T13:24:49.857Z</time>
      </trkpt>
      <trkpt lat="45.73954" lon="5.61055">
        <ele>345</ele>
        <time>2019-08-24T13:24:53.863Z</time>
      </trkpt>
      <trkpt lat="45.73961" lon="5.61052">
        <ele>347</ele>
        <time>2019-08-24T13:24:58.864Z</time>
      </trkpt>
      <trkpt lat="45.73968" lon="5.61049">
        <ele>347</ele>
        <time>2019-08-24T13:25:03.859Z</time>
      </trkpt>
      <trkpt lat="45.73976" lon="5.61045">
        <ele>347</ele>
        <time>2019-08-24T13:25:08.891Z</time>
      </trkpt>
      <trkpt lat="45.73981" lon="5.61042">
        <ele>347</ele>
        <time>2019-08-24T13:25:13.864Z</time>
      </trkpt>
      <trkpt lat="45.73987" lon="5.61037">
        <ele>345</ele>
        <time>2019-08-24T13:25:18.869Z</time>
      </trkpt>
      <trkpt lat="45.73994" lon="5.61032">
        <ele>345</ele>
        <time>2019-08-24T13:25:23.868Z</time>
      </trkpt>
      <trkpt lat="45.74001" lon="5.61028">
        <ele>345</ele>
        <time>2019-08-24T13:25:28.849Z</time>
      </trkpt>
      <trkpt lat="45.74008" lon="5.61026">
        <ele>345</ele>
        <time>2019-08-24T13:25:32.869Z</time>
      </trkpt>
      <trkpt lat="45.74014" lon="5.61026">
        <ele>347</ele>
        <time>2019-08-24T13:25:37.858Z</time>
      </trkpt>
      <trkpt lat="45.7402" lon="5.61025">
        <ele>347</ele>
        <time>2019-08-24T13:25:42.874Z</time>
      </trkpt>
      <trkpt lat="45.74026" lon="5.61025">
        <ele>347</ele>
        <time>2019-08-24T13:25:47.860Z</time>
      </trkpt>
      <trkpt lat="45.74035" lon="5.61023">
        <ele>347</ele>
        <time>2019-08-24T13:25:52.876Z</time>
      </trkpt>
      <trkpt lat="45.74042" lon="5.61022">
        <ele>351</ele>
        <time>2019-08-24T13:25:56.861Z</time>
      </trkpt>
      <trkpt lat="45.74049" lon="5.6102">
        <ele>351</ele>
        <time>2019-08-24T13:26:01.864Z</time>
      </trkpt>
      <trkpt lat="45.74054" lon="5.61019">
        <ele>351</ele>
        <time>2019-08-24T13:26:05.871Z</time>
      </trkpt>
      <trkpt lat="45.74059" lon="5.61016">
        <ele>351</ele>
        <time>2019-08-24T13:26:10.859Z</time>
      </trkpt>
      <trkpt lat="45.74064" lon="5.61014">
        <ele>344</ele>
        <time>2019-08-24T13:26:14.878Z</time>
      </trkpt>
      <trkpt lat="45.74072" lon="5.61011">
        <ele>346</ele>
        <time>2019-08-24T13:26:19.858Z</time>
      </trkpt>
      <trkpt lat="45.74079" lon="5.61006">
        <ele>346</ele>
        <time>2019-08-24T13:26:24.861Z</time>
      </trkpt>
      <trkpt lat="45.74089" lon="5.61002">
        <ele>346</ele>
        <time>2019-08-24T13:26:29.857Z</time>
      </trkpt>
      <trkpt lat="45.74095" lon="5.60998">
        <ele>346</ele>
        <time>2019-08-24T13:26:34.865Z</time>
      </trkpt>
      <trkpt lat="45.74101" lon="5.60994">
        <ele>351</ele>
        <time>2019-08-24T13:26:38.880Z</time>
      </trkpt>
      <trkpt lat="45.74108" lon="5.60993">
        <ele>351</ele>
        <time>2019-08-24T13:26:43.868Z</time>
      </trkpt>
      <trkpt lat="45.74113" lon="5.60991">
        <ele>351</ele>
        <time>2019-08-24T13:26:47.855Z</time>
      </trkpt>
      <trkpt lat="45.74122" lon="5.60985">
        <ele>343</ele>
        <time>2019-08-24T13:26:52.847Z</time>
      </trkpt>
      <trkpt lat="45.74129" lon="5.60978">
        <ele>349</ele>
        <time>2019-08-24T13:26:57.854Z</time>
      </trkpt>
      <trkpt lat="45.74136" lon="5.60971">
        <ele>349</ele>
        <time>2019-08-24T13:27:02.877Z</time>
      </trkpt>
      <trkpt lat="45.74139" lon="5.60965">
        <ele>349</ele>
        <time>2019-08-24T13:27:06.858Z</time>
      </trkpt>
      <trkpt lat="45.74142" lon="5.60958">
        <ele>343</ele>
        <time>2019-08-24T13:27:10.863Z</time>
      </trkpt>
      <trkpt lat="45.74145" lon="5.60941">
        <ele>343</ele>
        <time>2019-08-24T13:27:15.856Z</time>
      </trkpt>
      <trkpt lat="45.74146" lon="5.60927">
        <ele>341</ele>
        <time>2019-08-24T13:27:20.851Z</time>
      </trkpt>
      <trkpt lat="45.74147" lon="5.60915">
        <ele>341</ele>
        <time>2019-08-24T13:27:25.857Z</time>
      </trkpt>
      <trkpt lat="45.74148" lon="5.60904">
        <ele>341</ele>
        <time>2019-08-24T13:27:30.882Z</time>
      </trkpt>
      <trkpt lat="45.7415" lon="5.60893">
        <ele>341</ele>
        <time>2019-08-24T13:27:35.880Z</time>
      </trkpt>
      <trkpt lat="45.7415" lon="5.6089">
        <ele>341</ele>
        <time>2019-08-24T13:27:40.849Z</time>
      </trkpt>
      <trkpt lat="45.7415" lon="5.60888">
        <ele>341</ele>
        <time>2019-08-24T13:27:44.859Z</time>
      </trkpt>
      <trkpt lat="45.7415" lon="5.60889">
        <ele>341</ele>
        <time>2019-08-24T13:27:49.872Z</time>
      </trkpt>
      <trkpt lat="45.74149" lon="5.60889">
        <ele>341</ele>
        <time>2019-08-24T13:27:54.873Z</time>
      </trkpt>
      <trkpt lat="45.7415" lon="5.60881">
        <ele>341</ele>
        <time>2019-08-24T13:27:59.863Z</time>
      </trkpt>
      <trkpt lat="45.74152" lon="5.60871">
        <ele>344</ele>
        <time>2019-08-24T13:28:04.851Z</time>
      </trkpt>
      <trkpt lat="45.74154" lon="5.60862">
        <ele>345</ele>
        <time>2019-08-24T13:28:09.849Z</time>
      </trkpt>
      <trkpt lat="45.74154" lon="5.60855">
        <ele>345</ele>
        <time>2019-08-24T13:28:13.851Z</time>
      </trkpt>
      <trkpt lat="45.74154" lon="5.60848">
        <ele>345</ele>
        <time>2019-08-24T13:28:18.863Z</time>
      </trkpt>
      <trkpt lat="45.74153" lon="5.60839">
        <ele>343</ele>
        <time>2019-08-24T13:28:23.868Z</time>
      </trkpt>
      <trkpt lat="45.74154" lon="5.60832">
        <ele>345</ele>
        <time>2019-08-24T13:28:28.858Z</time>
      </trkpt>
      <trkpt lat="45.74155" lon="5.60825">
        <ele>345</ele>
        <time>2019-08-24T13:28:33.856Z</time>
      </trkpt>
      <trkpt lat="45.74156" lon="5.60815">
        <ele>343</ele>
        <time>2019-08-24T13:28:37.876Z</time>
      </trkpt>
      <trkpt lat="45.74156" lon="5.60805">
        <ele>343</ele>
        <time>2019-08-24T13:28:42.855Z</time>
      </trkpt>
      <trkpt lat="45.74156" lon="5.60799">
        <ele>343</ele>
        <time>2019-08-24T13:28:47.862Z</time>
      </trkpt>
      <trkpt lat="45.74158" lon="5.60789">
        <ele>341</ele>
        <time>2019-08-24T13:28:52.842Z</time>
      </trkpt>
      <trkpt lat="45.74162" lon="5.60783">
        <ele>341</ele>
        <time>2019-08-24T13:28:56.863Z</time>
      </trkpt>
      <trkpt lat="45.74171" lon="5.6078">
        <ele>341</ele>
        <time>2019-08-24T13:29:01.864Z</time>
      </trkpt>
      <trkpt lat="45.74178" lon="5.60774">
        <ele>341</ele>
        <time>2019-08-24T13:29:06.842Z</time>
      </trkpt>
      <trkpt lat="45.74182" lon="5.6077">
        <ele>342</ele>
        <time>2019-08-24T13:29:10.830Z</time>
      </trkpt>
      <trkpt lat="45.74187" lon="5.60766">
        <ele>342</ele>
        <time>2019-08-24T13:29:14.857Z</time>
      </trkpt>
      <trkpt lat="45.74191" lon="5.60762">
        <ele>342</ele>
        <time>2019-08-24T13:29:19.846Z</time>
      </trkpt>
      <trkpt lat="45.74194" lon="5.60757">
        <ele>342</ele>
        <time>2019-08-24T13:29:23.844Z</time>
      </trkpt>
      <trkpt lat="45.74201" lon="5.60752">
        <ele>342</ele>
        <time>2019-08-24T13:29:28.849Z</time>
      </trkpt>
      <trkpt lat="45.74207" lon="5.60748">
        <ele>342</ele>
        <time>2019-08-24T13:29:33.849Z</time>
      </trkpt>
      <trkpt lat="45.74213" lon="5.60747">
        <ele>344</ele>
        <time>2019-08-24T13:29:38.893Z</time>
      </trkpt>
      <trkpt lat="45.74219" lon="5.60746">
        <ele>344</ele>
        <time>2019-08-24T13:29:43.865Z</time>
      </trkpt>
      <trkpt lat="45.74225" lon="5.60745">
        <ele>344</ele>
        <time>2019-08-24T13:29:48.863Z</time>
      </trkpt>
      <trkpt lat="45.74232" lon="5.60743">
        <ele>344</ele>
        <time>2019-08-24T13:29:53.858Z</time>
      </trkpt>
      <trkpt lat="45.74237" lon="5.60742">
        <ele>344</ele>
        <time>2019-08-24T13:29:57.863Z</time>
      </trkpt>
      <trkpt lat="45.74243" lon="5.60741">
        <ele>344</ele>
        <time>2019-08-24T13:30:02.898Z</time>
      </trkpt>
      <trkpt lat="45.74249" lon="5.60739">
        <ele>344</ele>
        <time>2019-08-24T13:30:07.870Z</time>
      </trkpt>
      <trkpt lat="45.74254" lon="5.60738">
        <ele>344</ele>
        <time>2019-08-24T13:30:12.871Z</time>
      </trkpt>
      <trkpt lat="45.74262" lon="5.60738">
        <ele>344</ele>
        <time>2019-08-24T13:30:17.862Z</time>
      </trkpt>
      <trkpt lat="45.74269" lon="5.60736">
        <ele>345</ele>
        <time>2019-08-24T13:30:22.850Z</time>
      </trkpt>
      <trkpt lat="45.74274" lon="5.60735">
        <ele>346</ele>
        <time>2019-08-24T13:30:27.869Z</time>
      </trkpt>
      <trkpt lat="45.7428" lon="5.60732">
        <ele>346</ele>
        <time>2019-08-24T13:30:32.859Z</time>
      </trkpt>
      <trkpt lat="45.74284" lon="5.60731">
        <ele>346</ele>
        <time>2019-08-24T13:30:36.853Z</time>
      </trkpt>
      <trkpt lat="45.7429" lon="5.60726">
        <ele>346</ele>
        <time>2019-08-24T13:30:41.867Z</time>
      </trkpt>
      <trkpt lat="45.74294" lon="5.6072">
        <ele>346</ele>
        <time>2019-08-24T13:30:46.857Z</time>
      </trkpt>
      <trkpt lat="45.74296" lon="5.6071">
        <ele>346</ele>
        <time>2019-08-24T13:30:51.860Z</time>
      </trkpt>
      <trkpt lat="45.74295" lon="5.60701">
        <ele>346</ele>
        <time>2019-08-24T13:30:56.856Z</time>
      </trkpt>
      <trkpt lat="45.74295" lon="5.60691">
        <ele>346</ele>
        <time>2019-08-24T13:31:01.858Z</time>
      </trkpt>
      <trkpt lat="45.74293" lon="5.60685">
        <ele>346</ele>
        <time>2019-08-24T13:31:05.867Z</time>
      </trkpt>
      <trkpt lat="45.74293" lon="5.60675">
        <ele>346</ele>
        <time>2019-08-24T13:31:10.864Z</time>
      </trkpt>
      <trkpt lat="45.74294" lon="5.60665">
        <ele>346</ele>
        <time>2019-08-24T13:31:15.861Z</time>
      </trkpt>
      <trkpt lat="45.74296" lon="5.60653">
        <ele>347</ele>
        <time>2019-08-24T13:31:20.869Z</time>
      </trkpt>
      <trkpt lat="45.74297" lon="5.60641">
        <ele>347</ele>
        <time>2019-08-24T13:31:25.870Z</time>
      </trkpt>
      <trkpt lat="45.74298" lon="5.6063">
        <ele>347</ele>
        <time>2019-08-24T13:31:30.871Z</time>
      </trkpt>
      <trkpt lat="45.74299" lon="5.60623">
        <ele>349</ele>
        <time>2019-08-24T13:31:35.871Z</time>
      </trkpt>
      <trkpt lat="45.743" lon="5.60623">
        <ele>349</ele>
        <time>2019-08-24T13:31:39.873Z</time>
      </trkpt>
      <trkpt lat="45.743" lon="5.60623">
        <ele>349</ele>
        <time>2019-08-24T13:31:44.867Z</time>
      </trkpt>
      <trkpt lat="45.74302" lon="5.60618">
        <ele>349</ele>
        <time>2019-08-24T13:31:49.872Z</time>
      </trkpt>
      <trkpt lat="45.74307" lon="5.60612">
        <ele>349</ele>
        <time>2019-08-24T13:31:54.872Z</time>
      </trkpt>
      <trkpt lat="45.74314" lon="5.60611">
        <ele>349</ele>
        <time>2019-08-24T13:31:59.867Z</time>
      </trkpt>
      <trkpt lat="45.7432" lon="5.60609">
        <ele>351</ele>
        <time>2019-08-24T13:32:04.857Z</time>
      </trkpt>
      <trkpt lat="45.74326" lon="5.60606">
        <ele>351</ele>
        <time>2019-08-24T13:32:09.866Z</time>
      </trkpt>
      <trkpt lat="45.74333" lon="5.60604">
        <ele>351</ele>
        <time>2019-08-24T13:32:14.867Z</time>
      </trkpt>
      <trkpt lat="45.74339" lon="5.60601">
        <ele>351</ele>
        <time>2019-08-24T13:32:19.870Z</time>
      </trkpt>
      <trkpt lat="45.74346" lon="5.60598">
        <ele>351</ele>
        <time>2019-08-24T13:32:24.863Z</time>
      </trkpt>
      <trkpt lat="45.74352" lon="5.60595">
        <ele>353</ele>
        <time>2019-08-24T13:32:28.865Z</time>
      </trkpt>
      <trkpt lat="45.74358" lon="5.60593">
        <ele>353</ele>
        <time>2019-08-24T13:32:33.857Z</time>
      </trkpt>
      <trkpt lat="45.74365" lon="5.60589">
        <ele>353</ele>
        <time>2019-08-24T13:32:38.859Z</time>
      </trkpt>
      <trkpt lat="45.74371" lon="5.60584">
        <ele>353</ele>
        <time>2019-08-24T13:32:43.865Z</time>
      </trkpt>
      <trkpt lat="45.74376" lon="5.6058">
        <ele>353</ele>
        <time>2019-08-24T13:32:48.854Z</time>
      </trkpt>
      <trkpt lat="45.7438" lon="5.60576">
        <ele>353</ele>
        <time>2019-08-24T13:32:52.857Z</time>
      </trkpt>
      <trkpt lat="45.74384" lon="5.60569">
        <ele>354</ele>
        <time>2019-08-24T13:32:57.871Z</time>
      </trkpt>
      <trkpt lat="45.74388" lon="5.60561">
        <ele>354</ele>
        <time>2019-08-24T13:33:02.865Z</time>
      </trkpt>
      <trkpt lat="45.74392" lon="5.60555">
        <ele>354</ele>
        <time>2019-08-24T13:33:07.867Z</time>
      </trkpt>
      <trkpt lat="45.74396" lon="5.60548">
        <ele>354</ele>
        <time>2019-08-24T13:33:12.846Z</time>
      </trkpt>
      <trkpt lat="45.74398" lon="5.60546">
        <ele>354</ele>
        <time>2019-08-24T13:33:16.880Z</time>
      </trkpt>
      <trkpt lat="45.74401" lon="5.60541">
        <ele>355</ele>
        <time>2019-08-24T13:33:21.863Z</time>
      </trkpt>
      <trkpt lat="45.74405" lon="5.60534">
        <ele>356</ele>
        <time>2019-08-24T13:33:26.861Z</time>
      </trkpt>
      <trkpt lat="45.74408" lon="5.60529">
        <ele>356</ele>
        <time>2019-08-24T13:33:30.868Z</time>
      </trkpt>
      <trkpt lat="45.74412" lon="5.60522">
        <ele>356</ele>
        <time>2019-08-24T13:33:35.856Z</time>
      </trkpt>
      <trkpt lat="45.74418" lon="5.6052">
        <ele>356</ele>
        <time>2019-08-24T13:33:40.883Z</time>
      </trkpt>
      <trkpt lat="45.74423" lon="5.60517">
        <ele>356</ele>
        <time>2019-08-24T13:33:45.872Z</time>
      </trkpt>
      <trkpt lat="45.74429" lon="5.60513">
        <ele>356</ele>
        <time>2019-08-24T13:33:50.861Z</time>
      </trkpt>
      <trkpt lat="45.74437" lon="5.60508">
        <ele>357</ele>
        <time>2019-08-24T13:33:55.854Z</time>
      </trkpt>
      <trkpt lat="45.74443" lon="5.60505">
        <ele>357</ele>
        <time>2019-08-24T13:34:00.859Z</time>
      </trkpt>
      <trkpt lat="45.74448" lon="5.60503">
        <ele>357</ele>
        <time>2019-08-24T13:34:05.862Z</time>
      </trkpt>
      <trkpt lat="45.74453" lon="5.60503">
        <ele>357</ele>
        <time>2019-08-24T13:34:10.872Z</time>
      </trkpt>
      <trkpt lat="45.74456" lon="5.60507">
        <ele>357</ele>
        <time>2019-08-24T13:34:15.858Z</time>
      </trkpt>
      <trkpt lat="45.74463" lon="5.60506">
        <ele>359</ele>
        <time>2019-08-24T13:34:19.875Z</time>
      </trkpt>
      <trkpt lat="45.74473" lon="5.60504">
        <ele>359</ele>
        <time>2019-08-24T13:34:24.878Z</time>
      </trkpt>
      <trkpt lat="45.74481" lon="5.60499">
        <ele>359</ele>
        <time>2019-08-24T13:34:29.863Z</time>
      </trkpt>
      <trkpt lat="45.74485" lon="5.60499">
        <ele>359</ele>
        <time>2019-08-24T13:34:34.864Z</time>
      </trkpt>
      <trkpt lat="45.74492" lon="5.60497">
        <ele>361</ele>
        <time>2019-08-24T13:34:39.872Z</time>
      </trkpt>
      <trkpt lat="45.74498" lon="5.60494">
        <ele>361</ele>
        <time>2019-08-24T13:34:44.872Z</time>
      </trkpt>
      <trkpt lat="45.74501" lon="5.60488">
        <ele>361</ele>
        <time>2019-08-24T13:34:49.859Z</time>
      </trkpt>
      <trkpt lat="45.74507" lon="5.60485">
        <ele>363</ele>
        <time>2019-08-24T13:34:54.872Z</time>
      </trkpt>
      <trkpt lat="45.74515" lon="5.60481">
        <ele>361</ele>
        <time>2019-08-24T13:34:59.889Z</time>
      </trkpt>
      <trkpt lat="45.7452" lon="5.60477">
        <ele>361</ele>
        <time>2019-08-24T13:35:03.864Z</time>
      </trkpt>
      <trkpt lat="45.74525" lon="5.60477">
        <ele>361</ele>
        <time>2019-08-24T13:35:08.871Z</time>
      </trkpt>
      <trkpt lat="45.7453" lon="5.6048">
        <ele>361</ele>
        <time>2019-08-24T13:35:13.865Z</time>
      </trkpt>
      <trkpt lat="45.74533" lon="5.60482">
        <ele>361</ele>
        <time>2019-08-24T13:35:17.874Z</time>
      </trkpt>
      <trkpt lat="45.74537" lon="5.6048">
        <ele>361</ele>
        <time>2019-08-24T13:35:22.862Z</time>
      </trkpt>
      <trkpt lat="45.7454" lon="5.60479">
        <ele>361</ele>
        <time>2019-08-24T13:35:27.850Z</time>
      </trkpt>
      <trkpt lat="45.74542" lon="5.60478">
        <ele>361</ele>
        <time>2019-08-24T13:35:31.873Z</time>
      </trkpt>
      <trkpt lat="45.74549" lon="5.60478">
        <ele>361</ele>
        <time>2019-08-24T13:35:36.853Z</time>
      </trkpt>
      <trkpt lat="45.74554" lon="5.60476">
        <ele>361</ele>
        <time>2019-08-24T13:35:40.877Z</time>
      </trkpt>
      <trkpt lat="45.7456" lon="5.60474">
        <ele>361</ele>
        <time>2019-08-24T13:35:45.870Z</time>
      </trkpt>
      <trkpt lat="45.74565" lon="5.60475">
        <ele>361</ele>
        <time>2019-08-24T13:35:50.860Z</time>
      </trkpt>
      <trkpt lat="45.74571" lon="5.60477">
        <ele>364</ele>
        <time>2019-08-24T13:35:55.863Z</time>
      </trkpt>
      <trkpt lat="45.74576" lon="5.60477">
        <ele>364</ele>
        <time>2019-08-24T13:36:00.870Z</time>
      </trkpt>
      <trkpt lat="45.74583" lon="5.60479">
        <ele>364</ele>
        <time>2019-08-24T13:36:05.865Z</time>
      </trkpt>
      <trkpt lat="45.74591" lon="5.60479">
        <ele>364</ele>
        <time>2019-08-24T13:36:10.868Z</time>
      </trkpt>
      <trkpt lat="45.74601" lon="5.60478">
        <ele>366</ele>
        <time>2019-08-24T13:36:15.868Z</time>
      </trkpt>
      <trkpt lat="45.74609" lon="5.60477">
        <ele>366</ele>
        <time>2019-08-24T13:36:20.861Z</time>
      </trkpt>
      <trkpt lat="45.74617" lon="5.60474">
        <ele>366</ele>
        <time>2019-08-24T13:36:25.872Z</time>
      </trkpt>
      <trkpt lat="45.74623" lon="5.60471">
        <ele>366</ele>
        <time>2019-08-24T13:36:30.871Z</time>
      </trkpt>
      <trkpt lat="45.74632" lon="5.60469">
        <ele>366</ele>
        <time>2019-08-24T13:36:35.860Z</time>
      </trkpt>
      <trkpt lat="45.7464" lon="5.60468">
        <ele>366</ele>
        <time>2019-08-24T13:36:40.864Z</time>
      </trkpt>
      <trkpt lat="45.74647" lon="5.60466">
        <ele>366</ele>
        <time>2019-08-24T13:36:45.867Z</time>
      </trkpt>
      <trkpt lat="45.74657" lon="5.60464">
        <ele>365</ele>
        <time>2019-08-24T13:36:50.845Z</time>
      </trkpt>
      <trkpt lat="45.74665" lon="5.60464">
        <ele>365</ele>
        <time>2019-08-24T13:36:55.882Z</time>
      </trkpt>
      <trkpt lat="45.74672" lon="5.60465">
        <ele>365</ele>
        <time>2019-08-24T13:37:00.864Z</time>
      </trkpt>
      <trkpt lat="45.74678" lon="5.60465">
        <ele>365</ele>
        <time>2019-08-24T13:37:05.870Z</time>
      </trkpt>
      <trkpt lat="45.74685" lon="5.60465">
        <ele>365</ele>
        <time>2019-08-24T13:37:10.874Z</time>
      </trkpt>
      <trkpt lat="45.7469" lon="5.60466">
        <ele>365</ele>
        <time>2019-08-24T13:37:15.866Z</time>
      </trkpt>
      <trkpt lat="45.74697" lon="5.60467">
        <ele>365</ele>
        <time>2019-08-24T13:37:20.870Z</time>
      </trkpt>
      <trkpt lat="45.74703" lon="5.60467">
        <ele>365</ele>
        <time>2019-08-24T13:37:24.860Z</time>
      </trkpt>
      <trkpt lat="45.74709" lon="5.60468">
        <ele>366</ele>
        <time>2019-08-24T13:37:29.867Z</time>
      </trkpt>
      <trkpt lat="45.74715" lon="5.60469">
        <ele>366</ele>
        <time>2019-08-24T13:37:34.861Z</time>
      </trkpt>
      <trkpt lat="45.74721" lon="5.60467">
        <ele>366</ele>
        <time>2019-08-24T13:37:39.859Z</time>
      </trkpt>
      <trkpt lat="45.74728" lon="5.60463">
        <ele>366</ele>
        <time>2019-08-24T13:37:44.867Z</time>
      </trkpt>
      <trkpt lat="45.74731" lon="5.60461">
        <ele>366</ele>
        <time>2019-08-24T13:37:49.870Z</time>
      </trkpt>
      <trkpt lat="45.74732" lon="5.6046">
        <ele>366</ele>
        <time>2019-08-24T13:37:54.861Z</time>
      </trkpt>
      <trkpt lat="45.74734" lon="5.60457">
        <ele>366</ele>
        <time>2019-08-24T13:37:58.876Z</time>
      </trkpt>
      <trkpt lat="45.7474" lon="5.6045">
        <ele>369</ele>
        <time>2019-08-24T13:38:03.866Z</time>
      </trkpt>
      <trkpt lat="45.74747" lon="5.60447">
        <ele>369</ele>
        <time>2019-08-24T13:38:08.872Z</time>
      </trkpt>
      <trkpt lat="45.74753" lon="5.60442">
        <ele>369</ele>
        <time>2019-08-24T13:38:13.876Z</time>
      </trkpt>
      <trkpt lat="45.74759" lon="5.60437">
        <ele>369</ele>
        <time>2019-08-24T13:38:18.859Z</time>
      </trkpt>
      <trkpt lat="45.74764" lon="5.60431">
        <ele>372</ele>
        <time>2019-08-24T13:38:23.870Z</time>
      </trkpt>
      <trkpt lat="45.74768" lon="5.60426">
        <ele>372</ele>
        <time>2019-08-24T13:38:27.870Z</time>
      </trkpt>
      <trkpt lat="45.74775" lon="5.60421">
        <ele>372</ele>
        <time>2019-08-24T13:38:32.865Z</time>
      </trkpt>
      <trkpt lat="45.7478" lon="5.60415">
        <ele>372</ele>
        <time>2019-08-24T13:38:37.850Z</time>
      </trkpt>
      <trkpt lat="45.74783" lon="5.60412">
        <ele>372</ele>
        <time>2019-08-24T13:38:42.853Z</time>
      </trkpt>
      <trkpt lat="45.74785" lon="5.6041">
        <ele>372</ele>
        <time>2019-08-24T13:38:47.865Z</time>
      </trkpt>
      <trkpt lat="45.74786" lon="5.60408">
        <ele>372</ele>
        <time>2019-08-24T13:38:52.853Z</time>
      </trkpt>
      <trkpt lat="45.7479" lon="5.60404">
        <ele>372</ele>
        <time>2019-08-24T13:38:56.871Z</time>
      </trkpt>
      <trkpt lat="45.74795" lon="5.60398">
        <ele>375</ele>
        <time>2019-08-24T13:39:01.872Z</time>
      </trkpt>
      <trkpt lat="45.748" lon="5.6039">
        <ele>375</ele>
        <time>2019-08-24T13:39:06.866Z</time>
      </trkpt>
      <trkpt lat="45.74804" lon="5.60383">
        <ele>375</ele>
        <time>2019-08-24T13:39:11.870Z</time>
      </trkpt>
      <trkpt lat="45.7481" lon="5.60378">
        <ele>375</ele>
        <time>2019-08-24T13:39:16.866Z</time>
      </trkpt>
      <trkpt lat="45.74815" lon="5.60371">
        <ele>375</ele>
        <time>2019-08-24T13:39:21.869Z</time>
      </trkpt>
      <trkpt lat="45.7482" lon="5.60365">
        <ele>377</ele>
        <time>2019-08-24T13:39:25.866Z</time>
      </trkpt>
      <trkpt lat="45.74824" lon="5.60358">
        <ele>377</ele>
        <time>2019-08-24T13:39:30.870Z</time>
      </trkpt>
      <trkpt lat="45.74827" lon="5.60351">
        <ele>377</ele>
        <time>2019-08-24T13:39:35.864Z</time>
      </trkpt>
      <trkpt lat="45.74833" lon="5.60345">
        <ele>379</ele>
        <time>2019-08-24T13:39:40.866Z</time>
      </trkpt>
      <trkpt lat="45.74838" lon="5.60344">
        <ele>379</ele>
        <time>2019-08-24T13:39:45.868Z</time>
      </trkpt>
      <trkpt lat="45.74843" lon="5.60343">
        <ele>379</ele>
        <time>2019-08-24T13:39:50.856Z</time>
      </trkpt>
      <trkpt lat="45.74847" lon="5.6034">
        <ele>379</ele>
        <time>2019-08-24T13:39:54.881Z</time>
      </trkpt>
      <trkpt lat="45.74852" lon="5.60337">
        <ele>382</ele>
        <time>2019-08-24T13:39:58.874Z</time>
      </trkpt>
      <trkpt lat="45.7486" lon="5.60339">
        <ele>382</ele>
        <time>2019-08-24T13:40:07.865Z</time>
      </trkpt>
      <trkpt lat="45.74863" lon="5.60338">
        <ele>382</ele>
        <time>2019-08-24T13:40:12.853Z</time>
      </trkpt>
      <trkpt lat="45.74864" lon="5.60338">
        <ele>382</ele>
        <time>2019-08-24T13:40:16.860Z</time>
      </trkpt>
      <trkpt lat="45.74864" lon="5.60338">
        <ele>382</ele>
        <time>2019-08-24T13:40:21.883Z</time>
      </trkpt>
      <trkpt lat="45.7487" lon="5.60335">
        <ele>382</ele>
        <time>2019-08-24T13:40:26.867Z</time>
      </trkpt>
      <trkpt lat="45.74876" lon="5.60333">
        <ele>385</ele>
        <time>2019-08-24T13:40:31.867Z</time>
      </trkpt>
      <trkpt lat="45.74883" lon="5.60332">
        <ele>385</ele>
        <time>2019-08-24T13:40:36.864Z</time>
      </trkpt>
      <trkpt lat="45.7489" lon="5.6033">
        <ele>385</ele>
        <time>2019-08-24T13:40:41.870Z</time>
      </trkpt>
      <trkpt lat="45.74896" lon="5.60325">
        <ele>385</ele>
        <time>2019-08-24T13:40:46.872Z</time>
      </trkpt>
      <trkpt lat="45.749" lon="5.60317">
        <ele>389</ele>
        <time>2019-08-24T13:40:51.861Z</time>
      </trkpt>
      <trkpt lat="45.74903" lon="5.60307">
        <ele>389</ele>
        <time>2019-08-24T13:40:56.857Z</time>
      </trkpt>
      <trkpt lat="45.74898" lon="5.603">
        <ele>389</ele>
        <time>2019-08-24T13:41:00.878Z</time>
      </trkpt>
      <trkpt lat="45.7489" lon="5.60295">
        <ele>389</ele>
        <time>2019-08-24T13:41:05.867Z</time>
      </trkpt>
      <trkpt lat="45.74884" lon="5.60291">
        <ele>392</ele>
        <time>2019-08-24T13:41:10.859Z</time>
      </trkpt>
      <trkpt lat="45.74879" lon="5.60285">
        <ele>392</ele>
        <time>2019-08-24T13:41:15.856Z</time>
      </trkpt>
      <trkpt lat="45.74876" lon="5.60277">
        <ele>392</ele>
        <time>2019-08-24T13:41:20.870Z</time>
      </trkpt>
      <trkpt lat="45.74872" lon="5.60267">
        <ele>390</ele>
        <time>2019-08-24T13:41:25.869Z</time>
      </trkpt>
      <trkpt lat="45.74872" lon="5.60257">
        <ele>391</ele>
        <time>2019-08-24T13:41:30.865Z</time>
      </trkpt>
      <trkpt lat="45.74878" lon="5.60252">
        <ele>394</ele>
        <time>2019-08-24T13:41:35.867Z</time>
      </trkpt>
      <trkpt lat="45.74884" lon="5.60251">
        <ele>394</ele>
        <time>2019-08-24T13:41:40.877Z</time>
      </trkpt>
      <trkpt lat="45.7489" lon="5.60249">
        <ele>394</ele>
        <time>2019-08-24T13:41:45.864Z</time>
      </trkpt>
      <trkpt lat="45.74896" lon="5.60249">
        <ele>394</ele>
        <time>2019-08-24T13:41:50.865Z</time>
      </trkpt>
      <trkpt lat="45.74901" lon="5.60249">
        <ele>394</ele>
        <time>2019-08-24T13:41:55.867Z</time>
      </trkpt>
      <trkpt lat="45.74908" lon="5.60248">
        <ele>396</ele>
        <time>2019-08-24T13:42:00.865Z</time>
      </trkpt>
      <trkpt lat="45.74911" lon="5.60248">
        <ele>396</ele>
        <time>2019-08-24T13:42:04.869Z</time>
      </trkpt>
      <trkpt lat="45.74918" lon="5.60244">
        <ele>396</ele>
        <time>2019-08-24T13:42:09.875Z</time>
      </trkpt>
      <trkpt lat="45.74923" lon="5.60241">
        <ele>396</ele>
        <time>2019-08-24T13:42:14.878Z</time>
      </trkpt>
      <trkpt lat="45.74928" lon="5.60235">
        <ele>399</ele>
        <time>2019-08-24T13:42:19.871Z</time>
      </trkpt>
      <trkpt lat="45.74933" lon="5.60229">
        <ele>399</ele>
        <time>2019-08-24T13:42:24.863Z</time>
      </trkpt>
      <trkpt lat="45.74938" lon="5.60224">
        <ele>399</ele>
        <time>2019-08-24T13:42:29.864Z</time>
      </trkpt>
      <trkpt lat="45.74942" lon="5.60218">
        <ele>399</ele>
        <time>2019-08-24T13:42:34.865Z</time>
      </trkpt>
      <trkpt lat="45.74946" lon="5.60211">
        <ele>399</ele>
        <time>2019-08-24T13:42:39.871Z</time>
      </trkpt>
      <trkpt lat="45.74949" lon="5.60203">
        <ele>403</ele>
        <time>2019-08-24T13:42:44.873Z</time>
      </trkpt>
      <trkpt lat="45.74951" lon="5.60195">
        <ele>403</ele>
        <time>2019-08-24T13:42:49.862Z</time>
      </trkpt>
      <trkpt lat="45.74952" lon="5.60188">
        <ele>403</ele>
        <time>2019-08-24T13:42:53.866Z</time>
      </trkpt>
      <trkpt lat="45.74951" lon="5.60178">
        <ele>407</ele>
        <time>2019-08-24T13:42:58.872Z</time>
      </trkpt>
      <trkpt lat="45.74952" lon="5.6017">
        <ele>407</ele>
        <time>2019-08-24T13:43:02.856Z</time>
      </trkpt>
      <trkpt lat="45.74952" lon="5.60164">
        <ele>407</ele>
        <time>2019-08-24T13:43:06.885Z</time>
      </trkpt>
      <trkpt lat="45.74953" lon="5.60155">
        <ele>407</ele>
        <time>2019-08-24T13:43:11.873Z</time>
      </trkpt>
      <trkpt lat="45.74952" lon="5.60145">
        <ele>408</ele>
        <time>2019-08-24T13:43:16.867Z</time>
      </trkpt>
      <trkpt lat="45.74954" lon="5.60139">
        <ele>408</ele>
        <time>2019-08-24T13:43:21.894Z</time>
      </trkpt>
      <trkpt lat="45.7496" lon="5.60136">
        <ele>409</ele>
        <time>2019-08-24T13:43:26.870Z</time>
      </trkpt>
      <trkpt lat="45.74967" lon="5.60135">
        <ele>409</ele>
        <time>2019-08-24T13:43:31.869Z</time>
      </trkpt>
      <trkpt lat="45.74972" lon="5.60132">
        <ele>409</ele>
        <time>2019-08-24T13:43:35.859Z</time>
      </trkpt>
      <trkpt lat="45.74978" lon="5.60133">
        <ele>409</ele>
        <time>2019-08-24T13:43:40.870Z</time>
      </trkpt>
      <trkpt lat="45.74983" lon="5.60135">
        <ele>409</ele>
        <time>2019-08-24T13:43:45.864Z</time>
      </trkpt>
      <trkpt lat="45.74989" lon="5.60133">
        <ele>409</ele>
        <time>2019-08-24T13:43:50.859Z</time>
      </trkpt>
      <trkpt lat="45.74994" lon="5.60132">
        <ele>409</ele>
        <time>2019-08-24T13:43:55.863Z</time>
      </trkpt>
      <trkpt lat="45.75" lon="5.6013">
        <ele>409</ele>
        <time>2019-08-24T13:44:00.874Z</time>
      </trkpt>
      <trkpt lat="45.75004" lon="5.6013">
        <ele>409</ele>
        <time>2019-08-24T13:44:04.883Z</time>
      </trkpt>
      <trkpt lat="45.7501" lon="5.6013">
        <ele>409</ele>
        <time>2019-08-24T13:44:09.878Z</time>
      </trkpt>
      <trkpt lat="45.75018" lon="5.60134">
        <ele>409</ele>
        <time>2019-08-24T13:44:14.881Z</time>
      </trkpt>
      <trkpt lat="45.75023" lon="5.60136">
        <ele>409</ele>
        <time>2019-08-24T13:44:19.858Z</time>
      </trkpt>
      <trkpt lat="45.75029" lon="5.60136">
        <ele>409</ele>
        <time>2019-08-24T13:44:24.867Z</time>
      </trkpt>
      <trkpt lat="45.75034" lon="5.60137">
        <ele>409</ele>
        <time>2019-08-24T13:44:28.863Z</time>
      </trkpt>
      <trkpt lat="45.75041" lon="5.6014">
        <ele>409</ele>
        <time>2019-08-24T13:44:33.858Z</time>
      </trkpt>
      <trkpt lat="45.75045" lon="5.60142">
        <ele>407</ele>
        <time>2019-08-24T13:44:37.877Z</time>
      </trkpt>
      <trkpt lat="45.75049" lon="5.60145">
        <ele>407</ele>
        <time>2019-08-24T13:44:42.863Z</time>
      </trkpt>
      <trkpt lat="45.75054" lon="5.60149">
        <ele>407</ele>
        <time>2019-08-24T13:44:47.879Z</time>
      </trkpt>
      <trkpt lat="45.75061" lon="5.60151">
        <ele>407</ele>
        <time>2019-08-24T13:44:52.869Z</time>
      </trkpt>
      <trkpt lat="45.75067" lon="5.60154">
        <ele>402</ele>
        <time>2019-08-24T13:44:57.864Z</time>
      </trkpt>
      <trkpt lat="45.75076" lon="5.60159">
        <ele>402</ele>
        <time>2019-08-24T13:45:02.863Z</time>
      </trkpt>
      <trkpt lat="45.75081" lon="5.60163">
        <ele>402</ele>
        <time>2019-08-24T13:45:07.875Z</time>
      </trkpt>
      <trkpt lat="45.75087" lon="5.60166">
        <ele>402</ele>
        <time>2019-08-24T13:45:12.866Z</time>
      </trkpt>
      <trkpt lat="45.75092" lon="5.60169">
        <ele>402</ele>
        <time>2019-08-24T13:45:16.861Z</time>
      </trkpt>
      <trkpt lat="45.75098" lon="5.60173">
        <ele>404</ele>
        <time>2019-08-24T13:45:21.864Z</time>
      </trkpt>
      <trkpt lat="45.75103" lon="5.60176">
        <ele>404</ele>
        <time>2019-08-24T13:45:25.873Z</time>
      </trkpt>
      <trkpt lat="45.75108" lon="5.6018">
        <ele>404</ele>
        <time>2019-08-24T13:45:30.867Z</time>
      </trkpt>
      <trkpt lat="45.75115" lon="5.60185">
        <ele>399</ele>
        <time>2019-08-24T13:45:35.866Z</time>
      </trkpt>
      <trkpt lat="45.75121" lon="5.60189">
        <ele>399</ele>
        <time>2019-08-24T13:45:40.867Z</time>
      </trkpt>
      <trkpt lat="45.75125" lon="5.60192">
        <ele>400</ele>
        <time>2019-08-24T13:45:44.867Z</time>
      </trkpt>
      <trkpt lat="45.7513" lon="5.60197">
        <ele>400</ele>
        <time>2019-08-24T13:45:49.867Z</time>
      </trkpt>
      <trkpt lat="45.75136" lon="5.60203">
        <ele>400</ele>
        <time>2019-08-24T13:45:54.870Z</time>
      </trkpt>
      <trkpt lat="45.75142" lon="5.60206">
        <ele>400</ele>
        <time>2019-08-24T13:45:59.881Z</time>
      </trkpt>
      <trkpt lat="45.7515" lon="5.60209">
        <ele>397</ele>
        <time>2019-08-24T13:46:04.872Z</time>
      </trkpt>
      <trkpt lat="45.75156" lon="5.60212">
        <ele>396</ele>
        <time>2019-08-24T13:46:09.863Z</time>
      </trkpt>
      <trkpt lat="45.75162" lon="5.60216">
        <ele>396</ele>
        <time>2019-08-24T13:46:14.868Z</time>
      </trkpt>
      <trkpt lat="45.75162" lon="5.60216">
        <ele>396</ele>
        <time>2019-08-24T13:46:19.863Z</time>
      </trkpt>
      <trkpt lat="45.75162" lon="5.60216">
        <ele>396</ele>
        <time>2019-08-24T13:46:23.872Z</time>
      </trkpt>
      <trkpt lat="45.75163" lon="5.60216">
        <ele>396</ele>
        <time>2019-08-24T13:46:28.856Z</time>
      </trkpt>
      <trkpt lat="45.75167" lon="5.60218">
        <ele>396</ele>
        <time>2019-08-24T13:46:32.871Z</time>
      </trkpt>
      <trkpt lat="45.75173" lon="5.60221">
        <ele>396</ele>
        <time>2019-08-24T13:46:37.868Z</time>
      </trkpt>
      <trkpt lat="45.7518" lon="5.60223">
        <ele>396</ele>
        <time>2019-08-24T13:46:42.861Z</time>
      </trkpt>
      <trkpt lat="45.75189" lon="5.60226">
        <ele>397</ele>
        <time>2019-08-24T13:46:47.856Z</time>
      </trkpt>
      <trkpt lat="45.75196" lon="5.60228">
        <ele>397</ele>
        <time>2019-08-24T13:46:51.853Z</time>
      </trkpt>
      <trkpt lat="45.75203" lon="5.6023">
        <ele>397</ele>
        <time>2019-08-24T13:46:56.861Z</time>
      </trkpt>
      <trkpt lat="45.75211" lon="5.60232">
        <ele>396</ele>
        <time>2019-08-24T13:47:01.873Z</time>
      </trkpt>
      <trkpt lat="45.75219" lon="5.60234">
        <ele>396</ele>
        <time>2019-08-24T13:47:06.854Z</time>
      </trkpt>
      <trkpt lat="45.75225" lon="5.60236">
        <ele>396</ele>
        <time>2019-08-24T13:47:10.863Z</time>
      </trkpt>
      <trkpt lat="45.7523" lon="5.60237">
        <ele>394</ele>
        <time>2019-08-24T13:47:14.870Z</time>
      </trkpt>
      <trkpt lat="45.75237" lon="5.60239">
        <ele>393</ele>
        <time>2019-08-24T13:47:19.865Z</time>
      </trkpt>
      <trkpt lat="45.75245" lon="5.60242">
        <ele>393</ele>
        <time>2019-08-24T13:47:24.875Z</time>
      </trkpt>
      <trkpt lat="45.75253" lon="5.60244">
        <ele>393</ele>
        <time>2019-08-24T13:47:29.853Z</time>
      </trkpt>
      <trkpt lat="45.75258" lon="5.60244">
        <ele>393</ele>
        <time>2019-08-24T13:47:33.866Z</time>
      </trkpt>
      <trkpt lat="45.75265" lon="5.60247">
        <ele>392</ele>
        <time>2019-08-24T13:47:38.854Z</time>
      </trkpt>
      <trkpt lat="45.7527" lon="5.6025">
        <ele>392</ele>
        <time>2019-08-24T13:47:42.873Z</time>
      </trkpt>
      <trkpt lat="45.75278" lon="5.60251">
        <ele>392</ele>
        <time>2019-08-24T13:47:47.864Z</time>
      </trkpt>
      <trkpt lat="45.75286" lon="5.60254">
        <ele>392</ele>
        <time>2019-08-24T13:47:52.854Z</time>
      </trkpt>
      <trkpt lat="45.75291" lon="5.60255">
        <ele>392</ele>
        <time>2019-08-24T13:47:56.872Z</time>
      </trkpt>
      <trkpt lat="45.75298" lon="5.60256">
        <ele>395</ele>
        <time>2019-08-24T13:48:01.869Z</time>
      </trkpt>
      <trkpt lat="45.75306" lon="5.60258">
        <ele>395</ele>
        <time>2019-08-24T13:48:06.872Z</time>
      </trkpt>
      <trkpt lat="45.75312" lon="5.6026">
        <ele>395</ele>
        <time>2019-08-24T13:48:11.864Z</time>
      </trkpt>
      <trkpt lat="45.75318" lon="5.6026">
        <ele>395</ele>
        <time>2019-08-24T13:48:15.864Z</time>
      </trkpt>
      <trkpt lat="45.75324" lon="5.60262">
        <ele>398</ele>
        <time>2019-08-24T13:48:20.871Z</time>
      </trkpt>
      <trkpt lat="45.75331" lon="5.60263">
        <ele>398</ele>
        <time>2019-08-24T13:48:25.879Z</time>
      </trkpt>
      <trkpt lat="45.75338" lon="5.60265">
        <ele>396</ele>
        <time>2019-08-24T13:48:30.859Z</time>
      </trkpt>
      <trkpt lat="45.75342" lon="5.60267">
        <ele>396</ele>
        <time>2019-08-24T13:48:34.858Z</time>
      </trkpt>
      <trkpt lat="45.7535" lon="5.60269">
        <ele>394</ele>
        <time>2019-08-24T13:48:39.862Z</time>
      </trkpt>
      <trkpt lat="45.75356" lon="5.60271">
        <ele>394</ele>
        <time>2019-08-24T13:48:44.863Z</time>
      </trkpt>
      <trkpt lat="45.75362" lon="5.60273">
        <ele>394</ele>
        <time>2019-08-24T13:48:49.865Z</time>
      </trkpt>
      <trkpt lat="45.75368" lon="5.60276">
        <ele>394</ele>
        <time>2019-08-24T13:48:53.859Z</time>
      </trkpt>
      <trkpt lat="45.75373" lon="5.60278">
        <ele>394</ele>
        <time>2019-08-24T13:48:57.869Z</time>
      </trkpt>
      <trkpt lat="45.7538" lon="5.6028">
        <ele>394</ele>
        <time>2019-08-24T13:49:02.867Z</time>
      </trkpt>
      <trkpt lat="45.75387" lon="5.60282">
        <ele>394</ele>
        <time>2019-08-24T13:49:07.861Z</time>
      </trkpt>
      <trkpt lat="45.75393" lon="5.60285">
        <ele>394</ele>
        <time>2019-08-24T13:49:11.873Z</time>
      </trkpt>
      <trkpt lat="45.75396" lon="5.60287">
        <ele>394</ele>
        <time>2019-08-24T13:49:16.869Z</time>
      </trkpt>
      <trkpt lat="45.75398" lon="5.6029">
        <ele>394</ele>
        <time>2019-08-24T13:49:21.860Z</time>
      </trkpt>
      <trkpt lat="45.75401" lon="5.60292">
        <ele>394</ele>
        <time>2019-08-24T13:49:26.858Z</time>
      </trkpt>
      <trkpt lat="45.75405" lon="5.60293">
        <ele>392</ele>
        <time>2019-08-24T13:49:30.855Z</time>
      </trkpt>
      <trkpt lat="45.75411" lon="5.60297">
        <ele>392</ele>
        <time>2019-08-24T13:49:35.866Z</time>
      </trkpt>
      <trkpt lat="45.75419" lon="5.603">
        <ele>392</ele>
        <time>2019-08-24T13:49:40.859Z</time>
      </trkpt>
      <trkpt lat="45.75425" lon="5.60302">
        <ele>392</ele>
        <time>2019-08-24T13:49:44.865Z</time>
      </trkpt>
      <trkpt lat="45.75433" lon="5.60305">
        <ele>394</ele>
        <time>2019-08-24T13:49:49.872Z</time>
      </trkpt>
      <trkpt lat="45.75441" lon="5.60308">
        <ele>394</ele>
        <time>2019-08-24T13:49:54.871Z</time>
      </trkpt>
      <trkpt lat="45.75447" lon="5.60312">
        <ele>394</ele>
        <time>2019-08-24T13:49:59.869Z</time>
      </trkpt>
      <trkpt lat="45.75452" lon="5.60315">
        <ele>394</ele>
        <time>2019-08-24T13:50:03.861Z</time>
      </trkpt>
      <trkpt lat="45.75459" lon="5.60318">
        <ele>393</ele>
        <time>2019-08-24T13:50:08.859Z</time>
      </trkpt>
      <trkpt lat="45.75467" lon="5.60324">
        <ele>391</ele>
        <time>2019-08-24T13:50:13.868Z</time>
      </trkpt>
      <trkpt lat="45.75475" lon="5.60327">
        <ele>391</ele>
        <time>2019-08-24T13:50:18.864Z</time>
      </trkpt>
      <trkpt lat="45.75482" lon="5.6033">
        <ele>391</ele>
        <time>2019-08-24T13:50:23.866Z</time>
      </trkpt>
      <trkpt lat="45.75486" lon="5.60333">
        <ele>390</ele>
        <time>2019-08-24T13:50:27.855Z</time>
      </trkpt>
      <trkpt lat="45.75491" lon="5.60337">
        <ele>390</ele>
        <time>2019-08-24T13:50:32.854Z</time>
      </trkpt>
      <trkpt lat="45.75496" lon="5.6034">
        <ele>390</ele>
        <time>2019-08-24T13:50:36.864Z</time>
      </trkpt>
      <trkpt lat="45.75499" lon="5.60343">
        <ele>390</ele>
        <time>2019-08-24T13:50:40.867Z</time>
      </trkpt>
      <trkpt lat="45.75506" lon="5.60346">
        <ele>390</ele>
        <time>2019-08-24T13:50:45.873Z</time>
      </trkpt>
      <trkpt lat="45.75514" lon="5.6035">
        <ele>387</ele>
        <time>2019-08-24T13:50:50.865Z</time>
      </trkpt>
      <trkpt lat="45.75522" lon="5.60352">
        <ele>389</ele>
        <time>2019-08-24T13:50:55.864Z</time>
      </trkpt>
      <trkpt lat="45.75527" lon="5.60354">
        <ele>389</ele>
        <time>2019-08-24T13:50:59.860Z</time>
      </trkpt>
      <trkpt lat="45.75534" lon="5.60357">
        <ele>389</ele>
        <time>2019-08-24T13:51:04.860Z</time>
      </trkpt>
      <trkpt lat="45.7554" lon="5.60359">
        <ele>389</ele>
        <time>2019-08-24T13:51:09.864Z</time>
      </trkpt>
      <trkpt lat="45.75547" lon="5.60363">
        <ele>389</ele>
        <time>2019-08-24T13:51:14.872Z</time>
      </trkpt>
      <trkpt lat="45.75553" lon="5.60366">
        <ele>389</ele>
        <time>2019-08-24T13:51:19.866Z</time>
      </trkpt>
      <trkpt lat="45.7556" lon="5.6037">
        <ele>389</ele>
        <time>2019-08-24T13:51:24.873Z</time>
      </trkpt>
      <trkpt lat="45.75567" lon="5.60374">
        <ele>389</ele>
        <time>2019-08-24T13:51:29.866Z</time>
      </trkpt>
      <trkpt lat="45.75574" lon="5.60378">
        <ele>391</ele>
        <time>2019-08-24T13:51:34.864Z</time>
      </trkpt>
      <trkpt lat="45.7558" lon="5.60382">
        <ele>391</ele>
        <time>2019-08-24T13:51:39.860Z</time>
      </trkpt>
      <trkpt lat="45.75585" lon="5.60385">
        <ele>391</ele>
        <time>2019-08-24T13:51:43.879Z</time>
      </trkpt>
      <trkpt lat="45.75589" lon="5.60389">
        <ele>391</ele>
        <time>2019-08-24T13:51:47.873Z</time>
      </trkpt>
      <trkpt lat="45.75593" lon="5.60395">
        <ele>391</ele>
        <time>2019-08-24T13:51:52.863Z</time>
      </trkpt>
      <trkpt lat="45.75597" lon="5.60401">
        <ele>391</ele>
        <time>2019-08-24T13:51:56.875Z</time>
      </trkpt>
      <trkpt lat="45.756" lon="5.60406">
        <ele>391</ele>
        <time>2019-08-24T13:52:00.870Z</time>
      </trkpt>
      <trkpt lat="45.75603" lon="5.60416">
        <ele>391</ele>
        <time>2019-08-24T13:52:05.860Z</time>
      </trkpt>
      <trkpt lat="45.75605" lon="5.60422">
        <ele>391</ele>
        <time>2019-08-24T13:52:09.859Z</time>
      </trkpt>
      <trkpt lat="45.75608" lon="5.60429">
        <ele>391</ele>
        <time>2019-08-24T13:52:14.861Z</time>
      </trkpt>
      <trkpt lat="45.75609" lon="5.60439">
        <ele>391</ele>
        <time>2019-08-24T13:52:19.861Z</time>
      </trkpt>
      <trkpt lat="45.75608" lon="5.6045">
        <ele>391</ele>
        <time>2019-08-24T13:52:24.855Z</time>
      </trkpt>
      <trkpt lat="45.75607" lon="5.60458">
        <ele>391</ele>
        <time>2019-08-24T13:52:28.857Z</time>
      </trkpt>
      <trkpt lat="45.75607" lon="5.60467">
        <ele>392</ele>
        <time>2019-08-24T13:52:33.866Z</time>
      </trkpt>
      <trkpt lat="45.75612" lon="5.60474">
        <ele>392</ele>
        <time>2019-08-24T13:52:38.859Z</time>
      </trkpt>
      <trkpt lat="45.75611" lon="5.60479">
        <ele>392</ele>
        <time>2019-08-24T13:52:43.857Z</time>
      </trkpt>
      <trkpt lat="45.75612" lon="5.60481">
        <ele>392</ele>
        <time>2019-08-24T13:52:48.849Z</time>
      </trkpt>
      <trkpt lat="45.75612" lon="5.60485">
        <ele>392</ele>
        <time>2019-08-24T13:52:53.845Z</time>
      </trkpt>
      <trkpt lat="45.75614" lon="5.6049">
        <ele>391</ele>
        <time>2019-08-24T13:52:57.864Z</time>
      </trkpt>
      <trkpt lat="45.75617" lon="5.60493">
        <ele>391</ele>
        <time>2019-08-24T13:53:01.871Z</time>
      </trkpt>
      <trkpt lat="45.75618" lon="5.60497">
        <ele>391</ele>
        <time>2019-08-24T13:53:06.864Z</time>
      </trkpt>
      <trkpt lat="45.75619" lon="5.60503">
        <ele>391</ele>
        <time>2019-08-24T13:53:10.872Z</time>
      </trkpt>
      <trkpt lat="45.7562" lon="5.60513">
        <ele>391</ele>
        <time>2019-08-24T13:53:15.875Z</time>
      </trkpt>
      <trkpt lat="45.75621" lon="5.60523">
        <ele>389</ele>
        <time>2019-08-24T13:53:20.858Z</time>
      </trkpt>
      <trkpt lat="45.75623" lon="5.60531">
        <ele>389</ele>
        <time>2019-08-24T13:53:24.866Z</time>
      </trkpt>
      <trkpt lat="45.75627" lon="5.60539">
        <ele>398</ele>
        <time>2019-08-24T13:53:29.858Z</time>
      </trkpt>
      <trkpt lat="45.75629" lon="5.60547">
        <ele>395</ele>
        <time>2019-08-24T13:53:34.876Z</time>
      </trkpt>
      <trkpt lat="45.7563" lon="5.60556">
        <ele>395</ele>
        <time>2019-08-24T13:53:39.876Z</time>
      </trkpt>
      <trkpt lat="45.75631" lon="5.60564">
        <ele>395</ele>
        <time>2019-08-24T13:53:44.866Z</time>
      </trkpt>
      <trkpt lat="45.75634" lon="5.6057">
        <ele>392</ele>
        <time>2019-08-24T13:53:48.861Z</time>
      </trkpt>
      <trkpt lat="45.75638" lon="5.60578">
        <ele>392</ele>
        <time>2019-08-24T13:53:53.889Z</time>
      </trkpt>
      <trkpt lat="45.7564" lon="5.60585">
        <ele>392</ele>
        <time>2019-08-24T13:53:58.855Z</time>
      </trkpt>
      <trkpt lat="45.75643" lon="5.60595">
        <ele>392</ele>
        <time>2019-08-24T13:54:02.865Z</time>
      </trkpt>
      <trkpt lat="45.75645" lon="5.60603">
        <ele>389</ele>
        <time>2019-08-24T13:54:07.853Z</time>
      </trkpt>
      <trkpt lat="45.75647" lon="5.60611">
        <ele>389</ele>
        <time>2019-08-24T13:54:11.855Z</time>
      </trkpt>
      <trkpt lat="45.7565" lon="5.60623">
        <ele>389</ele>
        <time>2019-08-24T13:54:16.856Z</time>
      </trkpt>
      <trkpt lat="45.75651" lon="5.60631">
        <ele>387</ele>
        <time>2019-08-24T13:54:20.877Z</time>
      </trkpt>
      <trkpt lat="45.75652" lon="5.60635">
        <ele>387</ele>
        <time>2019-08-24T13:54:25.864Z</time>
      </trkpt>
      <trkpt lat="45.75653" lon="5.60638">
        <ele>387</ele>
        <time>2019-08-24T13:54:29.860Z</time>
      </trkpt>
      <trkpt lat="45.75655" lon="5.60647">
        <ele>394</ele>
        <time>2019-08-24T13:54:34.861Z</time>
      </trkpt>
      <trkpt lat="45.75659" lon="5.60656">
        <ele>389</ele>
        <time>2019-08-24T13:54:39.870Z</time>
      </trkpt>
      <trkpt lat="45.75661" lon="5.60664">
        <ele>389</ele>
        <time>2019-08-24T13:54:44.864Z</time>
      </trkpt>
      <trkpt lat="45.75665" lon="5.60671">
        <ele>389</ele>
        <time>2019-08-24T13:54:49.856Z</time>
      </trkpt>
      <trkpt lat="45.75666" lon="5.60678">
        <ele>389</ele>
        <time>2019-08-24T13:54:53.859Z</time>
      </trkpt>
      <trkpt lat="45.75668" lon="5.6069">
        <ele>386</ele>
        <time>2019-08-24T13:54:58.861Z</time>
      </trkpt>
      <trkpt lat="45.75671" lon="5.60702">
        <ele>386</ele>
        <time>2019-08-24T13:55:03.857Z</time>
      </trkpt>
      <trkpt lat="45.75674" lon="5.6071">
        <ele>386</ele>
        <time>2019-08-24T13:55:07.860Z</time>
      </trkpt>
      <trkpt lat="45.75676" lon="5.60718">
        <ele>386</ele>
        <time>2019-08-24T13:55:12.867Z</time>
      </trkpt>
      <trkpt lat="45.75678" lon="5.60726">
        <ele>386</ele>
        <time>2019-08-24T13:55:17.859Z</time>
      </trkpt>
      <trkpt lat="45.75677" lon="5.60734">
        <ele>386</ele>
        <time>2019-08-24T13:55:21.871Z</time>
      </trkpt>
      <trkpt lat="45.75679" lon="5.6074">
        <ele>386</ele>
        <time>2019-08-24T13:55:25.864Z</time>
      </trkpt>
      <trkpt lat="45.75681" lon="5.60748">
        <ele>388</ele>
        <time>2019-08-24T13:55:30.861Z</time>
      </trkpt>
      <trkpt lat="45.75684" lon="5.60757">
        <ele>388</ele>
        <time>2019-08-24T13:55:34.869Z</time>
      </trkpt>
      <trkpt lat="45.75687" lon="5.60769">
        <ele>386</ele>
        <time>2019-08-24T13:55:39.866Z</time>
      </trkpt>
      <trkpt lat="45.75688" lon="5.60781">
        <ele>386</ele>
        <time>2019-08-24T13:55:44.878Z</time>
      </trkpt>
      <trkpt lat="45.75685" lon="5.60794">
        <ele>386</ele>
        <time>2019-08-24T13:55:49.863Z</time>
      </trkpt>
      <trkpt lat="45.75682" lon="5.60802">
        <ele>386</ele>
        <time>2019-08-24T13:55:53.872Z</time>
      </trkpt>
      <trkpt lat="45.75678" lon="5.60813">
        <ele>385</ele>
        <time>2019-08-24T13:55:58.862Z</time>
      </trkpt>
      <trkpt lat="45.75675" lon="5.60823">
        <ele>386</ele>
        <time>2019-08-24T13:56:03.860Z</time>
      </trkpt>
      <trkpt lat="45.75672" lon="5.6083">
        <ele>386</ele>
        <time>2019-08-24T13:56:08.870Z</time>
      </trkpt>
      <trkpt lat="45.7567" lon="5.6084">
        <ele>386</ele>
        <time>2019-08-24T13:56:13.871Z</time>
      </trkpt>
      <trkpt lat="45.75668" lon="5.60849">
        <ele>386</ele>
        <time>2019-08-24T13:56:17.862Z</time>
      </trkpt>
      <trkpt lat="45.75666" lon="5.60859">
        <ele>386</ele>
        <time>2019-08-24T13:56:22.871Z</time>
      </trkpt>
      <trkpt lat="45.75664" lon="5.60867">
        <ele>386</ele>
        <time>2019-08-24T13:56:27.876Z</time>
      </trkpt>
      <trkpt lat="45.75662" lon="5.60876">
        <ele>386</ele>
        <time>2019-08-24T13:56:32.867Z</time>
      </trkpt>
      <trkpt lat="45.75661" lon="5.60886">
        <ele>386</ele>
        <time>2019-08-24T13:56:37.870Z</time>
      </trkpt>
      <trkpt lat="45.7566" lon="5.60892">
        <ele>386</ele>
        <time>2019-08-24T13:56:41.881Z</time>
      </trkpt>
      <trkpt lat="45.75659" lon="5.60893">
        <ele>386</ele>
        <time>2019-08-24T13:56:45.871Z</time>
      </trkpt>
      <trkpt lat="45.75657" lon="5.60904">
        <ele>386</ele>
        <time>2019-08-24T13:56:50.877Z</time>
      </trkpt>
      <trkpt lat="45.75655" lon="5.60915">
        <ele>386</ele>
        <time>2019-08-24T13:56:55.869Z</time>
      </trkpt>
      <trkpt lat="45.75654" lon="5.60923">
        <ele>386</ele>
        <time>2019-08-24T13:56:59.876Z</time>
      </trkpt>
      <trkpt lat="45.7565" lon="5.60933">
        <ele>387</ele>
        <time>2019-08-24T13:57:04.861Z</time>
      </trkpt>
      <trkpt lat="45.75647" lon="5.60943">
        <ele>387</ele>
        <time>2019-08-24T13:57:09.865Z</time>
      </trkpt>
      <trkpt lat="45.75645" lon="5.6095">
        <ele>387</ele>
        <time>2019-08-24T13:57:14.865Z</time>
      </trkpt>
      <trkpt lat="45.75642" lon="5.60957">
        <ele>387</ele>
        <time>2019-08-24T13:57:19.859Z</time>
      </trkpt>
      <trkpt lat="45.75638" lon="5.60964">
        <ele>388</ele>
        <time>2019-08-24T13:57:24.855Z</time>
      </trkpt>
      <trkpt lat="45.75636" lon="5.60971">
        <ele>388</ele>
        <time>2019-08-24T13:57:29.877Z</time>
      </trkpt>
      <trkpt lat="45.75633" lon="5.60977">
        <ele>388</ele>
        <time>2019-08-24T13:57:34.863Z</time>
      </trkpt>
      <trkpt lat="45.75632" lon="5.60983">
        <ele>388</ele>
        <time>2019-08-24T13:57:38.881Z</time>
      </trkpt>
      <trkpt lat="45.75629" lon="5.60993">
        <ele>388</ele>
        <time>2019-08-24T13:57:43.878Z</time>
      </trkpt>
      <trkpt lat="45.75627" lon="5.61">
        <ele>388</ele>
        <time>2019-08-24T13:57:48.864Z</time>
      </trkpt>
      <trkpt lat="45.75627" lon="5.61">
        <ele>388</ele>
        <time>2019-08-24T13:57:53.855Z</time>
      </trkpt>
      <trkpt lat="45.75626" lon="5.61004">
        <ele>388</ele>
        <time>2019-08-24T13:57:58.869Z</time>
      </trkpt>
      <trkpt lat="45.75623" lon="5.61012">
        <ele>392</ele>
        <time>2019-08-24T13:58:03.871Z</time>
      </trkpt>
      <trkpt lat="45.7562" lon="5.61018">
        <ele>388</ele>
        <time>2019-08-24T13:58:07.875Z</time>
      </trkpt>
      <trkpt lat="45.75618" lon="5.61028">
        <ele>388</ele>
        <time>2019-08-24T13:58:12.871Z</time>
      </trkpt>
      <trkpt lat="45.75613" lon="5.61036">
        <ele>388</ele>
        <time>2019-08-24T13:58:17.859Z</time>
      </trkpt>
      <trkpt lat="45.75606" lon="5.61041">
        <ele>388</ele>
        <time>2019-08-24T13:58:22.853Z</time>
      </trkpt>
      <trkpt lat="45.75601" lon="5.61042">
        <ele>388</ele>
        <time>2019-08-24T13:58:41.876Z</time>
      </trkpt>
      <trkpt lat="45.75602" lon="5.6104">
        <ele>388</ele>
        <time>2019-08-24T13:58:46.868Z</time>
      </trkpt>
      <trkpt lat="45.75606" lon="5.6104">
        <ele>388</ele>
        <time>2019-08-24T13:58:51.878Z</time>
      </trkpt>
      <trkpt lat="45.75611" lon="5.61036">
        <ele>388</ele>
        <time>2019-08-24T13:58:56.876Z</time>
      </trkpt>
      <trkpt lat="45.75613" lon="5.61029">
        <ele>388</ele>
        <time>2019-08-24T13:59:01.848Z</time>
      </trkpt>
      <trkpt lat="45.75616" lon="5.61023">
        <ele>388</ele>
        <time>2019-08-24T13:59:05.865Z</time>
      </trkpt>
      <trkpt lat="45.75619" lon="5.61013">
        <ele>392</ele>
        <time>2019-08-24T13:59:10.871Z</time>
      </trkpt>
      <trkpt lat="45.75622" lon="5.61007">
        <ele>392</ele>
        <time>2019-08-24T13:59:15.874Z</time>
      </trkpt>
      <trkpt lat="45.75627" lon="5.61005">
        <ele>388</ele>
        <time>2019-08-24T13:59:20.877Z</time>
      </trkpt>
      <trkpt lat="45.75634" lon="5.61008">
        <ele>388</ele>
        <time>2019-08-24T13:59:25.872Z</time>
      </trkpt>
      <trkpt lat="45.75642" lon="5.61014">
        <ele>387</ele>
        <time>2019-08-24T13:59:30.871Z</time>
      </trkpt>
      <trkpt lat="45.75648" lon="5.61019">
        <ele>387</ele>
        <time>2019-08-24T13:59:35.866Z</time>
      </trkpt>
      <trkpt lat="45.75654" lon="5.61024">
        <ele>388</ele>
        <time>2019-08-24T13:59:40.872Z</time>
      </trkpt>
      <trkpt lat="45.75657" lon="5.61028">
        <ele>388</ele>
        <time>2019-08-24T13:59:45.872Z</time>
      </trkpt>
      <trkpt lat="45.7566" lon="5.61033">
        <ele>388</ele>
        <time>2019-08-24T13:59:49.867Z</time>
      </trkpt>
      <trkpt lat="45.75663" lon="5.61037">
        <ele>388</ele>
        <time>2019-08-24T13:59:54.861Z</time>
      </trkpt>
      <trkpt lat="45.75665" lon="5.61044">
        <ele>386</ele>
        <time>2019-08-24T13:59:59.876Z</time>
      </trkpt>
      <trkpt lat="45.75666" lon="5.61047">
        <ele>386</ele>
        <time>2019-08-24T14:00:03.868Z</time>
      </trkpt>
      <trkpt lat="45.75663" lon="5.61051">
        <ele>386</ele>
        <time>2019-08-24T14:00:08.869Z</time>
      </trkpt>
      <trkpt lat="45.75658" lon="5.61055">
        <ele>386</ele>
        <time>2019-08-24T14:00:13.862Z</time>
      </trkpt>
      <trkpt lat="45.75653" lon="5.61061">
        <ele>386</ele>
        <time>2019-08-24T14:00:18.865Z</time>
      </trkpt>
      <trkpt lat="45.75649" lon="5.6107">
        <ele>381</ele>
        <time>2019-08-24T14:00:23.865Z</time>
      </trkpt>
      <trkpt lat="45.75647" lon="5.61078">
        <ele>381</ele>
        <time>2019-08-24T14:00:28.880Z</time>
      </trkpt>
      <trkpt lat="45.75647" lon="5.61086">
        <ele>381</ele>
        <time>2019-08-24T14:00:33.867Z</time>
      </trkpt>
      <trkpt lat="45.75646" lon="5.61093">
        <ele>381</ele>
        <time>2019-08-24T14:00:37.887Z</time>
      </trkpt>
      <trkpt lat="45.75645" lon="5.61102">
        <ele>375</ele>
        <time>2019-08-24T14:00:42.871Z</time>
      </trkpt>
      <trkpt lat="45.75644" lon="5.61113">
        <ele>375</ele>
        <time>2019-08-24T14:00:47.863Z</time>
      </trkpt>
      <trkpt lat="45.75644" lon="5.6112">
        <ele>375</ele>
        <time>2019-08-24T14:00:52.882Z</time>
      </trkpt>
      <trkpt lat="45.75643" lon="5.61128">
        <ele>367</ele>
        <time>2019-08-24T14:00:57.872Z</time>
      </trkpt>
      <trkpt lat="45.75641" lon="5.61137">
        <ele>367</ele>
        <time>2019-08-24T14:01:02.859Z</time>
      </trkpt>
      <trkpt lat="45.75637" lon="5.61145">
        <ele>367</ele>
        <time>2019-08-24T14:01:07.860Z</time>
      </trkpt>
      <trkpt lat="45.75637" lon="5.61145">
        <ele>367</ele>
        <time>2019-08-24T14:01:12.868Z</time>
      </trkpt>
      <trkpt lat="45.75636" lon="5.61147">
        <ele>367</ele>
        <time>2019-08-24T14:01:16.869Z</time>
      </trkpt>
      <trkpt lat="45.75631" lon="5.61151">
        <ele>367</ele>
        <time>2019-08-24T14:01:21.875Z</time>
      </trkpt>
      <trkpt lat="45.75629" lon="5.61155">
        <ele>364</ele>
        <time>2019-08-24T14:01:26.881Z</time>
      </trkpt>
      <trkpt lat="45.75628" lon="5.61162">
        <ele>364</ele>
        <time>2019-08-24T14:01:31.861Z</time>
      </trkpt>
      <trkpt lat="45.75629" lon="5.6117">
        <ele>364</ele>
        <time>2019-08-24T14:01:35.872Z</time>
      </trkpt>
      <trkpt lat="45.75633" lon="5.61183">
        <ele>361</ele>
        <time>2019-08-24T14:01:40.858Z</time>
      </trkpt>
      <trkpt lat="45.75638" lon="5.61193">
        <ele>361</ele>
        <time>2019-08-24T14:01:45.858Z</time>
      </trkpt>
      <trkpt lat="45.75643" lon="5.61201">
        <ele>361</ele>
        <time>2019-08-24T14:01:50.864Z</time>
      </trkpt>
      <trkpt lat="45.75648" lon="5.61209">
        <ele>357</ele>
        <time>2019-08-24T14:01:55.867Z</time>
      </trkpt>
      <trkpt lat="45.75654" lon="5.61217">
        <ele>359</ele>
        <time>2019-08-24T14:02:00.873Z</time>
      </trkpt>
      <trkpt lat="45.75659" lon="5.61224">
        <ele>359</ele>
        <time>2019-08-24T14:02:05.860Z</time>
      </trkpt>
      <trkpt lat="45.75663" lon="5.61229">
        <ele>359</ele>
        <time>2019-08-24T14:02:09.872Z</time>
      </trkpt>
      <trkpt lat="45.75667" lon="5.61235">
        <ele>359</ele>
        <time>2019-08-24T14:02:13.867Z</time>
      </trkpt>
      <trkpt lat="45.75673" lon="5.61243">
        <ele>356</ele>
        <time>2019-08-24T14:02:18.873Z</time>
      </trkpt>
      <trkpt lat="45.75677" lon="5.61251">
        <ele>356</ele>
        <time>2019-08-24T14:02:23.863Z</time>
      </trkpt>
      <trkpt lat="45.75678" lon="5.61257">
        <ele>356</ele>
        <time>2019-08-24T14:02:27.867Z</time>
      </trkpt>
      <trkpt lat="45.75682" lon="5.61263">
        <ele>357</ele>
        <time>2019-08-24T14:02:32.879Z</time>
      </trkpt>
      <trkpt lat="45.75685" lon="5.61268">
        <ele>355</ele>
        <time>2019-08-24T14:02:36.869Z</time>
      </trkpt>
      <trkpt lat="45.75687" lon="5.61275">
        <ele>355</ele>
        <time>2019-08-24T14:02:41.858Z</time>
      </trkpt>
      <trkpt lat="45.75691" lon="5.61282">
        <ele>355</ele>
        <time>2019-08-24T14:02:46.854Z</time>
      </trkpt>
      <trkpt lat="45.75695" lon="5.61287">
        <ele>355</ele>
        <time>2019-08-24T14:02:50.863Z</time>
      </trkpt>
      <trkpt lat="45.757" lon="5.61294">
        <ele>352</ele>
        <time>2019-08-24T14:02:55.873Z</time>
      </trkpt>
      <trkpt lat="45.75708" lon="5.61302">
        <ele>352</ele>
        <time>2019-08-24T14:03:00.868Z</time>
      </trkpt>
      <trkpt lat="45.75713" lon="5.61308">
        <ele>352</ele>
        <time>2019-08-24T14:03:05.880Z</time>
      </trkpt>
      <trkpt lat="45.75718" lon="5.61316">
        <ele>352</ele>
        <time>2019-08-24T14:03:10.872Z</time>
      </trkpt>
      <trkpt lat="45.75721" lon="5.61323">
        <ele>349</ele>
        <time>2019-08-24T14:03:15.871Z</time>
      </trkpt>
      <trkpt lat="45.75721" lon="5.61333">
        <ele>349</ele>
        <time>2019-08-24T14:03:20.860Z</time>
      </trkpt>
      <trkpt lat="45.75725" lon="5.61344">
        <ele>349</ele>
        <time>2019-08-24T14:03:25.861Z</time>
      </trkpt>
      <trkpt lat="45.75728" lon="5.61352">
        <ele>349</ele>
        <time>2019-08-24T14:03:29.856Z</time>
      </trkpt>
      <trkpt lat="45.75733" lon="5.61357">
        <ele>349</ele>
        <time>2019-08-24T14:03:34.876Z</time>
      </trkpt>
      <trkpt lat="45.7574" lon="5.61354">
        <ele>349</ele>
        <time>2019-08-24T14:03:39.860Z</time>
      </trkpt>
      <trkpt lat="45.75747" lon="5.61353">
        <ele>349</ele>
        <time>2019-08-24T14:03:44.877Z</time>
      </trkpt>
      <trkpt lat="45.75754" lon="5.61351">
        <ele>349</ele>
        <time>2019-08-24T14:03:49.873Z</time>
      </trkpt>
      <trkpt lat="45.75761" lon="5.61349">
        <ele>349</ele>
        <time>2019-08-24T14:03:54.868Z</time>
      </trkpt>
      <trkpt lat="45.75768" lon="5.61348">
        <ele>351</ele>
        <time>2019-08-24T14:03:59.870Z</time>
      </trkpt>
      <trkpt lat="45.75773" lon="5.61346">
        <ele>351</ele>
        <time>2019-08-24T14:04:03.866Z</time>
      </trkpt>
      <trkpt lat="45.75777" lon="5.61346">
        <ele>351</ele>
        <time>2019-08-24T14:04:08.875Z</time>
      </trkpt>
      <trkpt lat="45.75777" lon="5.61346">
        <ele>351</ele>
        <time>2019-08-24T14:04:13.878Z</time>
      </trkpt>
      <trkpt lat="45.75784" lon="5.61343">
        <ele>351</ele>
        <time>2019-08-24T14:04:18.867Z</time>
      </trkpt>
      <trkpt lat="45.7579" lon="5.61341">
        <ele>351</ele>
        <time>2019-08-24T14:04:23.884Z</time>
      </trkpt>
      <trkpt lat="45.75798" lon="5.61339">
        <ele>353</ele>
        <time>2019-08-24T14:04:28.869Z</time>
      </trkpt>
      <trkpt lat="45.75801" lon="5.61339">
        <ele>353</ele>
        <time>2019-08-24T14:04:32.876Z</time>
      </trkpt>
      <trkpt lat="45.75807" lon="5.61338">
        <ele>353</ele>
        <time>2019-08-24T14:04:37.862Z</time>
      </trkpt>
      <trkpt lat="45.75813" lon="5.61337">
        <ele>353</ele>
        <time>2019-08-24T14:04:42.855Z</time>
      </trkpt>
      <trkpt lat="45.75818" lon="5.61334">
        <ele>353</ele>
        <time>2019-08-24T14:04:46.867Z</time>
      </trkpt>
      <trkpt lat="45.75825" lon="5.61332">
        <ele>356</ele>
        <time>2019-08-24T14:04:51.857Z</time>
      </trkpt>
      <trkpt lat="45.7583" lon="5.61329">
        <ele>356</ele>
        <time>2019-08-24T14:04:55.857Z</time>
      </trkpt>
      <trkpt lat="45.75837" lon="5.61326">
        <ele>356</ele>
        <time>2019-08-24T14:05:00.873Z</time>
      </trkpt>
      <trkpt lat="45.75843" lon="5.61322">
        <ele>356</ele>
        <time>2019-08-24T14:05:05.851Z</time>
      </trkpt>
      <trkpt lat="45.75848" lon="5.61321">
        <ele>355</ele>
        <time>2019-08-24T14:05:09.874Z</time>
      </trkpt>
      <trkpt lat="45.75853" lon="5.61319">
        <ele>358</ele>
        <time>2019-08-24T14:05:14.879Z</time>
      </trkpt>
      <trkpt lat="45.75859" lon="5.61318">
        <ele>358</ele>
        <time>2019-08-24T14:05:19.864Z</time>
      </trkpt>
      <trkpt lat="45.75865" lon="5.61316">
        <ele>358</ele>
        <time>2019-08-24T14:05:23.891Z</time>
      </trkpt>
      <trkpt lat="45.75873" lon="5.61318">
        <ele>358</ele>
        <time>2019-08-24T14:05:28.863Z</time>
      </trkpt>
      <trkpt lat="45.7588" lon="5.6132">
        <ele>355</ele>
        <time>2019-08-24T14:05:32.881Z</time>
      </trkpt>
      <trkpt lat="45.75886" lon="5.61322">
        <ele>355</ele>
        <time>2019-08-24T14:05:36.870Z</time>
      </trkpt>
      <trkpt lat="45.75893" lon="5.61324">
        <ele>355</ele>
        <time>2019-08-24T14:05:41.878Z</time>
      </trkpt>
      <trkpt lat="45.75899" lon="5.61328">
        <ele>355</ele>
        <time>2019-08-24T14:05:46.880Z</time>
      </trkpt>
      <trkpt lat="45.75907" lon="5.61332">
        <ele>357</ele>
        <time>2019-08-24T14:05:51.879Z</time>
      </trkpt>
      <trkpt lat="45.75913" lon="5.61336">
        <ele>357</ele>
        <time>2019-08-24T14:05:56.865Z</time>
      </trkpt>
      <trkpt lat="45.7592" lon="5.6134">
        <ele>357</ele>
        <time>2019-08-24T14:06:01.865Z</time>
      </trkpt>
      <trkpt lat="45.75925" lon="5.61343">
        <ele>357</ele>
        <time>2019-08-24T14:06:06.871Z</time>
      </trkpt>
      <trkpt lat="45.75932" lon="5.61346">
        <ele>360</ele>
        <time>2019-08-24T14:06:11.879Z</time>
      </trkpt>
      <trkpt lat="45.75938" lon="5.6135">
        <ele>359</ele>
        <time>2019-08-24T14:06:16.866Z</time>
      </trkpt>
      <trkpt lat="45.7594" lon="5.61351">
        <ele>359</ele>
        <time>2019-08-24T14:06:21.879Z</time>
      </trkpt>
      <trkpt lat="45.75941" lon="5.61351">
        <ele>359</ele>
        <time>2019-08-24T14:06:25.862Z</time>
      </trkpt>
      <trkpt lat="45.75947" lon="5.61353">
        <ele>359</ele>
        <time>2019-08-24T14:06:30.881Z</time>
      </trkpt>
      <trkpt lat="45.75954" lon="5.61355">
        <ele>359</ele>
        <time>2019-08-24T14:06:35.859Z</time>
      </trkpt>
      <trkpt lat="45.75958" lon="5.61357">
        <ele>359</ele>
        <time>2019-08-24T14:06:39.862Z</time>
      </trkpt>
      <trkpt lat="45.75965" lon="5.6136">
        <ele>361</ele>
        <time>2019-08-24T14:06:44.880Z</time>
      </trkpt>
      <trkpt lat="45.7597" lon="5.61362">
        <ele>361</ele>
        <time>2019-08-24T14:06:48.866Z</time>
      </trkpt>
      <trkpt lat="45.75977" lon="5.61365">
        <ele>361</ele>
        <time>2019-08-24T14:06:53.872Z</time>
      </trkpt>
      <trkpt lat="45.75983" lon="5.61367">
        <ele>361</ele>
        <time>2019-08-24T14:06:58.861Z</time>
      </trkpt>
      <trkpt lat="45.75989" lon="5.61368">
        <ele>364</ele>
        <time>2019-08-24T14:07:02.891Z</time>
      </trkpt>
      <trkpt lat="45.75995" lon="5.61369">
        <ele>364</ele>
        <time>2019-08-24T14:07:07.883Z</time>
      </trkpt>
      <trkpt lat="45.75999" lon="5.61377">
        <ele>363</ele>
        <time>2019-08-24T14:07:12.866Z</time>
      </trkpt>
      <trkpt lat="45.76003" lon="5.61386">
        <ele>363</ele>
        <time>2019-08-24T14:07:17.885Z</time>
      </trkpt>
      <trkpt lat="45.76006" lon="5.61394">
        <ele>363</ele>
        <time>2019-08-24T14:07:22.864Z</time>
      </trkpt>
      <trkpt lat="45.76009" lon="5.61404">
        <ele>363</ele>
        <time>2019-08-24T14:07:27.863Z</time>
      </trkpt>
      <trkpt lat="45.76011" lon="5.61414">
        <ele>363</ele>
        <time>2019-08-24T14:07:31.886Z</time>
      </trkpt>
      <trkpt lat="45.76009" lon="5.61424">
        <ele>363</ele>
        <time>2019-08-24T14:07:36.879Z</time>
      </trkpt>
      <trkpt lat="45.76007" lon="5.61432">
        <ele>364</ele>
        <time>2019-08-24T14:07:41.851Z</time>
      </trkpt>
      <trkpt lat="45.76007" lon="5.61439">
        <ele>364</ele>
        <time>2019-08-24T14:07:45.923Z</time>
      </trkpt>
      <trkpt lat="45.76005" lon="5.61449">
        <ele>364</ele>
        <time>2019-08-24T14:07:50.900Z</time>
      </trkpt>
      <trkpt lat="45.76001" lon="5.6146">
        <ele>364</ele>
        <time>2019-08-24T14:07:55.884Z</time>
      </trkpt>
      <trkpt lat="45.75998" lon="5.61467">
        <ele>364</ele>
        <time>2019-08-24T14:08:00.868Z</time>
      </trkpt>
      <trkpt lat="45.75995" lon="5.61473">
        <ele>364</ele>
        <time>2019-08-24T14:08:05.929Z</time>
      </trkpt>
      <trkpt lat="45.75992" lon="5.61482">
        <ele>364</ele>
        <time>2019-08-24T14:08:10.871Z</time>
      </trkpt>
      <trkpt lat="45.7599" lon="5.61494">
        <ele>365</ele>
        <time>2019-08-24T14:08:15.881Z</time>
      </trkpt>
      <trkpt lat="45.75985" lon="5.61506">
        <ele>361</ele>
        <time>2019-08-24T14:08:20.865Z</time>
      </trkpt>
      <trkpt lat="45.75981" lon="5.61513">
        <ele>361</ele>
        <time>2019-08-24T14:08:24.886Z</time>
      </trkpt>
      <trkpt lat="45.75976" lon="5.61522">
        <ele>362</ele>
        <time>2019-08-24T14:08:29.880Z</time>
      </trkpt>
      <trkpt lat="45.75972" lon="5.61531">
        <ele>362</ele>
        <time>2019-08-24T14:08:34.874Z</time>
      </trkpt>
      <trkpt lat="45.75967" lon="5.61541">
        <ele>362</ele>
        <time>2019-08-24T14:08:39.868Z</time>
      </trkpt>
      <trkpt lat="45.75964" lon="5.61547">
        <ele>364</ele>
        <time>2019-08-24T14:08:43.865Z</time>
      </trkpt>
      <trkpt lat="45.75958" lon="5.61553">
        <ele>367</ele>
        <time>2019-08-24T14:08:48.880Z</time>
      </trkpt>
      <trkpt lat="45.75954" lon="5.61556">
        <ele>367</ele>
        <time>2019-08-24T14:08:53.871Z</time>
      </trkpt>
      <trkpt lat="45.75949" lon="5.61556">
        <ele>367</ele>
        <time>2019-08-24T14:08:58.867Z</time>
      </trkpt>
      <trkpt lat="45.75944" lon="5.61556">
        <ele>367</ele>
        <time>2019-08-24T14:09:03.883Z</time>
      </trkpt>
      <trkpt lat="45.75936" lon="5.61554">
        <ele>367</ele>
        <time>2019-08-24T14:09:08.839Z</time>
      </trkpt>
      <trkpt lat="45.75927" lon="5.61551">
        <ele>369</ele>
        <time>2019-08-24T14:09:13.858Z</time>
      </trkpt>
      <trkpt lat="45.75921" lon="5.61548">
        <ele>369</ele>
        <time>2019-08-24T14:09:17.869Z</time>
      </trkpt>
      <trkpt lat="45.75915" lon="5.61545">
        <ele>369</ele>
        <time>2019-08-24T14:09:21.872Z</time>
      </trkpt>
      <trkpt lat="45.7591" lon="5.61543">
        <ele>369</ele>
        <time>2019-08-24T14:09:25.875Z</time>
      </trkpt>
      <trkpt lat="45.75904" lon="5.61542">
        <ele>369</ele>
        <time>2019-08-24T14:09:30.866Z</time>
      </trkpt>
      <trkpt lat="45.75898" lon="5.61539">
        <ele>365</ele>
        <time>2019-08-24T14:09:35.851Z</time>
      </trkpt>
      <trkpt lat="45.75893" lon="5.61538">
        <ele>365</ele>
        <time>2019-08-24T14:09:40.865Z</time>
      </trkpt>
      <trkpt lat="45.75887" lon="5.61537">
        <ele>365</ele>
        <time>2019-08-24T14:09:44.882Z</time>
      </trkpt>
      <trkpt lat="45.7588" lon="5.61536">
        <ele>365</ele>
        <time>2019-08-24T14:09:49.875Z</time>
      </trkpt>
      <trkpt lat="45.75873" lon="5.6154">
        <ele>367</ele>
        <time>2019-08-24T14:09:54.867Z</time>
      </trkpt>
      <trkpt lat="45.75867" lon="5.61542">
        <ele>367</ele>
        <time>2019-08-24T14:09:59.855Z</time>
      </trkpt>
      <trkpt lat="45.7586" lon="5.61543">
        <ele>373</ele>
        <time>2019-08-24T14:10:04.864Z</time>
      </trkpt>
      <trkpt lat="45.75855" lon="5.61546">
        <ele>373</ele>
        <time>2019-08-24T14:10:08.871Z</time>
      </trkpt>
      <trkpt lat="45.75849" lon="5.61551">
        <ele>373</ele>
        <time>2019-08-24T14:10:13.863Z</time>
      </trkpt>
      <trkpt lat="45.75843" lon="5.61553">
        <ele>373</ele>
        <time>2019-08-24T14:10:18.863Z</time>
      </trkpt>
      <trkpt lat="45.75837" lon="5.61555">
        <ele>373</ele>
        <time>2019-08-24T14:10:23.860Z</time>
      </trkpt>
      <trkpt lat="45.75834" lon="5.61556">
        <ele>373</ele>
        <time>2019-08-24T14:10:28.861Z</time>
      </trkpt>
      <trkpt lat="45.75826" lon="5.61561">
        <ele>373</ele>
        <time>2019-08-24T14:10:33.873Z</time>
      </trkpt>
      <trkpt lat="45.7582" lon="5.61565">
        <ele>373</ele>
        <time>2019-08-24T14:10:38.864Z</time>
      </trkpt>
      <trkpt lat="45.75814" lon="5.61569">
        <ele>372</ele>
        <time>2019-08-24T14:10:43.877Z</time>
      </trkpt>
      <trkpt lat="45.7581" lon="5.61573">
        <ele>375</ele>
        <time>2019-08-24T14:10:48.871Z</time>
      </trkpt>
      <trkpt lat="45.75804" lon="5.61578">
        <ele>375</ele>
        <time>2019-08-24T14:10:53.848Z</time>
      </trkpt>
      <trkpt lat="45.75799" lon="5.61582">
        <ele>375</ele>
        <time>2019-08-24T14:10:57.864Z</time>
      </trkpt>
      <trkpt lat="45.75794" lon="5.61586">
        <ele>375</ele>
        <time>2019-08-24T14:11:02.863Z</time>
      </trkpt>
      <trkpt lat="45.75789" lon="5.61592">
        <ele>373</ele>
        <time>2019-08-24T14:11:07.883Z</time>
      </trkpt>
      <trkpt lat="45.75787" lon="5.61593">
        <ele>373</ele>
        <time>2019-08-24T14:11:12.877Z</time>
      </trkpt>
      <trkpt lat="45.75784" lon="5.61598">
        <ele>375</ele>
        <time>2019-08-24T14:11:17.870Z</time>
      </trkpt>
      <trkpt lat="45.75782" lon="5.61604">
        <ele>375</ele>
        <time>2019-08-24T14:11:22.871Z</time>
      </trkpt>
      <trkpt lat="45.75777" lon="5.61613">
        <ele>375</ele>
        <time>2019-08-24T14:11:27.875Z</time>
      </trkpt>
      <trkpt lat="45.75775" lon="5.61621">
        <ele>375</ele>
        <time>2019-08-24T14:11:32.858Z</time>
      </trkpt>
      <trkpt lat="45.75774" lon="5.61629">
        <ele>377</ele>
        <time>2019-08-24T14:11:36.878Z</time>
      </trkpt>
      <trkpt lat="45.75775" lon="5.61636">
        <ele>377</ele>
        <time>2019-08-24T14:11:41.875Z</time>
      </trkpt>
      <trkpt lat="45.75777" lon="5.61646">
        <ele>377</ele>
        <time>2019-08-24T14:11:46.858Z</time>
      </trkpt>
      <trkpt lat="45.75776" lon="5.61657">
        <ele>381</ele>
        <time>2019-08-24T14:11:51.865Z</time>
      </trkpt>
      <trkpt lat="45.75776" lon="5.61668">
        <ele>381</ele>
        <time>2019-08-24T14:11:56.869Z</time>
      </trkpt>
      <trkpt lat="45.75776" lon="5.61682">
        <ele>384</ele>
        <time>2019-08-24T14:12:01.862Z</time>
      </trkpt>
      <trkpt lat="45.75776" lon="5.61689">
        <ele>384</ele>
        <time>2019-08-24T14:12:05.872Z</time>
      </trkpt>
      <trkpt lat="45.75775" lon="5.61698">
        <ele>384</ele>
        <time>2019-08-24T14:12:10.844Z</time>
      </trkpt>
      <trkpt lat="45.75776" lon="5.61705">
        <ele>384</ele>
        <time>2019-08-24T14:12:15.855Z</time>
      </trkpt>
      <trkpt lat="45.75777" lon="5.61712">
        <ele>387</ele>
        <time>2019-08-24T14:12:19.864Z</time>
      </trkpt>
      <trkpt lat="45.75777" lon="5.61723">
        <ele>387</ele>
        <time>2019-08-24T14:12:24.875Z</time>
      </trkpt>
      <trkpt lat="45.75777" lon="5.61729">
        <ele>387</ele>
        <time>2019-08-24T14:12:29.871Z</time>
      </trkpt>
      <trkpt lat="45.75779" lon="5.61738">
        <ele>388</ele>
        <time>2019-08-24T14:12:34.860Z</time>
      </trkpt>
      <trkpt lat="45.75782" lon="5.61745">
        <ele>388</ele>
        <time>2019-08-24T14:12:39.861Z</time>
      </trkpt>
      <trkpt lat="45.75785" lon="5.61754">
        <ele>388</ele>
        <time>2019-08-24T14:12:44.857Z</time>
      </trkpt>
      <trkpt lat="45.75786" lon="5.61755">
        <ele>388</ele>
        <time>2019-08-24T14:12:48.863Z</time>
      </trkpt>
      <trkpt lat="45.75786" lon="5.61758">
        <ele>388</ele>
        <time>2019-08-24T14:12:53.870Z</time>
      </trkpt>
      <trkpt lat="45.75787" lon="5.6176">
        <ele>388</ele>
        <time>2019-08-24T14:12:57.854Z</time>
      </trkpt>
      <trkpt lat="45.75787" lon="5.61762">
        <ele>388</ele>
        <time>2019-08-24T14:13:02.852Z</time>
      </trkpt>
      <trkpt lat="45.75786" lon="5.6177">
        <ele>388</ele>
        <time>2019-08-24T14:13:07.871Z</time>
      </trkpt>
      <trkpt lat="45.75785" lon="5.61773">
        <ele>388</ele>
        <time>2019-08-24T14:13:12.863Z</time>
      </trkpt>
      <trkpt lat="45.75785" lon="5.61774">
        <ele>388</ele>
        <time>2019-08-24T14:13:17.876Z</time>
      </trkpt>
      <trkpt lat="45.75786" lon="5.61778">
        <ele>388</ele>
        <time>2019-08-24T14:13:21.874Z</time>
      </trkpt>
      <trkpt lat="45.75784" lon="5.61785">
        <ele>388</ele>
        <time>2019-08-24T14:13:26.872Z</time>
      </trkpt>
      <trkpt lat="45.75784" lon="5.61789">
        <ele>388</ele>
        <time>2019-08-24T14:13:31.885Z</time>
      </trkpt>
      <trkpt lat="45.75783" lon="5.61791">
        <ele>388</ele>
        <time>2019-08-24T14:13:36.871Z</time>
      </trkpt>
      <trkpt lat="45.75781" lon="5.61796">
        <ele>385</ele>
        <time>2019-08-24T14:13:41.873Z</time>
      </trkpt>
      <trkpt lat="45.75779" lon="5.61803">
        <ele>385</ele>
        <time>2019-08-24T14:13:46.870Z</time>
      </trkpt>
      <trkpt lat="45.75778" lon="5.61808">
        <ele>385</ele>
        <time>2019-08-24T14:13:51.857Z</time>
      </trkpt>
      <trkpt lat="45.75777" lon="5.6181">
        <ele>385</ele>
        <time>2019-08-24T14:13:56.870Z</time>
      </trkpt>
      <trkpt lat="45.75776" lon="5.61811">
        <ele>385</ele>
        <time>2019-08-24T14:14:01.879Z</time>
      </trkpt>
      <trkpt lat="45.75774" lon="5.61816">
        <ele>385</ele>
        <time>2019-08-24T14:14:06.868Z</time>
      </trkpt>
      <trkpt lat="45.75769" lon="5.61826">
        <ele>381</ele>
        <time>2019-08-24T14:14:11.868Z</time>
      </trkpt>
      <trkpt lat="45.75768" lon="5.61829">
        <ele>381</ele>
        <time>2019-08-24T14:14:26.853Z</time>
      </trkpt>
      <trkpt lat="45.75766" lon="5.61832">
        <ele>381</ele>
        <time>2019-08-24T14:14:30.870Z</time>
      </trkpt>
      <trkpt lat="45.75766" lon="5.61833">
        <ele>381</ele>
        <time>2019-08-24T14:14:35.870Z</time>
      </trkpt>
      <trkpt lat="45.75764" lon="5.61837">
        <ele>384</ele>
        <time>2019-08-24T14:14:40.863Z</time>
      </trkpt>
      <trkpt lat="45.75759" lon="5.61842">
        <ele>384</ele>
        <time>2019-08-24T14:14:45.833Z</time>
      </trkpt>
      <trkpt lat="45.75756" lon="5.61846">
        <ele>384</ele>
        <time>2019-08-24T14:14:49.852Z</time>
      </trkpt>
      <trkpt lat="45.75755" lon="5.61848">
        <ele>380</ele>
        <time>2019-08-24T14:14:53.873Z</time>
      </trkpt>
      <trkpt lat="45.75754" lon="5.61851">
        <ele>380</ele>
        <time>2019-08-24T14:14:58.865Z</time>
      </trkpt>
      <trkpt lat="45.75749" lon="5.61856">
        <ele>380</ele>
        <time>2019-08-24T14:15:03.862Z</time>
      </trkpt>
      <trkpt lat="45.75745" lon="5.61859">
        <ele>380</ele>
        <time>2019-08-24T14:15:07.861Z</time>
      </trkpt>
      <trkpt lat="45.7574" lon="5.61864">
        <ele>380</ele>
        <time>2019-08-24T14:15:12.863Z</time>
      </trkpt>
      <trkpt lat="45.75736" lon="5.61871">
        <ele>381</ele>
        <time>2019-08-24T14:15:17.874Z</time>
      </trkpt>
      <trkpt lat="45.75732" lon="5.61875">
        <ele>377</ele>
        <time>2019-08-24T14:15:21.872Z</time>
      </trkpt>
      <trkpt lat="45.75727" lon="5.61881">
        <ele>377</ele>
        <time>2019-08-24T14:15:36.878Z</time>
      </trkpt>
      <trkpt lat="45.75727" lon="5.61883">
        <ele>377</ele>
        <time>2019-08-24T14:15:41.868Z</time>
      </trkpt>
      <trkpt lat="45.75728" lon="5.61887">
        <ele>377</ele>
        <time>2019-08-24T14:15:45.876Z</time>
      </trkpt>
      <trkpt lat="45.75729" lon="5.61889">
        <ele>377</ele>
        <time>2019-08-24T14:15:49.871Z</time>
      </trkpt>
      <trkpt lat="45.75731" lon="5.61893">
        <ele>377</ele>
        <time>2019-08-24T14:15:54.863Z</time>
      </trkpt>
      <trkpt lat="45.75734" lon="5.61898">
        <ele>377</ele>
        <time>2019-08-24T14:15:59.879Z</time>
      </trkpt>
      <trkpt lat="45.75738" lon="5.61901">
        <ele>375</ele>
        <time>2019-08-24T14:16:04.872Z</time>
      </trkpt>
      <trkpt lat="45.75742" lon="5.61902">
        <ele>375</ele>
        <time>2019-08-24T14:16:09.861Z</time>
      </trkpt>
      <trkpt lat="45.75746" lon="5.61903">
        <ele>372</ele>
        <time>2019-08-24T14:16:13.872Z</time>
      </trkpt>
      <trkpt lat="45.75753" lon="5.61907">
        <ele>372</ele>
        <time>2019-08-24T14:16:18.863Z</time>
      </trkpt>
      <trkpt lat="45.75757" lon="5.61907">
        <ele>372</ele>
        <time>2019-08-24T14:16:22.866Z</time>
      </trkpt>
      <trkpt lat="45.75761" lon="5.61907">
        <ele>372</ele>
        <time>2019-08-24T14:16:27.871Z</time>
      </trkpt>
      <trkpt lat="45.75764" lon="5.61908">
        <ele>371</ele>
        <time>2019-08-24T14:16:32.867Z</time>
      </trkpt>
      <trkpt lat="45.75771" lon="5.61911">
        <ele>371</ele>
        <time>2019-08-24T14:16:37.883Z</time>
      </trkpt>
      <trkpt lat="45.75779" lon="5.61914">
        <ele>371</ele>
        <time>2019-08-24T14:16:42.868Z</time>
      </trkpt>
      <trkpt lat="45.75784" lon="5.61915">
        <ele>371</ele>
        <time>2019-08-24T14:16:46.871Z</time>
      </trkpt>
      <trkpt lat="45.7579" lon="5.61916">
        <ele>371</ele>
        <time>2019-08-24T14:16:51.859Z</time>
      </trkpt>
      <trkpt lat="45.75795" lon="5.61916">
        <ele>370</ele>
        <time>2019-08-24T14:16:56.857Z</time>
      </trkpt>
      <trkpt lat="45.75801" lon="5.61918">
        <ele>370</ele>
        <time>2019-08-24T14:17:00.875Z</time>
      </trkpt>
      <trkpt lat="45.75804" lon="5.61919">
        <ele>370</ele>
        <time>2019-08-24T14:17:05.867Z</time>
      </trkpt>
      <trkpt lat="45.75809" lon="5.61921">
        <ele>370</ele>
        <time>2019-08-24T14:17:09.878Z</time>
      </trkpt>
      <trkpt lat="45.75811" lon="5.61923">
        <ele>370</ele>
        <time>2019-08-24T14:17:14.881Z</time>
      </trkpt>
      <trkpt lat="45.75813" lon="5.61924">
        <ele>370</ele>
        <time>2019-08-24T14:17:19.870Z</time>
      </trkpt>
      <trkpt lat="45.75821" lon="5.61929">
        <ele>371</ele>
        <time>2019-08-24T14:17:24.854Z</time>
      </trkpt>
      <trkpt lat="45.75828" lon="5.61934">
        <ele>366</ele>
        <time>2019-08-24T14:17:28.866Z</time>
      </trkpt>
      <trkpt lat="45.75835" lon="5.61941">
        <ele>366</ele>
        <time>2019-08-24T14:17:33.875Z</time>
      </trkpt>
      <trkpt lat="45.75839" lon="5.6195">
        <ele>366</ele>
        <time>2019-08-24T14:17:38.865Z</time>
      </trkpt>
      <trkpt lat="45.75839" lon="5.61957">
        <ele>366</ele>
        <time>2019-08-24T14:17:42.876Z</time>
      </trkpt>
      <trkpt lat="45.75839" lon="5.61965">
        <ele>362</ele>
        <time>2019-08-24T14:17:47.880Z</time>
      </trkpt>
      <trkpt lat="45.75839" lon="5.61971">
        <ele>362</ele>
        <time>2019-08-24T14:17:51.895Z</time>
      </trkpt>
      <trkpt lat="45.75836" lon="5.61979">
        <ele>362</ele>
        <time>2019-08-24T14:17:55.881Z</time>
      </trkpt>
      <trkpt lat="45.75836" lon="5.61987">
        <ele>357</ele>
        <time>2019-08-24T14:18:00.851Z</time>
      </trkpt>
      <trkpt lat="45.75838" lon="5.61994">
        <ele>357</ele>
        <time>2019-08-24T14:18:04.876Z</time>
      </trkpt>
      <trkpt lat="45.75838" lon="5.62004">
        <ele>357</ele>
        <time>2019-08-24T14:18:09.859Z</time>
      </trkpt>
      <trkpt lat="45.75837" lon="5.62009">
        <ele>357</ele>
        <time>2019-08-24T14:18:13.882Z</time>
      </trkpt>
      <trkpt lat="45.75838" lon="5.62015">
        <ele>355</ele>
        <time>2019-08-24T14:18:17.874Z</time>
      </trkpt>
      <trkpt lat="45.7584" lon="5.62023">
        <ele>355</ele>
        <time>2019-08-24T14:18:22.868Z</time>
      </trkpt>
      <trkpt lat="45.75846" lon="5.62029">
        <ele>355</ele>
        <time>2019-08-24T14:18:27.861Z</time>
      </trkpt>
      <trkpt lat="45.75853" lon="5.62032">
        <ele>353</ele>
        <time>2019-08-24T14:18:32.881Z</time>
      </trkpt>
      <trkpt lat="45.75859" lon="5.62034">
        <ele>353</ele>
        <time>2019-08-24T14:18:37.864Z</time>
      </trkpt>
      <trkpt lat="45.75865" lon="5.62036">
        <ele>353</ele>
        <time>2019-08-24T14:18:42.864Z</time>
      </trkpt>
      <trkpt lat="45.75872" lon="5.62037">
        <ele>353</ele>
        <time>2019-08-24T14:18:47.865Z</time>
      </trkpt>
      <trkpt lat="45.7588" lon="5.62039">
        <ele>353</ele>
        <time>2019-08-24T14:18:52.855Z</time>
      </trkpt>
      <trkpt lat="45.75883" lon="5.6204">
        <ele>353</ele>
        <time>2019-08-24T14:18:56.865Z</time>
      </trkpt>
      <trkpt lat="45.75888" lon="5.62043">
        <ele>349</ele>
        <time>2019-08-24T14:19:00.860Z</time>
      </trkpt>
      <trkpt lat="45.75895" lon="5.62048">
        <ele>349</ele>
        <time>2019-08-24T14:19:05.845Z</time>
      </trkpt>
      <trkpt lat="45.75901" lon="5.62053">
        <ele>349</ele>
        <time>2019-08-24T14:19:10.888Z</time>
      </trkpt>
      <trkpt lat="45.75905" lon="5.62054">
        <ele>350</ele>
        <time>2019-08-24T14:19:15.864Z</time>
      </trkpt>
      <trkpt lat="45.75911" lon="5.62055">
        <ele>350</ele>
        <time>2019-08-24T14:19:20.852Z</time>
      </trkpt>
      <trkpt lat="45.75917" lon="5.62056">
        <ele>350</ele>
        <time>2019-08-24T14:19:24.861Z</time>
      </trkpt>
      <trkpt lat="45.75924" lon="5.62057">
        <ele>350</ele>
        <time>2019-08-24T14:19:29.849Z</time>
      </trkpt>
      <trkpt lat="45.7593" lon="5.62056">
        <ele>350</ele>
        <time>2019-08-24T14:19:34.869Z</time>
      </trkpt>
      <trkpt lat="45.75937" lon="5.62054">
        <ele>352</ele>
        <time>2019-08-24T14:19:39.855Z</time>
      </trkpt>
      <trkpt lat="45.75942" lon="5.62052">
        <ele>352</ele>
        <time>2019-08-24T14:19:44.868Z</time>
      </trkpt>
      <trkpt lat="45.75947" lon="5.62051">
        <ele>352</ele>
        <time>2019-08-24T14:19:48.881Z</time>
      </trkpt>
      <trkpt lat="45.75953" lon="5.62052">
        <ele>352</ele>
        <time>2019-08-24T14:19:53.868Z</time>
      </trkpt>
      <trkpt lat="45.75958" lon="5.62048">
        <ele>353</ele>
        <time>2019-08-24T14:19:58.878Z</time>
      </trkpt>
      <trkpt lat="45.75964" lon="5.62045">
        <ele>353</ele>
        <time>2019-08-24T14:20:02.872Z</time>
      </trkpt>
      <trkpt lat="45.75989" lon="5.62035">
        <ele>362</ele>
        <time>2019-08-24T14:20:07.848Z</time>
      </trkpt>
      <trkpt lat="45.76019" lon="5.62027">
        <ele>363</ele>
        <time>2019-08-24T14:20:12.865Z</time>
      </trkpt>
      <trkpt lat="45.76044" lon="5.62024">
        <ele>363</ele>
        <time>2019-08-24T14:20:17.851Z</time>
      </trkpt>
      <trkpt lat="45.76051" lon="5.62024">
        <ele>363</ele>
        <time>2019-08-24T14:20:22.867Z</time>
      </trkpt>
      <trkpt lat="45.7606" lon="5.62027">
        <ele>363</ele>
        <time>2019-08-24T14:20:27.843Z</time>
      </trkpt>
      <trkpt lat="45.76065" lon="5.62029">
        <ele>363</ele>
        <time>2019-08-24T14:20:32.855Z</time>
      </trkpt>
      <trkpt lat="45.7607" lon="5.62025">
        <ele>362</ele>
        <time>2019-08-24T14:20:36.868Z</time>
      </trkpt>
      <trkpt lat="45.76073" lon="5.62018">
        <ele>362</ele>
        <time>2019-08-24T14:20:40.878Z</time>
      </trkpt>
      <trkpt lat="45.76076" lon="5.62011">
        <ele>369</ele>
        <time>2019-08-24T14:20:45.856Z</time>
      </trkpt>
      <trkpt lat="45.7608" lon="5.62003">
        <ele>369</ele>
        <time>2019-08-24T14:20:50.863Z</time>
      </trkpt>
      <trkpt lat="45.76085" lon="5.62003">
        <ele>369</ele>
        <time>2019-08-24T14:20:55.874Z</time>
      </trkpt>
      <trkpt lat="45.76092" lon="5.62004">
        <ele>369</ele>
        <time>2019-08-24T14:21:00.876Z</time>
      </trkpt>
      <trkpt lat="45.76098" lon="5.62005">
        <ele>368</ele>
        <time>2019-08-24T14:21:05.878Z</time>
      </trkpt>
      <trkpt lat="45.76105" lon="5.62006">
        <ele>368</ele>
        <time>2019-08-24T14:21:10.883Z</time>
      </trkpt>
      <trkpt lat="45.76115" lon="5.62006">
        <ele>368</ele>
        <time>2019-08-24T14:21:15.876Z</time>
      </trkpt>
      <trkpt lat="45.76123" lon="5.62009">
        <ele>368</ele>
        <time>2019-08-24T14:21:20.875Z</time>
      </trkpt>
      <trkpt lat="45.76127" lon="5.62012">
        <ele>370</ele>
        <time>2019-08-24T14:21:25.856Z</time>
      </trkpt>
      <trkpt lat="45.76133" lon="5.62014">
        <ele>363</ele>
        <time>2019-08-24T14:21:29.884Z</time>
      </trkpt>
      <trkpt lat="45.76141" lon="5.62015">
        <ele>363</ele>
        <time>2019-08-24T14:21:34.873Z</time>
      </trkpt>
      <trkpt lat="45.76149" lon="5.62015">
        <ele>363</ele>
        <time>2019-08-24T14:21:39.872Z</time>
      </trkpt>
      <trkpt lat="45.76151" lon="5.62015">
        <ele>363</ele>
        <time>2019-08-24T14:21:43.874Z</time>
      </trkpt>
      <trkpt lat="45.76156" lon="5.62014">
        <ele>361</ele>
        <time>2019-08-24T14:21:48.881Z</time>
      </trkpt>
      <trkpt lat="45.7616" lon="5.62015">
        <ele>361</ele>
        <time>2019-08-24T14:21:53.879Z</time>
      </trkpt>
      <trkpt lat="45.76167" lon="5.62011">
        <ele>369</ele>
        <time>2019-08-24T14:21:58.887Z</time>
      </trkpt>
      <trkpt lat="45.76171" lon="5.62009">
        <ele>369</ele>
        <time>2019-08-24T14:22:03.863Z</time>
      </trkpt>
      <trkpt lat="45.76177" lon="5.62009">
        <ele>369</ele>
        <time>2019-08-24T14:22:07.872Z</time>
      </trkpt>
      <trkpt lat="45.76182" lon="5.62007">
        <ele>369</ele>
        <time>2019-08-24T14:22:12.861Z</time>
      </trkpt>
      <trkpt lat="45.7619" lon="5.62004">
        <ele>369</ele>
        <time>2019-08-24T14:22:16.871Z</time>
      </trkpt>
      <trkpt lat="45.76194" lon="5.62003">
        <ele>369</ele>
        <time>2019-08-24T14:22:21.875Z</time>
      </trkpt>
      <trkpt lat="45.76203" lon="5.62003">
        <ele>369</ele>
        <time>2019-08-24T14:22:26.875Z</time>
      </trkpt>
      <trkpt lat="45.76211" lon="5.61999">
        <ele>369</ele>
        <time>2019-08-24T14:22:31.858Z</time>
      </trkpt>
      <trkpt lat="45.76219" lon="5.61996">
        <ele>369</ele>
        <time>2019-08-24T14:22:35.879Z</time>
      </trkpt>
      <trkpt lat="45.76224" lon="5.61996">
        <ele>369</ele>
        <time>2019-08-24T14:22:40.855Z</time>
      </trkpt>
      <trkpt lat="45.76232" lon="5.61997">
        <ele>369</ele>
        <time>2019-08-24T14:22:45.870Z</time>
      </trkpt>
      <trkpt lat="45.7624" lon="5.61997">
        <ele>370</ele>
        <time>2019-08-24T14:22:50.875Z</time>
      </trkpt>
      <trkpt lat="45.76241" lon="5.61997">
        <ele>370</ele>
        <time>2019-08-24T14:23:00.861Z</time>
      </trkpt>
      <trkpt lat="45.76243" lon="5.61996">
        <ele>370</ele>
        <time>2019-08-24T14:23:04.870Z</time>
      </trkpt>
      <trkpt lat="45.76244" lon="5.61996">
        <ele>370</ele>
        <time>2019-08-24T14:23:09.871Z</time>
      </trkpt>
      <trkpt lat="45.76245" lon="5.61995">
        <ele>370</ele>
        <time>2019-08-24T14:23:14.863Z</time>
      </trkpt>
      <trkpt lat="45.76252" lon="5.61995">
        <ele>370</ele>
        <time>2019-08-24T14:23:19.862Z</time>
      </trkpt>
      <trkpt lat="45.76258" lon="5.61995">
        <ele>370</ele>
        <time>2019-08-24T14:23:23.856Z</time>
      </trkpt>
      <trkpt lat="45.76259" lon="5.61996">
        <ele>370</ele>
        <time>2019-08-24T14:23:28.870Z</time>
      </trkpt>
      <trkpt lat="45.76261" lon="5.61996">
        <ele>370</ele>
        <time>2019-08-24T14:23:33.874Z</time>
      </trkpt>
      <trkpt lat="45.76263" lon="5.61996">
        <ele>370</ele>
        <time>2019-08-24T14:23:38.862Z</time>
      </trkpt>
      <trkpt lat="45.76271" lon="5.61995">
        <ele>369</ele>
        <time>2019-08-24T14:23:43.857Z</time>
      </trkpt>
      <trkpt lat="45.7628" lon="5.61998">
        <ele>369</ele>
        <time>2019-08-24T14:23:48.868Z</time>
      </trkpt>
      <trkpt lat="45.76288" lon="5.61994">
        <ele>369</ele>
        <time>2019-08-24T14:23:53.858Z</time>
      </trkpt>
      <trkpt lat="45.76294" lon="5.61989">
        <ele>368</ele>
        <time>2019-08-24T14:23:57.878Z</time>
      </trkpt>
      <trkpt lat="45.76299" lon="5.61985">
        <ele>378</ele>
        <time>2019-08-24T14:24:01.865Z</time>
      </trkpt>
      <trkpt lat="45.76306" lon="5.61983">
        <ele>378</ele>
        <time>2019-08-24T14:24:06.864Z</time>
      </trkpt>
      <trkpt lat="45.76313" lon="5.61978">
        <ele>378</ele>
        <time>2019-08-24T14:24:11.862Z</time>
      </trkpt>
      <trkpt lat="45.76319" lon="5.61973">
        <ele>378</ele>
        <time>2019-08-24T14:24:15.878Z</time>
      </trkpt>
      <trkpt lat="45.76325" lon="5.61969">
        <ele>378</ele>
        <time>2019-08-24T14:24:20.855Z</time>
      </trkpt>
      <trkpt lat="45.76329" lon="5.61967">
        <ele>378</ele>
        <time>2019-08-24T14:24:24.866Z</time>
      </trkpt>
      <trkpt lat="45.76337" lon="5.61967">
        <ele>378</ele>
        <time>2019-08-24T14:24:29.875Z</time>
      </trkpt>
      <trkpt lat="45.76343" lon="5.61969">
        <ele>378</ele>
        <time>2019-08-24T14:24:34.872Z</time>
      </trkpt>
      <trkpt lat="45.7635" lon="5.61969">
        <ele>376</ele>
        <time>2019-08-24T14:24:39.849Z</time>
      </trkpt>
      <trkpt lat="45.76357" lon="5.61969">
        <ele>376</ele>
        <time>2019-08-24T14:24:43.874Z</time>
      </trkpt>
      <trkpt lat="45.76363" lon="5.61967">
        <ele>376</ele>
        <time>2019-08-24T14:24:47.877Z</time>
      </trkpt>
      <trkpt lat="45.76372" lon="5.61965">
        <ele>376</ele>
        <time>2019-08-24T14:24:52.866Z</time>
      </trkpt>
      <trkpt lat="45.7638" lon="5.61962">
        <ele>374</ele>
        <time>2019-08-24T14:24:57.864Z</time>
      </trkpt>
      <trkpt lat="45.76387" lon="5.6196">
        <ele>374</ele>
        <time>2019-08-24T14:25:02.870Z</time>
      </trkpt>
      <trkpt lat="45.76394" lon="5.61958">
        <ele>384</ele>
        <time>2019-08-24T14:25:07.862Z</time>
      </trkpt>
      <trkpt lat="45.764" lon="5.61957">
        <ele>384</ele>
        <time>2019-08-24T14:25:11.872Z</time>
      </trkpt>
      <trkpt lat="45.76403" lon="5.61958">
        <ele>383</ele>
        <time>2019-08-24T14:25:16.859Z</time>
      </trkpt>
      <trkpt lat="45.76403" lon="5.61958">
        <ele>383</ele>
        <time>2019-08-24T14:25:20.861Z</time>
      </trkpt>
      <trkpt lat="45.76406" lon="5.61956">
        <ele>383</ele>
        <time>2019-08-24T14:25:25.853Z</time>
      </trkpt>
      <trkpt lat="45.76408" lon="5.61955">
        <ele>383</ele>
        <time>2019-08-24T14:25:29.878Z</time>
      </trkpt>
      <trkpt lat="45.76411" lon="5.61952">
        <ele>383</ele>
        <time>2019-08-24T14:25:34.875Z</time>
      </trkpt>
      <trkpt lat="45.76417" lon="5.61952">
        <ele>383</ele>
        <time>2019-08-24T14:25:39.872Z</time>
      </trkpt>
      <trkpt lat="45.76422" lon="5.61951">
        <ele>383</ele>
        <time>2019-08-24T14:25:44.864Z</time>
      </trkpt>
      <trkpt lat="45.76427" lon="5.61951">
        <ele>383</ele>
        <time>2019-08-24T14:25:48.872Z</time>
      </trkpt>
      <trkpt lat="45.76433" lon="5.61948">
        <ele>380</ele>
        <time>2019-08-24T14:25:53.873Z</time>
      </trkpt>
      <trkpt lat="45.76437" lon="5.61944">
        <ele>380</ele>
        <time>2019-08-24T14:25:58.867Z</time>
      </trkpt>
      <trkpt lat="45.76441" lon="5.61939">
        <ele>380</ele>
        <time>2019-08-24T14:26:03.872Z</time>
      </trkpt>
      <trkpt lat="45.76445" lon="5.61936">
        <ele>380</ele>
        <time>2019-08-24T14:26:07.887Z</time>
      </trkpt>
      <trkpt lat="45.76451" lon="5.61933">
        <ele>380</ele>
        <time>2019-08-24T14:26:12.877Z</time>
      </trkpt>
      <trkpt lat="45.76454" lon="5.6193">
        <ele>387</ele>
        <time>2019-08-24T14:26:44.861Z</time>
      </trkpt>
      <trkpt lat="45.76455" lon="5.6193">
        <ele>387</ele>
        <time>2019-08-24T14:26:49.861Z</time>
      </trkpt>
      <trkpt lat="45.76457" lon="5.61928">
        <ele>387</ele>
        <time>2019-08-24T14:26:54.857Z</time>
      </trkpt>
      <trkpt lat="45.76461" lon="5.61927">
        <ele>384</ele>
        <time>2019-08-24T14:26:59.863Z</time>
      </trkpt>
      <trkpt lat="45.76461" lon="5.61926">
        <ele>384</ele>
        <time>2019-08-24T14:27:03.858Z</time>
      </trkpt>
      <trkpt lat="45.76468" lon="5.61932">
        <ele>377</ele>
        <time>2019-08-24T14:28:00.870Z</time>
      </trkpt>
      <trkpt lat="45.76469" lon="5.61933">
        <ele>377</ele>
        <time>2019-08-24T14:28:05.850Z</time>
      </trkpt>
      <trkpt lat="45.76469" lon="5.61934">
        <ele>377</ele>
        <time>2019-08-24T14:28:09.866Z</time>
      </trkpt>
      <trkpt lat="45.76469" lon="5.61934">
        <ele>377</ele>
        <time>2019-08-24T14:28:14.856Z</time>
      </trkpt>
      <trkpt lat="45.76469" lon="5.61934">
        <ele>377</ele>
        <time>2019-08-24T14:28:19.863Z</time>
      </trkpt>
      <trkpt lat="45.76471" lon="5.61935">
        <ele>377</ele>
        <time>2019-08-24T14:28:57.863Z</time>
      </trkpt>
      <trkpt lat="45.76471" lon="5.61935">
        <ele>377</ele>
        <time>2019-08-24T14:29:02.851Z</time>
      </trkpt>
      <trkpt lat="45.76475" lon="5.61935">
        <ele>377</ele>
        <time>2019-08-24T14:29:07.852Z</time>
      </trkpt>
      <trkpt lat="45.76477" lon="5.61933">
        <ele>377</ele>
        <time>2019-08-24T14:29:11.868Z</time>
      </trkpt>
      <trkpt lat="45.76481" lon="5.61932">
        <ele>377</ele>
        <time>2019-08-24T14:29:16.856Z</time>
      </trkpt>
      <trkpt lat="45.76484" lon="5.6193">
        <ele>384</ele>
        <time>2019-08-24T14:29:20.869Z</time>
      </trkpt>
      <trkpt lat="45.76489" lon="5.61928">
        <ele>383</ele>
        <time>2019-08-24T14:29:25.862Z</time>
      </trkpt>
      <trkpt lat="45.76495" lon="5.61923">
        <ele>383</ele>
        <time>2019-08-24T14:29:30.873Z</time>
      </trkpt>
      <trkpt lat="45.765" lon="5.61919">
        <ele>383</ele>
        <time>2019-08-24T14:29:35.870Z</time>
      </trkpt>
      <trkpt lat="45.7651" lon="5.61915">
        <ele>383</ele>
        <time>2019-08-24T14:29:40.847Z</time>
      </trkpt>
      <trkpt lat="45.76517" lon="5.61913">
        <ele>382</ele>
        <time>2019-08-24T14:29:45.871Z</time>
      </trkpt>
      <trkpt lat="45.76523" lon="5.6191">
        <ele>382</ele>
        <time>2019-08-24T14:29:50.861Z</time>
      </trkpt>
      <trkpt lat="45.76527" lon="5.61905">
        <ele>382</ele>
        <time>2019-08-24T14:29:55.864Z</time>
      </trkpt>
      <trkpt lat="45.76531" lon="5.619">
        <ele>390</ele>
        <time>2019-08-24T14:29:59.883Z</time>
      </trkpt>
      <trkpt lat="45.76536" lon="5.61898">
        <ele>390</ele>
        <time>2019-08-24T14:30:04.865Z</time>
      </trkpt>
      <trkpt lat="45.76541" lon="5.61894">
        <ele>390</ele>
        <time>2019-08-24T14:30:09.881Z</time>
      </trkpt>
      <trkpt lat="45.76544" lon="5.61892">
        <ele>387</ele>
        <time>2019-08-24T14:30:13.867Z</time>
      </trkpt>
      <trkpt lat="45.76548" lon="5.61891">
        <ele>387</ele>
        <time>2019-08-24T14:30:17.873Z</time>
      </trkpt>
      <trkpt lat="45.76554" lon="5.61893">
        <ele>387</ele>
        <time>2019-08-24T14:30:22.863Z</time>
      </trkpt>
      <trkpt lat="45.76557" lon="5.61894">
        <ele>387</ele>
        <time>2019-08-24T14:30:27.871Z</time>
      </trkpt>
      <trkpt lat="45.76559" lon="5.61896">
        <ele>387</ele>
        <time>2019-08-24T14:30:32.863Z</time>
      </trkpt>
      <trkpt lat="45.76562" lon="5.61897">
        <ele>387</ele>
        <time>2019-08-24T14:30:36.872Z</time>
      </trkpt>
      <trkpt lat="45.76564" lon="5.61898">
        <ele>387</ele>
        <time>2019-08-24T14:30:41.867Z</time>
      </trkpt>
      <trkpt lat="45.76566" lon="5.61899">
        <ele>387</ele>
        <time>2019-08-24T14:30:45.868Z</time>
      </trkpt>
      <trkpt lat="45.76569" lon="5.61899">
        <ele>387</ele>
        <time>2019-08-24T14:30:49.878Z</time>
      </trkpt>
      <trkpt lat="45.76579" lon="5.61902">
        <ele>384</ele>
        <time>2019-08-24T14:30:54.855Z</time>
      </trkpt>
      <trkpt lat="45.76583" lon="5.61906">
        <ele>377</ele>
        <time>2019-08-24T14:30:58.855Z</time>
      </trkpt>
      <trkpt lat="45.76583" lon="5.61907">
        <ele>377</ele>
        <time>2019-08-24T14:31:03.870Z</time>
      </trkpt>
      <trkpt lat="45.76584" lon="5.61907">
        <ele>377</ele>
        <time>2019-08-24T14:31:08.873Z</time>
      </trkpt>
      <trkpt lat="45.76587" lon="5.6191">
        <ele>377</ele>
        <time>2019-08-24T14:31:13.859Z</time>
      </trkpt>
      <trkpt lat="45.76593" lon="5.61909">
        <ele>377</ele>
        <time>2019-08-24T14:31:18.856Z</time>
      </trkpt>
      <trkpt lat="45.76598" lon="5.61907">
        <ele>375</ele>
        <time>2019-08-24T14:31:22.863Z</time>
      </trkpt>
      <trkpt lat="45.76603" lon="5.61906">
        <ele>375</ele>
        <time>2019-08-24T14:31:27.875Z</time>
      </trkpt>
      <trkpt lat="45.76606" lon="5.61907">
        <ele>375</ele>
        <time>2019-08-24T14:31:31.865Z</time>
      </trkpt>
      <trkpt lat="45.76608" lon="5.6191">
        <ele>375</ele>
        <time>2019-08-24T14:31:36.863Z</time>
      </trkpt>
      <trkpt lat="45.76612" lon="5.61912">
        <ele>375</ele>
        <time>2019-08-24T14:31:41.872Z</time>
      </trkpt>
      <trkpt lat="45.76613" lon="5.61914">
        <ele>375</ele>
        <time>2019-08-24T14:31:46.875Z</time>
      </trkpt>
      <trkpt lat="45.76614" lon="5.61917">
        <ele>375</ele>
        <time>2019-08-24T14:31:51.866Z</time>
      </trkpt>
      <trkpt lat="45.76611" lon="5.61922">
        <ele>375</ele>
        <time>2019-08-24T14:31:56.873Z</time>
      </trkpt>
      <trkpt lat="45.76613" lon="5.61925">
        <ele>375</ele>
        <time>2019-08-24T14:32:01.873Z</time>
      </trkpt>
      <trkpt lat="45.76615" lon="5.61929">
        <ele>375</ele>
        <time>2019-08-24T14:32:05.866Z</time>
      </trkpt>
      <trkpt lat="45.76618" lon="5.61936">
        <ele>367</ele>
        <time>2019-08-24T14:32:10.869Z</time>
      </trkpt>
      <trkpt lat="45.7662" lon="5.61942">
        <ele>367</ele>
        <time>2019-08-24T14:32:15.860Z</time>
      </trkpt>
      <trkpt lat="45.76614" lon="5.61946">
        <ele>367</ele>
        <time>2019-08-24T14:32:19.875Z</time>
      </trkpt>
      <trkpt lat="45.76607" lon="5.61947">
        <ele>367</ele>
        <time>2019-08-24T14:32:23.879Z</time>
      </trkpt>
      <trkpt lat="45.766" lon="5.61948">
        <ele>367</ele>
        <time>2019-08-24T14:32:28.882Z</time>
      </trkpt>
      <trkpt lat="45.76594" lon="5.61951">
        <ele>370</ele>
        <time>2019-08-24T14:32:33.870Z</time>
      </trkpt>
      <trkpt lat="45.76588" lon="5.61957">
        <ele>370</ele>
        <time>2019-08-24T14:32:38.856Z</time>
      </trkpt>
      <trkpt lat="45.76587" lon="5.61966">
        <ele>365</ele>
        <time>2019-08-24T14:32:42.876Z</time>
      </trkpt>
      <trkpt lat="45.76588" lon="5.61976">
        <ele>365</ele>
        <time>2019-08-24T14:32:47.872Z</time>
      </trkpt>
      <trkpt lat="45.7659" lon="5.61983">
        <ele>365</ele>
        <time>2019-08-24T14:32:52.866Z</time>
      </trkpt>
      <trkpt lat="45.76591" lon="5.61988">
        <ele>362</ele>
        <time>2019-08-24T14:32:57.868Z</time>
      </trkpt>
      <trkpt lat="45.76591" lon="5.61996">
        <ele>362</ele>
        <time>2019-08-24T14:35:29.837Z</time>
      </trkpt>
      <trkpt lat="45.76591" lon="5.61996">
        <ele>362</ele>
        <time>2019-08-24T14:35:34.850Z</time>
      </trkpt>
      <trkpt lat="45.76591" lon="5.61997">
        <ele>362</ele>
        <time>2019-08-24T14:35:38.858Z</time>
      </trkpt>
      <trkpt lat="45.7659" lon="5.62">
        <ele>362</ele>
        <time>2019-08-24T14:35:43.846Z</time>
      </trkpt>
      <trkpt lat="45.76588" lon="5.62008">
        <ele>362</ele>
        <time>2019-08-24T14:35:47.865Z</time>
      </trkpt>
      <trkpt lat="45.76588" lon="5.62015">
        <ele>361</ele>
        <time>2019-08-24T14:35:51.876Z</time>
      </trkpt>
      <trkpt lat="45.76588" lon="5.62023">
        <ele>361</ele>
        <time>2019-08-24T14:35:56.859Z</time>
      </trkpt>
      <trkpt lat="45.76588" lon="5.62029">
        <ele>361</ele>
        <time>2019-08-24T14:36:00.875Z</time>
      </trkpt>
      <trkpt lat="45.76588" lon="5.62036">
        <ele>361</ele>
        <time>2019-08-24T14:36:04.864Z</time>
      </trkpt>
      <trkpt lat="45.7659" lon="5.62044">
        <ele>360</ele>
        <time>2019-08-24T14:36:09.875Z</time>
      </trkpt>
      <trkpt lat="45.76591" lon="5.62051">
        <ele>360</ele>
        <time>2019-08-24T14:36:14.874Z</time>
      </trkpt>
      <trkpt lat="45.76591" lon="5.6206">
        <ele>360</ele>
        <time>2019-08-24T14:36:19.865Z</time>
      </trkpt>
      <trkpt lat="45.76592" lon="5.62069">
        <ele>360</ele>
        <time>2019-08-24T14:36:24.878Z</time>
      </trkpt>
      <trkpt lat="45.76593" lon="5.62078">
        <ele>359</ele>
        <time>2019-08-24T14:36:29.865Z</time>
      </trkpt>
      <trkpt lat="45.76594" lon="5.62088">
        <ele>359</ele>
        <time>2019-08-24T14:36:34.870Z</time>
      </trkpt>
      <trkpt lat="45.76595" lon="5.62099">
        <ele>359</ele>
        <time>2019-08-24T14:36:39.859Z</time>
      </trkpt>
      <trkpt lat="45.76595" lon="5.62109">
        <ele>359</ele>
        <time>2019-08-24T14:36:44.859Z</time>
      </trkpt>
      <trkpt lat="45.76596" lon="5.62117">
        <ele>359</ele>
        <time>2019-08-24T14:36:48.870Z</time>
      </trkpt>
      <trkpt lat="45.76597" lon="5.62124">
        <ele>359</ele>
        <time>2019-08-24T14:36:52.874Z</time>
      </trkpt>
      <trkpt lat="45.76597" lon="5.62134">
        <ele>357</ele>
        <time>2019-08-24T14:36:57.862Z</time>
      </trkpt>
      <trkpt lat="45.76598" lon="5.62144">
        <ele>358</ele>
        <time>2019-08-24T14:37:02.865Z</time>
      </trkpt>
      <trkpt lat="45.766" lon="5.6215">
        <ele>358</ele>
        <time>2019-08-24T14:37:06.877Z</time>
      </trkpt>
      <trkpt lat="45.76601" lon="5.6216">
        <ele>357</ele>
        <time>2019-08-24T14:37:11.875Z</time>
      </trkpt>
      <trkpt lat="45.76603" lon="5.62169">
        <ele>357</ele>
        <time>2019-08-24T14:37:16.873Z</time>
      </trkpt>
      <trkpt lat="45.76605" lon="5.62174">
        <ele>357</ele>
        <time>2019-08-24T14:37:21.882Z</time>
      </trkpt>
      <trkpt lat="45.76608" lon="5.62173">
        <ele>357</ele>
        <time>2019-08-24T14:37:26.863Z</time>
      </trkpt>
      <trkpt lat="45.76613" lon="5.62171">
        <ele>357</ele>
        <time>2019-08-24T14:37:30.882Z</time>
      </trkpt>
      <trkpt lat="45.7662" lon="5.62166">
        <ele>357</ele>
        <time>2019-08-24T14:37:35.860Z</time>
      </trkpt>
      <trkpt lat="45.76625" lon="5.62162">
        <ele>358</ele>
        <time>2019-08-24T14:37:39.880Z</time>
      </trkpt>
      <trkpt lat="45.7663" lon="5.62159">
        <ele>358</ele>
        <time>2019-08-24T14:37:44.872Z</time>
      </trkpt>
      <trkpt lat="45.76637" lon="5.6216">
        <ele>358</ele>
        <time>2019-08-24T14:37:49.867Z</time>
      </trkpt>
      <trkpt lat="45.76645" lon="5.62163">
        <ele>358</ele>
        <time>2019-08-24T14:37:54.867Z</time>
      </trkpt>
      <trkpt lat="45.7665" lon="5.62164">
        <ele>358</ele>
        <time>2019-08-24T14:37:58.874Z</time>
      </trkpt>
      <trkpt lat="45.76658" lon="5.62166">
        <ele>359</ele>
        <time>2019-08-24T14:38:03.864Z</time>
      </trkpt>
      <trkpt lat="45.76663" lon="5.6217">
        <ele>359</ele>
        <time>2019-08-24T14:38:07.881Z</time>
      </trkpt>
      <trkpt lat="45.76668" lon="5.62178">
        <ele>359</ele>
        <time>2019-08-24T14:38:12.863Z</time>
      </trkpt>
      <trkpt lat="45.76672" lon="5.62186">
        <ele>358</ele>
        <time>2019-08-24T14:38:17.869Z</time>
      </trkpt>
      <trkpt lat="45.76678" lon="5.62193">
        <ele>358</ele>
        <time>2019-08-24T14:38:22.878Z</time>
      </trkpt>
      <trkpt lat="45.76683" lon="5.622">
        <ele>358</ele>
        <time>2019-08-24T14:38:27.888Z</time>
      </trkpt>
      <trkpt lat="45.76685" lon="5.62208">
        <ele>358</ele>
        <time>2019-08-24T14:38:32.874Z</time>
      </trkpt>
      <trkpt lat="45.76689" lon="5.62214">
        <ele>357</ele>
        <time>2019-08-24T14:38:37.883Z</time>
      </trkpt>
      <trkpt lat="45.76691" lon="5.62225">
        <ele>357</ele>
        <time>2019-08-24T14:38:42.859Z</time>
      </trkpt>
      <trkpt lat="45.76694" lon="5.62234">
        <ele>357</ele>
        <time>2019-08-24T14:38:47.856Z</time>
      </trkpt>
      <trkpt lat="45.76697" lon="5.62243">
        <ele>357</ele>
        <time>2019-08-24T14:38:52.854Z</time>
      </trkpt>
      <trkpt lat="45.76698" lon="5.6225">
        <ele>357</ele>
        <time>2019-08-24T14:38:56.875Z</time>
      </trkpt>
      <trkpt lat="45.767" lon="5.6226">
        <ele>357</ele>
        <time>2019-08-24T14:39:01.842Z</time>
      </trkpt>
      <trkpt lat="45.76699" lon="5.62268">
        <ele>356</ele>
        <time>2019-08-24T14:39:05.870Z</time>
      </trkpt>
      <trkpt lat="45.76698" lon="5.62276">
        <ele>356</ele>
        <time>2019-08-24T14:39:10.862Z</time>
      </trkpt>
      <trkpt lat="45.76696" lon="5.62286">
        <ele>356</ele>
        <time>2019-08-24T14:39:15.875Z</time>
      </trkpt>
      <trkpt lat="45.76691" lon="5.62295">
        <ele>356</ele>
        <time>2019-08-24T14:39:20.877Z</time>
      </trkpt>
      <trkpt lat="45.76685" lon="5.62302">
        <ele>356</ele>
        <time>2019-08-24T14:39:25.881Z</time>
      </trkpt>
      <trkpt lat="45.76678" lon="5.62307">
        <ele>355</ele>
        <time>2019-08-24T14:39:30.874Z</time>
      </trkpt>
      <trkpt lat="45.76673" lon="5.62312">
        <ele>355</ele>
        <time>2019-08-24T14:39:35.883Z</time>
      </trkpt>
      <trkpt lat="45.76667" lon="5.62317">
        <ele>355</ele>
        <time>2019-08-24T14:39:40.862Z</time>
      </trkpt>
      <trkpt lat="45.7666" lon="5.62323">
        <ele>355</ele>
        <time>2019-08-24T14:39:45.856Z</time>
      </trkpt>
      <trkpt lat="45.76656" lon="5.62327">
        <ele>355</ele>
        <time>2019-08-24T14:39:49.869Z</time>
      </trkpt>
      <trkpt lat="45.76651" lon="5.62331">
        <ele>354</ele>
        <time>2019-08-24T14:39:53.862Z</time>
      </trkpt>
      <trkpt lat="45.76645" lon="5.62338">
        <ele>354</ele>
        <time>2019-08-24T14:39:58.878Z</time>
      </trkpt>
      <trkpt lat="45.76638" lon="5.62345">
        <ele>354</ele>
        <time>2019-08-24T14:40:03.867Z</time>
      </trkpt>
      <trkpt lat="45.76633" lon="5.62349">
        <ele>354</ele>
        <time>2019-08-24T14:40:07.879Z</time>
      </trkpt>
      <trkpt lat="45.76629" lon="5.62352">
        <ele>354</ele>
        <time>2019-08-24T14:40:12.879Z</time>
      </trkpt>
      <trkpt lat="45.76629" lon="5.62352">
        <ele>354</ele>
        <time>2019-08-24T14:40:17.882Z</time>
      </trkpt>
      <trkpt lat="45.76625" lon="5.62356">
        <ele>354</ele>
        <time>2019-08-24T14:40:22.877Z</time>
      </trkpt>
      <trkpt lat="45.7662" lon="5.6236">
        <ele>355</ele>
        <time>2019-08-24T14:40:27.879Z</time>
      </trkpt>
      <trkpt lat="45.76614" lon="5.62364">
        <ele>355</ele>
        <time>2019-08-24T14:40:32.864Z</time>
      </trkpt>
      <trkpt lat="45.76608" lon="5.6237">
        <ele>355</ele>
        <time>2019-08-24T14:40:36.860Z</time>
      </trkpt>
      <trkpt lat="45.76605" lon="5.62373">
        <ele>355</ele>
        <time>2019-08-24T14:40:40.868Z</time>
      </trkpt>
      <trkpt lat="45.76599" lon="5.6238">
        <ele>354</ele>
        <time>2019-08-24T14:40:45.869Z</time>
      </trkpt>
      <trkpt lat="45.76593" lon="5.62386">
        <ele>355</ele>
        <time>2019-08-24T14:40:50.866Z</time>
      </trkpt>
      <trkpt lat="45.76589" lon="5.6239">
        <ele>355</ele>
        <time>2019-08-24T14:40:54.875Z</time>
      </trkpt>
      <trkpt lat="45.76582" lon="5.62394">
        <ele>355</ele>
        <time>2019-08-24T14:40:59.866Z</time>
      </trkpt>
      <trkpt lat="45.76576" lon="5.62398">
        <ele>355</ele>
        <time>2019-08-24T14:41:03.878Z</time>
      </trkpt>
      <trkpt lat="45.76569" lon="5.62404">
        <ele>354</ele>
        <time>2019-08-24T14:41:08.881Z</time>
      </trkpt>
      <trkpt lat="45.76563" lon="5.6241">
        <ele>354</ele>
        <time>2019-08-24T14:41:13.875Z</time>
      </trkpt>
      <trkpt lat="45.76556" lon="5.62416">
        <ele>354</ele>
        <time>2019-08-24T14:41:18.872Z</time>
      </trkpt>
      <trkpt lat="45.76552" lon="5.6242">
        <ele>354</ele>
        <time>2019-08-24T14:41:23.870Z</time>
      </trkpt>
      <trkpt lat="45.7655" lon="5.62423">
        <ele>354</ele>
        <time>2019-08-24T14:41:27.874Z</time>
      </trkpt>
      <trkpt lat="45.76542" lon="5.62429">
        <ele>354</ele>
        <time>2019-08-24T14:41:32.867Z</time>
      </trkpt>
      <trkpt lat="45.76536" lon="5.62436">
        <ele>353</ele>
        <time>2019-08-24T14:41:37.869Z</time>
      </trkpt>
      <trkpt lat="45.76529" lon="5.62442">
        <ele>353</ele>
        <time>2019-08-24T14:41:42.872Z</time>
      </trkpt>
      <trkpt lat="45.76523" lon="5.62445">
        <ele>353</ele>
        <time>2019-08-24T14:41:46.867Z</time>
      </trkpt>
      <trkpt lat="45.76517" lon="5.62452">
        <ele>353</ele>
        <time>2019-08-24T14:41:51.883Z</time>
      </trkpt>
      <trkpt lat="45.76513" lon="5.62456">
        <ele>354</ele>
        <time>2019-08-24T14:41:55.877Z</time>
      </trkpt>
      <trkpt lat="45.76508" lon="5.62462">
        <ele>354</ele>
        <time>2019-08-24T14:42:00.862Z</time>
      </trkpt>
      <trkpt lat="45.76501" lon="5.62468">
        <ele>354</ele>
        <time>2019-08-24T14:42:05.854Z</time>
      </trkpt>
      <trkpt lat="45.76495" lon="5.62474">
        <ele>354</ele>
        <time>2019-08-24T14:42:10.885Z</time>
      </trkpt>
      <trkpt lat="45.76488" lon="5.62479">
        <ele>354</ele>
        <time>2019-08-24T14:42:15.877Z</time>
      </trkpt>
      <trkpt lat="45.76483" lon="5.62484">
        <ele>355</ele>
        <time>2019-08-24T14:42:19.862Z</time>
      </trkpt>
      <trkpt lat="45.76475" lon="5.62491">
        <ele>354</ele>
        <time>2019-08-24T14:42:24.851Z</time>
      </trkpt>
      <trkpt lat="45.76469" lon="5.62498">
        <ele>354</ele>
        <time>2019-08-24T14:42:28.870Z</time>
      </trkpt>
      <trkpt lat="45.76462" lon="5.62504">
        <ele>354</ele>
        <time>2019-08-24T14:42:33.876Z</time>
      </trkpt>
      <trkpt lat="45.76455" lon="5.62511">
        <ele>354</ele>
        <time>2019-08-24T14:42:38.892Z</time>
      </trkpt>
      <trkpt lat="45.76448" lon="5.62516">
        <ele>352</ele>
        <time>2019-08-24T14:42:43.873Z</time>
      </trkpt>
      <trkpt lat="45.76442" lon="5.62522">
        <ele>352</ele>
        <time>2019-08-24T14:42:47.868Z</time>
      </trkpt>
      <trkpt lat="45.76435" lon="5.62527">
        <ele>352</ele>
        <time>2019-08-24T14:42:52.878Z</time>
      </trkpt>
      <trkpt lat="45.76428" lon="5.62532">
        <ele>351</ele>
        <time>2019-08-24T14:42:57.877Z</time>
      </trkpt>
      <trkpt lat="45.7642" lon="5.6254">
        <ele>351</ele>
        <time>2019-08-24T14:43:02.870Z</time>
      </trkpt>
      <trkpt lat="45.76413" lon="5.62547">
        <ele>350</ele>
        <time>2019-08-24T14:43:07.871Z</time>
      </trkpt>
      <trkpt lat="45.76406" lon="5.62552">
        <ele>350</ele>
        <time>2019-08-24T14:43:12.873Z</time>
      </trkpt>
      <trkpt lat="45.76401" lon="5.62557">
        <ele>349</ele>
        <time>2019-08-24T14:43:16.886Z</time>
      </trkpt>
      <trkpt lat="45.76395" lon="5.62562">
        <ele>349</ele>
        <time>2019-08-24T14:43:21.861Z</time>
      </trkpt>
      <trkpt lat="45.76387" lon="5.62566">
        <ele>349</ele>
        <time>2019-08-24T14:43:26.863Z</time>
      </trkpt>
      <trkpt lat="45.7638" lon="5.62571">
        <ele>349</ele>
        <time>2019-08-24T14:43:31.862Z</time>
      </trkpt>
      <trkpt lat="45.76374" lon="5.62577">
        <ele>349</ele>
        <time>2019-08-24T14:43:36.881Z</time>
      </trkpt>
      <trkpt lat="45.76368" lon="5.62581">
        <ele>349</ele>
        <time>2019-08-24T14:43:41.871Z</time>
      </trkpt>
      <trkpt lat="45.76362" lon="5.62583">
        <ele>349</ele>
        <time>2019-08-24T14:43:46.884Z</time>
      </trkpt>
      <trkpt lat="45.76354" lon="5.62586">
        <ele>349</ele>
        <time>2019-08-24T14:43:51.882Z</time>
      </trkpt>
      <trkpt lat="45.76348" lon="5.6259">
        <ele>349</ele>
        <time>2019-08-24T14:43:56.872Z</time>
      </trkpt>
      <trkpt lat="45.76341" lon="5.62595">
        <ele>349</ele>
        <time>2019-08-24T14:44:01.886Z</time>
      </trkpt>
      <trkpt lat="45.76335" lon="5.626">
        <ele>350</ele>
        <time>2019-08-24T14:44:06.872Z</time>
      </trkpt>
      <trkpt lat="45.76327" lon="5.62607">
        <ele>350</ele>
        <time>2019-08-24T14:44:11.875Z</time>
      </trkpt>
      <trkpt lat="45.76319" lon="5.62616">
        <ele>350</ele>
        <time>2019-08-24T14:44:16.869Z</time>
      </trkpt>
      <trkpt lat="45.76313" lon="5.62626">
        <ele>351</ele>
        <time>2019-08-24T14:44:21.855Z</time>
      </trkpt>
      <trkpt lat="45.76309" lon="5.62635">
        <ele>351</ele>
        <time>2019-08-24T14:44:26.865Z</time>
      </trkpt>
      <trkpt lat="45.76306" lon="5.62644">
        <ele>351</ele>
        <time>2019-08-24T14:44:30.869Z</time>
      </trkpt>
      <trkpt lat="45.76302" lon="5.62656">
        <ele>351</ele>
        <time>2019-08-24T14:44:35.859Z</time>
      </trkpt>
      <trkpt lat="45.76299" lon="5.62667">
        <ele>351</ele>
        <time>2019-08-24T14:44:40.870Z</time>
      </trkpt>
      <trkpt lat="45.76296" lon="5.62678">
        <ele>351</ele>
        <time>2019-08-24T14:44:45.871Z</time>
      </trkpt>
      <trkpt lat="45.76292" lon="5.62688">
        <ele>350</ele>
        <time>2019-08-24T14:44:50.878Z</time>
      </trkpt>
      <trkpt lat="45.76289" lon="5.62699">
        <ele>351</ele>
        <time>2019-08-24T14:44:55.885Z</time>
      </trkpt>
      <trkpt lat="45.76286" lon="5.6271">
        <ele>349</ele>
        <time>2019-08-24T14:45:00.879Z</time>
      </trkpt>
      <trkpt lat="45.76282" lon="5.62721">
        <ele>349</ele>
        <time>2019-08-24T14:45:05.859Z</time>
      </trkpt>
      <trkpt lat="45.7628" lon="5.62732">
        <ele>349</ele>
        <time>2019-08-24T14:45:10.880Z</time>
      </trkpt>
      <trkpt lat="45.76277" lon="5.62743">
        <ele>347</ele>
        <time>2019-08-24T14:45:15.867Z</time>
      </trkpt>
      <trkpt lat="45.76274" lon="5.62755">
        <ele>347</ele>
        <time>2019-08-24T14:45:20.866Z</time>
      </trkpt>
      <trkpt lat="45.7627" lon="5.62766">
        <ele>347</ele>
        <time>2019-08-24T14:45:25.851Z</time>
      </trkpt>
      <trkpt lat="45.76266" lon="5.62776">
        <ele>347</ele>
        <time>2019-08-24T14:45:30.849Z</time>
      </trkpt>
      <trkpt lat="45.76262" lon="5.62784">
        <ele>349</ele>
        <time>2019-08-24T14:45:34.859Z</time>
      </trkpt>
      <trkpt lat="45.76259" lon="5.62791">
        <ele>349</ele>
        <time>2019-08-24T14:45:38.875Z</time>
      </trkpt>
      <trkpt lat="45.76254" lon="5.62795">
        <ele>350</ele>
        <time>2019-08-24T14:45:42.880Z</time>
      </trkpt>
      <trkpt lat="45.76249" lon="5.62794">
        <ele>350</ele>
        <time>2019-08-24T14:45:47.870Z</time>
      </trkpt>
      <trkpt lat="45.76247" lon="5.62791">
        <ele>349</ele>
        <time>2019-08-24T14:45:52.872Z</time>
      </trkpt>
      <trkpt lat="45.7624" lon="5.62785">
        <ele>349</ele>
        <time>2019-08-24T14:45:57.864Z</time>
      </trkpt>
      <trkpt lat="45.76234" lon="5.6278">
        <ele>352</ele>
        <time>2019-08-24T14:46:02.872Z</time>
      </trkpt>
      <trkpt lat="45.76227" lon="5.62777">
        <ele>352</ele>
        <time>2019-08-24T14:46:07.857Z</time>
      </trkpt>
      <trkpt lat="45.7622" lon="5.62774">
        <ele>352</ele>
        <time>2019-08-24T14:46:12.851Z</time>
      </trkpt>
      <trkpt lat="45.76214" lon="5.62772">
        <ele>352</ele>
        <time>2019-08-24T14:46:17.861Z</time>
      </trkpt>
      <trkpt lat="45.76207" lon="5.62768">
        <ele>355</ele>
        <time>2019-08-24T14:46:22.875Z</time>
      </trkpt>
      <trkpt lat="45.762" lon="5.62762">
        <ele>353</ele>
        <time>2019-08-24T14:46:27.874Z</time>
      </trkpt>
      <trkpt lat="45.76193" lon="5.6276">
        <ele>353</ele>
        <time>2019-08-24T14:46:32.864Z</time>
      </trkpt>
      <trkpt lat="45.76187" lon="5.62757">
        <ele>353</ele>
        <time>2019-08-24T14:46:37.865Z</time>
      </trkpt>
      <trkpt lat="45.7618" lon="5.62749">
        <ele>357</ele>
        <time>2019-08-24T14:46:42.860Z</time>
      </trkpt>
      <trkpt lat="45.76176" lon="5.6274">
        <ele>357</ele>
        <time>2019-08-24T14:46:46.874Z</time>
      </trkpt>
      <trkpt lat="45.76174" lon="5.62728">
        <ele>355</ele>
        <time>2019-08-24T14:46:50.874Z</time>
      </trkpt>
      <trkpt lat="45.76172" lon="5.62717">
        <ele>355</ele>
        <time>2019-08-24T14:46:55.860Z</time>
      </trkpt>
      <trkpt lat="45.7617" lon="5.6271">
        <ele>355</ele>
        <time>2019-08-24T14:46:59.867Z</time>
      </trkpt>
      <trkpt lat="45.76169" lon="5.62702">
        <ele>353</ele>
        <time>2019-08-24T14:47:03.858Z</time>
      </trkpt>
      <trkpt lat="45.76166" lon="5.62694">
        <ele>353</ele>
        <time>2019-08-24T14:47:08.867Z</time>
      </trkpt>
      <trkpt lat="45.76163" lon="5.62689">
        <ele>353</ele>
        <time>2019-08-24T14:47:13.871Z</time>
      </trkpt>
      <trkpt lat="45.76157" lon="5.62683">
        <ele>353</ele>
        <time>2019-08-24T14:47:18.864Z</time>
      </trkpt>
      <trkpt lat="45.76151" lon="5.62679">
        <ele>354</ele>
        <time>2019-08-24T14:47:23.867Z</time>
      </trkpt>
      <trkpt lat="45.76145" lon="5.62675">
        <ele>354</ele>
        <time>2019-08-24T14:47:28.861Z</time>
      </trkpt>
      <trkpt lat="45.76141" lon="5.62671">
        <ele>354</ele>
        <time>2019-08-24T14:47:32.875Z</time>
      </trkpt>
      <trkpt lat="45.76135" lon="5.62666">
        <ele>354</ele>
        <time>2019-08-24T14:47:36.869Z</time>
      </trkpt>
      <trkpt lat="45.76127" lon="5.62658">
        <ele>354</ele>
        <time>2019-08-24T14:47:41.856Z</time>
      </trkpt>
      <trkpt lat="45.76122" lon="5.62654">
        <ele>356</ele>
        <time>2019-08-24T14:47:45.868Z</time>
      </trkpt>
      <trkpt lat="45.76117" lon="5.6265">
        <ele>353</ele>
        <time>2019-08-24T14:47:50.845Z</time>
      </trkpt>
      <trkpt lat="45.7611" lon="5.62647">
        <ele>353</ele>
        <time>2019-08-24T14:47:54.876Z</time>
      </trkpt>
      <trkpt lat="45.76104" lon="5.62643">
        <ele>353</ele>
        <time>2019-08-24T14:47:59.871Z</time>
      </trkpt>
      <trkpt lat="45.76099" lon="5.62637">
        <ele>353</ele>
        <time>2019-08-24T14:48:04.866Z</time>
      </trkpt>
      <trkpt lat="45.76096" lon="5.6263">
        <ele>355</ele>
        <time>2019-08-24T14:48:09.867Z</time>
      </trkpt>
      <trkpt lat="45.76093" lon="5.62623">
        <ele>353</ele>
        <time>2019-08-24T14:48:14.885Z</time>
      </trkpt>
      <trkpt lat="45.7609" lon="5.62615">
        <ele>353</ele>
        <time>2019-08-24T14:48:19.867Z</time>
      </trkpt>
      <trkpt lat="45.76086" lon="5.62605">
        <ele>353</ele>
        <time>2019-08-24T14:48:24.884Z</time>
      </trkpt>
      <trkpt lat="45.76079" lon="5.62595">
        <ele>351</ele>
        <time>2019-08-24T14:48:29.858Z</time>
      </trkpt>
      <trkpt lat="45.76074" lon="5.62588">
        <ele>351</ele>
        <time>2019-08-24T14:48:33.871Z</time>
      </trkpt>
      <trkpt lat="45.76068" lon="5.62581">
        <ele>353</ele>
        <time>2019-08-24T14:48:38.852Z</time>
      </trkpt>
      <trkpt lat="45.76063" lon="5.62576">
        <ele>353</ele>
        <time>2019-08-24T14:48:42.865Z</time>
      </trkpt>
      <trkpt lat="45.76058" lon="5.6257">
        <ele>353</ele>
        <time>2019-08-24T14:48:46.919Z</time>
      </trkpt>
      <trkpt lat="45.7605" lon="5.62561">
        <ele>351</ele>
        <time>2019-08-24T14:48:51.857Z</time>
      </trkpt>
      <trkpt lat="45.76043" lon="5.62554">
        <ele>351</ele>
        <time>2019-08-24T14:48:56.852Z</time>
      </trkpt>
      <trkpt lat="45.76038" lon="5.6255">
        <ele>353</ele>
        <time>2019-08-24T14:49:00.871Z</time>
      </trkpt>
      <trkpt lat="45.76035" lon="5.62547">
        <ele>353</ele>
        <time>2019-08-24T14:49:05.874Z</time>
      </trkpt>
      <trkpt lat="45.76032" lon="5.62545">
        <ele>353</ele>
        <time>2019-08-24T14:49:10.903Z</time>
      </trkpt>
      <trkpt lat="45.76026" lon="5.62541">
        <ele>349</ele>
        <time>2019-08-24T14:49:15.871Z</time>
      </trkpt>
      <trkpt lat="45.7602" lon="5.62538">
        <ele>349</ele>
        <time>2019-08-24T14:49:19.857Z</time>
      </trkpt>
      <trkpt lat="45.76007" lon="5.62533">
        <ele>349</ele>
        <time>2019-08-24T14:49:24.871Z</time>
      </trkpt>
      <trkpt lat="45.75988" lon="5.62533">
        <ele>349</ele>
        <time>2019-08-24T14:49:29.848Z</time>
      </trkpt>
      <trkpt lat="45.7598" lon="5.62531">
        <ele>350</ele>
        <time>2019-08-24T14:49:33.873Z</time>
      </trkpt>
      <trkpt lat="45.75955" lon="5.62528">
        <ele>350</ele>
        <time>2019-08-24T14:49:38.863Z</time>
      </trkpt>
      <trkpt lat="45.75941" lon="5.62523">
        <ele>350</ele>
        <time>2019-08-24T14:49:43.859Z</time>
      </trkpt>
      <trkpt lat="45.75934" lon="5.62522">
        <ele>350</ele>
        <time>2019-08-24T14:49:47.858Z</time>
      </trkpt>
      <trkpt lat="45.75927" lon="5.6252">
        <ele>353</ele>
        <time>2019-08-24T14:49:52.897Z</time>
      </trkpt>
      <trkpt lat="45.75923" lon="5.62518">
        <ele>353</ele>
        <time>2019-08-24T14:49:56.891Z</time>
      </trkpt>
      <trkpt lat="45.75916" lon="5.62516">
        <ele>353</ele>
        <time>2019-08-24T14:50:01.876Z</time>
      </trkpt>
      <trkpt lat="45.7591" lon="5.62516">
        <ele>353</ele>
        <time>2019-08-24T14:50:05.866Z</time>
      </trkpt>
      <trkpt lat="45.759" lon="5.62514">
        <ele>355</ele>
        <time>2019-08-24T14:50:10.860Z</time>
      </trkpt>
      <trkpt lat="45.75883" lon="5.62512">
        <ele>351</ele>
        <time>2019-08-24T14:50:14.871Z</time>
      </trkpt>
      <trkpt lat="45.75858" lon="5.62499">
        <ele>354</ele>
        <time>2019-08-24T14:50:19.872Z</time>
      </trkpt>
      <trkpt lat="45.7583" lon="5.62495">
        <ele>358</ele>
        <time>2019-08-24T14:50:24.864Z</time>
      </trkpt>
      <trkpt lat="45.75806" lon="5.62492">
        <ele>359</ele>
        <time>2019-08-24T14:50:28.862Z</time>
      </trkpt>
      <trkpt lat="45.75772" lon="5.62478">
        <ele>351</ele>
        <time>2019-08-24T14:50:33.877Z</time>
      </trkpt>
      <trkpt lat="45.75739" lon="5.62468">
        <ele>351</ele>
        <time>2019-08-24T14:50:38.870Z</time>
      </trkpt>
      <trkpt lat="45.75708" lon="5.62467">
        <ele>347</ele>
        <time>2019-08-24T14:50:43.877Z</time>
      </trkpt>
      <trkpt lat="45.75677" lon="5.6247">
        <ele>347</ele>
        <time>2019-08-24T14:50:48.858Z</time>
      </trkpt>
      <trkpt lat="45.75651" lon="5.6247">
        <ele>346</ele>
        <time>2019-08-24T14:50:52.866Z</time>
      </trkpt>
      <trkpt lat="45.75628" lon="5.62474">
        <ele>346</ele>
        <time>2019-08-24T14:50:56.881Z</time>
      </trkpt>
      <trkpt lat="45.75605" lon="5.62469">
        <ele>349</ele>
        <time>2019-08-24T14:51:01.870Z</time>
      </trkpt>
      <trkpt lat="45.75596" lon="5.62467">
        <ele>351</ele>
        <time>2019-08-24T14:51:06.832Z</time>
      </trkpt>
      <trkpt lat="45.75588" lon="5.62463">
        <ele>351</ele>
        <time>2019-08-24T14:51:10.856Z</time>
      </trkpt>
      <trkpt lat="45.75582" lon="5.6246">
        <ele>351</ele>
        <time>2019-08-24T14:51:14.853Z</time>
      </trkpt>
      <trkpt lat="45.75575" lon="5.62459">
        <ele>351</ele>
        <time>2019-08-24T14:51:18.869Z</time>
      </trkpt>
      <trkpt lat="45.7557" lon="5.62457">
        <ele>345</ele>
        <time>2019-08-24T14:51:23.856Z</time>
      </trkpt>
      <trkpt lat="45.7556" lon="5.62455">
        <ele>345</ele>
        <time>2019-08-24T14:51:27.866Z</time>
      </trkpt>
      <trkpt lat="45.75538" lon="5.62452">
        <ele>346</ele>
        <time>2019-08-24T14:51:32.851Z</time>
      </trkpt>
      <trkpt lat="45.75517" lon="5.62448">
        <ele>346</ele>
        <time>2019-08-24T14:51:37.860Z</time>
      </trkpt>
      <trkpt lat="45.75491" lon="5.62438">
        <ele>350</ele>
        <time>2019-08-24T14:51:42.859Z</time>
      </trkpt>
      <trkpt lat="45.75457" lon="5.62427">
        <ele>350</ele>
        <time>2019-08-24T14:51:47.856Z</time>
      </trkpt>
      <trkpt lat="45.75423" lon="5.6242">
        <ele>351</ele>
        <time>2019-08-24T14:51:52.841Z</time>
      </trkpt>
      <trkpt lat="45.75393" lon="5.62413">
        <ele>350</ele>
        <time>2019-08-24T14:51:57.862Z</time>
      </trkpt>
      <trkpt lat="45.75384" lon="5.62408">
        <ele>350</ele>
        <time>2019-08-24T14:52:01.851Z</time>
      </trkpt>
      <trkpt lat="45.75375" lon="5.62404">
        <ele>352</ele>
        <time>2019-08-24T14:52:06.860Z</time>
      </trkpt>
      <trkpt lat="45.75365" lon="5.62405">
        <ele>352</ele>
        <time>2019-08-24T14:52:11.858Z</time>
      </trkpt>
      <trkpt lat="45.75359" lon="5.62403">
        <ele>352</ele>
        <time>2019-08-24T14:52:15.856Z</time>
      </trkpt>
      <trkpt lat="45.75352" lon="5.62401">
        <ele>343</ele>
        <time>2019-08-24T14:52:20.872Z</time>
      </trkpt>
      <trkpt lat="45.75343" lon="5.62403">
        <ele>351</ele>
        <time>2019-08-24T14:52:25.860Z</time>
      </trkpt>
      <trkpt lat="45.75329" lon="5.62404">
        <ele>351</ele>
        <time>2019-08-24T14:52:30.857Z</time>
      </trkpt>
      <trkpt lat="45.75313" lon="5.62404">
        <ele>354</ele>
        <time>2019-08-24T14:52:34.864Z</time>
      </trkpt>
      <trkpt lat="45.75283" lon="5.62401">
        <ele>344</ele>
        <time>2019-08-24T14:52:39.864Z</time>
      </trkpt>
      <trkpt lat="45.75251" lon="5.62396">
        <ele>345</ele>
        <time>2019-08-24T14:52:44.854Z</time>
      </trkpt>
      <trkpt lat="45.75223" lon="5.62395">
        <ele>344</ele>
        <time>2019-08-24T14:52:48.864Z</time>
      </trkpt>
      <trkpt lat="45.75198" lon="5.62396">
        <ele>343</ele>
        <time>2019-08-24T14:52:52.850Z</time>
      </trkpt>
      <trkpt lat="45.75169" lon="5.62396">
        <ele>342</ele>
        <time>2019-08-24T14:52:57.848Z</time>
      </trkpt>
      <trkpt lat="45.75146" lon="5.62394">
        <ele>342</ele>
        <time>2019-08-24T14:53:01.872Z</time>
      </trkpt>
      <trkpt lat="45.75123" lon="5.62394">
        <ele>345</ele>
        <time>2019-08-24T14:53:05.871Z</time>
      </trkpt>
      <trkpt lat="45.75112" lon="5.62389">
        <ele>345</ele>
        <time>2019-08-24T14:53:10.851Z</time>
      </trkpt>
      <trkpt lat="45.75103" lon="5.62389">
        <ele>345</ele>
        <time>2019-08-24T14:53:14.855Z</time>
      </trkpt>
      <trkpt lat="45.75094" lon="5.62385">
        <ele>347</ele>
        <time>2019-08-24T14:53:19.864Z</time>
      </trkpt>
      <trkpt lat="45.75087" lon="5.62384">
        <ele>347</ele>
        <time>2019-08-24T14:53:24.875Z</time>
      </trkpt>
      <trkpt lat="45.75078" lon="5.62386">
        <ele>347</ele>
        <time>2019-08-24T14:53:29.859Z</time>
      </trkpt>
      <trkpt lat="45.75071" lon="5.62385">
        <ele>347</ele>
        <time>2019-08-24T14:53:33.856Z</time>
      </trkpt>
      <trkpt lat="45.75065" lon="5.62384">
        <ele>343</ele>
        <time>2019-08-24T14:53:37.875Z</time>
      </trkpt>
      <trkpt lat="45.75056" lon="5.62384">
        <ele>343</ele>
        <time>2019-08-24T14:53:42.851Z</time>
      </trkpt>
      <trkpt lat="45.75043" lon="5.62388">
        <ele>343</ele>
        <time>2019-08-24T14:53:47.876Z</time>
      </trkpt>
      <trkpt lat="45.75016" lon="5.62391">
        <ele>341</ele>
        <time>2019-08-24T14:53:52.852Z</time>
      </trkpt>
      <trkpt lat="45.74987" lon="5.62389">
        <ele>342</ele>
        <time>2019-08-24T14:53:57.868Z</time>
      </trkpt>
      <trkpt lat="45.74959" lon="5.62386">
        <ele>342</ele>
        <time>2019-08-24T14:54:02.857Z</time>
      </trkpt>
      <trkpt lat="45.74933" lon="5.62385">
        <ele>341</ele>
        <time>2019-08-24T14:54:07.855Z</time>
      </trkpt>
      <trkpt lat="45.74913" lon="5.62391">
        <ele>342</ele>
        <time>2019-08-24T14:54:11.875Z</time>
      </trkpt>
      <trkpt lat="45.74902" lon="5.62391">
        <ele>342</ele>
        <time>2019-08-24T14:54:16.871Z</time>
      </trkpt>
      <trkpt lat="45.74894" lon="5.62391">
        <ele>342</ele>
        <time>2019-08-24T14:54:20.865Z</time>
      </trkpt>
      <trkpt lat="45.74883" lon="5.6239">
        <ele>342</ele>
        <time>2019-08-24T14:54:25.867Z</time>
      </trkpt>
      <trkpt lat="45.74876" lon="5.62388">
        <ele>342</ele>
        <time>2019-08-24T14:54:30.868Z</time>
      </trkpt>
      <trkpt lat="45.74872" lon="5.62388">
        <ele>344</ele>
        <time>2019-08-24T14:54:34.848Z</time>
      </trkpt>
      <trkpt lat="45.74862" lon="5.62387">
        <ele>344</ele>
        <time>2019-08-24T14:54:39.865Z</time>
      </trkpt>
      <trkpt lat="45.74854" lon="5.62385">
        <ele>344</ele>
        <time>2019-08-24T14:54:44.861Z</time>
      </trkpt>
      <trkpt lat="45.74848" lon="5.62382">
        <ele>344</ele>
        <time>2019-08-24T14:54:49.849Z</time>
      </trkpt>
      <trkpt lat="45.74842" lon="5.6238">
        <ele>343</ele>
        <time>2019-08-24T14:54:53.865Z</time>
      </trkpt>
      <trkpt lat="45.74836" lon="5.62379">
        <ele>343</ele>
        <time>2019-08-24T14:54:57.863Z</time>
      </trkpt>
      <trkpt lat="45.7483" lon="5.62379">
        <ele>343</ele>
        <time>2019-08-24T14:55:02.854Z</time>
      </trkpt>
      <trkpt lat="45.74818" lon="5.62382">
        <ele>346</ele>
        <time>2019-08-24T14:55:07.863Z</time>
      </trkpt>
      <trkpt lat="45.74804" lon="5.62378">
        <ele>346</ele>
        <time>2019-08-24T14:55:12.853Z</time>
      </trkpt>
      <trkpt lat="45.74786" lon="5.62376">
        <ele>348</ele>
        <time>2019-08-24T14:55:17.848Z</time>
      </trkpt>
      <trkpt lat="45.74777" lon="5.62377">
        <ele>348</ele>
        <time>2019-08-24T14:55:21.867Z</time>
      </trkpt>
      <trkpt lat="45.74769" lon="5.62376">
        <ele>348</ele>
        <time>2019-08-24T14:55:25.862Z</time>
      </trkpt>
      <trkpt lat="45.74761" lon="5.62372">
        <ele>340</ele>
        <time>2019-08-24T14:55:30.862Z</time>
      </trkpt>
      <trkpt lat="45.74754" lon="5.62372">
        <ele>340</ele>
        <time>2019-08-24T14:55:35.863Z</time>
      </trkpt>
      <trkpt lat="45.74744" lon="5.62371">
        <ele>340</ele>
        <time>2019-08-24T14:55:40.856Z</time>
      </trkpt>
      <trkpt lat="45.74737" lon="5.62369">
        <ele>340</ele>
        <time>2019-08-24T14:55:45.847Z</time>
      </trkpt>
      <trkpt lat="45.7473" lon="5.62368">
        <ele>340</ele>
        <time>2019-08-24T14:55:49.849Z</time>
      </trkpt>
      <trkpt lat="45.74725" lon="5.62366">
        <ele>340</ele>
        <time>2019-08-24T14:55:53.870Z</time>
      </trkpt>
      <trkpt lat="45.74719" lon="5.62366">
        <ele>340</ele>
        <time>2019-08-24T14:55:58.859Z</time>
      </trkpt>
      <trkpt lat="45.74712" lon="5.62368">
        <ele>340</ele>
        <time>2019-08-24T14:56:03.850Z</time>
      </trkpt>
      <trkpt lat="45.74704" lon="5.62367">
        <ele>338</ele>
        <time>2019-08-24T14:56:08.846Z</time>
      </trkpt>
      <trkpt lat="45.74697" lon="5.62366">
        <ele>338</ele>
        <time>2019-08-24T14:56:13.851Z</time>
      </trkpt>
      <trkpt lat="45.7469" lon="5.62366">
        <ele>338</ele>
        <time>2019-08-24T14:56:18.861Z</time>
      </trkpt>
      <trkpt lat="45.74684" lon="5.62366">
        <ele>338</ele>
        <time>2019-08-24T14:56:22.863Z</time>
      </trkpt>
      <trkpt lat="45.74673" lon="5.62366">
        <ele>337</ele>
        <time>2019-08-24T14:56:27.835Z</time>
      </trkpt>
      <trkpt lat="45.74666" lon="5.62364">
        <ele>337</ele>
        <time>2019-08-24T14:56:31.866Z</time>
      </trkpt>
      <trkpt lat="45.74658" lon="5.62365">
        <ele>337</ele>
        <time>2019-08-24T14:56:36.859Z</time>
      </trkpt>
      <trkpt lat="45.74648" lon="5.62365">
        <ele>337</ele>
        <time>2019-08-24T14:56:41.848Z</time>
      </trkpt>
      <trkpt lat="45.74641" lon="5.62365">
        <ele>337</ele>
        <time>2019-08-24T14:56:46.852Z</time>
      </trkpt>
      <trkpt lat="45.74634" lon="5.62363">
        <ele>337</ele>
        <time>2019-08-24T14:56:51.853Z</time>
      </trkpt>
      <trkpt lat="45.74627" lon="5.62363">
        <ele>337</ele>
        <time>2019-08-24T14:56:56.858Z</time>
      </trkpt>
      <trkpt lat="45.74621" lon="5.62364">
        <ele>336</ele>
        <time>2019-08-24T14:57:00.851Z</time>
      </trkpt>
      <trkpt lat="45.74615" lon="5.62364">
        <ele>336</ele>
        <time>2019-08-24T14:57:05.856Z</time>
      </trkpt>
      <trkpt lat="45.74609" lon="5.62363">
        <ele>336</ele>
        <time>2019-08-24T14:57:10.860Z</time>
      </trkpt>
      <trkpt lat="45.74601" lon="5.62364">
        <ele>336</ele>
        <time>2019-08-24T14:57:15.854Z</time>
      </trkpt>
      <trkpt lat="45.7459" lon="5.62362">
        <ele>336</ele>
        <time>2019-08-24T14:57:20.851Z</time>
      </trkpt>
      <trkpt lat="45.74573" lon="5.62363">
        <ele>336</ele>
        <time>2019-08-24T14:57:24.864Z</time>
      </trkpt>
      <trkpt lat="45.74564" lon="5.62365">
        <ele>338</ele>
        <time>2019-08-24T14:57:28.861Z</time>
      </trkpt>
      <trkpt lat="45.74556" lon="5.62364">
        <ele>338</ele>
        <time>2019-08-24T14:57:33.874Z</time>
      </trkpt>
      <trkpt lat="45.74546" lon="5.62363">
        <ele>338</ele>
        <time>2019-08-24T14:57:38.858Z</time>
      </trkpt>
      <trkpt lat="45.74537" lon="5.62362">
        <ele>339</ele>
        <time>2019-08-24T14:57:43.849Z</time>
      </trkpt>
      <trkpt lat="45.74532" lon="5.62361">
        <ele>339</ele>
        <time>2019-08-24T14:57:47.862Z</time>
      </trkpt>
      <trkpt lat="45.74525" lon="5.62359">
        <ele>339</ele>
        <time>2019-08-24T14:57:52.940Z</time>
      </trkpt>
      <trkpt lat="45.74516" lon="5.62358">
        <ele>339</ele>
        <time>2019-08-24T14:57:57.863Z</time>
      </trkpt>
      <trkpt lat="45.7451" lon="5.62358">
        <ele>337</ele>
        <time>2019-08-24T14:58:02.868Z</time>
      </trkpt>
      <trkpt lat="45.74502" lon="5.62359">
        <ele>337</ele>
        <time>2019-08-24T14:58:07.859Z</time>
      </trkpt>
      <trkpt lat="45.74496" lon="5.62359">
        <ele>337</ele>
        <time>2019-08-24T14:58:12.838Z</time>
      </trkpt>
      <trkpt lat="45.74487" lon="5.62358">
        <ele>337</ele>
        <time>2019-08-24T14:58:16.850Z</time>
      </trkpt>
      <trkpt lat="45.74482" lon="5.62357">
        <ele>338</ele>
        <time>2019-08-24T14:58:20.856Z</time>
      </trkpt>
      <trkpt lat="45.74474" lon="5.62354">
        <ele>338</ele>
        <time>2019-08-24T14:58:25.839Z</time>
      </trkpt>
      <trkpt lat="45.74466" lon="5.62354">
        <ele>338</ele>
        <time>2019-08-24T14:58:30.868Z</time>
      </trkpt>
      <trkpt lat="45.74459" lon="5.62353">
        <ele>338</ele>
        <time>2019-08-24T14:58:35.857Z</time>
      </trkpt>
      <trkpt lat="45.74452" lon="5.62353">
        <ele>336</ele>
        <time>2019-08-24T14:58:40.851Z</time>
      </trkpt>
      <trkpt lat="45.74444" lon="5.62353">
        <ele>336</ele>
        <time>2019-08-24T14:58:45.853Z</time>
      </trkpt>
      <trkpt lat="45.74435" lon="5.62354">
        <ele>336</ele>
        <time>2019-08-24T14:58:50.846Z</time>
      </trkpt>
      <trkpt lat="45.74429" lon="5.62354">
        <ele>335</ele>
        <time>2019-08-24T14:58:54.864Z</time>
      </trkpt>
      <trkpt lat="45.74421" lon="5.62355">
        <ele>335</ele>
        <time>2019-08-24T14:58:59.850Z</time>
      </trkpt>
      <trkpt lat="45.74415" lon="5.62355">
        <ele>335</ele>
        <time>2019-08-24T14:59:04.853Z</time>
      </trkpt>
      <trkpt lat="45.74409" lon="5.62355">
        <ele>335</ele>
        <time>2019-08-24T14:59:09.860Z</time>
      </trkpt>
      <trkpt lat="45.74401" lon="5.62356">
        <ele>335</ele>
        <time>2019-08-24T14:59:14.859Z</time>
      </trkpt>
      <trkpt lat="45.74395" lon="5.6236">
        <ele>335</ele>
        <time>2019-08-24T14:59:19.844Z</time>
      </trkpt>
      <trkpt lat="45.74389" lon="5.62362">
        <ele>335</ele>
        <time>2019-08-24T14:59:23.855Z</time>
      </trkpt>
      <trkpt lat="45.74383" lon="5.62364">
        <ele>335</ele>
        <time>2019-08-24T14:59:28.839Z</time>
      </trkpt>
      <trkpt lat="45.74377" lon="5.62366">
        <ele>335</ele>
        <time>2019-08-24T14:59:32.861Z</time>
      </trkpt>
      <trkpt lat="45.74369" lon="5.6237">
        <ele>333</ele>
        <time>2019-08-24T14:59:37.851Z</time>
      </trkpt>
      <trkpt lat="45.74362" lon="5.62372">
        <ele>333</ele>
        <time>2019-08-24T14:59:42.844Z</time>
      </trkpt>
      <trkpt lat="45.74358" lon="5.62368">
        <ele>333</ele>
        <time>2019-08-24T14:59:46.849Z</time>
      </trkpt>
      <trkpt lat="45.74354" lon="5.62356">
        <ele>333</ele>
        <time>2019-08-24T14:59:51.852Z</time>
      </trkpt>
      <trkpt lat="45.74345" lon="5.6235">
        <ele>332</ele>
        <time>2019-08-24T14:59:56.856Z</time>
      </trkpt>
      <trkpt lat="45.74336" lon="5.62347">
        <ele>329</ele>
        <time>2019-08-24T15:00:01.852Z</time>
      </trkpt>
      <trkpt lat="45.74327" lon="5.62342">
        <ele>329</ele>
        <time>2019-08-24T15:00:06.849Z</time>
      </trkpt>
      <trkpt lat="45.74316" lon="5.62331">
        <ele>330</ele>
        <time>2019-08-24T15:00:11.850Z</time>
      </trkpt>
      <trkpt lat="45.74305" lon="5.62322">
        <ele>330</ele>
        <time>2019-08-24T15:00:16.848Z</time>
      </trkpt>
      <trkpt lat="45.74297" lon="5.62321">
        <ele>330</ele>
        <time>2019-08-24T15:00:21.840Z</time>
      </trkpt>
      <trkpt lat="45.74288" lon="5.62321">
        <ele>330</ele>
        <time>2019-08-24T15:00:26.864Z</time>
      </trkpt>
      <trkpt lat="45.7428" lon="5.62321">
        <ele>330</ele>
        <time>2019-08-24T15:00:31.849Z</time>
      </trkpt>
      <trkpt lat="45.74271" lon="5.6232">
        <ele>330</ele>
        <time>2019-08-24T15:00:36.855Z</time>
      </trkpt>
      <trkpt lat="45.74261" lon="5.62321">
        <ele>331</ele>
        <time>2019-08-24T15:00:41.845Z</time>
      </trkpt>
      <trkpt lat="45.74257" lon="5.62323">
        <ele>331</ele>
        <time>2019-08-24T15:00:45.855Z</time>
      </trkpt>
      <trkpt lat="45.74249" lon="5.62324">
        <ele>331</ele>
        <time>2019-08-24T15:00:50.850Z</time>
      </trkpt>
      <trkpt lat="45.74242" lon="5.62324">
        <ele>331</ele>
        <time>2019-08-24T15:00:55.842Z</time>
      </trkpt>
      <trkpt lat="45.74235" lon="5.62325">
        <ele>329</ele>
        <time>2019-08-24T15:00:59.851Z</time>
      </trkpt>
      <trkpt lat="45.74228" lon="5.62325">
        <ele>329</ele>
        <time>2019-08-24T15:01:04.836Z</time>
      </trkpt>
      <trkpt lat="45.74223" lon="5.62327">
        <ele>329</ele>
        <time>2019-08-24T15:01:08.843Z</time>
      </trkpt>
      <trkpt lat="45.74213" lon="5.62332">
        <ele>329</ele>
        <time>2019-08-24T15:01:13.847Z</time>
      </trkpt>
      <trkpt lat="45.74206" lon="5.62333">
        <ele>328</ele>
        <time>2019-08-24T15:01:18.845Z</time>
      </trkpt>
      <trkpt lat="45.74199" lon="5.62334">
        <ele>328</ele>
        <time>2019-08-24T15:01:23.845Z</time>
      </trkpt>
      <trkpt lat="45.74194" lon="5.62338">
        <ele>328</ele>
        <time>2019-08-24T15:01:27.854Z</time>
      </trkpt>
      <trkpt lat="45.74189" lon="5.62343">
        <ele>328</ele>
        <time>2019-08-24T15:01:32.862Z</time>
      </trkpt>
      <trkpt lat="45.74183" lon="5.62348">
        <ele>331</ele>
        <time>2019-08-24T15:01:37.848Z</time>
      </trkpt>
      <trkpt lat="45.74175" lon="5.62355">
        <ele>332</ele>
        <time>2019-08-24T15:01:42.838Z</time>
      </trkpt>
      <trkpt lat="45.74167" lon="5.62358">
        <ele>332</ele>
        <time>2019-08-24T15:01:46.856Z</time>
      </trkpt>
      <trkpt lat="45.74158" lon="5.62356">
        <ele>332</ele>
        <time>2019-08-24T15:01:51.824Z</time>
      </trkpt>
      <trkpt lat="45.74151" lon="5.62353">
        <ele>330</ele>
        <time>2019-08-24T15:01:55.838Z</time>
      </trkpt>
      <trkpt lat="45.74144" lon="5.6235">
        <ele>330</ele>
        <time>2019-08-24T15:02:00.843Z</time>
      </trkpt>
      <trkpt lat="45.74135" lon="5.62348">
        <ele>330</ele>
        <time>2019-08-24T15:02:05.854Z</time>
      </trkpt>
      <trkpt lat="45.74133" lon="5.62347">
        <ele>326</ele>
        <time>2019-08-24T15:02:10.842Z</time>
      </trkpt>
      <trkpt lat="45.74127" lon="5.62346">
        <ele>326</ele>
        <time>2019-08-24T15:02:15.838Z</time>
      </trkpt>
      <trkpt lat="45.7412" lon="5.62348">
        <ele>329</ele>
        <time>2019-08-24T15:02:20.844Z</time>
      </trkpt>
      <trkpt lat="45.74112" lon="5.6235">
        <ele>329</ele>
        <time>2019-08-24T15:02:24.857Z</time>
      </trkpt>
      <trkpt lat="45.74086" lon="5.62344">
        <ele>326</ele>
        <time>2019-08-24T15:02:29.842Z</time>
      </trkpt>
      <trkpt lat="45.74055" lon="5.62327">
        <ele>326</ele>
        <time>2019-08-24T15:02:34.847Z</time>
      </trkpt>
      <trkpt lat="45.74027" lon="5.62307">
        <ele>325</ele>
        <time>2019-08-24T15:02:38.841Z</time>
      </trkpt>
      <trkpt lat="45.74011" lon="5.62291">
        <ele>326</ele>
        <time>2019-08-24T15:02:43.861Z</time>
      </trkpt>
      <trkpt lat="45.74006" lon="5.62285">
        <ele>326</ele>
        <time>2019-08-24T15:02:48.843Z</time>
      </trkpt>
      <trkpt lat="45.74004" lon="5.62276">
        <ele>326</ele>
        <time>2019-08-24T15:02:53.839Z</time>
      </trkpt>
      <trkpt lat="45.74005" lon="5.6227">
        <ele>326</ele>
        <time>2019-08-24T15:02:58.847Z</time>
      </trkpt>
      <trkpt lat="45.74004" lon="5.62261">
        <ele>327</ele>
        <time>2019-08-24T15:03:02.850Z</time>
      </trkpt>
      <trkpt lat="45.74004" lon="5.62251">
        <ele>327</ele>
        <time>2019-08-24T15:03:07.848Z</time>
      </trkpt>
      <trkpt lat="45.74005" lon="5.62239">
        <ele>327</ele>
        <time>2019-08-24T15:03:12.851Z</time>
      </trkpt>
      <trkpt lat="45.74008" lon="5.62222">
        <ele>327</ele>
        <time>2019-08-24T15:03:17.852Z</time>
      </trkpt>
      <trkpt lat="45.74011" lon="5.62212">
        <ele>327</ele>
        <time>2019-08-24T15:03:22.848Z</time>
      </trkpt>
      <trkpt lat="45.74005" lon="5.62208">
        <ele>327</ele>
        <time>2019-08-24T15:03:27.891Z</time>
      </trkpt>
      <trkpt lat="45.74005" lon="5.62195">
        <ele>327</ele>
        <time>2019-08-24T15:03:32.851Z</time>
      </trkpt>
      <trkpt lat="45.74008" lon="5.62187">
        <ele>327</ele>
        <time>2019-08-24T15:03:36.848Z</time>
      </trkpt>
      <trkpt lat="45.74011" lon="5.62183">
        <ele>327</ele>
        <time>2019-08-24T15:03:41.862Z</time>
      </trkpt>
      <trkpt lat="45.74008" lon="5.62179">
        <ele>328</ele>
        <time>2019-08-24T15:03:46.845Z</time>
      </trkpt>
      <trkpt lat="45.74001" lon="5.62178">
        <ele>328</ele>
        <time>2019-08-24T15:03:50.860Z</time>
      </trkpt>
      <trkpt lat="45.73995" lon="5.62178">
        <ele>328</ele>
        <time>2019-08-24T15:03:55.849Z</time>
      </trkpt>
      <trkpt lat="45.73988" lon="5.62179">
        <ele>328</ele>
        <time>2019-08-24T15:03:59.849Z</time>
      </trkpt>
      <trkpt lat="45.73981" lon="5.62178">
        <ele>327</ele>
        <time>2019-08-24T15:04:04.855Z</time>
      </trkpt>
      <trkpt lat="45.73974" lon="5.62181">
        <ele>327</ele>
        <time>2019-08-24T15:04:08.853Z</time>
      </trkpt>
      <trkpt lat="45.73966" lon="5.62182">
        <ele>327</ele>
        <time>2019-08-24T15:04:13.852Z</time>
      </trkpt>
      <trkpt lat="45.73961" lon="5.62183">
        <ele>327</ele>
        <time>2019-08-24T15:04:17.859Z</time>
      </trkpt>
      <trkpt lat="45.73954" lon="5.62182">
        <ele>326</ele>
        <time>2019-08-24T15:04:22.835Z</time>
      </trkpt>
      <trkpt lat="45.73948" lon="5.62183">
        <ele>326</ele>
        <time>2019-08-24T15:04:26.864Z</time>
      </trkpt>
      <trkpt lat="45.7394" lon="5.62184">
        <ele>326</ele>
        <time>2019-08-24T15:04:31.853Z</time>
      </trkpt>
      <trkpt lat="45.73933" lon="5.62185">
        <ele>326</ele>
        <time>2019-08-24T15:04:36.855Z</time>
      </trkpt>
      <trkpt lat="45.73928" lon="5.62185">
        <ele>325</ele>
        <time>2019-08-24T15:04:40.858Z</time>
      </trkpt>
      <trkpt lat="45.73921" lon="5.62186">
        <ele>325</ele>
        <time>2019-08-24T15:04:45.857Z</time>
      </trkpt>
      <trkpt lat="45.73913" lon="5.62187">
        <ele>325</ele>
        <time>2019-08-24T15:04:50.856Z</time>
      </trkpt>
      <trkpt lat="45.73909" lon="5.62187">
        <ele>325</ele>
        <time>2019-08-24T15:04:54.874Z</time>
      </trkpt>
      <trkpt lat="45.73903" lon="5.62186">
        <ele>325</ele>
        <time>2019-08-24T15:04:59.865Z</time>
      </trkpt>
      <trkpt lat="45.73896" lon="5.62184">
        <ele>325</ele>
        <time>2019-08-24T15:05:04.863Z</time>
      </trkpt>
      <trkpt lat="45.73886" lon="5.62182">
        <ele>325</ele>
        <time>2019-08-24T15:05:09.875Z</time>
      </trkpt>
      <trkpt lat="45.73877" lon="5.62178">
        <ele>326</ele>
        <time>2019-08-24T15:05:14.867Z</time>
      </trkpt>
      <trkpt lat="45.73869" lon="5.62176">
        <ele>326</ele>
        <time>2019-08-24T15:05:19.857Z</time>
      </trkpt>
      <trkpt lat="45.73862" lon="5.62175">
        <ele>326</ele>
        <time>2019-08-24T15:05:24.862Z</time>
      </trkpt>
      <trkpt lat="45.73854" lon="5.62174">
        <ele>326</ele>
        <time>2019-08-24T15:05:29.849Z</time>
      </trkpt>
      <trkpt lat="45.73847" lon="5.62173">
        <ele>325</ele>
        <time>2019-08-24T15:05:33.848Z</time>
      </trkpt>
      <trkpt lat="45.7384" lon="5.62172">
        <ele>325</ele>
        <time>2019-08-24T15:05:38.850Z</time>
      </trkpt>
      <trkpt lat="45.73832" lon="5.6217">
        <ele>325</ele>
        <time>2019-08-24T15:05:43.858Z</time>
      </trkpt>
      <trkpt lat="45.73825" lon="5.62168">
        <ele>325</ele>
        <time>2019-08-24T15:05:48.857Z</time>
      </trkpt>
      <trkpt lat="45.73818" lon="5.62166">
        <ele>324</ele>
        <time>2019-08-24T15:05:53.852Z</time>
      </trkpt>
      <trkpt lat="45.7381" lon="5.62165">
        <ele>324</ele>
        <time>2019-08-24T15:05:58.871Z</time>
      </trkpt>
      <trkpt lat="45.73803" lon="5.62163">
        <ele>324</ele>
        <time>2019-08-24T15:06:03.863Z</time>
      </trkpt>
      <trkpt lat="45.73797" lon="5.62162">
        <ele>324</ele>
        <time>2019-08-24T15:06:07.857Z</time>
      </trkpt>
      <trkpt lat="45.7379" lon="5.6216">
        <ele>324</ele>
        <time>2019-08-24T15:06:12.862Z</time>
      </trkpt>
      <trkpt lat="45.73785" lon="5.62159">
        <ele>324</ele>
        <time>2019-08-24T15:06:16.853Z</time>
      </trkpt>
      <trkpt lat="45.7378" lon="5.62157">
        <ele>324</ele>
        <time>2019-08-24T15:06:20.868Z</time>
      </trkpt>
      <trkpt lat="45.73772" lon="5.62156">
        <ele>324</ele>
        <time>2019-08-24T15:06:25.854Z</time>
      </trkpt>
      <trkpt lat="45.73766" lon="5.62155">
        <ele>324</ele>
        <time>2019-08-24T15:06:29.853Z</time>
      </trkpt>
      <trkpt lat="45.7376" lon="5.62154">
        <ele>324</ele>
        <time>2019-08-24T15:06:34.875Z</time>
      </trkpt>
      <trkpt lat="45.73752" lon="5.62151">
        <ele>326</ele>
        <time>2019-08-24T15:06:39.864Z</time>
      </trkpt>
      <trkpt lat="45.73745" lon="5.6215">
        <ele>326</ele>
        <time>2019-08-24T15:06:43.863Z</time>
      </trkpt>
      <trkpt lat="45.73737" lon="5.62151">
        <ele>326</ele>
        <time>2019-08-24T15:06:48.854Z</time>
      </trkpt>
      <trkpt lat="45.73729" lon="5.62149">
        <ele>326</ele>
        <time>2019-08-24T15:06:53.872Z</time>
      </trkpt>
      <trkpt lat="45.73721" lon="5.62149">
        <ele>326</ele>
        <time>2019-08-24T15:06:58.857Z</time>
      </trkpt>
      <trkpt lat="45.73715" lon="5.62148">
        <ele>326</ele>
        <time>2019-08-24T15:07:03.861Z</time>
      </trkpt>
      <trkpt lat="45.73709" lon="5.62148">
        <ele>326</ele>
        <time>2019-08-24T15:07:07.862Z</time>
      </trkpt>
      <trkpt lat="45.73703" lon="5.62147">
        <ele>325</ele>
        <time>2019-08-24T15:07:12.867Z</time>
      </trkpt>
      <trkpt lat="45.73696" lon="5.62146">
        <ele>325</ele>
        <time>2019-08-24T15:07:17.870Z</time>
      </trkpt>
      <trkpt lat="45.73689" lon="5.62144">
        <ele>325</ele>
        <time>2019-08-24T15:07:22.860Z</time>
      </trkpt>
      <trkpt lat="45.73684" lon="5.62141">
        <ele>325</ele>
        <time>2019-08-24T15:07:26.865Z</time>
      </trkpt>
      <trkpt lat="45.73677" lon="5.6214">
        <ele>326</ele>
        <time>2019-08-24T15:07:31.847Z</time>
      </trkpt>
      <trkpt lat="45.7367" lon="5.6214">
        <ele>326</ele>
        <time>2019-08-24T15:07:36.890Z</time>
      </trkpt>
      <trkpt lat="45.73664" lon="5.6214">
        <ele>326</ele>
        <time>2019-08-24T15:07:41.867Z</time>
      </trkpt>
      <trkpt lat="45.73659" lon="5.6214">
        <ele>326</ele>
        <time>2019-08-24T15:07:45.867Z</time>
      </trkpt>
      <trkpt lat="45.73651" lon="5.62143">
        <ele>326</ele>
        <time>2019-08-24T15:07:50.865Z</time>
      </trkpt>
      <trkpt lat="45.73642" lon="5.62143">
        <ele>326</ele>
        <time>2019-08-24T15:07:55.877Z</time>
      </trkpt>
      <trkpt lat="45.73634" lon="5.62142">
        <ele>326</ele>
        <time>2019-08-24T15:08:00.861Z</time>
      </trkpt>
      <trkpt lat="45.73629" lon="5.62143">
        <ele>326</ele>
        <time>2019-08-24T15:08:04.870Z</time>
      </trkpt>
      <trkpt lat="45.73622" lon="5.62143">
        <ele>327</ele>
        <time>2019-08-24T15:08:09.865Z</time>
      </trkpt>
      <trkpt lat="45.73615" lon="5.62142">
        <ele>327</ele>
        <time>2019-08-24T15:08:14.863Z</time>
      </trkpt>
      <trkpt lat="45.73608" lon="5.6214">
        <ele>327</ele>
        <time>2019-08-24T15:08:19.872Z</time>
      </trkpt>
      <trkpt lat="45.73599" lon="5.62142">
        <ele>327</ele>
        <time>2019-08-24T15:08:24.860Z</time>
      </trkpt>
      <trkpt lat="45.73596" lon="5.6214">
        <ele>328</ele>
        <time>2019-08-24T15:08:29.862Z</time>
      </trkpt>
      <trkpt lat="45.73589" lon="5.62139">
        <ele>328</ele>
        <time>2019-08-24T15:08:34.866Z</time>
      </trkpt>
      <trkpt lat="45.73583" lon="5.62137">
        <ele>328</ele>
        <time>2019-08-24T15:08:39.858Z</time>
      </trkpt>
      <trkpt lat="45.73577" lon="5.62136">
        <ele>328</ele>
        <time>2019-08-24T15:08:43.867Z</time>
      </trkpt>
      <trkpt lat="45.73569" lon="5.62137">
        <ele>329</ele>
        <time>2019-08-24T15:08:48.855Z</time>
      </trkpt>
      <trkpt lat="45.73563" lon="5.62135">
        <ele>329</ele>
        <time>2019-08-24T15:08:52.860Z</time>
      </trkpt>
      <trkpt lat="45.73556" lon="5.62134">
        <ele>329</ele>
        <time>2019-08-24T15:08:57.860Z</time>
      </trkpt>
      <trkpt lat="45.73551" lon="5.62132">
        <ele>329</ele>
        <time>2019-08-24T15:09:01.874Z</time>
      </trkpt>
      <trkpt lat="45.73545" lon="5.6213">
        <ele>329</ele>
        <time>2019-08-24T15:09:06.866Z</time>
      </trkpt>
      <trkpt lat="45.73539" lon="5.62129">
        <ele>328</ele>
        <time>2019-08-24T15:09:11.865Z</time>
      </trkpt>
      <trkpt lat="45.73531" lon="5.62129">
        <ele>328</ele>
        <time>2019-08-24T15:09:16.842Z</time>
      </trkpt>
      <trkpt lat="45.73524" lon="5.62129">
        <ele>328</ele>
        <time>2019-08-24T15:09:21.853Z</time>
      </trkpt>
      <trkpt lat="45.73519" lon="5.6213">
        <ele>328</ele>
        <time>2019-08-24T15:09:25.852Z</time>
      </trkpt>
      <trkpt lat="45.73512" lon="5.62132">
        <ele>328</ele>
        <time>2019-08-24T15:09:30.869Z</time>
      </trkpt>
      <trkpt lat="45.73506" lon="5.62133">
        <ele>328</ele>
        <time>2019-08-24T15:09:35.869Z</time>
      </trkpt>
      <trkpt lat="45.735" lon="5.62133">
        <ele>328</ele>
        <time>2019-08-24T15:09:40.865Z</time>
      </trkpt>
      <trkpt lat="45.73493" lon="5.62134">
        <ele>328</ele>
        <time>2019-08-24T15:09:45.876Z</time>
      </trkpt>
      <trkpt lat="45.73485" lon="5.62135">
        <ele>329</ele>
        <time>2019-08-24T15:09:50.878Z</time>
      </trkpt>
      <trkpt lat="45.73477" lon="5.62134">
        <ele>329</ele>
        <time>2019-08-24T15:09:55.857Z</time>
      </trkpt>
      <trkpt lat="45.73471" lon="5.62132">
        <ele>329</ele>
        <time>2019-08-24T15:09:59.877Z</time>
      </trkpt>
      <trkpt lat="45.73466" lon="5.62131">
        <ele>329</ele>
        <time>2019-08-24T15:10:04.856Z</time>
      </trkpt>
      <trkpt lat="45.7346" lon="5.62129">
        <ele>329</ele>
        <time>2019-08-24T15:10:09.878Z</time>
      </trkpt>
      <trkpt lat="45.73454" lon="5.62128">
        <ele>329</ele>
        <time>2019-08-24T15:10:14.875Z</time>
      </trkpt>
      <trkpt lat="45.73447" lon="5.62127">
        <ele>329</ele>
        <time>2019-08-24T15:10:19.867Z</time>
      </trkpt>
      <trkpt lat="45.73442" lon="5.62124">
        <ele>330</ele>
        <time>2019-08-24T15:10:23.859Z</time>
      </trkpt>
      <trkpt lat="45.73434" lon="5.62123">
        <ele>330</ele>
        <time>2019-08-24T15:10:28.861Z</time>
      </trkpt>
      <trkpt lat="45.73427" lon="5.6212">
        <ele>330</ele>
        <time>2019-08-24T15:10:33.885Z</time>
      </trkpt>
      <trkpt lat="45.73422" lon="5.62119">
        <ele>330</ele>
        <time>2019-08-24T15:10:38.861Z</time>
      </trkpt>
      <trkpt lat="45.73414" lon="5.62117">
        <ele>330</ele>
        <time>2019-08-24T15:10:43.865Z</time>
      </trkpt>
      <trkpt lat="45.73407" lon="5.62117">
        <ele>330</ele>
        <time>2019-08-24T15:10:48.879Z</time>
      </trkpt>
      <trkpt lat="45.734" lon="5.62117">
        <ele>328</ele>
        <time>2019-08-24T15:10:53.853Z</time>
      </trkpt>
      <trkpt lat="45.73394" lon="5.62116">
        <ele>328</ele>
        <time>2019-08-24T15:10:57.866Z</time>
      </trkpt>
      <trkpt lat="45.73388" lon="5.62115">
        <ele>328</ele>
        <time>2019-08-24T15:11:02.868Z</time>
      </trkpt>
      <trkpt lat="45.73382" lon="5.62113">
        <ele>328</ele>
        <time>2019-08-24T15:11:07.878Z</time>
      </trkpt>
      <trkpt lat="45.73376" lon="5.62112">
        <ele>328</ele>
        <time>2019-08-24T15:11:12.868Z</time>
      </trkpt>
      <trkpt lat="45.73371" lon="5.62111">
        <ele>328</ele>
        <time>2019-08-24T15:11:16.865Z</time>
      </trkpt>
      <trkpt lat="45.73364" lon="5.6211">
        <ele>328</ele>
        <time>2019-08-24T15:11:21.883Z</time>
      </trkpt>
      <trkpt lat="45.73359" lon="5.62111">
        <ele>328</ele>
        <time>2019-08-24T15:11:26.865Z</time>
      </trkpt>
      <trkpt lat="45.73353" lon="5.62113">
        <ele>328</ele>
        <time>2019-08-24T15:11:31.861Z</time>
      </trkpt>
      <trkpt lat="45.73347" lon="5.62112">
        <ele>328</ele>
        <time>2019-08-24T15:11:36.848Z</time>
      </trkpt>
      <trkpt lat="45.73346" lon="5.62112">
        <ele>327</ele>
        <time>2019-08-24T15:11:40.882Z</time>
      </trkpt>
      <trkpt lat="45.73342" lon="5.62115">
        <ele>327</ele>
        <time>2019-08-24T15:11:45.863Z</time>
      </trkpt>
      <trkpt lat="45.73335" lon="5.6212">
        <ele>327</ele>
        <time>2019-08-24T15:11:50.853Z</time>
      </trkpt>
      <trkpt lat="45.73329" lon="5.62123">
        <ele>327</ele>
        <time>2019-08-24T15:11:55.862Z</time>
      </trkpt>
      <trkpt lat="45.73324" lon="5.62125">
        <ele>325</ele>
        <time>2019-08-24T15:11:59.859Z</time>
      </trkpt>
      <trkpt lat="45.73319" lon="5.62127">
        <ele>326</ele>
        <time>2019-08-24T15:12:03.871Z</time>
      </trkpt>
      <trkpt lat="45.73315" lon="5.62134">
        <ele>326</ele>
        <time>2019-08-24T15:12:08.855Z</time>
      </trkpt>
      <trkpt lat="45.73312" lon="5.62141">
        <ele>326</ele>
        <time>2019-08-24T15:12:13.862Z</time>
      </trkpt>
      <trkpt lat="45.7331" lon="5.62148">
        <ele>326</ele>
        <time>2019-08-24T15:12:18.843Z</time>
      </trkpt>
      <trkpt lat="45.73308" lon="5.62155">
        <ele>325</ele>
        <time>2019-08-24T15:12:22.866Z</time>
      </trkpt>
      <trkpt lat="45.73306" lon="5.62163">
        <ele>325</ele>
        <time>2019-08-24T15:12:26.860Z</time>
      </trkpt>
      <trkpt lat="45.73305" lon="5.62166">
        <ele>325</ele>
        <time>2019-08-24T15:12:31.869Z</time>
      </trkpt>
      <trkpt lat="45.73302" lon="5.62173">
        <ele>325</ele>
        <time>2019-08-24T15:12:36.863Z</time>
      </trkpt>
      <trkpt lat="45.73304" lon="5.62181">
        <ele>324</ele>
        <time>2019-08-24T15:12:41.856Z</time>
      </trkpt>
      <trkpt lat="45.73305" lon="5.62189">
        <ele>324</ele>
        <time>2019-08-24T15:12:46.864Z</time>
      </trkpt>
      <trkpt lat="45.73308" lon="5.62196">
        <ele>324</ele>
        <time>2019-08-24T15:12:51.871Z</time>
      </trkpt>
      <trkpt lat="45.73309" lon="5.62203">
        <ele>324</ele>
        <time>2019-08-24T15:12:55.856Z</time>
      </trkpt>
      <trkpt lat="45.73311" lon="5.62212">
        <ele>324</ele>
        <time>2019-08-24T15:13:00.865Z</time>
      </trkpt>
      <trkpt lat="45.73311" lon="5.6222">
        <ele>324</ele>
        <time>2019-08-24T15:13:04.881Z</time>
      </trkpt>
      <trkpt lat="45.73311" lon="5.6223">
        <ele>324</ele>
        <time>2019-08-24T15:13:09.855Z</time>
      </trkpt>
      <trkpt lat="45.73311" lon="5.62239">
        <ele>324</ele>
        <time>2019-08-24T15:13:14.863Z</time>
      </trkpt>
      <trkpt lat="45.73312" lon="5.62247">
        <ele>324</ele>
        <time>2019-08-24T15:13:18.859Z</time>
      </trkpt>
      <trkpt lat="45.73313" lon="5.62253">
        <ele>324</ele>
        <time>2019-08-24T15:13:23.854Z</time>
      </trkpt>
      <trkpt lat="45.73315" lon="5.62258">
        <ele>324</ele>
        <time>2019-08-24T15:13:27.854Z</time>
      </trkpt>
      <trkpt lat="45.73314" lon="5.62267">
        <ele>324</ele>
        <time>2019-08-24T15:13:32.870Z</time>
      </trkpt>
      <trkpt lat="45.73315" lon="5.62278">
        <ele>324</ele>
        <time>2019-08-24T15:13:37.847Z</time>
      </trkpt>
      <trkpt lat="45.73315" lon="5.62283">
        <ele>324</ele>
        <time>2019-08-24T15:13:41.870Z</time>
      </trkpt>
      <trkpt lat="45.73316" lon="5.62291">
        <ele>324</ele>
        <time>2019-08-24T15:13:46.867Z</time>
      </trkpt>
      <trkpt lat="45.73318" lon="5.62299">
        <ele>324</ele>
        <time>2019-08-24T15:13:50.872Z</time>
      </trkpt>
      <trkpt lat="45.73319" lon="5.62308">
        <ele>324</ele>
        <time>2019-08-24T15:13:55.847Z</time>
      </trkpt>
      <trkpt lat="45.7332" lon="5.62316">
        <ele>324</ele>
        <time>2019-08-24T15:13:59.864Z</time>
      </trkpt>
      <trkpt lat="45.73321" lon="5.62325">
        <ele>325</ele>
        <time>2019-08-24T15:14:04.871Z</time>
      </trkpt>
      <trkpt lat="45.7332" lon="5.62331">
        <ele>325</ele>
        <time>2019-08-24T15:14:09.868Z</time>
      </trkpt>
      <trkpt lat="45.7332" lon="5.62338">
        <ele>325</ele>
        <time>2019-08-24T15:14:14.864Z</time>
      </trkpt>
      <trkpt lat="45.73322" lon="5.62347">
        <ele>325</ele>
        <time>2019-08-24T15:14:19.854Z</time>
      </trkpt>
      <trkpt lat="45.73322" lon="5.62359">
        <ele>325</ele>
        <time>2019-08-24T15:14:24.864Z</time>
      </trkpt>
      <trkpt lat="45.73322" lon="5.62371">
        <ele>325</ele>
        <time>2019-08-24T15:14:29.855Z</time>
      </trkpt>
      <trkpt lat="45.73322" lon="5.62379">
        <ele>325</ele>
        <time>2019-08-24T15:14:34.881Z</time>
      </trkpt>
      <trkpt lat="45.73323" lon="5.62386">
        <ele>325</ele>
        <time>2019-08-24T15:14:39.846Z</time>
      </trkpt>
      <trkpt lat="45.73323" lon="5.62392">
        <ele>325</ele>
        <time>2019-08-24T15:14:43.855Z</time>
      </trkpt>
      <trkpt lat="45.73325" lon="5.62399">
        <ele>325</ele>
        <time>2019-08-24T15:14:47.856Z</time>
      </trkpt>
      <trkpt lat="45.73325" lon="5.62409">
        <ele>324</ele>
        <time>2019-08-24T15:14:52.862Z</time>
      </trkpt>
      <trkpt lat="45.73326" lon="5.62419">
        <ele>324</ele>
        <time>2019-08-24T15:14:57.862Z</time>
      </trkpt>
      <trkpt lat="45.73326" lon="5.62426">
        <ele>324</ele>
        <time>2019-08-24T15:15:01.859Z</time>
      </trkpt>
      <trkpt lat="45.73326" lon="5.62433">
        <ele>324</ele>
        <time>2019-08-24T15:15:05.866Z</time>
      </trkpt>
      <trkpt lat="45.73327" lon="5.62441">
        <ele>324</ele>
        <time>2019-08-24T15:15:10.855Z</time>
      </trkpt>
      <trkpt lat="45.73328" lon="5.62445">
        <ele>324</ele>
        <time>2019-08-24T15:15:14.867Z</time>
      </trkpt>
      <trkpt lat="45.73329" lon="5.62454">
        <ele>324</ele>
        <time>2019-08-24T15:15:19.910Z</time>
      </trkpt>
      <trkpt lat="45.7333" lon="5.62464">
        <ele>324</ele>
        <time>2019-08-24T15:15:24.873Z</time>
      </trkpt>
      <trkpt lat="45.73332" lon="5.62473">
        <ele>324</ele>
        <time>2019-08-24T15:15:29.870Z</time>
      </trkpt>
      <trkpt lat="45.73333" lon="5.62485">
        <ele>324</ele>
        <time>2019-08-24T15:15:34.865Z</time>
      </trkpt>
      <trkpt lat="45.73334" lon="5.62494">
        <ele>325</ele>
        <time>2019-08-24T15:15:39.868Z</time>
      </trkpt>
      <trkpt lat="45.73335" lon="5.62502">
        <ele>325</ele>
        <time>2019-08-24T15:15:43.866Z</time>
      </trkpt>
      <trkpt lat="45.73335" lon="5.62511">
        <ele>325</ele>
        <time>2019-08-24T15:15:48.858Z</time>
      </trkpt>
      <trkpt lat="45.73336" lon="5.62519">
        <ele>327</ele>
        <time>2019-08-24T15:15:52.850Z</time>
      </trkpt>
      <trkpt lat="45.73336" lon="5.62527">
        <ele>327</ele>
        <time>2019-08-24T15:15:57.871Z</time>
      </trkpt>
      <trkpt lat="45.73338" lon="5.62535">
        <ele>327</ele>
        <time>2019-08-24T15:16:02.854Z</time>
      </trkpt>
      <trkpt lat="45.7334" lon="5.62542">
        <ele>329</ele>
        <time>2019-08-24T15:16:07.855Z</time>
      </trkpt>
      <trkpt lat="45.73342" lon="5.62547">
        <ele>329</ele>
        <time>2019-08-24T15:16:12.868Z</time>
      </trkpt>
      <trkpt lat="45.73347" lon="5.6255">
        <ele>329</ele>
        <time>2019-08-24T15:16:17.902Z</time>
      </trkpt>
      <trkpt lat="45.73351" lon="5.6255">
        <ele>334</ele>
        <time>2019-08-24T15:16:22.862Z</time>
      </trkpt>
      <trkpt lat="45.73354" lon="5.6255">
        <ele>334</ele>
        <time>2019-08-24T15:16:27.884Z</time>
      </trkpt>
      <trkpt lat="45.73359" lon="5.6255">
        <ele>334</ele>
        <time>2019-08-24T15:16:32.859Z</time>
      </trkpt>
      <trkpt lat="45.73364" lon="5.62548">
        <ele>334</ele>
        <time>2019-08-24T15:16:36.880Z</time>
      </trkpt>
      <trkpt lat="45.73373" lon="5.62546">
        <ele>334</ele>
        <time>2019-08-24T15:16:41.886Z</time>
      </trkpt>
      <trkpt lat="45.73384" lon="5.62545">
        <ele>335</ele>
        <time>2019-08-24T15:16:46.860Z</time>
      </trkpt>
      <trkpt lat="45.73392" lon="5.62545">
        <ele>335</ele>
        <time>2019-08-24T15:16:51.851Z</time>
      </trkpt>
      <trkpt lat="45.73399" lon="5.62545">
        <ele>335</ele>
        <time>2019-08-24T15:16:55.861Z</time>
      </trkpt>
      <trkpt lat="45.73406" lon="5.62544">
        <ele>334</ele>
        <time>2019-08-24T15:17:00.891Z</time>
      </trkpt>
      <trkpt lat="45.73413" lon="5.62544">
        <ele>334</ele>
        <time>2019-08-24T15:17:05.846Z</time>
      </trkpt>
      <trkpt lat="45.73418" lon="5.62544">
        <ele>334</ele>
        <time>2019-08-24T15:17:09.850Z</time>
      </trkpt>
      <trkpt lat="45.73426" lon="5.62544">
        <ele>334</ele>
        <time>2019-08-24T15:17:14.853Z</time>
      </trkpt>
      <trkpt lat="45.7343" lon="5.62543">
        <ele>334</ele>
        <time>2019-08-24T15:17:18.847Z</time>
      </trkpt>
      <trkpt lat="45.73437" lon="5.62544">
        <ele>332</ele>
        <time>2019-08-24T15:17:23.846Z</time>
      </trkpt>
      <trkpt lat="45.73444" lon="5.62545">
        <ele>332</ele>
        <time>2019-08-24T15:17:28.843Z</time>
      </trkpt>
      <trkpt lat="45.73451" lon="5.62546">
        <ele>332</ele>
        <time>2019-08-24T15:17:32.865Z</time>
      </trkpt>
      <trkpt lat="45.73458" lon="5.62549">
        <ele>332</ele>
        <time>2019-08-24T15:17:36.862Z</time>
      </trkpt>
      <trkpt lat="45.73467" lon="5.62552">
        <ele>332</ele>
        <time>2019-08-24T15:17:41.858Z</time>
      </trkpt>
      <trkpt lat="45.73473" lon="5.62554">
        <ele>332</ele>
        <time>2019-08-24T15:17:46.857Z</time>
      </trkpt>
      <trkpt lat="45.7348" lon="5.62555">
        <ele>332</ele>
        <time>2019-08-24T15:17:51.862Z</time>
      </trkpt>
      <trkpt lat="45.73486" lon="5.62558">
        <ele>332</ele>
        <time>2019-08-24T15:17:56.872Z</time>
      </trkpt>
      <trkpt lat="45.73491" lon="5.62564">
        <ele>333</ele>
        <time>2019-08-24T15:18:01.861Z</time>
      </trkpt>
      <trkpt lat="45.73499" lon="5.62572">
        <ele>337</ele>
        <time>2019-08-24T15:18:06.893Z</time>
      </trkpt>
      <trkpt lat="45.73506" lon="5.62577">
        <ele>337</ele>
        <time>2019-08-24T15:18:11.871Z</time>
      </trkpt>
      <trkpt lat="45.73512" lon="5.62582">
        <ele>337</ele>
        <time>2019-08-24T15:18:15.871Z</time>
      </trkpt>
      <trkpt lat="45.73517" lon="5.62588">
        <ele>338</ele>
        <time>2019-08-24T15:18:20.874Z</time>
      </trkpt>
      <trkpt lat="45.73519" lon="5.62595">
        <ele>338</ele>
        <time>2019-08-24T15:18:25.879Z</time>
      </trkpt>
      <trkpt lat="45.73521" lon="5.62605">
        <ele>341</ele>
        <time>2019-08-24T15:18:30.879Z</time>
      </trkpt>
      <trkpt lat="45.73525" lon="5.62614">
        <ele>341</ele>
        <time>2019-08-24T15:18:34.874Z</time>
      </trkpt>
      <trkpt lat="45.73528" lon="5.62625">
        <ele>341</ele>
        <time>2019-08-24T15:18:39.872Z</time>
      </trkpt>
      <trkpt lat="45.73529" lon="5.62636">
        <ele>344</ele>
        <time>2019-08-24T15:18:44.876Z</time>
      </trkpt>
      <trkpt lat="45.73529" lon="5.62648">
        <ele>344</ele>
        <time>2019-08-24T15:18:49.887Z</time>
      </trkpt>
      <trkpt lat="45.73531" lon="5.62656">
        <ele>347</ele>
        <time>2019-08-24T15:18:54.871Z</time>
      </trkpt>
      <trkpt lat="45.73531" lon="5.62668">
        <ele>347</ele>
        <time>2019-08-24T15:18:59.876Z</time>
      </trkpt>
      <trkpt lat="45.73531" lon="5.62675">
        <ele>347</ele>
        <time>2019-08-24T15:19:04.851Z</time>
      </trkpt>
      <trkpt lat="45.73532" lon="5.62681">
        <ele>348</ele>
        <time>2019-08-24T15:19:09.867Z</time>
      </trkpt>
      <trkpt lat="45.73529" lon="5.62691">
        <ele>348</ele>
        <time>2019-08-24T15:19:14.855Z</time>
      </trkpt>
      <trkpt lat="45.73531" lon="5.62702">
        <ele>348</ele>
        <time>2019-08-24T15:19:19.883Z</time>
      </trkpt>
      <trkpt lat="45.73533" lon="5.62715">
        <ele>350</ele>
        <time>2019-08-24T15:19:24.850Z</time>
      </trkpt>
      <trkpt lat="45.73537" lon="5.62725">
        <ele>350</ele>
        <time>2019-08-24T15:19:29.853Z</time>
      </trkpt>
      <trkpt lat="45.73542" lon="5.62729">
        <ele>351</ele>
        <time>2019-08-24T15:19:34.877Z</time>
      </trkpt>
      <trkpt lat="45.73547" lon="5.62731">
        <ele>351</ele>
        <time>2019-08-24T15:19:39.854Z</time>
      </trkpt>
      <trkpt lat="45.73553" lon="5.62732">
        <ele>351</ele>
        <time>2019-08-24T15:19:43.866Z</time>
      </trkpt>
      <trkpt lat="45.73559" lon="5.62731">
        <ele>351</ele>
        <time>2019-08-24T15:19:48.874Z</time>
      </trkpt>
      <trkpt lat="45.73565" lon="5.62731">
        <ele>351</ele>
        <time>2019-08-24T15:19:53.849Z</time>
      </trkpt>
      <trkpt lat="45.73569" lon="5.62732">
        <ele>351</ele>
        <time>2019-08-24T15:19:57.867Z</time>
      </trkpt>
      <trkpt lat="45.73574" lon="5.62735">
        <ele>356</ele>
        <time>2019-08-24T15:20:01.876Z</time>
      </trkpt>
      <trkpt lat="45.73579" lon="5.62741">
        <ele>355</ele>
        <time>2019-08-24T15:20:06.879Z</time>
      </trkpt>
      <trkpt lat="45.73583" lon="5.62747">
        <ele>355</ele>
        <time>2019-08-24T15:20:11.859Z</time>
      </trkpt>
      <trkpt lat="45.73587" lon="5.6275">
        <ele>355</ele>
        <time>2019-08-24T15:20:15.875Z</time>
      </trkpt>
      <trkpt lat="45.73592" lon="5.62754">
        <ele>355</ele>
        <time>2019-08-24T15:20:20.878Z</time>
      </trkpt>
      <trkpt lat="45.73596" lon="5.62759">
        <ele>355</ele>
        <time>2019-08-24T15:20:24.857Z</time>
      </trkpt>
      <trkpt lat="45.73599" lon="5.62765">
        <ele>356</ele>
        <time>2019-08-24T15:20:28.869Z</time>
      </trkpt>
      <trkpt lat="45.73605" lon="5.62772">
        <ele>356</ele>
        <time>2019-08-24T15:20:33.869Z</time>
      </trkpt>
      <trkpt lat="45.73621" lon="5.62779">
        <ele>356</ele>
        <time>2019-08-24T15:20:38.867Z</time>
      </trkpt>
      <trkpt lat="45.73628" lon="5.62785">
        <ele>357</ele>
        <time>2019-08-24T15:20:43.855Z</time>
      </trkpt>
      <trkpt lat="45.73635" lon="5.62792">
        <ele>358</ele>
        <time>2019-08-24T15:20:48.858Z</time>
      </trkpt>
      <trkpt lat="45.7364" lon="5.62798">
        <ele>358</ele>
        <time>2019-08-24T15:20:52.875Z</time>
      </trkpt>
      <trkpt lat="45.73645" lon="5.62809">
        <ele>358</ele>
        <time>2019-08-24T15:20:57.845Z</time>
      </trkpt>
      <trkpt lat="45.73646" lon="5.62819">
        <ele>358</ele>
        <time>2019-08-24T15:21:01.876Z</time>
      </trkpt>
      <trkpt lat="45.73645" lon="5.6283">
        <ele>361</ele>
        <time>2019-08-24T15:21:06.853Z</time>
      </trkpt>
      <trkpt lat="45.73644" lon="5.62839">
        <ele>361</ele>
        <time>2019-08-24T15:21:10.867Z</time>
      </trkpt>
      <trkpt lat="45.73642" lon="5.62849">
        <ele>362</ele>
        <time>2019-08-24T15:21:15.861Z</time>
      </trkpt>
      <trkpt lat="45.7364" lon="5.62858">
        <ele>362</ele>
        <time>2019-08-24T15:21:20.866Z</time>
      </trkpt>
      <trkpt lat="45.73638" lon="5.62866">
        <ele>362</ele>
        <time>2019-08-24T15:21:24.854Z</time>
      </trkpt>
      <trkpt lat="45.73635" lon="5.62876">
        <ele>362</ele>
        <time>2019-08-24T15:21:29.872Z</time>
      </trkpt>
      <trkpt lat="45.73632" lon="5.62886">
        <ele>362</ele>
        <time>2019-08-24T15:21:34.853Z</time>
      </trkpt>
      <trkpt lat="45.73631" lon="5.62898">
        <ele>362</ele>
        <time>2019-08-24T15:21:39.850Z</time>
      </trkpt>
      <trkpt lat="45.73631" lon="5.62911">
        <ele>361</ele>
        <time>2019-08-24T15:21:44.862Z</time>
      </trkpt>
      <trkpt lat="45.73634" lon="5.62919">
        <ele>361</ele>
        <time>2019-08-24T15:21:49.854Z</time>
      </trkpt>
      <trkpt lat="45.73637" lon="5.62928">
        <ele>361</ele>
        <time>2019-08-24T15:21:54.873Z</time>
      </trkpt>
      <trkpt lat="45.7364" lon="5.62937">
        <ele>360</ele>
        <time>2019-08-24T15:21:59.855Z</time>
      </trkpt>
      <trkpt lat="45.73642" lon="5.62947">
        <ele>360</ele>
        <time>2019-08-24T15:22:03.872Z</time>
      </trkpt>
      <trkpt lat="45.73642" lon="5.62956">
        <ele>360</ele>
        <time>2019-08-24T15:22:08.855Z</time>
      </trkpt>
      <trkpt lat="45.73643" lon="5.62968">
        <ele>359</ele>
        <time>2019-08-24T15:22:13.874Z</time>
      </trkpt>
      <trkpt lat="45.73644" lon="5.62984">
        <ele>359</ele>
        <time>2019-08-24T15:22:18.843Z</time>
      </trkpt>
      <trkpt lat="45.73646" lon="5.62995">
        <ele>359</ele>
        <time>2019-08-24T15:22:22.865Z</time>
      </trkpt>
      <trkpt lat="45.73649" lon="5.63008">
        <ele>359</ele>
        <time>2019-08-24T15:22:27.870Z</time>
      </trkpt>
      <trkpt lat="45.73651" lon="5.63017">
        <ele>359</ele>
        <time>2019-08-24T15:22:32.868Z</time>
      </trkpt>
      <trkpt lat="45.73653" lon="5.63026">
        <ele>359</ele>
        <time>2019-08-24T15:22:37.855Z</time>
      </trkpt>
      <trkpt lat="45.73655" lon="5.63034">
        <ele>359</ele>
        <time>2019-08-24T15:22:41.860Z</time>
      </trkpt>
      <trkpt lat="45.73657" lon="5.63046">
        <ele>358</ele>
        <time>2019-08-24T15:22:46.876Z</time>
      </trkpt>
      <trkpt lat="45.73658" lon="5.63058">
        <ele>358</ele>
        <time>2019-08-24T15:22:51.872Z</time>
      </trkpt>
      <trkpt lat="45.73659" lon="5.6307">
        <ele>357</ele>
        <time>2019-08-24T15:22:56.863Z</time>
      </trkpt>
      <trkpt lat="45.73662" lon="5.63082">
        <ele>357</ele>
        <time>2019-08-24T15:23:01.865Z</time>
      </trkpt>
      <trkpt lat="45.73664" lon="5.63092">
        <ele>357</ele>
        <time>2019-08-24T15:23:05.867Z</time>
      </trkpt>
      <trkpt lat="45.73665" lon="5.63104">
        <ele>357</ele>
        <time>2019-08-24T15:23:09.869Z</time>
      </trkpt>
      <trkpt lat="45.73667" lon="5.63119">
        <ele>357</ele>
        <time>2019-08-24T15:23:14.867Z</time>
      </trkpt>
      <trkpt lat="45.73668" lon="5.6313">
        <ele>357</ele>
        <time>2019-08-24T15:23:19.875Z</time>
      </trkpt>
      <trkpt lat="45.7367" lon="5.63141">
        <ele>357</ele>
        <time>2019-08-24T15:23:24.877Z</time>
      </trkpt>
      <trkpt lat="45.73672" lon="5.63153">
        <ele>357</ele>
        <time>2019-08-24T15:23:29.865Z</time>
      </trkpt>
      <trkpt lat="45.73673" lon="5.63162">
        <ele>358</ele>
        <time>2019-08-24T15:23:34.888Z</time>
      </trkpt>
      <trkpt lat="45.73674" lon="5.63171">
        <ele>358</ele>
        <time>2019-08-24T15:23:39.868Z</time>
      </trkpt>
      <trkpt lat="45.73673" lon="5.6318">
        <ele>358</ele>
        <time>2019-08-24T15:23:44.870Z</time>
      </trkpt>
      <trkpt lat="45.73672" lon="5.63189">
        <ele>360</ele>
        <time>2019-08-24T15:23:48.868Z</time>
      </trkpt>
      <trkpt lat="45.73673" lon="5.63194">
        <ele>360</ele>
        <time>2019-08-24T15:23:53.877Z</time>
      </trkpt>
      <trkpt lat="45.73673" lon="5.63198">
        <ele>360</ele>
        <time>2019-08-24T15:23:58.865Z</time>
      </trkpt>
      <trkpt lat="45.73678" lon="5.63215">
        <ele>362</ele>
        <time>2019-08-24T15:24:03.871Z</time>
      </trkpt>
      <trkpt lat="45.73681" lon="5.63225">
        <ele>361</ele>
        <time>2019-08-24T15:24:08.855Z</time>
      </trkpt>
      <trkpt lat="45.7368" lon="5.63241">
        <ele>364</ele>
        <time>2019-08-24T15:24:13.858Z</time>
      </trkpt>
      <trkpt lat="45.7368" lon="5.63256">
        <ele>364</ele>
        <time>2019-08-24T15:24:18.859Z</time>
      </trkpt>
      <trkpt lat="45.7368" lon="5.63267">
        <ele>367</ele>
        <time>2019-08-24T15:24:23.855Z</time>
      </trkpt>
      <trkpt lat="45.73681" lon="5.63274">
        <ele>365</ele>
        <time>2019-08-24T15:24:27.868Z</time>
      </trkpt>
      <trkpt lat="45.73682" lon="5.63286">
        <ele>365</ele>
        <time>2019-08-24T15:24:32.851Z</time>
      </trkpt>
      <trkpt lat="45.73681" lon="5.63295">
        <ele>366</ele>
        <time>2019-08-24T15:24:37.868Z</time>
      </trkpt>
      <trkpt lat="45.73681" lon="5.63302">
        <ele>366</ele>
        <time>2019-08-24T15:24:42.869Z</time>
      </trkpt>
      <trkpt lat="45.73681" lon="5.63306">
        <ele>366</ele>
        <time>2019-08-24T15:24:46.858Z</time>
      </trkpt>
      <trkpt lat="45.73679" lon="5.63319">
        <ele>368</ele>
        <time>2019-08-24T15:24:51.859Z</time>
      </trkpt>
      <trkpt lat="45.73674" lon="5.6333">
        <ele>367</ele>
        <time>2019-08-24T15:24:56.848Z</time>
      </trkpt>
      <trkpt lat="45.73672" lon="5.63341">
        <ele>367</ele>
        <time>2019-08-24T15:25:00.862Z</time>
      </trkpt>
      <trkpt lat="45.73671" lon="5.63353">
        <ele>368</ele>
        <time>2019-08-24T15:25:05.876Z</time>
      </trkpt>
      <trkpt lat="45.73671" lon="5.63367">
        <ele>368</ele>
        <time>2019-08-24T15:25:10.860Z</time>
      </trkpt>
      <trkpt lat="45.73669" lon="5.63379">
        <ele>369</ele>
        <time>2019-08-24T15:25:14.861Z</time>
      </trkpt>
      <trkpt lat="45.73667" lon="5.63388">
        <ele>369</ele>
        <time>2019-08-24T15:25:19.865Z</time>
      </trkpt>
      <trkpt lat="45.73666" lon="5.63389">
        <ele>369</ele>
        <time>2019-08-24T15:25:24.866Z</time>
      </trkpt>
      <trkpt lat="45.73666" lon="5.63393">
        <ele>369</ele>
        <time>2019-08-24T15:25:29.876Z</time>
      </trkpt>
      <trkpt lat="45.73661" lon="5.63398">
        <ele>369</ele>
        <time>2019-08-24T15:25:34.849Z</time>
      </trkpt>
      <trkpt lat="45.73655" lon="5.63397">
        <ele>369</ele>
        <time>2019-08-24T15:25:38.869Z</time>
      </trkpt>
      <trkpt lat="45.73647" lon="5.63393">
        <ele>372</ele>
        <time>2019-08-24T15:25:43.852Z</time>
      </trkpt>
      <trkpt lat="45.73639" lon="5.6339">
        <ele>372</ele>
        <time>2019-08-24T15:25:48.868Z</time>
      </trkpt>
      <trkpt lat="45.73631" lon="5.63389">
        <ele>372</ele>
        <time>2019-08-24T15:25:53.858Z</time>
      </trkpt>
      <trkpt lat="45.73625" lon="5.63389">
        <ele>372</ele>
        <time>2019-08-24T15:25:58.851Z</time>
      </trkpt>
      <trkpt lat="45.7362" lon="5.63388">
        <ele>374</ele>
        <time>2019-08-24T15:26:02.863Z</time>
      </trkpt>
      <trkpt lat="45.73613" lon="5.63386">
        <ele>374</ele>
        <time>2019-08-24T15:26:07.864Z</time>
      </trkpt>
      <trkpt lat="45.73606" lon="5.63386">
        <ele>374</ele>
        <time>2019-08-24T15:26:12.851Z</time>
      </trkpt>
      <trkpt lat="45.73601" lon="5.63387">
        <ele>374</ele>
        <time>2019-08-24T15:26:16.865Z</time>
      </trkpt>
      <trkpt lat="45.73593" lon="5.63386">
        <ele>374</ele>
        <time>2019-08-24T15:26:21.861Z</time>
      </trkpt>
      <trkpt lat="45.73586" lon="5.63387">
        <ele>374</ele>
        <time>2019-08-24T15:26:25.859Z</time>
      </trkpt>
      <trkpt lat="45.73579" lon="5.63387">
        <ele>374</ele>
        <time>2019-08-24T15:26:30.862Z</time>
      </trkpt>
      <trkpt lat="45.73572" lon="5.63388">
        <ele>374</ele>
        <time>2019-08-24T15:26:35.867Z</time>
      </trkpt>
      <trkpt lat="45.73564" lon="5.63387">
        <ele>374</ele>
        <time>2019-08-24T15:26:40.867Z</time>
      </trkpt>
      <trkpt lat="45.73556" lon="5.63386">
        <ele>374</ele>
        <time>2019-08-24T15:26:45.867Z</time>
      </trkpt>
      <trkpt lat="45.73548" lon="5.63385">
        <ele>374</ele>
        <time>2019-08-24T15:26:50.871Z</time>
      </trkpt>
      <trkpt lat="45.73542" lon="5.63382">
        <ele>374</ele>
        <time>2019-08-24T15:26:55.860Z</time>
      </trkpt>
      <trkpt lat="45.73533" lon="5.63379">
        <ele>374</ele>
        <time>2019-08-24T15:27:00.879Z</time>
      </trkpt>
      <trkpt lat="45.73524" lon="5.63373">
        <ele>374</ele>
        <time>2019-08-24T15:27:05.865Z</time>
      </trkpt>
      <trkpt lat="45.73518" lon="5.63371">
        <ele>374</ele>
        <time>2019-08-24T15:27:09.886Z</time>
      </trkpt>
      <trkpt lat="45.73511" lon="5.63369">
        <ele>376</ele>
        <time>2019-08-24T15:27:14.872Z</time>
      </trkpt>
      <trkpt lat="45.73503" lon="5.63368">
        <ele>376</ele>
        <time>2019-08-24T15:27:19.845Z</time>
      </trkpt>
      <trkpt lat="45.73499" lon="5.63367">
        <ele>376</ele>
        <time>2019-08-24T15:27:23.856Z</time>
      </trkpt>
      <trkpt lat="45.73492" lon="5.63367">
        <ele>376</ele>
        <time>2019-08-24T15:27:28.869Z</time>
      </trkpt>
      <trkpt lat="45.73487" lon="5.63368">
        <ele>376</ele>
        <time>2019-08-24T15:27:32.878Z</time>
      </trkpt>
      <trkpt lat="45.73482" lon="5.63371">
        <ele>378</ele>
        <time>2019-08-24T15:27:37.869Z</time>
      </trkpt>
      <trkpt lat="45.73477" lon="5.63376">
        <ele>378</ele>
        <time>2019-08-24T15:27:42.870Z</time>
      </trkpt>
      <trkpt lat="45.73472" lon="5.63382">
        <ele>378</ele>
        <time>2019-08-24T15:27:47.869Z</time>
      </trkpt>
      <trkpt lat="45.73465" lon="5.63389">
        <ele>378</ele>
        <time>2019-08-24T15:27:52.867Z</time>
      </trkpt>
      <trkpt lat="45.7346" lon="5.63393">
        <ele>378</ele>
        <time>2019-08-24T15:27:57.861Z</time>
      </trkpt>
      <trkpt lat="45.73452" lon="5.63395">
        <ele>380</ele>
        <time>2019-08-24T15:28:02.844Z</time>
      </trkpt>
      <trkpt lat="45.73446" lon="5.63398">
        <ele>380</ele>
        <time>2019-08-24T15:28:06.861Z</time>
      </trkpt>
      <trkpt lat="45.73439" lon="5.63401">
        <ele>380</ele>
        <time>2019-08-24T15:28:10.864Z</time>
      </trkpt>
      <trkpt lat="45.73418" lon="5.63409">
        <ele>381</ele>
        <time>2019-08-24T15:28:15.867Z</time>
      </trkpt>
      <trkpt lat="45.73404" lon="5.6341">
        <ele>381</ele>
        <time>2019-08-24T15:28:19.866Z</time>
      </trkpt>
      <trkpt lat="45.73386" lon="5.63413">
        <ele>383</ele>
        <time>2019-08-24T15:28:24.868Z</time>
      </trkpt>
      <trkpt lat="45.73371" lon="5.63421">
        <ele>383</ele>
        <time>2019-08-24T15:28:29.867Z</time>
      </trkpt>
      <trkpt lat="45.73363" lon="5.63435">
        <ele>382</ele>
        <time>2019-08-24T15:28:33.856Z</time>
      </trkpt>
      <trkpt lat="45.73356" lon="5.63451">
        <ele>382</ele>
        <time>2019-08-24T15:28:37.865Z</time>
      </trkpt>
      <trkpt lat="45.73353" lon="5.63461">
        <ele>381</ele>
        <time>2019-08-24T15:28:42.871Z</time>
      </trkpt>
      <trkpt lat="45.7335" lon="5.63471">
        <ele>381</ele>
        <time>2019-08-24T15:28:47.866Z</time>
      </trkpt>
      <trkpt lat="45.73344" lon="5.63477">
        <ele>381</ele>
        <time>2019-08-24T15:28:52.870Z</time>
      </trkpt>
      <trkpt lat="45.73337" lon="5.6348">
        <ele>381</ele>
        <time>2019-08-24T15:28:57.867Z</time>
      </trkpt>
      <trkpt lat="45.7333" lon="5.63483">
        <ele>381</ele>
        <time>2019-08-24T15:29:02.864Z</time>
      </trkpt>
      <trkpt lat="45.73323" lon="5.63485">
        <ele>381</ele>
        <time>2019-08-24T15:29:07.846Z</time>
      </trkpt>
      <trkpt lat="45.7332" lon="5.63486">
        <ele>381</ele>
        <time>2019-08-24T15:29:12.867Z</time>
      </trkpt>
      <trkpt lat="45.73313" lon="5.63488">
        <ele>380</ele>
        <time>2019-08-24T15:29:17.862Z</time>
      </trkpt>
      <trkpt lat="45.73307" lon="5.63492">
        <ele>380</ele>
        <time>2019-08-24T15:29:22.865Z</time>
      </trkpt>
      <trkpt lat="45.73301" lon="5.63498">
        <ele>380</ele>
        <time>2019-08-24T15:29:27.865Z</time>
      </trkpt>
      <trkpt lat="45.73295" lon="5.63505">
        <ele>380</ele>
        <time>2019-08-24T15:29:32.874Z</time>
      </trkpt>
      <trkpt lat="45.73292" lon="5.6351">
        <ele>379</ele>
        <time>2019-08-24T15:29:37.855Z</time>
      </trkpt>
      <trkpt lat="45.73289" lon="5.63514">
        <ele>376</ele>
        <time>2019-08-24T15:29:41.855Z</time>
      </trkpt>
      <trkpt lat="45.73282" lon="5.63522">
        <ele>376</ele>
        <time>2019-08-24T15:29:46.874Z</time>
      </trkpt>
      <trkpt lat="45.73277" lon="5.63527">
        <ele>376</ele>
        <time>2019-08-24T15:29:51.864Z</time>
      </trkpt>
      <trkpt lat="45.73271" lon="5.63531">
        <ele>376</ele>
        <time>2019-08-24T15:29:56.876Z</time>
      </trkpt>
      <trkpt lat="45.73267" lon="5.63534">
        <ele>376</ele>
        <time>2019-08-24T15:30:01.866Z</time>
      </trkpt>
      <trkpt lat="45.73261" lon="5.63536">
        <ele>376</ele>
        <time>2019-08-24T15:30:06.874Z</time>
      </trkpt>
      <trkpt lat="45.73254" lon="5.63541">
        <ele>376</ele>
        <time>2019-08-24T15:30:11.856Z</time>
      </trkpt>
      <trkpt lat="45.73249" lon="5.63542">
        <ele>372</ele>
        <time>2019-08-24T15:30:15.877Z</time>
      </trkpt>
      <trkpt lat="45.73243" lon="5.63545">
        <ele>372</ele>
        <time>2019-08-24T15:30:20.867Z</time>
      </trkpt>
      <trkpt lat="45.73237" lon="5.63549">
        <ele>372</ele>
        <time>2019-08-24T15:30:24.870Z</time>
      </trkpt>
      <trkpt lat="45.73231" lon="5.63552">
        <ele>371</ele>
        <time>2019-08-24T15:30:29.869Z</time>
      </trkpt>
      <trkpt lat="45.73225" lon="5.63553">
        <ele>371</ele>
        <time>2019-08-24T15:30:34.874Z</time>
      </trkpt>
      <trkpt lat="45.73218" lon="5.63556">
        <ele>371</ele>
        <time>2019-08-24T15:30:39.867Z</time>
      </trkpt>
      <trkpt lat="45.73213" lon="5.63557">
        <ele>371</ele>
        <time>2019-08-24T15:30:43.858Z</time>
      </trkpt>
      <trkpt lat="45.73208" lon="5.63559">
        <ele>372</ele>
        <time>2019-08-24T15:30:47.874Z</time>
      </trkpt>
      <trkpt lat="45.73201" lon="5.63561">
        <ele>372</ele>
        <time>2019-08-24T15:30:52.850Z</time>
      </trkpt>
      <trkpt lat="45.73195" lon="5.63562">
        <ele>372</ele>
        <time>2019-08-24T15:30:56.871Z</time>
      </trkpt>
      <trkpt lat="45.7319" lon="5.63564">
        <ele>372</ele>
        <time>2019-08-24T15:31:00.877Z</time>
      </trkpt>
      <trkpt lat="45.7318" lon="5.6356">
        <ele>375</ele>
        <time>2019-08-24T15:31:05.867Z</time>
      </trkpt>
      <trkpt lat="45.73172" lon="5.63562">
        <ele>375</ele>
        <time>2019-08-24T15:31:10.864Z</time>
      </trkpt>
      <trkpt lat="45.73162" lon="5.63568">
        <ele>375</ele>
        <time>2019-08-24T15:31:15.859Z</time>
      </trkpt>
      <trkpt lat="45.73155" lon="5.63569">
        <ele>375</ele>
        <time>2019-08-24T15:31:20.865Z</time>
      </trkpt>
      <trkpt lat="45.7315" lon="5.63569">
        <ele>376</ele>
        <time>2019-08-24T15:31:24.877Z</time>
      </trkpt>
      <trkpt lat="45.73141" lon="5.63567">
        <ele>376</ele>
        <time>2019-08-24T15:31:29.857Z</time>
      </trkpt>
      <trkpt lat="45.73133" lon="5.63563">
        <ele>376</ele>
        <time>2019-08-24T15:31:34.866Z</time>
      </trkpt>
      <trkpt lat="45.73125" lon="5.63565">
        <ele>377</ele>
        <time>2019-08-24T15:31:39.870Z</time>
      </trkpt>
      <trkpt lat="45.73117" lon="5.63568">
        <ele>377</ele>
        <time>2019-08-24T15:31:44.860Z</time>
      </trkpt>
      <trkpt lat="45.73109" lon="5.6357">
        <ele>373</ele>
        <time>2019-08-24T15:31:49.859Z</time>
      </trkpt>
      <trkpt lat="45.73103" lon="5.63573">
        <ele>373</ele>
        <time>2019-08-24T15:31:53.882Z</time>
      </trkpt>
      <trkpt lat="45.73096" lon="5.63574">
        <ele>373</ele>
        <time>2019-08-24T15:31:57.865Z</time>
      </trkpt>
      <trkpt lat="45.7309" lon="5.63579">
        <ele>373</ele>
        <time>2019-08-24T15:32:02.851Z</time>
      </trkpt>
      <trkpt lat="45.73083" lon="5.63583">
        <ele>373</ele>
        <time>2019-08-24T15:32:07.865Z</time>
      </trkpt>
      <trkpt lat="45.73077" lon="5.63585">
        <ele>373</ele>
        <time>2019-08-24T15:32:12.864Z</time>
      </trkpt>
      <trkpt lat="45.73072" lon="5.63586">
        <ele>373</ele>
        <time>2019-08-24T15:32:16.864Z</time>
      </trkpt>
      <trkpt lat="45.73065" lon="5.6359">
        <ele>373</ele>
        <time>2019-08-24T15:32:21.874Z</time>
      </trkpt>
      <trkpt lat="45.73058" lon="5.63592">
        <ele>373</ele>
        <time>2019-08-24T15:32:26.865Z</time>
      </trkpt>
      <trkpt lat="45.73053" lon="5.63595">
        <ele>373</ele>
        <time>2019-08-24T15:32:30.868Z</time>
      </trkpt>
      <trkpt lat="45.73045" lon="5.63598">
        <ele>366</ele>
        <time>2019-08-24T15:32:35.868Z</time>
      </trkpt>
      <trkpt lat="45.73037" lon="5.63603">
        <ele>370</ele>
        <time>2019-08-24T15:32:40.866Z</time>
      </trkpt>
      <trkpt lat="45.73029" lon="5.63606">
        <ele>370</ele>
        <time>2019-08-24T15:32:45.866Z</time>
      </trkpt>
      <trkpt lat="45.73023" lon="5.63609">
        <ele>370</ele>
        <time>2019-08-24T15:32:49.856Z</time>
      </trkpt>
      <trkpt lat="45.73015" lon="5.63611">
        <ele>370</ele>
        <time>2019-08-24T15:32:54.857Z</time>
      </trkpt>
      <trkpt lat="45.73008" lon="5.6361">
        <ele>371</ele>
        <time>2019-08-24T15:32:59.865Z</time>
      </trkpt>
      <trkpt lat="45.73003" lon="5.6361">
        <ele>371</ele>
        <time>2019-08-24T15:33:04.871Z</time>
      </trkpt>
      <trkpt lat="45.72993" lon="5.63609">
        <ele>371</ele>
        <time>2019-08-24T15:33:09.864Z</time>
      </trkpt>
      <trkpt lat="45.72984" lon="5.6361">
        <ele>371</ele>
        <time>2019-08-24T15:33:14.865Z</time>
      </trkpt>
      <trkpt lat="45.72978" lon="5.63612">
        <ele>371</ele>
        <time>2019-08-24T15:33:19.860Z</time>
      </trkpt>
      <trkpt lat="45.72973" lon="5.63616">
        <ele>371</ele>
        <time>2019-08-24T15:33:23.860Z</time>
      </trkpt>
      <trkpt lat="45.72966" lon="5.63619">
        <ele>371</ele>
        <time>2019-08-24T15:33:28.864Z</time>
      </trkpt>
      <trkpt lat="45.7296" lon="5.63621">
        <ele>371</ele>
        <time>2019-08-24T15:33:32.872Z</time>
      </trkpt>
      <trkpt lat="45.72953" lon="5.63623">
        <ele>371</ele>
        <time>2019-08-24T15:33:37.861Z</time>
      </trkpt>
      <trkpt lat="45.72945" lon="5.63626">
        <ele>367</ele>
        <time>2019-08-24T15:33:42.872Z</time>
      </trkpt>
      <trkpt lat="45.72934" lon="5.63625">
        <ele>367</ele>
        <time>2019-08-24T15:33:47.855Z</time>
      </trkpt>
      <trkpt lat="45.72925" lon="5.63624">
        <ele>368</ele>
        <time>2019-08-24T15:33:51.861Z</time>
      </trkpt>
      <trkpt lat="45.72918" lon="5.63629">
        <ele>366</ele>
        <time>2019-08-24T15:33:56.871Z</time>
      </trkpt>
      <trkpt lat="45.72911" lon="5.63631">
        <ele>366</ele>
        <time>2019-08-24T15:34:01.841Z</time>
      </trkpt>
      <trkpt lat="45.72907" lon="5.63627">
        <ele>366</ele>
        <time>2019-08-24T15:34:05.880Z</time>
      </trkpt>
      <trkpt lat="45.72903" lon="5.63621">
        <ele>368</ele>
        <time>2019-08-24T15:34:09.864Z</time>
      </trkpt>
      <trkpt lat="45.72898" lon="5.63617">
        <ele>364</ele>
        <time>2019-08-24T15:34:14.881Z</time>
      </trkpt>
      <trkpt lat="45.7289" lon="5.63612">
        <ele>364</ele>
        <time>2019-08-24T15:34:19.860Z</time>
      </trkpt>
      <trkpt lat="45.72883" lon="5.63611">
        <ele>364</ele>
        <time>2019-08-24T15:34:24.859Z</time>
      </trkpt>
      <trkpt lat="45.72875" lon="5.63608">
        <ele>364</ele>
        <time>2019-08-24T15:34:29.867Z</time>
      </trkpt>
      <trkpt lat="45.72867" lon="5.6361">
        <ele>362</ele>
        <time>2019-08-24T15:34:34.870Z</time>
      </trkpt>
      <trkpt lat="45.72858" lon="5.63608">
        <ele>362</ele>
        <time>2019-08-24T15:34:38.861Z</time>
      </trkpt>
      <trkpt lat="45.72852" lon="5.636">
        <ele>362</ele>
        <time>2019-08-24T15:34:43.842Z</time>
      </trkpt>
      <trkpt lat="45.72848" lon="5.63594">
        <ele>364</ele>
        <time>2019-08-24T15:34:47.874Z</time>
      </trkpt>
      <trkpt lat="45.72842" lon="5.63586">
        <ele>363</ele>
        <time>2019-08-24T15:34:52.873Z</time>
      </trkpt>
      <trkpt lat="45.72835" lon="5.63575">
        <ele>363</ele>
        <time>2019-08-24T15:34:57.833Z</time>
      </trkpt>
      <trkpt lat="45.7283" lon="5.63569">
        <ele>366</ele>
        <time>2019-08-24T15:35:01.862Z</time>
      </trkpt>
      <trkpt lat="45.72823" lon="5.63563">
        <ele>366</ele>
        <time>2019-08-24T15:35:06.862Z</time>
      </trkpt>
      <trkpt lat="45.72819" lon="5.63555">
        <ele>365</ele>
        <time>2019-08-24T15:35:11.854Z</time>
      </trkpt>
      <trkpt lat="45.72814" lon="5.63546">
        <ele>365</ele>
        <time>2019-08-24T15:35:16.873Z</time>
      </trkpt>
      <trkpt lat="45.72809" lon="5.63536">
        <ele>365</ele>
        <time>2019-08-24T15:35:21.877Z</time>
      </trkpt>
      <trkpt lat="45.72805" lon="5.63528">
        <ele>365</ele>
        <time>2019-08-24T15:35:26.872Z</time>
      </trkpt>
      <trkpt lat="45.728" lon="5.63521">
        <ele>365</ele>
        <time>2019-08-24T15:35:31.860Z</time>
      </trkpt>
      <trkpt lat="45.72794" lon="5.63515">
        <ele>365</ele>
        <time>2019-08-24T15:35:36.861Z</time>
      </trkpt>
      <trkpt lat="45.72788" lon="5.63509">
        <ele>362</ele>
        <time>2019-08-24T15:35:41.870Z</time>
      </trkpt>
      <trkpt lat="45.7278" lon="5.63504">
        <ele>362</ele>
        <time>2019-08-24T15:35:46.866Z</time>
      </trkpt>
      <trkpt lat="45.72773" lon="5.63502">
        <ele>362</ele>
        <time>2019-08-24T15:35:51.869Z</time>
      </trkpt>
      <trkpt lat="45.72771" lon="5.63501">
        <ele>362</ele>
        <time>2019-08-24T15:35:56.859Z</time>
      </trkpt>
      <trkpt lat="45.72765" lon="5.63499">
        <ele>362</ele>
        <time>2019-08-24T15:36:01.860Z</time>
      </trkpt>
      <trkpt lat="45.72758" lon="5.63498">
        <ele>365</ele>
        <time>2019-08-24T15:36:05.866Z</time>
      </trkpt>
      <trkpt lat="45.72749" lon="5.63499">
        <ele>365</ele>
        <time>2019-08-24T15:36:10.858Z</time>
      </trkpt>
      <trkpt lat="45.72739" lon="5.635">
        <ele>365</ele>
        <time>2019-08-24T15:36:15.867Z</time>
      </trkpt>
      <trkpt lat="45.72731" lon="5.63502">
        <ele>365</ele>
        <time>2019-08-24T15:36:20.862Z</time>
      </trkpt>
      <trkpt lat="45.72722" lon="5.63503">
        <ele>365</ele>
        <time>2019-08-24T15:36:25.860Z</time>
      </trkpt>
      <trkpt lat="45.72716" lon="5.63504">
        <ele>365</ele>
        <time>2019-08-24T15:36:29.857Z</time>
      </trkpt>
      <trkpt lat="45.72709" lon="5.63505">
        <ele>365</ele>
        <time>2019-08-24T15:36:33.862Z</time>
      </trkpt>
      <trkpt lat="45.727" lon="5.63505">
        <ele>363</ele>
        <time>2019-08-24T15:36:38.849Z</time>
      </trkpt>
      <trkpt lat="45.72693" lon="5.63506">
        <ele>363</ele>
        <time>2019-08-24T15:36:43.850Z</time>
      </trkpt>
      <trkpt lat="45.72687" lon="5.63507">
        <ele>363</ele>
        <time>2019-08-24T15:36:47.856Z</time>
      </trkpt>
      <trkpt lat="45.72674" lon="5.63504">
        <ele>357</ele>
        <time>2019-08-24T15:37:29.846Z</time>
      </trkpt>
      <trkpt lat="45.72674" lon="5.63504">
        <ele>357</ele>
        <time>2019-08-24T15:37:34.838Z</time>
      </trkpt>
      <trkpt lat="45.72673" lon="5.63504">
        <ele>357</ele>
        <time>2019-08-24T15:37:39.855Z</time>
      </trkpt>
      <trkpt lat="45.72671" lon="5.63506">
        <ele>357</ele>
        <time>2019-08-24T15:37:44.835Z</time>
      </trkpt>
      <trkpt lat="45.72667" lon="5.63507">
        <ele>357</ele>
        <time>2019-08-24T15:37:48.865Z</time>
      </trkpt>
      <trkpt lat="45.7266" lon="5.63507">
        <ele>357</ele>
        <time>2019-08-24T15:37:53.854Z</time>
      </trkpt>
      <trkpt lat="45.72653" lon="5.63504">
        <ele>357</ele>
        <time>2019-08-24T15:37:58.863Z</time>
      </trkpt>
      <trkpt lat="45.72649" lon="5.63498">
        <ele>353</ele>
        <time>2019-08-24T15:38:03.851Z</time>
      </trkpt>
      <trkpt lat="45.72643" lon="5.63499">
        <ele>353</ele>
        <time>2019-08-24T15:38:08.845Z</time>
      </trkpt>
      <trkpt lat="45.72636" lon="5.63499">
        <ele>353</ele>
        <time>2019-08-24T15:38:13.848Z</time>
      </trkpt>
      <trkpt lat="45.72632" lon="5.63501">
        <ele>353</ele>
        <time>2019-08-24T15:38:17.867Z</time>
      </trkpt>
      <trkpt lat="45.72626" lon="5.63502">
        <ele>353</ele>
        <time>2019-08-24T15:38:21.864Z</time>
      </trkpt>
      <trkpt lat="45.7262" lon="5.63505">
        <ele>356</ele>
        <time>2019-08-24T15:38:26.866Z</time>
      </trkpt>
      <trkpt lat="45.72613" lon="5.6351">
        <ele>356</ele>
        <time>2019-08-24T15:38:31.857Z</time>
      </trkpt>
      <trkpt lat="45.72606" lon="5.63513">
        <ele>356</ele>
        <time>2019-08-24T15:38:36.837Z</time>
      </trkpt>
      <trkpt lat="45.72602" lon="5.63514">
        <ele>356</ele>
        <time>2019-08-24T15:38:40.862Z</time>
      </trkpt>
      <trkpt lat="45.726" lon="5.63515">
        <ele>362</ele>
        <time>2019-08-24T15:38:45.858Z</time>
      </trkpt>
      <trkpt lat="45.72596" lon="5.63517">
        <ele>361</ele>
        <time>2019-08-24T15:38:50.870Z</time>
      </trkpt>
      <trkpt lat="45.7259" lon="5.63518">
        <ele>361</ele>
        <time>2019-08-24T15:38:55.860Z</time>
      </trkpt>
      <trkpt lat="45.72583" lon="5.6352">
        <ele>361</ele>
        <time>2019-08-24T15:39:00.861Z</time>
      </trkpt>
      <trkpt lat="45.72575" lon="5.63521">
        <ele>361</ele>
        <time>2019-08-24T15:39:05.857Z</time>
      </trkpt>
      <trkpt lat="45.72567" lon="5.63521">
        <ele>359</ele>
        <time>2019-08-24T15:39:10.852Z</time>
      </trkpt>
      <trkpt lat="45.72561" lon="5.63521">
        <ele>359</ele>
        <time>2019-08-24T15:39:14.849Z</time>
      </trkpt>
      <trkpt lat="45.72555" lon="5.63518">
        <ele>359</ele>
        <time>2019-08-24T15:39:19.850Z</time>
      </trkpt>
      <trkpt lat="45.72546" lon="5.6352">
        <ele>359</ele>
        <time>2019-08-24T15:39:24.851Z</time>
      </trkpt>
      <trkpt lat="45.72539" lon="5.6352">
        <ele>361</ele>
        <time>2019-08-24T15:39:29.846Z</time>
      </trkpt>
      <trkpt lat="45.72532" lon="5.63521">
        <ele>361</ele>
        <time>2019-08-24T15:39:33.862Z</time>
      </trkpt>
      <trkpt lat="45.72524" lon="5.63522">
        <ele>361</ele>
        <time>2019-08-24T15:39:38.862Z</time>
      </trkpt>
      <trkpt lat="45.72516" lon="5.63521">
        <ele>361</ele>
        <time>2019-08-24T15:39:43.858Z</time>
      </trkpt>
      <trkpt lat="45.72508" lon="5.63522">
        <ele>360</ele>
        <time>2019-08-24T15:39:48.868Z</time>
      </trkpt>
      <trkpt lat="45.72502" lon="5.63524">
        <ele>360</ele>
        <time>2019-08-24T15:39:53.859Z</time>
      </trkpt>
      <trkpt lat="45.72494" lon="5.63528">
        <ele>360</ele>
        <time>2019-08-24T15:39:58.852Z</time>
      </trkpt>
      <trkpt lat="45.72487" lon="5.63529">
        <ele>360</ele>
        <time>2019-08-24T15:40:03.851Z</time>
      </trkpt>
      <trkpt lat="45.72479" lon="5.63529">
        <ele>358</ele>
        <time>2019-08-24T15:40:08.868Z</time>
      </trkpt>
      <trkpt lat="45.72473" lon="5.63531">
        <ele>358</ele>
        <time>2019-08-24T15:40:13.854Z</time>
      </trkpt>
      <trkpt lat="45.72465" lon="5.63535">
        <ele>358</ele>
        <time>2019-08-24T15:40:18.853Z</time>
      </trkpt>
      <trkpt lat="45.72459" lon="5.63534">
        <ele>358</ele>
        <time>2019-08-24T15:40:23.865Z</time>
      </trkpt>
      <trkpt lat="45.72449" lon="5.63539">
        <ele>357</ele>
        <time>2019-08-24T15:40:28.858Z</time>
      </trkpt>
      <trkpt lat="45.72441" lon="5.63541">
        <ele>357</ele>
        <time>2019-08-24T15:40:33.861Z</time>
      </trkpt>
      <trkpt lat="45.72435" lon="5.63543">
        <ele>362</ele>
        <time>2019-08-24T15:40:38.867Z</time>
      </trkpt>
      <trkpt lat="45.72427" lon="5.63548">
        <ele>360</ele>
        <time>2019-08-24T15:40:43.856Z</time>
      </trkpt>
      <trkpt lat="45.72418" lon="5.63551">
        <ele>360</ele>
        <time>2019-08-24T15:40:48.866Z</time>
      </trkpt>
      <trkpt lat="45.72409" lon="5.63554">
        <ele>360</ele>
        <time>2019-08-24T15:40:53.862Z</time>
      </trkpt>
      <trkpt lat="45.72402" lon="5.63553">
        <ele>360</ele>
        <time>2019-08-24T15:40:58.877Z</time>
      </trkpt>
      <trkpt lat="45.72394" lon="5.63553">
        <ele>360</ele>
        <time>2019-08-24T15:41:03.851Z</time>
      </trkpt>
      <trkpt lat="45.72387" lon="5.63554">
        <ele>360</ele>
        <time>2019-08-24T15:41:07.861Z</time>
      </trkpt>
      <trkpt lat="45.7238" lon="5.63553">
        <ele>360</ele>
        <time>2019-08-24T15:41:12.855Z</time>
      </trkpt>
      <trkpt lat="45.72375" lon="5.63553">
        <ele>360</ele>
        <time>2019-08-24T15:41:16.859Z</time>
      </trkpt>
      <trkpt lat="45.72368" lon="5.63553">
        <ele>360</ele>
        <time>2019-08-24T15:41:21.869Z</time>
      </trkpt>
      <trkpt lat="45.7236" lon="5.63554">
        <ele>360</ele>
        <time>2019-08-24T15:41:26.852Z</time>
      </trkpt>
      <trkpt lat="45.72352" lon="5.63552">
        <ele>360</ele>
        <time>2019-08-24T15:41:31.865Z</time>
      </trkpt>
      <trkpt lat="45.72345" lon="5.63552">
        <ele>360</ele>
        <time>2019-08-24T15:41:35.862Z</time>
      </trkpt>
      <trkpt lat="45.72337" lon="5.63552">
        <ele>360</ele>
        <time>2019-08-24T15:41:40.875Z</time>
      </trkpt>
      <trkpt lat="45.72328" lon="5.63554">
        <ele>360</ele>
        <time>2019-08-24T15:41:45.859Z</time>
      </trkpt>
      <trkpt lat="45.72321" lon="5.63556">
        <ele>360</ele>
        <time>2019-08-24T15:41:50.864Z</time>
      </trkpt>
      <trkpt lat="45.72314" lon="5.63561">
        <ele>359</ele>
        <time>2019-08-24T15:41:54.860Z</time>
      </trkpt>
      <trkpt lat="45.72306" lon="5.63566">
        <ele>359</ele>
        <time>2019-08-24T15:41:59.862Z</time>
      </trkpt>
      <trkpt lat="45.72298" lon="5.63569">
        <ele>359</ele>
        <time>2019-08-24T15:42:04.876Z</time>
      </trkpt>
      <trkpt lat="45.72291" lon="5.63572">
        <ele>362</ele>
        <time>2019-08-24T15:42:09.851Z</time>
      </trkpt>
      <trkpt lat="45.72288" lon="5.63576">
        <ele>362</ele>
        <time>2019-08-24T15:42:13.872Z</time>
      </trkpt>
      <trkpt lat="45.72282" lon="5.63579">
        <ele>362</ele>
        <time>2019-08-24T15:42:18.856Z</time>
      </trkpt>
      <trkpt lat="45.72276" lon="5.63585">
        <ele>362</ele>
        <time>2019-08-24T15:42:22.885Z</time>
      </trkpt>
      <trkpt lat="45.72272" lon="5.63592">
        <ele>362</ele>
        <time>2019-08-24T15:42:26.846Z</time>
      </trkpt>
      <trkpt lat="45.72267" lon="5.636">
        <ele>364</ele>
        <time>2019-08-24T15:42:31.851Z</time>
      </trkpt>
      <trkpt lat="45.72262" lon="5.63608">
        <ele>362</ele>
        <time>2019-08-24T15:42:36.856Z</time>
      </trkpt>
      <trkpt lat="45.72258" lon="5.63616">
        <ele>362</ele>
        <time>2019-08-24T15:42:41.888Z</time>
      </trkpt>
      <trkpt lat="45.72253" lon="5.63626">
        <ele>364</ele>
        <time>2019-08-24T15:42:46.883Z</time>
      </trkpt>
      <trkpt lat="45.72249" lon="5.63634">
        <ele>364</ele>
        <time>2019-08-24T15:42:51.863Z</time>
      </trkpt>
      <trkpt lat="45.72247" lon="5.63639">
        <ele>364</ele>
        <time>2019-08-24T15:42:55.865Z</time>
      </trkpt>
      <trkpt lat="45.72244" lon="5.63643">
        <ele>364</ele>
        <time>2019-08-24T15:43:00.865Z</time>
      </trkpt>
      <trkpt lat="45.72238" lon="5.63653">
        <ele>364</ele>
        <time>2019-08-24T15:43:05.878Z</time>
      </trkpt>
      <trkpt lat="45.72228" lon="5.63669">
        <ele>363</ele>
        <time>2019-08-24T15:43:10.855Z</time>
      </trkpt>
      <trkpt lat="45.72219" lon="5.63689">
        <ele>364</ele>
        <time>2019-08-24T15:43:14.868Z</time>
      </trkpt>
      <trkpt lat="45.72212" lon="5.63706">
        <ele>364</ele>
        <time>2019-08-24T15:43:18.867Z</time>
      </trkpt>
      <trkpt lat="45.72197" lon="5.63725">
        <ele>363</ele>
        <time>2019-08-24T15:43:23.862Z</time>
      </trkpt>
      <trkpt lat="45.72187" lon="5.63738">
        <ele>364</ele>
        <time>2019-08-24T15:43:27.844Z</time>
      </trkpt>
      <trkpt lat="45.72176" lon="5.63754">
        <ele>364</ele>
        <time>2019-08-24T15:43:32.866Z</time>
      </trkpt>
      <trkpt lat="45.72172" lon="5.63763">
        <ele>364</ele>
        <time>2019-08-24T15:43:37.849Z</time>
      </trkpt>
      <trkpt lat="45.7217" lon="5.63772">
        <ele>365</ele>
        <time>2019-08-24T15:43:41.856Z</time>
      </trkpt>
      <trkpt lat="45.72161" lon="5.63778">
        <ele>365</ele>
        <time>2019-08-24T15:43:46.868Z</time>
      </trkpt>
      <trkpt lat="45.72155" lon="5.63785">
        <ele>365</ele>
        <time>2019-08-24T15:43:51.864Z</time>
      </trkpt>
      <trkpt lat="45.72147" lon="5.6379">
        <ele>364</ele>
        <time>2019-08-24T15:43:56.857Z</time>
      </trkpt>
      <trkpt lat="45.72137" lon="5.63794">
        <ele>366</ele>
        <time>2019-08-24T15:44:00.859Z</time>
      </trkpt>
      <trkpt lat="45.72119" lon="5.63804">
        <ele>364</ele>
        <time>2019-08-24T15:44:05.864Z</time>
      </trkpt>
      <trkpt lat="45.72105" lon="5.63808">
        <ele>364</ele>
        <time>2019-08-24T15:44:09.873Z</time>
      </trkpt>
      <trkpt lat="45.72098" lon="5.63808">
        <ele>364</ele>
        <time>2019-08-24T15:44:14.855Z</time>
      </trkpt>
      <trkpt lat="45.72094" lon="5.63808">
        <ele>363</ele>
        <time>2019-08-24T15:44:19.884Z</time>
      </trkpt>
      <trkpt lat="45.72084" lon="5.63815">
        <ele>363</ele>
        <time>2019-08-24T15:44:24.863Z</time>
      </trkpt>
      <trkpt lat="45.72069" lon="5.63823">
        <ele>366</ele>
        <time>2019-08-24T15:44:28.852Z</time>
      </trkpt>
      <trkpt lat="45.72058" lon="5.63828">
        <ele>366</ele>
        <time>2019-08-24T15:44:33.854Z</time>
      </trkpt>
      <trkpt lat="45.72051" lon="5.63836">
        <ele>366</ele>
        <time>2019-08-24T15:44:37.869Z</time>
      </trkpt>
      <trkpt lat="45.72043" lon="5.6384">
        <ele>366</ele>
        <time>2019-08-24T15:44:42.850Z</time>
      </trkpt>
      <trkpt lat="45.72035" lon="5.63844">
        <ele>363</ele>
        <time>2019-08-24T15:44:47.850Z</time>
      </trkpt>
      <trkpt lat="45.7203" lon="5.63846">
        <ele>363</ele>
        <time>2019-08-24T15:44:51.869Z</time>
      </trkpt>
      <trkpt lat="45.7202" lon="5.6385">
        <ele>367</ele>
        <time>2019-08-24T15:44:56.873Z</time>
      </trkpt>
      <trkpt lat="45.72" lon="5.63849">
        <ele>367</ele>
        <time>2019-08-24T15:45:01.885Z</time>
      </trkpt>
      <trkpt lat="45.71975" lon="5.63855">
        <ele>366</ele>
        <time>2019-08-24T15:45:06.864Z</time>
      </trkpt>
      <trkpt lat="45.71951" lon="5.63864">
        <ele>364</ele>
        <time>2019-08-24T15:45:11.842Z</time>
      </trkpt>
      <trkpt lat="45.71931" lon="5.63872">
        <ele>364</ele>
        <time>2019-08-24T15:45:15.853Z</time>
      </trkpt>
      <trkpt lat="45.71912" lon="5.6388">
        <ele>368</ele>
        <time>2019-08-24T15:45:19.863Z</time>
      </trkpt>
      <trkpt lat="45.71894" lon="5.63889">
        <ele>368</ele>
        <time>2019-08-24T15:45:23.862Z</time>
      </trkpt>
      <trkpt lat="45.71883" lon="5.63892">
        <ele>368</ele>
        <time>2019-08-24T15:45:28.856Z</time>
      </trkpt>
      <trkpt lat="45.71874" lon="5.63892">
        <ele>366</ele>
        <time>2019-08-24T15:45:33.840Z</time>
      </trkpt>
      <trkpt lat="45.71867" lon="5.63893">
        <ele>366</ele>
        <time>2019-08-24T15:45:38.843Z</time>
      </trkpt>
      <trkpt lat="45.71863" lon="5.63893">
        <ele>366</ele>
        <time>2019-08-24T15:45:42.860Z</time>
      </trkpt>
      <trkpt lat="45.71855" lon="5.63892">
        <ele>366</ele>
        <time>2019-08-24T15:45:47.834Z</time>
      </trkpt>
      <trkpt lat="45.71849" lon="5.63896">
        <ele>366</ele>
        <time>2019-08-24T15:45:52.846Z</time>
      </trkpt>
      <trkpt lat="45.7184" lon="5.63901">
        <ele>361</ele>
        <time>2019-08-24T15:45:57.846Z</time>
      </trkpt>
      <trkpt lat="45.71834" lon="5.63908">
        <ele>365</ele>
        <time>2019-08-24T15:46:02.843Z</time>
      </trkpt>
      <trkpt lat="45.71828" lon="5.63913">
        <ele>365</ele>
        <time>2019-08-24T15:46:06.848Z</time>
      </trkpt>
      <trkpt lat="45.71824" lon="5.63919">
        <ele>365</ele>
        <time>2019-08-24T15:46:11.841Z</time>
      </trkpt>
      <trkpt lat="45.7182" lon="5.63925">
        <ele>365</ele>
        <time>2019-08-24T15:46:16.840Z</time>
      </trkpt>
      <trkpt lat="45.71814" lon="5.63935">
        <ele>363</ele>
        <time>2019-08-24T15:46:21.863Z</time>
      </trkpt>
      <trkpt lat="45.71806" lon="5.63946">
        <ele>363</ele>
        <time>2019-08-24T15:46:26.851Z</time>
      </trkpt>
      <trkpt lat="45.718" lon="5.63954">
        <ele>363</ele>
        <time>2019-08-24T15:46:31.843Z</time>
      </trkpt>
      <trkpt lat="45.71797" lon="5.6396">
        <ele>365</ele>
        <time>2019-08-24T15:46:35.836Z</time>
      </trkpt>
      <trkpt lat="45.71795" lon="5.63965">
        <ele>365</ele>
        <time>2019-08-24T15:46:39.842Z</time>
      </trkpt>
      <trkpt lat="45.71793" lon="5.63972">
        <ele>365</ele>
        <time>2019-08-24T15:46:44.830Z</time>
      </trkpt>
      <trkpt lat="45.71791" lon="5.63979">
        <ele>360</ele>
        <time>2019-08-24T15:46:48.886Z</time>
      </trkpt>
      <trkpt lat="45.71791" lon="5.63987">
        <ele>361</ele>
        <time>2019-08-24T15:46:53.840Z</time>
      </trkpt>
      <trkpt lat="45.71788" lon="5.63993">
        <ele>361</ele>
        <time>2019-08-24T15:46:57.851Z</time>
      </trkpt>
      <trkpt lat="45.71786" lon="5.64001">
        <ele>361</ele>
        <time>2019-08-24T15:47:02.839Z</time>
      </trkpt>
      <trkpt lat="45.71783" lon="5.64007">
        <ele>361</ele>
        <time>2019-08-24T15:47:06.846Z</time>
      </trkpt>
      <trkpt lat="45.71781" lon="5.64016">
        <ele>362</ele>
        <time>2019-08-24T15:47:11.827Z</time>
      </trkpt>
      <trkpt lat="45.71778" lon="5.64025">
        <ele>362</ele>
        <time>2019-08-24T15:47:16.838Z</time>
      </trkpt>
      <trkpt lat="45.71774" lon="5.64037">
        <ele>362</ele>
        <time>2019-08-24T15:47:21.833Z</time>
      </trkpt>
      <trkpt lat="45.71773" lon="5.64047">
        <ele>363</ele>
        <time>2019-08-24T15:47:26.854Z</time>
      </trkpt>
      <trkpt lat="45.7177" lon="5.64061">
        <ele>363</ele>
        <time>2019-08-24T15:47:31.840Z</time>
      </trkpt>
      <trkpt lat="45.71768" lon="5.6407">
        <ele>365</ele>
        <time>2019-08-24T15:47:35.855Z</time>
      </trkpt>
      <trkpt lat="45.71764" lon="5.64086">
        <ele>365</ele>
        <time>2019-08-24T15:47:40.847Z</time>
      </trkpt>
      <trkpt lat="45.71763" lon="5.64093">
        <ele>358</ele>
        <time>2019-08-24T15:47:44.851Z</time>
      </trkpt>
      <trkpt lat="45.71763" lon="5.64105">
        <ele>359</ele>
        <time>2019-08-24T15:47:49.838Z</time>
      </trkpt>
      <trkpt lat="45.71761" lon="5.64113">
        <ele>359</ele>
        <time>2019-08-24T15:47:53.837Z</time>
      </trkpt>
      <trkpt lat="45.71759" lon="5.64121">
        <ele>359</ele>
        <time>2019-08-24T15:47:58.844Z</time>
      </trkpt>
      <trkpt lat="45.71755" lon="5.64132">
        <ele>359</ele>
        <time>2019-08-24T15:48:03.851Z</time>
      </trkpt>
      <trkpt lat="45.71748" lon="5.64141">
        <ele>359</ele>
        <time>2019-08-24T15:48:08.862Z</time>
      </trkpt>
      <trkpt lat="45.71744" lon="5.64151">
        <ele>359</ele>
        <time>2019-08-24T15:48:13.851Z</time>
      </trkpt>
      <trkpt lat="45.71741" lon="5.64157">
        <ele>360</ele>
        <time>2019-08-24T15:48:17.873Z</time>
      </trkpt>
      <trkpt lat="45.71738" lon="5.64164">
        <ele>360</ele>
        <time>2019-08-24T15:48:21.864Z</time>
      </trkpt>
      <trkpt lat="45.71734" lon="5.64173">
        <ele>356</ele>
        <time>2019-08-24T15:48:26.853Z</time>
      </trkpt>
      <trkpt lat="45.71731" lon="5.64179">
        <ele>356</ele>
        <time>2019-08-24T15:48:30.855Z</time>
      </trkpt>
      <trkpt lat="45.71726" lon="5.64186">
        <ele>356</ele>
        <time>2019-08-24T15:48:35.854Z</time>
      </trkpt>
      <trkpt lat="45.71722" lon="5.64191">
        <ele>356</ele>
        <time>2019-08-24T15:48:39.884Z</time>
      </trkpt>
      <trkpt lat="45.71718" lon="5.642">
        <ele>356</ele>
        <time>2019-08-24T15:48:44.865Z</time>
      </trkpt>
      <trkpt lat="45.71716" lon="5.64206">
        <ele>356</ele>
        <time>2019-08-24T15:48:49.870Z</time>
      </trkpt>
      <trkpt lat="45.71714" lon="5.64211">
        <ele>357</ele>
        <time>2019-08-24T15:48:54.864Z</time>
      </trkpt>
      <trkpt lat="45.71707" lon="5.64215">
        <ele>355</ele>
        <time>2019-08-24T15:48:59.897Z</time>
      </trkpt>
      <trkpt lat="45.71699" lon="5.64217">
        <ele>355</ele>
        <time>2019-08-24T15:49:04.860Z</time>
      </trkpt>
      <trkpt lat="45.71692" lon="5.6422">
        <ele>355</ele>
        <time>2019-08-24T15:49:09.847Z</time>
      </trkpt>
      <trkpt lat="45.71686" lon="5.64222">
        <ele>355</ele>
        <time>2019-08-24T15:49:13.855Z</time>
      </trkpt>
      <trkpt lat="45.7168" lon="5.64225">
        <ele>353</ele>
        <time>2019-08-24T15:49:18.853Z</time>
      </trkpt>
      <trkpt lat="45.71672" lon="5.64228">
        <ele>353</ele>
        <time>2019-08-24T15:49:23.849Z</time>
      </trkpt>
      <trkpt lat="45.71667" lon="5.64231">
        <ele>353</ele>
        <time>2019-08-24T15:49:28.860Z</time>
      </trkpt>
      <trkpt lat="45.7166" lon="5.64232">
        <ele>353</ele>
        <time>2019-08-24T15:49:33.846Z</time>
      </trkpt>
      <trkpt lat="45.71654" lon="5.64233">
        <ele>353</ele>
        <time>2019-08-24T15:49:37.850Z</time>
      </trkpt>
      <trkpt lat="45.71648" lon="5.64235">
        <ele>350</ele>
        <time>2019-08-24T15:49:42.865Z</time>
      </trkpt>
      <trkpt lat="45.71641" lon="5.64232">
        <ele>350</ele>
        <time>2019-08-24T15:49:47.866Z</time>
      </trkpt>
      <trkpt lat="45.71633" lon="5.64229">
        <ele>350</ele>
        <time>2019-08-24T15:49:52.852Z</time>
      </trkpt>
      <trkpt lat="45.71626" lon="5.64229">
        <ele>350</ele>
        <time>2019-08-24T15:49:57.846Z</time>
      </trkpt>
      <trkpt lat="45.71621" lon="5.64229">
        <ele>348</ele>
        <time>2019-08-24T15:50:01.852Z</time>
      </trkpt>
      <trkpt lat="45.71614" lon="5.64227">
        <ele>348</ele>
        <time>2019-08-24T15:50:06.865Z</time>
      </trkpt>
      <trkpt lat="45.71608" lon="5.64226">
        <ele>348</ele>
        <time>2019-08-24T15:50:11.897Z</time>
      </trkpt>
      <trkpt lat="45.71602" lon="5.64225">
        <ele>348</ele>
        <time>2019-08-24T15:50:16.851Z</time>
      </trkpt>
      <trkpt lat="45.71595" lon="5.64224">
        <ele>347</ele>
        <time>2019-08-24T15:50:21.945Z</time>
      </trkpt>
      <trkpt lat="45.71588" lon="5.6422">
        <ele>347</ele>
        <time>2019-08-24T15:50:26.887Z</time>
      </trkpt>
      <trkpt lat="45.71579" lon="5.64218">
        <ele>347</ele>
        <time>2019-08-24T15:50:31.934Z</time>
      </trkpt>
      <trkpt lat="45.71572" lon="5.64215">
        <ele>347</ele>
        <time>2019-08-24T15:50:36.928Z</time>
      </trkpt>
      <trkpt lat="45.71563" lon="5.64213">
        <ele>345</ele>
        <time>2019-08-24T15:50:41.857Z</time>
      </trkpt>
      <trkpt lat="45.71555" lon="5.64212">
        <ele>345</ele>
        <time>2019-08-24T15:50:46.862Z</time>
      </trkpt>
      <trkpt lat="45.71547" lon="5.64208">
        <ele>348</ele>
        <time>2019-08-24T15:50:51.849Z</time>
      </trkpt>
      <trkpt lat="45.71541" lon="5.64205">
        <ele>345</ele>
        <time>2019-08-24T15:50:55.879Z</time>
      </trkpt>
      <trkpt lat="45.71534" lon="5.64201">
        <ele>345</ele>
        <time>2019-08-24T15:51:00.877Z</time>
      </trkpt>
      <trkpt lat="45.71526" lon="5.64198">
        <ele>345</ele>
        <time>2019-08-24T15:51:05.882Z</time>
      </trkpt>
      <trkpt lat="45.71519" lon="5.64195">
        <ele>345</ele>
        <time>2019-08-24T15:51:10.882Z</time>
      </trkpt>
      <trkpt lat="45.71512" lon="5.64191">
        <ele>346</ele>
        <time>2019-08-24T15:51:15.869Z</time>
      </trkpt>
      <trkpt lat="45.71506" lon="5.64188">
        <ele>346</ele>
        <time>2019-08-24T15:51:19.876Z</time>
      </trkpt>
      <trkpt lat="45.71498" lon="5.64187">
        <ele>346</ele>
        <time>2019-08-24T15:51:24.856Z</time>
      </trkpt>
      <trkpt lat="45.71491" lon="5.64191">
        <ele>346</ele>
        <time>2019-08-24T15:51:29.853Z</time>
      </trkpt>
      <trkpt lat="45.71485" lon="5.64194">
        <ele>346</ele>
        <time>2019-08-24T15:51:34.877Z</time>
      </trkpt>
      <trkpt lat="45.71475" lon="5.64198">
        <ele>346</ele>
        <time>2019-08-24T15:51:39.874Z</time>
      </trkpt>
      <trkpt lat="45.71467" lon="5.64199">
        <ele>346</ele>
        <time>2019-08-24T15:51:44.882Z</time>
      </trkpt>
      <trkpt lat="45.71457" lon="5.64202">
        <ele>344</ele>
        <time>2019-08-24T15:51:49.883Z</time>
      </trkpt>
      <trkpt lat="45.7145" lon="5.64204">
        <ele>344</ele>
        <time>2019-08-24T15:51:53.898Z</time>
      </trkpt>
      <trkpt lat="45.71441" lon="5.64206">
        <ele>344</ele>
        <time>2019-08-24T15:51:58.874Z</time>
      </trkpt>
      <trkpt lat="45.71433" lon="5.64205">
        <ele>344</ele>
        <time>2019-08-24T15:52:03.886Z</time>
      </trkpt>
      <trkpt lat="45.71426" lon="5.64205">
        <ele>346</ele>
        <time>2019-08-24T15:52:08.869Z</time>
      </trkpt>
      <trkpt lat="45.71418" lon="5.64204">
        <ele>346</ele>
        <time>2019-08-24T15:52:13.860Z</time>
      </trkpt>
      <trkpt lat="45.71411" lon="5.64202">
        <ele>346</ele>
        <time>2019-08-24T15:52:18.870Z</time>
      </trkpt>
      <trkpt lat="45.71403" lon="5.64199">
        <ele>348</ele>
        <time>2019-08-24T15:52:23.843Z</time>
      </trkpt>
      <trkpt lat="45.71397" lon="5.64198">
        <ele>348</ele>
        <time>2019-08-24T15:52:27.871Z</time>
      </trkpt>
      <trkpt lat="45.7139" lon="5.64199">
        <ele>348</ele>
        <time>2019-08-24T15:52:32.864Z</time>
      </trkpt>
      <trkpt lat="45.71384" lon="5.642">
        <ele>348</ele>
        <time>2019-08-24T15:52:36.856Z</time>
      </trkpt>
      <trkpt lat="45.71377" lon="5.64202">
        <ele>348</ele>
        <time>2019-08-24T15:52:40.875Z</time>
      </trkpt>
      <trkpt lat="45.71371" lon="5.64201">
        <ele>350</ele>
        <time>2019-08-24T15:52:45.871Z</time>
      </trkpt>
      <trkpt lat="45.71364" lon="5.64201">
        <ele>350</ele>
        <time>2019-08-24T15:52:50.858Z</time>
      </trkpt>
      <trkpt lat="45.7136" lon="5.64201">
        <ele>350</ele>
        <time>2019-08-24T15:52:54.880Z</time>
      </trkpt>
      <trkpt lat="45.71353" lon="5.64201">
        <ele>350</ele>
        <time>2019-08-24T15:52:59.866Z</time>
      </trkpt>
      <trkpt lat="45.71348" lon="5.64202">
        <ele>350</ele>
        <time>2019-08-24T15:53:04.871Z</time>
      </trkpt>
      <trkpt lat="45.7134" lon="5.64205">
        <ele>350</ele>
        <time>2019-08-24T15:53:09.873Z</time>
      </trkpt>
      <trkpt lat="45.71332" lon="5.64207">
        <ele>350</ele>
        <time>2019-08-24T15:53:14.893Z</time>
      </trkpt>
      <trkpt lat="45.71325" lon="5.64207">
        <ele>350</ele>
        <time>2019-08-24T15:53:19.873Z</time>
      </trkpt>
      <trkpt lat="45.71317" lon="5.64209">
        <ele>345</ele>
        <time>2019-08-24T15:53:24.851Z</time>
      </trkpt>
      <trkpt lat="45.71309" lon="5.64211">
        <ele>345</ele>
        <time>2019-08-24T15:53:28.852Z</time>
      </trkpt>
      <trkpt lat="45.713" lon="5.64212">
        <ele>345</ele>
        <time>2019-08-24T15:53:32.870Z</time>
      </trkpt>
      <trkpt lat="45.71291" lon="5.64216">
        <ele>343</ele>
        <time>2019-08-24T15:53:37.869Z</time>
      </trkpt>
      <trkpt lat="45.71287" lon="5.64219">
        <ele>343</ele>
        <time>2019-08-24T15:53:42.879Z</time>
      </trkpt>
      <trkpt lat="45.71282" lon="5.64224">
        <ele>343</ele>
        <time>2019-08-24T15:53:46.853Z</time>
      </trkpt>
      <trkpt lat="45.71272" lon="5.64224">
        <ele>343</ele>
        <time>2019-08-24T15:53:51.861Z</time>
      </trkpt>
      <trkpt lat="45.71263" lon="5.64222">
        <ele>342</ele>
        <time>2019-08-24T15:53:56.883Z</time>
      </trkpt>
      <trkpt lat="45.71256" lon="5.64219">
        <ele>342</ele>
        <time>2019-08-24T15:54:01.859Z</time>
      </trkpt>
      <trkpt lat="45.71249" lon="5.64209">
        <ele>342</ele>
        <time>2019-08-24T15:54:06.858Z</time>
      </trkpt>
      <trkpt lat="45.71243" lon="5.64196">
        <ele>343</ele>
        <time>2019-08-24T15:54:11.879Z</time>
      </trkpt>
      <trkpt lat="45.71236" lon="5.64188">
        <ele>345</ele>
        <time>2019-08-24T15:54:16.873Z</time>
      </trkpt>
      <trkpt lat="45.71226" lon="5.64189">
        <ele>345</ele>
        <time>2019-08-24T15:54:21.896Z</time>
      </trkpt>
      <trkpt lat="45.7122" lon="5.64195">
        <ele>345</ele>
        <time>2019-08-24T15:54:26.858Z</time>
      </trkpt>
      <trkpt lat="45.71213" lon="5.64196">
        <ele>345</ele>
        <time>2019-08-24T15:54:31.852Z</time>
      </trkpt>
      <trkpt lat="45.71209" lon="5.64194">
        <ele>345</ele>
        <time>2019-08-24T15:54:36.860Z</time>
      </trkpt>
      <trkpt lat="45.71205" lon="5.64189">
        <ele>348</ele>
        <time>2019-08-24T15:54:41.877Z</time>
      </trkpt>
      <trkpt lat="45.71199" lon="5.6418">
        <ele>349</ele>
        <time>2019-08-24T15:54:46.910Z</time>
      </trkpt>
      <trkpt lat="45.71195" lon="5.6417">
        <ele>349</ele>
        <time>2019-08-24T15:54:51.892Z</time>
      </trkpt>
      <trkpt lat="45.71194" lon="5.64166">
        <ele>349</ele>
        <time>2019-08-24T15:54:56.890Z</time>
      </trkpt>
      <trkpt lat="45.71183" lon="5.64162">
        <ele>349</ele>
        <time>2019-08-24T15:55:01.899Z</time>
      </trkpt>
      <trkpt lat="45.71173" lon="5.64161">
        <ele>350</ele>
        <time>2019-08-24T15:55:06.922Z</time>
      </trkpt>
      <trkpt lat="45.71169" lon="5.64163">
        <ele>350</ele>
        <time>2019-08-24T15:55:11.854Z</time>
      </trkpt>
      <trkpt lat="45.71165" lon="5.64167">
        <ele>350</ele>
        <time>2019-08-24T15:55:16.859Z</time>
      </trkpt>
      <trkpt lat="45.71159" lon="5.64172">
        <ele>350</ele>
        <time>2019-08-24T15:55:21.850Z</time>
      </trkpt>
      <trkpt lat="45.7115" lon="5.64179">
        <ele>351</ele>
        <time>2019-08-24T15:55:26.846Z</time>
      </trkpt>
      <trkpt lat="45.71131" lon="5.64195">
        <ele>350</ele>
        <time>2019-08-24T15:55:31.850Z</time>
      </trkpt>
      <trkpt lat="45.71112" lon="5.64214">
        <ele>349</ele>
        <time>2019-08-24T15:55:36.850Z</time>
      </trkpt>
      <trkpt lat="45.71096" lon="5.64232">
        <ele>354</ele>
        <time>2019-08-24T15:55:41.856Z</time>
      </trkpt>
      <trkpt lat="45.71089" lon="5.64244">
        <ele>353</ele>
        <time>2019-08-24T15:55:46.843Z</time>
      </trkpt>
      <trkpt lat="45.71085" lon="5.64254">
        <ele>353</ele>
        <time>2019-08-24T15:55:51.854Z</time>
      </trkpt>
      <trkpt lat="45.71084" lon="5.64258">
        <ele>353</ele>
        <time>2019-08-24T15:55:56.845Z</time>
      </trkpt>
      <trkpt lat="45.71082" lon="5.64269">
        <ele>352</ele>
        <time>2019-08-24T15:56:00.854Z</time>
      </trkpt>
      <trkpt lat="45.71081" lon="5.64274">
        <ele>352</ele>
        <time>2019-08-24T15:56:05.861Z</time>
      </trkpt>
      <trkpt lat="45.71076" lon="5.64289">
        <ele>352</ele>
        <time>2019-08-24T15:56:10.853Z</time>
      </trkpt>
      <trkpt lat="45.71068" lon="5.64301">
        <ele>355</ele>
        <time>2019-08-24T15:56:15.848Z</time>
      </trkpt>
      <trkpt lat="45.71063" lon="5.64306">
        <ele>355</ele>
        <time>2019-08-24T15:56:19.856Z</time>
      </trkpt>
      <trkpt lat="45.71055" lon="5.64313">
        <ele>355</ele>
        <time>2019-08-24T15:56:24.862Z</time>
      </trkpt>
      <trkpt lat="45.71048" lon="5.64323">
        <ele>352</ele>
        <time>2019-08-24T15:56:29.862Z</time>
      </trkpt>
      <trkpt lat="45.71046" lon="5.64329">
        <ele>352</ele>
        <time>2019-08-24T15:56:33.880Z</time>
      </trkpt>
      <trkpt lat="45.71036" lon="5.64342">
        <ele>357</ele>
        <time>2019-08-24T15:56:38.876Z</time>
      </trkpt>
      <trkpt lat="45.71004" lon="5.64355">
        <ele>359</ele>
        <time>2019-08-24T15:56:43.889Z</time>
      </trkpt>
      <trkpt lat="45.70974" lon="5.64359">
        <ele>362</ele>
        <time>2019-08-24T15:56:48.882Z</time>
      </trkpt>
      <trkpt lat="45.70953" lon="5.64364">
        <ele>364</ele>
        <time>2019-08-24T15:56:52.875Z</time>
      </trkpt>
      <trkpt lat="45.70943" lon="5.64365">
        <ele>364</ele>
        <time>2019-08-24T15:56:56.906Z</time>
      </trkpt>
      <trkpt lat="45.70934" lon="5.6437">
        <ele>364</ele>
        <time>2019-08-24T15:57:01.866Z</time>
      </trkpt>
      <trkpt lat="45.70931" lon="5.64377">
        <ele>362</ele>
        <time>2019-08-24T15:57:05.879Z</time>
      </trkpt>
      <trkpt lat="45.7093" lon="5.64382">
        <ele>358</ele>
        <time>2019-08-24T15:57:10.878Z</time>
      </trkpt>
      <trkpt lat="45.70925" lon="5.64382">
        <ele>358</ele>
        <time>2019-08-24T15:57:14.873Z</time>
      </trkpt>
      <trkpt lat="45.70918" lon="5.64382">
        <ele>358</ele>
        <time>2019-08-24T15:57:19.870Z</time>
      </trkpt>
      <trkpt lat="45.70914" lon="5.64385">
        <ele>358</ele>
        <time>2019-08-24T15:57:24.870Z</time>
      </trkpt>
      <trkpt lat="45.70911" lon="5.64388">
        <ele>358</ele>
        <time>2019-08-24T15:57:29.873Z</time>
      </trkpt>
      <trkpt lat="45.70908" lon="5.64395">
        <ele>358</ele>
        <time>2019-08-24T15:58:04.881Z</time>
      </trkpt>
      <trkpt lat="45.70907" lon="5.64396">
        <ele>358</ele>
        <time>2019-08-24T15:58:09.863Z</time>
      </trkpt>
      <trkpt lat="45.70907" lon="5.64397">
        <ele>358</ele>
        <time>2019-08-24T15:58:14.854Z</time>
      </trkpt>
      <trkpt lat="45.70907" lon="5.644">
        <ele>358</ele>
        <time>2019-08-24T15:58:19.872Z</time>
      </trkpt>
      <trkpt lat="45.70907" lon="5.64401">
        <ele>358</ele>
        <time>2019-08-24T15:58:24.857Z</time>
      </trkpt>
      <trkpt lat="45.70907" lon="5.64402">
        <ele>358</ele>
        <time>2019-08-24T15:58:29.864Z</time>
      </trkpt>
      <trkpt lat="45.70907" lon="5.64401">
        <ele>358</ele>
        <time>2019-08-24T15:58:34.878Z</time>
      </trkpt>
      <trkpt lat="45.70901" lon="5.64398">
        <ele>357</ele>
        <time>2019-08-24T15:58:39.879Z</time>
      </trkpt>
      <trkpt lat="45.70896" lon="5.64398">
        <ele>357</ele>
        <time>2019-08-24T15:58:44.850Z</time>
      </trkpt>
      <trkpt lat="45.70893" lon="5.644">
        <ele>357</ele>
        <time>2019-08-24T15:58:48.872Z</time>
      </trkpt>
      <trkpt lat="45.7089" lon="5.64404">
        <ele>351</ele>
        <time>2019-08-24T15:58:53.857Z</time>
      </trkpt>
      <trkpt lat="45.70887" lon="5.64406">
        <ele>351</ele>
        <time>2019-08-24T15:58:58.863Z</time>
      </trkpt>
      <trkpt lat="45.70886" lon="5.64408">
        <ele>351</ele>
        <time>2019-08-24T15:59:02.881Z</time>
      </trkpt>
      <trkpt lat="45.70884" lon="5.64415">
        <ele>351</ele>
        <time>2019-08-24T15:59:07.867Z</time>
      </trkpt>
      <trkpt lat="45.70883" lon="5.6442">
        <ele>351</ele>
        <time>2019-08-24T15:59:11.873Z</time>
      </trkpt>
      <trkpt lat="45.70884" lon="5.64425">
        <ele>351</ele>
        <time>2019-08-24T15:59:16.904Z</time>
      </trkpt>
      <trkpt lat="45.70886" lon="5.64434">
        <ele>347</ele>
        <time>2019-08-24T15:59:21.857Z</time>
      </trkpt>
      <trkpt lat="45.70886" lon="5.64442">
        <ele>347</ele>
        <time>2019-08-24T15:59:26.854Z</time>
      </trkpt>
      <trkpt lat="45.70887" lon="5.64448">
        <ele>347</ele>
        <time>2019-08-24T15:59:31.907Z</time>
      </trkpt>
      <trkpt lat="45.70894" lon="5.64458">
        <ele>347</ele>
        <time>2019-08-24T15:59:36.863Z</time>
      </trkpt>
      <trkpt lat="45.70897" lon="5.64467">
        <ele>342</ele>
        <time>2019-08-24T15:59:41.849Z</time>
      </trkpt>
      <trkpt lat="45.70895" lon="5.6447">
        <ele>342</ele>
        <time>2019-08-24T15:59:46.875Z</time>
      </trkpt>
      <trkpt lat="45.70897" lon="5.64476">
        <ele>342</ele>
        <time>2019-08-24T15:59:51.862Z</time>
      </trkpt>
      <trkpt lat="45.709" lon="5.6448">
        <ele>342</ele>
        <time>2019-08-24T15:59:56.869Z</time>
      </trkpt>
      <trkpt lat="45.70904" lon="5.64488">
        <ele>339</ele>
        <time>2019-08-24T16:00:01.859Z</time>
      </trkpt>
      <trkpt lat="45.7091" lon="5.64493">
        <ele>339</ele>
        <time>2019-08-24T16:00:05.905Z</time>
      </trkpt>
      <trkpt lat="45.70914" lon="5.64498">
        <ele>339</ele>
        <time>2019-08-24T16:00:10.893Z</time>
      </trkpt>
      <trkpt lat="45.70919" lon="5.64503">
        <ele>339</ele>
        <time>2019-08-24T16:00:14.891Z</time>
      </trkpt>
      <trkpt lat="45.70925" lon="5.64506">
        <ele>339</ele>
        <time>2019-08-24T16:00:19.881Z</time>
      </trkpt>
      <trkpt lat="45.70933" lon="5.6451">
        <ele>340</ele>
        <time>2019-08-24T16:00:24.864Z</time>
      </trkpt>
      <trkpt lat="45.7094" lon="5.64514">
        <ele>331</ele>
        <time>2019-08-24T16:00:29.883Z</time>
      </trkpt>
      <trkpt lat="45.70946" lon="5.64518">
        <ele>331</ele>
        <time>2019-08-24T16:00:34.879Z</time>
      </trkpt>
      <trkpt lat="45.70947" lon="5.64519">
        <ele>331</ele>
        <time>2019-08-24T16:00:39.874Z</time>
      </trkpt>
      <trkpt lat="45.70954" lon="5.64526">
        <ele>331</ele>
        <time>2019-08-24T16:00:44.884Z</time>
      </trkpt>
      <trkpt lat="45.70962" lon="5.64533">
        <ele>332</ele>
        <time>2019-08-24T16:00:49.880Z</time>
      </trkpt>
      <trkpt lat="45.7097" lon="5.64534">
        <ele>332</ele>
        <time>2019-08-24T16:00:54.860Z</time>
      </trkpt>
      <trkpt lat="45.70975" lon="5.64538">
        <ele>332</ele>
        <time>2019-08-24T16:00:59.878Z</time>
      </trkpt>
      <trkpt lat="45.70973" lon="5.64543">
        <ele>323</ele>
        <time>2019-08-24T16:01:04.879Z</time>
      </trkpt>
      <trkpt lat="45.70973" lon="5.64545">
        <ele>323</ele>
        <time>2019-08-24T16:01:09.873Z</time>
      </trkpt>
      <trkpt lat="45.70977" lon="5.64546">
        <ele>323</ele>
        <time>2019-08-24T16:01:14.888Z</time>
      </trkpt>
      <trkpt lat="45.70985" lon="5.64552">
        <ele>323</ele>
        <time>2019-08-24T16:01:19.879Z</time>
      </trkpt>
      <trkpt lat="45.70993" lon="5.64558">
        <ele>323</ele>
        <time>2019-08-24T16:01:34.887Z</time>
      </trkpt>
      <trkpt lat="45.70995" lon="5.6456">
        <ele>323</ele>
        <time>2019-08-24T16:01:39.885Z</time>
      </trkpt>
      <trkpt lat="45.70998" lon="5.64563">
        <ele>323</ele>
        <time>2019-08-24T16:01:44.877Z</time>
      </trkpt>
      <trkpt lat="45.71" lon="5.64564">
        <ele>323</ele>
        <time>2019-08-24T16:01:49.878Z</time>
      </trkpt>
      <trkpt lat="45.71003" lon="5.64567">
        <ele>323</ele>
        <time>2019-08-24T16:01:54.879Z</time>
      </trkpt>
      <trkpt lat="45.71008" lon="5.64571">
        <ele>314</ele>
        <time>2019-08-24T16:01:59.869Z</time>
      </trkpt>
      <trkpt lat="45.71007" lon="5.64579">
        <ele>314</ele>
        <time>2019-08-24T16:02:04.878Z</time>
      </trkpt>
      <trkpt lat="45.71003" lon="5.64583">
        <ele>314</ele>
        <time>2019-08-24T16:02:09.881Z</time>
      </trkpt>
      <trkpt lat="45.70999" lon="5.64585">
        <ele>314</ele>
        <time>2019-08-24T16:02:14.862Z</time>
      </trkpt>
      <trkpt lat="45.70983" lon="5.64589">
        <ele>314</ele>
        <time>2019-08-24T16:02:43.894Z</time>
      </trkpt>
      <trkpt lat="45.70976" lon="5.64592">
        <ele>314</ele>
        <time>2019-08-24T16:02:48.897Z</time>
      </trkpt>
      <trkpt lat="45.70972" lon="5.64596">
        <ele>314</ele>
        <time>2019-08-24T16:02:53.863Z</time>
      </trkpt>
      <trkpt lat="45.70968" lon="5.64598">
        <ele>307</ele>
        <time>2019-08-24T16:02:58.871Z</time>
      </trkpt>
      <trkpt lat="45.70961" lon="5.64601">
        <ele>307</ele>
        <time>2019-08-24T16:03:03.855Z</time>
      </trkpt>
      <trkpt lat="45.70951" lon="5.64598">
        <ele>306</ele>
        <time>2019-08-24T16:04:14.841Z</time>
      </trkpt>
      <trkpt lat="45.7095" lon="5.64598">
        <ele>306</ele>
        <time>2019-08-24T16:04:19.862Z</time>
      </trkpt>
      <trkpt lat="45.7095" lon="5.64597">
        <ele>306</ele>
        <time>2019-08-24T16:04:24.859Z</time>
      </trkpt>
      <trkpt lat="45.7095" lon="5.64596">
        <ele>316</ele>
        <time>2019-08-24T16:04:29.905Z</time>
      </trkpt>
      <trkpt lat="45.70949" lon="5.64595">
        <ele>316</ele>
        <time>2019-08-24T16:04:34.853Z</time>
      </trkpt>
      <trkpt lat="45.7095" lon="5.64594">
        <ele>316</ele>
        <time>2019-08-24T16:05:33.862Z</time>
      </trkpt>
      <trkpt lat="45.70945" lon="5.646">
        <ele>306</ele>
        <time>2019-08-24T16:05:38.844Z</time>
      </trkpt>
      <trkpt lat="45.70941" lon="5.64607">
        <ele>306</ele>
        <time>2019-08-24T16:05:42.857Z</time>
      </trkpt>
      <trkpt lat="45.70938" lon="5.64615">
        <ele>306</ele>
        <time>2019-08-24T16:05:46.879Z</time>
      </trkpt>
      <trkpt lat="45.70936" lon="5.64625">
        <ele>306</ele>
        <time>2019-08-24T16:05:51.869Z</time>
      </trkpt>
      <trkpt lat="45.70936" lon="5.64631">
        <ele>300</ele>
        <time>2019-08-24T16:05:56.845Z</time>
      </trkpt>
      <trkpt lat="45.70935" lon="5.64631">
        <ele>300</ele>
        <time>2019-08-24T16:06:01.852Z</time>
      </trkpt>
      <trkpt lat="45.70935" lon="5.64632">
        <ele>300</ele>
        <time>2019-08-24T16:06:06.858Z</time>
      </trkpt>
      <trkpt lat="45.70937" lon="5.64639">
        <ele>300</ele>
        <time>2019-08-24T16:06:11.857Z</time>
      </trkpt>
      <trkpt lat="45.70942" lon="5.64643">
        <ele>300</ele>
        <time>2019-08-24T16:06:16.855Z</time>
      </trkpt>
      <trkpt lat="45.7094" lon="5.64652">
        <ele>300</ele>
        <time>2019-08-24T16:06:21.877Z</time>
      </trkpt>
      <trkpt lat="45.70941" lon="5.64658">
        <ele>296</ele>
        <time>2019-08-24T16:06:26.873Z</time>
      </trkpt>
      <trkpt lat="45.70937" lon="5.64666">
        <ele>296</ele>
        <time>2019-08-24T16:06:31.863Z</time>
      </trkpt>
      <trkpt lat="45.70934" lon="5.64671">
        <ele>296</ele>
        <time>2019-08-24T16:06:36.859Z</time>
      </trkpt>
      <trkpt lat="45.70933" lon="5.64671">
        <ele>296</ele>
        <time>2019-08-24T16:06:41.885Z</time>
      </trkpt>
      <trkpt lat="45.70933" lon="5.64671">
        <ele>296</ele>
        <time>2019-08-24T16:06:46.899Z</time>
      </trkpt>
      <trkpt lat="45.70929" lon="5.64675">
        <ele>298</ele>
        <time>2019-08-24T16:06:51.856Z</time>
      </trkpt>
      <trkpt lat="45.70925" lon="5.6468">
        <ele>298</ele>
        <time>2019-08-24T16:06:55.879Z</time>
      </trkpt>
      <trkpt lat="45.70924" lon="5.64689">
        <ele>294</ele>
        <time>2019-08-24T16:07:00.873Z</time>
      </trkpt>
      <trkpt lat="45.70919" lon="5.64698">
        <ele>294</ele>
        <time>2019-08-24T16:07:05.883Z</time>
      </trkpt>
      <trkpt lat="45.70913" lon="5.64705">
        <ele>294</ele>
        <time>2019-08-24T16:07:10.891Z</time>
      </trkpt>
      <trkpt lat="45.70906" lon="5.64712">
        <ele>289</ele>
        <time>2019-08-24T16:07:15.874Z</time>
      </trkpt>
      <trkpt lat="45.709" lon="5.64718">
        <ele>293</ele>
        <time>2019-08-24T16:07:20.861Z</time>
      </trkpt>
      <trkpt lat="45.70897" lon="5.64723">
        <ele>293</ele>
        <time>2019-08-24T16:07:24.887Z</time>
      </trkpt>
      <trkpt lat="45.70895" lon="5.64732">
        <ele>293</ele>
        <time>2019-08-24T16:07:29.860Z</time>
      </trkpt>
      <trkpt lat="45.70892" lon="5.64738">
        <ele>289</ele>
        <time>2019-08-24T16:07:33.884Z</time>
      </trkpt>
      <trkpt lat="45.70889" lon="5.64749">
        <ele>289</ele>
        <time>2019-08-24T16:07:38.874Z</time>
      </trkpt>
      <trkpt lat="45.70884" lon="5.64755">
        <ele>289</ele>
        <time>2019-08-24T16:07:43.880Z</time>
      </trkpt>
      <trkpt lat="45.7088" lon="5.64762">
        <ele>289</ele>
        <time>2019-08-24T16:07:48.850Z</time>
      </trkpt>
      <trkpt lat="45.70877" lon="5.64768">
        <ele>284</ele>
        <time>2019-08-24T16:07:53.883Z</time>
      </trkpt>
      <trkpt lat="45.70873" lon="5.64773">
        <ele>289</ele>
        <time>2019-08-24T16:07:58.881Z</time>
      </trkpt>
      <trkpt lat="45.70871" lon="5.6478">
        <ele>289</ele>
        <time>2019-08-24T16:08:02.872Z</time>
      </trkpt>
      <trkpt lat="45.7087" lon="5.64782">
        <ele>289</ele>
        <time>2019-08-24T16:08:06.856Z</time>
      </trkpt>
      <trkpt lat="45.70869" lon="5.64783">
        <ele>289</ele>
        <time>2019-08-24T16:08:11.894Z</time>
      </trkpt>
      <trkpt lat="45.70866" lon="5.64788">
        <ele>289</ele>
        <time>2019-08-24T16:08:16.850Z</time>
      </trkpt>
      <trkpt lat="45.70862" lon="5.64794">
        <ele>286</ele>
        <time>2019-08-24T16:08:21.838Z</time>
      </trkpt>
      <trkpt lat="45.70862" lon="5.64804">
        <ele>286</ele>
        <time>2019-08-24T16:08:26.874Z</time>
      </trkpt>
      <trkpt lat="45.7086" lon="5.64809">
        <ele>286</ele>
        <time>2019-08-24T16:08:31.873Z</time>
      </trkpt>
      <trkpt lat="45.70858" lon="5.6481">
        <ele>286</ele>
        <time>2019-08-24T16:08:36.898Z</time>
      </trkpt>
      <trkpt lat="45.70857" lon="5.64811">
        <ele>286</ele>
        <time>2019-08-24T16:08:41.919Z</time>
      </trkpt>
      <trkpt lat="45.70857" lon="5.64811">
        <ele>286</ele>
        <time>2019-08-24T16:08:46.847Z</time>
      </trkpt>
      <trkpt lat="45.70861" lon="5.64814">
        <ele>286</ele>
        <time>2019-08-24T16:08:51.895Z</time>
      </trkpt>
      <trkpt lat="45.70866" lon="5.64821">
        <ele>284</ele>
        <time>2019-08-24T16:08:56.899Z</time>
      </trkpt>
      <trkpt lat="45.7087" lon="5.64826">
        <ele>284</ele>
        <time>2019-08-24T16:09:01.875Z</time>
      </trkpt>
      <trkpt lat="45.70874" lon="5.6483">
        <ele>284</ele>
        <time>2019-08-24T16:09:06.971Z</time>
      </trkpt>
      <trkpt lat="45.70875" lon="5.64834">
        <ele>284</ele>
        <time>2019-08-24T16:09:11.931Z</time>
      </trkpt>
      <trkpt lat="45.70877" lon="5.64837">
        <ele>279</ele>
        <time>2019-08-24T16:09:16.894Z</time>
      </trkpt>
      <trkpt lat="45.70883" lon="5.64844">
        <ele>279</ele>
        <time>2019-08-24T16:09:21.875Z</time>
      </trkpt>
      <trkpt lat="45.70887" lon="5.64853">
        <ele>274</ele>
        <time>2019-08-24T16:09:26.866Z</time>
      </trkpt>
      <trkpt lat="45.70887" lon="5.6486">
        <ele>274</ele>
        <time>2019-08-24T16:09:31.889Z</time>
      </trkpt>
      <trkpt lat="45.70885" lon="5.64861">
        <ele>274</ele>
        <time>2019-08-24T16:09:36.867Z</time>
      </trkpt>
      <trkpt lat="45.70885" lon="5.64863">
        <ele>274</ele>
        <time>2019-08-24T16:09:41.934Z</time>
      </trkpt>
      <trkpt lat="45.70888" lon="5.64869">
        <ele>274</ele>
        <time>2019-08-24T16:09:46.836Z</time>
      </trkpt>
      <trkpt lat="45.7089" lon="5.64875">
        <ele>270</ele>
        <time>2019-08-24T16:09:50.843Z</time>
      </trkpt>
      <trkpt lat="45.70894" lon="5.64885">
        <ele>270</ele>
        <time>2019-08-24T16:09:55.869Z</time>
      </trkpt>
      <trkpt lat="45.70898" lon="5.64891">
        <ele>270</ele>
        <time>2019-08-24T16:10:00.885Z</time>
      </trkpt>
      <trkpt lat="45.70901" lon="5.64896">
        <ele>270</ele>
        <time>2019-08-24T16:10:05.868Z</time>
      </trkpt>
      <trkpt lat="45.70905" lon="5.649">
        <ele>267</ele>
        <time>2019-08-24T16:10:09.894Z</time>
      </trkpt>
      <trkpt lat="45.7091" lon="5.64907">
        <ele>264</ele>
        <time>2019-08-24T16:10:14.860Z</time>
      </trkpt>
      <trkpt lat="45.70914" lon="5.64912">
        <ele>264</ele>
        <time>2019-08-24T16:10:19.884Z</time>
      </trkpt>
      <trkpt lat="45.70918" lon="5.64919">
        <ele>264</ele>
        <time>2019-08-24T16:10:24.876Z</time>
      </trkpt>
      <trkpt lat="45.70926" lon="5.64928">
        <ele>264</ele>
        <time>2019-08-24T16:10:29.868Z</time>
      </trkpt>
      <trkpt lat="45.70928" lon="5.64938">
        <ele>262</ele>
        <time>2019-08-24T16:10:33.876Z</time>
      </trkpt>
      <trkpt lat="45.70932" lon="5.64948">
        <ele>257</ele>
        <time>2019-08-24T16:10:38.862Z</time>
      </trkpt>
      <trkpt lat="45.70934" lon="5.64956">
        <ele>257</ele>
        <time>2019-08-24T16:10:42.867Z</time>
      </trkpt>
      <trkpt lat="45.70937" lon="5.64964">
        <ele>256</ele>
        <time>2019-08-24T16:10:46.876Z</time>
      </trkpt>
      <trkpt lat="45.70941" lon="5.64973">
        <ele>256</ele>
        <time>2019-08-24T16:10:51.860Z</time>
      </trkpt>
      <trkpt lat="45.70937" lon="5.64976">
        <ele>256</ele>
        <time>2019-08-24T16:11:45.864Z</time>
      </trkpt>
      <trkpt lat="45.70941" lon="5.64978">
        <ele>256</ele>
        <time>2019-08-24T16:11:50.846Z</time>
      </trkpt>
      <trkpt lat="45.70946" lon="5.64984">
        <ele>256</ele>
        <time>2019-08-24T16:11:54.859Z</time>
      </trkpt>
      <trkpt lat="45.70949" lon="5.64992">
        <ele>254</ele>
        <time>2019-08-24T16:11:59.880Z</time>
      </trkpt>
      <trkpt lat="45.70952" lon="5.64995">
        <ele>254</ele>
        <time>2019-08-24T16:12:04.860Z</time>
      </trkpt>
      <trkpt lat="45.70953" lon="5.65007">
        <ele>254</ele>
        <time>2019-08-24T16:12:58.857Z</time>
      </trkpt>
      <trkpt lat="45.70954" lon="5.65008">
        <ele>254</ele>
        <time>2019-08-24T16:13:03.854Z</time>
      </trkpt>
      <trkpt lat="45.70955" lon="5.65016">
        <ele>252</ele>
        <time>2019-08-24T16:13:08.864Z</time>
      </trkpt>
      <trkpt lat="45.70957" lon="5.65022">
        <ele>252</ele>
        <time>2019-08-24T16:13:13.859Z</time>
      </trkpt>
      <trkpt lat="45.70959" lon="5.65023">
        <ele>251</ele>
        <time>2019-08-24T16:13:17.863Z</time>
      </trkpt>
      <trkpt lat="45.70961" lon="5.65027">
        <ele>251</ele>
        <time>2019-08-24T16:13:22.853Z</time>
      </trkpt>
      <trkpt lat="45.70965" lon="5.65037">
        <ele>251</ele>
        <time>2019-08-24T16:13:27.869Z</time>
      </trkpt>
      <trkpt lat="45.70971" lon="5.65044">
        <ele>249</ele>
        <time>2019-08-24T16:13:32.855Z</time>
      </trkpt>
      <trkpt lat="45.70975" lon="5.6505">
        <ele>249</ele>
        <time>2019-08-24T16:13:37.859Z</time>
      </trkpt>
      <trkpt lat="45.70978" lon="5.65057">
        <ele>249</ele>
        <time>2019-08-24T16:13:41.856Z</time>
      </trkpt>
      <trkpt lat="45.70983" lon="5.65066">
        <ele>249</ele>
        <time>2019-08-24T16:13:46.871Z</time>
      </trkpt>
      <trkpt lat="45.70987" lon="5.65076">
        <ele>246</ele>
        <time>2019-08-24T16:13:51.851Z</time>
      </trkpt>
      <trkpt lat="45.7099" lon="5.65082">
        <ele>246</ele>
        <time>2019-08-24T16:13:55.866Z</time>
      </trkpt>
      <trkpt lat="45.70989" lon="5.65092">
        <ele>246</ele>
        <time>2019-08-24T16:14:00.842Z</time>
      </trkpt>
      <trkpt lat="45.70988" lon="5.65099">
        <ele>246</ele>
        <time>2019-08-24T16:14:04.852Z</time>
      </trkpt>
      <trkpt lat="45.70984" lon="5.65109">
        <ele>245</ele>
        <time>2019-08-24T16:14:09.859Z</time>
      </trkpt>
      <trkpt lat="45.70981" lon="5.65115">
        <ele>245</ele>
        <time>2019-08-24T16:14:14.842Z</time>
      </trkpt>
      <trkpt lat="45.70973" lon="5.65126">
        <ele>245</ele>
        <time>2019-08-24T16:14:19.875Z</time>
      </trkpt>
      <trkpt lat="45.70968" lon="5.65129">
        <ele>245</ele>
        <time>2019-08-24T16:14:23.860Z</time>
      </trkpt>
      <trkpt lat="45.70963" lon="5.65135">
        <ele>245</ele>
        <time>2019-08-24T16:14:28.858Z</time>
      </trkpt>
      <trkpt lat="45.70958" lon="5.65143">
        <ele>247</ele>
        <time>2019-08-24T16:14:33.876Z</time>
      </trkpt>
      <trkpt lat="45.70952" lon="5.65151">
        <ele>247</ele>
        <time>2019-08-24T16:14:38.865Z</time>
      </trkpt>
      <trkpt lat="45.70948" lon="5.65159">
        <ele>247</ele>
        <time>2019-08-24T16:14:43.879Z</time>
      </trkpt>
      <trkpt lat="45.70944" lon="5.65159">
        <ele>247</ele>
        <time>2019-08-24T16:14:47.853Z</time>
      </trkpt>
      <trkpt lat="45.7094" lon="5.65162">
        <ele>247</ele>
        <time>2019-08-24T16:14:51.876Z</time>
      </trkpt>
      <trkpt lat="45.70934" lon="5.65165">
        <ele>247</ele>
        <time>2019-08-24T16:14:56.849Z</time>
      </trkpt>
      <trkpt lat="45.70929" lon="5.65171">
        <ele>249</ele>
        <time>2019-08-24T16:15:01.890Z</time>
      </trkpt>
      <trkpt lat="45.70924" lon="5.65175">
        <ele>249</ele>
        <time>2019-08-24T16:15:06.868Z</time>
      </trkpt>
      <trkpt lat="45.70918" lon="5.65182">
        <ele>249</ele>
        <time>2019-08-24T16:15:11.862Z</time>
      </trkpt>
      <trkpt lat="45.70914" lon="5.65183">
        <ele>249</ele>
        <time>2019-08-24T16:15:16.842Z</time>
      </trkpt>
      <trkpt lat="45.70908" lon="5.65188">
        <ele>249</ele>
        <time>2019-08-24T16:15:21.917Z</time>
      </trkpt>
      <trkpt lat="45.709" lon="5.65191">
        <ele>250</ele>
        <time>2019-08-24T16:15:26.855Z</time>
      </trkpt>
      <trkpt lat="45.70893" lon="5.65193">
        <ele>250</ele>
        <time>2019-08-24T16:15:31.888Z</time>
      </trkpt>
      <trkpt lat="45.70884" lon="5.65197">
        <ele>250</ele>
        <time>2019-08-24T16:15:36.850Z</time>
      </trkpt>
      <trkpt lat="45.70875" lon="5.65199">
        <ele>250</ele>
        <time>2019-08-24T16:15:41.881Z</time>
      </trkpt>
      <trkpt lat="45.70868" lon="5.65202">
        <ele>250</ele>
        <time>2019-08-24T16:15:46.847Z</time>
      </trkpt>
      <trkpt lat="45.70861" lon="5.65206">
        <ele>250</ele>
        <time>2019-08-24T16:15:51.878Z</time>
      </trkpt>
      <trkpt lat="45.70855" lon="5.6521">
        <ele>251</ele>
        <time>2019-08-24T16:15:56.853Z</time>
      </trkpt>
      <trkpt lat="45.7085" lon="5.65215">
        <ele>251</ele>
        <time>2019-08-24T16:16:01.882Z</time>
      </trkpt>
      <trkpt lat="45.70846" lon="5.65221">
        <ele>249</ele>
        <time>2019-08-24T16:16:06.844Z</time>
      </trkpt>
      <trkpt lat="45.70843" lon="5.65224">
        <ele>249</ele>
        <time>2019-08-24T16:16:11.893Z</time>
      </trkpt>
      <trkpt lat="45.70841" lon="5.65234">
        <ele>249</ele>
        <time>2019-08-24T16:16:16.868Z</time>
      </trkpt>
      <trkpt lat="45.70838" lon="5.65243">
        <ele>248</ele>
        <time>2019-08-24T16:16:21.888Z</time>
      </trkpt>
      <trkpt lat="45.70834" lon="5.65252">
        <ele>248</ele>
        <time>2019-08-24T16:16:26.859Z</time>
      </trkpt>
      <trkpt lat="45.70828" lon="5.65259">
        <ele>248</ele>
        <time>2019-08-24T16:16:31.872Z</time>
      </trkpt>
      <trkpt lat="45.70824" lon="5.65265">
        <ele>247</ele>
        <time>2019-08-24T16:16:35.883Z</time>
      </trkpt>
      <trkpt lat="45.70819" lon="5.65272">
        <ele>245</ele>
        <time>2019-08-24T16:16:40.863Z</time>
      </trkpt>
      <trkpt lat="45.70813" lon="5.65281">
        <ele>245</ele>
        <time>2019-08-24T16:16:45.879Z</time>
      </trkpt>
      <trkpt lat="45.70806" lon="5.65284">
        <ele>245</ele>
        <time>2019-08-24T16:16:50.852Z</time>
      </trkpt>
      <trkpt lat="45.70799" lon="5.65285">
        <ele>245</ele>
        <time>2019-08-24T16:16:55.873Z</time>
      </trkpt>
      <trkpt lat="45.70794" lon="5.65285">
        <ele>245</ele>
        <time>2019-08-24T16:17:00.848Z</time>
      </trkpt>
      <trkpt lat="45.70788" lon="5.65285">
        <ele>245</ele>
        <time>2019-08-24T16:17:04.841Z</time>
      </trkpt>
      <trkpt lat="45.70783" lon="5.65283">
        <ele>245</ele>
        <time>2019-08-24T16:17:09.879Z</time>
      </trkpt>
      <trkpt lat="45.70782" lon="5.65283">
        <ele>245</ele>
        <time>2019-08-24T16:17:14.852Z</time>
      </trkpt>
      <trkpt lat="45.70778" lon="5.65288">
        <ele>245</ele>
        <time>2019-08-24T16:17:19.861Z</time>
      </trkpt>
      <trkpt lat="45.70775" lon="5.65294">
        <ele>243</ele>
        <time>2019-08-24T16:17:24.843Z</time>
      </trkpt>
      <trkpt lat="45.70772" lon="5.65297">
        <ele>243</ele>
        <time>2019-08-24T16:17:28.856Z</time>
      </trkpt>
      <trkpt lat="45.7077" lon="5.65302">
        <ele>243</ele>
        <time>2019-08-24T16:17:32.847Z</time>
      </trkpt>
      <trkpt lat="45.70771" lon="5.6531">
        <ele>243</ele>
        <time>2019-08-24T16:17:37.879Z</time>
      </trkpt>
      <trkpt lat="45.7077" lon="5.65319">
        <ele>241</ele>
        <time>2019-08-24T16:17:42.844Z</time>
      </trkpt>
      <trkpt lat="45.70768" lon="5.65325">
        <ele>241</ele>
        <time>2019-08-24T16:17:46.860Z</time>
      </trkpt>
      <trkpt lat="45.70767" lon="5.6533">
        <ele>241</ele>
        <time>2019-08-24T16:17:51.935Z</time>
      </trkpt>
      <trkpt lat="45.70766" lon="5.65337">
        <ele>241</ele>
        <time>2019-08-24T16:17:56.855Z</time>
      </trkpt>
      <trkpt lat="45.7076" lon="5.65347">
        <ele>242</ele>
        <time>2019-08-24T16:18:01.838Z</time>
      </trkpt>
      <trkpt lat="45.70759" lon="5.65353">
        <ele>241</ele>
        <time>2019-08-24T16:18:05.860Z</time>
      </trkpt>
      <trkpt lat="45.7076" lon="5.65358">
        <ele>241</ele>
        <time>2019-08-24T16:18:09.852Z</time>
      </trkpt>
      <trkpt lat="45.70761" lon="5.65366">
        <ele>241</ele>
        <time>2019-08-24T16:18:13.855Z</time>
      </trkpt>
      <trkpt lat="45.70761" lon="5.65377">
        <ele>240</ele>
        <time>2019-08-24T16:18:18.847Z</time>
      </trkpt>
      <trkpt lat="45.70753" lon="5.65382">
        <ele>240</ele>
        <time>2019-08-24T16:18:23.863Z</time>
      </trkpt>
      <trkpt lat="45.70744" lon="5.65386">
        <ele>240</ele>
        <time>2019-08-24T16:18:28.836Z</time>
      </trkpt>
      <trkpt lat="45.70739" lon="5.65389">
        <ele>240</ele>
        <time>2019-08-24T16:18:32.840Z</time>
      </trkpt>
      <trkpt lat="45.70732" lon="5.65393">
        <ele>243</ele>
        <time>2019-08-24T16:18:37.856Z</time>
      </trkpt>
      <trkpt lat="45.70727" lon="5.65396">
        <ele>243</ele>
        <time>2019-08-24T16:18:42.871Z</time>
      </trkpt>
      <trkpt lat="45.70723" lon="5.65402">
        <ele>243</ele>
        <time>2019-08-24T16:18:47.867Z</time>
      </trkpt>
      <trkpt lat="45.7072" lon="5.65404">
        <ele>243</ele>
        <time>2019-08-24T16:18:51.863Z</time>
      </trkpt>
      <trkpt lat="45.70719" lon="5.6541">
        <ele>243</ele>
        <time>2019-08-24T16:18:56.869Z</time>
      </trkpt>
      <trkpt lat="45.70719" lon="5.6542">
        <ele>243</ele>
        <time>2019-08-24T16:19:01.862Z</time>
      </trkpt>
      <trkpt lat="45.7072" lon="5.65428">
        <ele>243</ele>
        <time>2019-08-24T16:19:06.857Z</time>
      </trkpt>
      <trkpt lat="45.70721" lon="5.65433">
        <ele>243</ele>
        <time>2019-08-24T16:19:11.870Z</time>
      </trkpt>
      <trkpt lat="45.70721" lon="5.65441">
        <ele>243</ele>
        <time>2019-08-24T16:19:16.870Z</time>
      </trkpt>
      <trkpt lat="45.70718" lon="5.65451">
        <ele>243</ele>
        <time>2019-08-24T16:19:21.860Z</time>
      </trkpt>
      <trkpt lat="45.70716" lon="5.65459">
        <ele>241</ele>
        <time>2019-08-24T16:19:26.851Z</time>
      </trkpt>
      <trkpt lat="45.70715" lon="5.65465">
        <ele>241</ele>
        <time>2019-08-24T16:19:30.863Z</time>
      </trkpt>
      <trkpt lat="45.70714" lon="5.65474">
        <ele>241</ele>
        <time>2019-08-24T16:19:34.859Z</time>
      </trkpt>
      <trkpt lat="45.70714" lon="5.65483">
        <ele>241</ele>
        <time>2019-08-24T16:19:39.864Z</time>
      </trkpt>
      <trkpt lat="45.70712" lon="5.65491">
        <ele>239</ele>
        <time>2019-08-24T16:19:44.871Z</time>
      </trkpt>
      <trkpt lat="45.70712" lon="5.65495">
        <ele>239</ele>
        <time>2019-08-24T16:19:49.875Z</time>
      </trkpt>
      <trkpt lat="45.70713" lon="5.65497">
        <ele>239</ele>
        <time>2019-08-24T16:19:54.863Z</time>
      </trkpt>
      <trkpt lat="45.70719" lon="5.65501">
        <ele>239</ele>
        <time>2019-08-24T16:19:59.856Z</time>
      </trkpt>
      <trkpt lat="45.70723" lon="5.65503">
        <ele>239</ele>
        <time>2019-08-24T16:20:03.860Z</time>
      </trkpt>
      <trkpt lat="45.70728" lon="5.65508">
        <ele>239</ele>
        <time>2019-08-24T16:20:08.858Z</time>
      </trkpt>
      <trkpt lat="45.70732" lon="5.65512">
        <ele>239</ele>
        <time>2019-08-24T16:20:12.855Z</time>
      </trkpt>
      <trkpt lat="45.70736" lon="5.65516">
        <ele>238</ele>
        <time>2019-08-24T16:20:17.860Z</time>
      </trkpt>
      <trkpt lat="45.7074" lon="5.65522">
        <ele>237</ele>
        <time>2019-08-24T16:20:22.852Z</time>
      </trkpt>
      <trkpt lat="45.70741" lon="5.65526">
        <ele>237</ele>
        <time>2019-08-24T16:20:26.861Z</time>
      </trkpt>
      <trkpt lat="45.70746" lon="5.65532">
        <ele>237</ele>
        <time>2019-08-24T16:20:31.870Z</time>
      </trkpt>
      <trkpt lat="45.70745" lon="5.65541">
        <ele>237</ele>
        <time>2019-08-24T16:20:36.859Z</time>
      </trkpt>
      <trkpt lat="45.70736" lon="5.6555">
        <ele>237</ele>
        <time>2019-08-24T16:20:41.877Z</time>
      </trkpt>
      <trkpt lat="45.70731" lon="5.65558">
        <ele>237</ele>
        <time>2019-08-24T16:20:46.871Z</time>
      </trkpt>
      <trkpt lat="45.70725" lon="5.65564">
        <ele>237</ele>
        <time>2019-08-24T16:20:51.862Z</time>
      </trkpt>
      <trkpt lat="45.7072" lon="5.6557">
        <ele>235</ele>
        <time>2019-08-24T16:20:56.862Z</time>
      </trkpt>
      <trkpt lat="45.70714" lon="5.65575">
        <ele>235</ele>
        <time>2019-08-24T16:21:01.858Z</time>
      </trkpt>
      <trkpt lat="45.7071" lon="5.6558">
        <ele>235</ele>
        <time>2019-08-24T16:21:05.875Z</time>
      </trkpt>
      <trkpt lat="45.70705" lon="5.65588">
        <ele>236</ele>
        <time>2019-08-24T16:21:10.861Z</time>
      </trkpt>
      <trkpt lat="45.70702" lon="5.65596">
        <ele>236</ele>
        <time>2019-08-24T16:21:15.852Z</time>
      </trkpt>
      <trkpt lat="45.70699" lon="5.65606">
        <ele>233</ele>
        <time>2019-08-24T16:21:20.853Z</time>
      </trkpt>
      <trkpt lat="45.70695" lon="5.65616">
        <ele>233</ele>
        <time>2019-08-24T16:21:25.869Z</time>
      </trkpt>
      <trkpt lat="45.70691" lon="5.65623">
        <ele>233</ele>
        <time>2019-08-24T16:21:30.860Z</time>
      </trkpt>
      <trkpt lat="45.70688" lon="5.65626">
        <ele>230</ele>
        <time>2019-08-24T16:21:34.870Z</time>
      </trkpt>
      <trkpt lat="45.70681" lon="5.65629">
        <ele>230</ele>
        <time>2019-08-24T16:21:39.862Z</time>
      </trkpt>
      <trkpt lat="45.70676" lon="5.65635">
        <ele>231</ele>
        <time>2019-08-24T16:21:44.858Z</time>
      </trkpt>
      <trkpt lat="45.70668" lon="5.65641">
        <ele>231</ele>
        <time>2019-08-24T16:21:49.857Z</time>
      </trkpt>
      <trkpt lat="45.70662" lon="5.65645">
        <ele>231</ele>
        <time>2019-08-24T16:21:53.861Z</time>
      </trkpt>
      <trkpt lat="45.70657" lon="5.65648">
        <ele>231</ele>
        <time>2019-08-24T16:21:58.857Z</time>
      </trkpt>
      <trkpt lat="45.70655" lon="5.65649">
        <ele>231</ele>
        <time>2019-08-24T16:22:02.863Z</time>
      </trkpt>
      <trkpt lat="45.7065" lon="5.65649">
        <ele>231</ele>
        <time>2019-08-24T16:22:07.853Z</time>
      </trkpt>
      <trkpt lat="45.7065" lon="5.65649">
        <ele>231</ele>
        <time>2019-08-24T16:22:11.864Z</time>
      </trkpt>
      <trkpt lat="45.70645" lon="5.65652">
        <ele>231</ele>
        <time>2019-08-24T16:22:16.856Z</time>
      </trkpt>
      <trkpt lat="45.70637" lon="5.65659">
        <ele>230</ele>
        <time>2019-08-24T16:22:21.857Z</time>
      </trkpt>
      <trkpt lat="45.70626" lon="5.65665">
        <ele>230</ele>
        <time>2019-08-24T16:22:26.854Z</time>
      </trkpt>
      <trkpt lat="45.70618" lon="5.65671">
        <ele>230</ele>
        <time>2019-08-24T16:22:31.851Z</time>
      </trkpt>
      <trkpt lat="45.70613" lon="5.65673">
        <ele>230</ele>
        <time>2019-08-24T16:22:35.852Z</time>
      </trkpt>
      <trkpt lat="45.70607" lon="5.65678">
        <ele>230</ele>
        <time>2019-08-24T16:22:40.849Z</time>
      </trkpt>
      <trkpt lat="45.70602" lon="5.65685">
        <ele>228</ele>
        <time>2019-08-24T16:22:44.864Z</time>
      </trkpt>
      <trkpt lat="45.70595" lon="5.65692">
        <ele>228</ele>
        <time>2019-08-24T16:22:49.848Z</time>
      </trkpt>
      <trkpt lat="45.70587" lon="5.65695">
        <ele>228</ele>
        <time>2019-08-24T16:22:54.841Z</time>
      </trkpt>
      <trkpt lat="45.70582" lon="5.65702">
        <ele>228</ele>
        <time>2019-08-24T16:22:58.855Z</time>
      </trkpt>
      <trkpt lat="45.70579" lon="5.65712">
        <ele>227</ele>
        <time>2019-08-24T16:23:03.870Z</time>
      </trkpt>
      <trkpt lat="45.70575" lon="5.65721">
        <ele>227</ele>
        <time>2019-08-24T16:23:08.856Z</time>
      </trkpt>
      <trkpt lat="45.70571" lon="5.65733">
        <ele>227</ele>
        <time>2019-08-24T16:23:13.857Z</time>
      </trkpt>
      <trkpt lat="45.70567" lon="5.65743">
        <ele>227</ele>
        <time>2019-08-24T16:23:18.856Z</time>
      </trkpt>
      <trkpt lat="45.70565" lon="5.65752">
        <ele>227</ele>
        <time>2019-08-24T16:23:23.871Z</time>
      </trkpt>
      <trkpt lat="45.70562" lon="5.65762">
        <ele>227</ele>
        <time>2019-08-24T16:23:28.865Z</time>
      </trkpt>
      <trkpt lat="45.70554" lon="5.65791">
        <ele>227</ele>
        <time>2019-08-24T16:23:33.872Z</time>
      </trkpt>
      <trkpt lat="45.70545" lon="5.65827">
        <ele>226</ele>
        <time>2019-08-24T16:23:38.856Z</time>
      </trkpt>
      <trkpt lat="45.70526" lon="5.65847">
        <ele>227</ele>
        <time>2019-08-24T16:23:42.862Z</time>
      </trkpt>
      <trkpt lat="45.70501" lon="5.65854">
        <ele>227</ele>
        <time>2019-08-24T16:23:46.859Z</time>
      </trkpt>
      <trkpt lat="45.7047" lon="5.65862">
        <ele>230</ele>
        <time>2019-08-24T16:23:51.858Z</time>
      </trkpt>
      <trkpt lat="45.70447" lon="5.6587">
        <ele>231</ele>
        <time>2019-08-24T16:23:55.856Z</time>
      </trkpt>
      <trkpt lat="45.70413" lon="5.65875">
        <ele>225</ele>
        <time>2019-08-24T16:24:00.859Z</time>
      </trkpt>
      <trkpt lat="45.70385" lon="5.65884">
        <ele>224</ele>
        <time>2019-08-24T16:24:05.852Z</time>
      </trkpt>
      <trkpt lat="45.7037" lon="5.6591">
        <ele>225</ele>
        <time>2019-08-24T16:24:09.856Z</time>
      </trkpt>
      <trkpt lat="45.70347" lon="5.65949">
        <ele>224</ele>
        <time>2019-08-24T16:24:14.859Z</time>
      </trkpt>
      <trkpt lat="45.70325" lon="5.65989">
        <ele>225</ele>
        <time>2019-08-24T16:24:19.875Z</time>
      </trkpt>
      <trkpt lat="45.70295" lon="5.66022">
        <ele>226</ele>
        <time>2019-08-24T16:24:24.864Z</time>
      </trkpt>
      <trkpt lat="45.70267" lon="5.66049">
        <ele>226</ele>
        <time>2019-08-24T16:24:29.858Z</time>
      </trkpt>
      <trkpt lat="45.70243" lon="5.66074">
        <ele>226</ele>
        <time>2019-08-24T16:24:34.861Z</time>
      </trkpt>
      <trkpt lat="45.70216" lon="5.66101">
        <ele>226</ele>
        <time>2019-08-24T16:24:39.863Z</time>
      </trkpt>
      <trkpt lat="45.70203" lon="5.66114">
        <ele>226</ele>
        <time>2019-08-24T16:24:44.869Z</time>
      </trkpt>
      <trkpt lat="45.70197" lon="5.6612">
        <ele>226</ele>
        <time>2019-08-24T16:24:49.870Z</time>
      </trkpt>
      <trkpt lat="45.70192" lon="5.66126">
        <ele>227</ele>
        <time>2019-08-24T16:24:54.867Z</time>
      </trkpt>
      <trkpt lat="45.70186" lon="5.66132">
        <ele>227</ele>
        <time>2019-08-24T16:24:59.857Z</time>
      </trkpt>
      <trkpt lat="45.7018" lon="5.66138">
        <ele>227</ele>
        <time>2019-08-24T16:25:04.857Z</time>
      </trkpt>
      <trkpt lat="45.70173" lon="5.66144">
        <ele>227</ele>
        <time>2019-08-24T16:25:09.868Z</time>
      </trkpt>
      <trkpt lat="45.70166" lon="5.66153">
        <ele>226</ele>
        <time>2019-08-24T16:25:14.859Z</time>
      </trkpt>
      <trkpt lat="45.7016" lon="5.66158">
        <ele>226</ele>
        <time>2019-08-24T16:25:19.865Z</time>
      </trkpt>
      <trkpt lat="45.70154" lon="5.66164">
        <ele>226</ele>
        <time>2019-08-24T16:25:24.855Z</time>
      </trkpt>
      <trkpt lat="45.70151" lon="5.66166">
        <ele>226</ele>
        <time>2019-08-24T16:25:29.860Z</time>
      </trkpt>
      <trkpt lat="45.70145" lon="5.66172">
        <ele>226</ele>
        <time>2019-08-24T16:25:34.860Z</time>
      </trkpt>
      <trkpt lat="45.70138" lon="5.66179">
        <ele>226</ele>
        <time>2019-08-24T16:25:39.870Z</time>
      </trkpt>
      <trkpt lat="45.70132" lon="5.66184">
        <ele>225</ele>
        <time>2019-08-24T16:25:44.864Z</time>
      </trkpt>
      <trkpt lat="45.70127" lon="5.66191">
        <ele>225</ele>
        <time>2019-08-24T16:25:49.883Z</time>
      </trkpt>
      <trkpt lat="45.7012" lon="5.66203">
        <ele>226</ele>
        <time>2019-08-24T16:25:54.867Z</time>
      </trkpt>
      <trkpt lat="45.70103" lon="5.66218">
        <ele>225</ele>
        <time>2019-08-24T16:25:59.868Z</time>
      </trkpt>
      <trkpt lat="45.70083" lon="5.66238">
        <ele>224</ele>
        <time>2019-08-24T16:26:04.861Z</time>
      </trkpt>
      <trkpt lat="45.70061" lon="5.66263">
        <ele>226</ele>
        <time>2019-08-24T16:26:09.864Z</time>
      </trkpt>
      <trkpt lat="45.70039" lon="5.66284">
        <ele>228</ele>
        <time>2019-08-24T16:26:14.863Z</time>
      </trkpt>
      <trkpt lat="45.7002" lon="5.66305">
        <ele>226</ele>
        <time>2019-08-24T16:26:19.863Z</time>
      </trkpt>
      <trkpt lat="45.70001" lon="5.66334">
        <ele>226</ele>
        <time>2019-08-24T16:26:24.857Z</time>
      </trkpt>
      <trkpt lat="45.6998" lon="5.66368">
        <ele>227</ele>
        <time>2019-08-24T16:26:29.866Z</time>
      </trkpt>
      <trkpt lat="45.69965" lon="5.66393">
        <ele>225</ele>
        <time>2019-08-24T16:26:34.867Z</time>
      </trkpt>
      <trkpt lat="45.69978" lon="5.66441">
        <ele>223</ele>
        <time>2019-08-24T16:26:39.864Z</time>
      </trkpt>
      <trkpt lat="45.70013" lon="5.66515">
        <ele>224</ele>
        <time>2019-08-24T16:26:44.858Z</time>
      </trkpt>
      <trkpt lat="45.7004" lon="5.66566">
        <ele>226</ele>
        <time>2019-08-24T16:26:49.887Z</time>
      </trkpt>
      <trkpt lat="45.70049" lon="5.66584">
        <ele>228</ele>
        <time>2019-08-24T16:26:54.867Z</time>
      </trkpt>
      <trkpt lat="45.70051" lon="5.66592">
        <ele>228</ele>
        <time>2019-08-24T16:26:58.867Z</time>
      </trkpt>
      <trkpt lat="45.70054" lon="5.66602">
        <ele>228</ele>
        <time>2019-08-24T16:27:03.877Z</time>
      </trkpt>
      <trkpt lat="45.70057" lon="5.66612">
        <ele>228</ele>
        <time>2019-08-24T16:27:08.868Z</time>
      </trkpt>
      <trkpt lat="45.70058" lon="5.66618">
        <ele>228</ele>
        <time>2019-08-24T16:27:31.908Z</time>
      </trkpt>
      <trkpt lat="45.70058" lon="5.66618">
        <ele>228</ele>
        <time>2019-08-24T16:27:36.877Z</time>
      </trkpt>
      <trkpt lat="45.70059" lon="5.6662">
        <ele>228</ele>
        <time>2019-08-24T16:27:41.877Z</time>
      </trkpt>
      <trkpt lat="45.70064" lon="5.66626">
        <ele>227</ele>
        <time>2019-08-24T16:27:46.861Z</time>
      </trkpt>
      <trkpt lat="45.70067" lon="5.66633">
        <ele>227</ele>
        <time>2019-08-24T16:27:50.868Z</time>
      </trkpt>
      <trkpt lat="45.70071" lon="5.66641">
        <ele>229</ele>
        <time>2019-08-24T16:27:55.858Z</time>
      </trkpt>
      <trkpt lat="45.70076" lon="5.66649">
        <ele>229</ele>
        <time>2019-08-24T16:27:59.873Z</time>
      </trkpt>
      <trkpt lat="45.7008" lon="5.66657">
        <ele>229</ele>
        <time>2019-08-24T16:28:04.863Z</time>
      </trkpt>
      <trkpt lat="45.70084" lon="5.66665">
        <ele>229</ele>
        <time>2019-08-24T16:28:09.861Z</time>
      </trkpt>
      <trkpt lat="45.70088" lon="5.66672">
        <ele>229</ele>
        <time>2019-08-24T16:28:14.864Z</time>
      </trkpt>
      <trkpt lat="45.70091" lon="5.66678">
        <ele>229</ele>
        <time>2019-08-24T16:28:18.858Z</time>
      </trkpt>
      <trkpt lat="45.70093" lon="5.66686">
        <ele>229</ele>
        <time>2019-08-24T16:28:22.875Z</time>
      </trkpt>
      <trkpt lat="45.70096" lon="5.66691">
        <ele>229</ele>
        <time>2019-08-24T16:28:27.862Z</time>
      </trkpt>
      <trkpt lat="45.701" lon="5.66697">
        <ele>231</ele>
        <time>2019-08-24T16:28:31.865Z</time>
      </trkpt>
      <trkpt lat="45.70103" lon="5.66706">
        <ele>231</ele>
        <time>2019-08-24T16:28:36.866Z</time>
      </trkpt>
      <trkpt lat="45.701" lon="5.66716">
        <ele>230</ele>
        <time>2019-08-24T16:28:41.859Z</time>
      </trkpt>
      <trkpt lat="45.70093" lon="5.66723">
        <ele>230</ele>
        <time>2019-08-24T16:28:46.871Z</time>
      </trkpt>
      <trkpt lat="45.70086" lon="5.66728">
        <ele>230</ele>
        <time>2019-08-24T16:28:51.871Z</time>
      </trkpt>
      <trkpt lat="45.70079" lon="5.66734">
        <ele>230</ele>
        <time>2019-08-24T16:28:56.844Z</time>
      </trkpt>
      <trkpt lat="45.70074" lon="5.66739">
        <ele>230</ele>
        <time>2019-08-24T16:29:00.867Z</time>
      </trkpt>
      <trkpt lat="45.70068" lon="5.66745">
        <ele>230</ele>
        <time>2019-08-24T16:29:05.863Z</time>
      </trkpt>
      <trkpt lat="45.70063" lon="5.6675">
        <ele>230</ele>
        <time>2019-08-24T16:29:10.872Z</time>
      </trkpt>
      <trkpt lat="45.70058" lon="5.66758">
        <ele>230</ele>
        <time>2019-08-24T16:29:15.891Z</time>
      </trkpt>
      <trkpt lat="45.70052" lon="5.66765">
        <ele>230</ele>
        <time>2019-08-24T16:29:20.862Z</time>
      </trkpt>
      <trkpt lat="45.70048" lon="5.66773">
        <ele>230</ele>
        <time>2019-08-24T16:29:25.864Z</time>
      </trkpt>
      <trkpt lat="45.70042" lon="5.66778">
        <ele>230</ele>
        <time>2019-08-24T16:29:29.870Z</time>
      </trkpt>
      <trkpt lat="45.70037" lon="5.66783">
        <ele>230</ele>
        <time>2019-08-24T16:29:34.867Z</time>
      </trkpt>
      <trkpt lat="45.7003" lon="5.66789">
        <ele>230</ele>
        <time>2019-08-24T16:29:39.868Z</time>
      </trkpt>
      <trkpt lat="45.70024" lon="5.66796">
        <ele>230</ele>
        <time>2019-08-24T16:29:44.874Z</time>
      </trkpt>
      <trkpt lat="45.70018" lon="5.66805">
        <ele>230</ele>
        <time>2019-08-24T16:29:49.876Z</time>
      </trkpt>
      <trkpt lat="45.70012" lon="5.66813">
        <ele>228</ele>
        <time>2019-08-24T16:29:54.849Z</time>
      </trkpt>
      <trkpt lat="45.70006" lon="5.66821">
        <ele>229</ele>
        <time>2019-08-24T16:29:59.860Z</time>
      </trkpt>
      <trkpt lat="45.7" lon="5.66829">
        <ele>229</ele>
        <time>2019-08-24T16:30:04.866Z</time>
      </trkpt>
      <trkpt lat="45.69994" lon="5.66836">
        <ele>229</ele>
        <time>2019-08-24T16:30:09.865Z</time>
      </trkpt>
      <trkpt lat="45.69987" lon="5.66843">
        <ele>229</ele>
        <time>2019-08-24T16:30:14.859Z</time>
      </trkpt>
      <trkpt lat="45.6998" lon="5.66851">
        <ele>228</ele>
        <time>2019-08-24T16:30:19.868Z</time>
      </trkpt>
      <trkpt lat="45.69975" lon="5.66856">
        <ele>228</ele>
        <time>2019-08-24T16:30:23.873Z</time>
      </trkpt>
      <trkpt lat="45.69969" lon="5.66863">
        <ele>228</ele>
        <time>2019-08-24T16:30:28.847Z</time>
      </trkpt>
      <trkpt lat="45.69963" lon="5.6687">
        <ele>228</ele>
        <time>2019-08-24T16:30:33.850Z</time>
      </trkpt>
      <trkpt lat="45.69957" lon="5.66878">
        <ele>227</ele>
        <time>2019-08-24T16:30:38.845Z</time>
      </trkpt>
      <trkpt lat="45.69952" lon="5.66885">
        <ele>227</ele>
        <time>2019-08-24T16:30:42.838Z</time>
      </trkpt>
      <trkpt lat="45.69945" lon="5.66893">
        <ele>227</ele>
        <time>2019-08-24T16:30:47.843Z</time>
      </trkpt>
      <trkpt lat="45.69939" lon="5.66901">
        <ele>227</ele>
        <time>2019-08-24T16:30:52.868Z</time>
      </trkpt>
      <trkpt lat="45.69934" lon="5.66909">
        <ele>226</ele>
        <time>2019-08-24T16:30:57.857Z</time>
      </trkpt>
      <trkpt lat="45.69932" lon="5.66912">
        <ele>226</ele>
        <time>2019-08-24T16:31:02.869Z</time>
      </trkpt>
      <trkpt lat="45.69932" lon="5.66913">
        <ele>226</ele>
        <time>2019-08-24T16:31:07.839Z</time>
      </trkpt>
      <trkpt lat="45.69932" lon="5.66916">
        <ele>226</ele>
        <time>2019-08-24T16:31:11.837Z</time>
      </trkpt>
      <trkpt lat="45.69929" lon="5.66924">
        <ele>227</ele>
        <time>2019-08-24T16:31:15.867Z</time>
      </trkpt>
      <trkpt lat="45.69923" lon="5.6693">
        <ele>227</ele>
        <time>2019-08-24T16:31:20.867Z</time>
      </trkpt>
      <trkpt lat="45.69917" lon="5.66941">
        <ele>227</ele>
        <time>2019-08-24T16:31:25.861Z</time>
      </trkpt>
      <trkpt lat="45.6991" lon="5.66948">
        <ele>227</ele>
        <time>2019-08-24T16:31:30.874Z</time>
      </trkpt>
      <trkpt lat="45.69903" lon="5.66954">
        <ele>227</ele>
        <time>2019-08-24T16:31:35.865Z</time>
      </trkpt>
      <trkpt lat="45.69896" lon="5.66957">
        <ele>226</ele>
        <time>2019-08-24T16:31:40.870Z</time>
      </trkpt>
      <trkpt lat="45.69889" lon="5.66962">
        <ele>226</ele>
        <time>2019-08-24T16:31:45.864Z</time>
      </trkpt>
      <trkpt lat="45.69882" lon="5.66967">
        <ele>226</ele>
        <time>2019-08-24T16:31:50.861Z</time>
      </trkpt>
      <trkpt lat="45.69874" lon="5.6697">
        <ele>226</ele>
        <time>2019-08-24T16:31:55.869Z</time>
      </trkpt>
      <trkpt lat="45.69865" lon="5.66972">
        <ele>226</ele>
        <time>2019-08-24T16:32:00.868Z</time>
      </trkpt>
      <trkpt lat="45.69856" lon="5.66974">
        <ele>226</ele>
        <time>2019-08-24T16:32:05.921Z</time>
      </trkpt>
      <trkpt lat="45.69848" lon="5.66977">
        <ele>226</ele>
        <time>2019-08-24T16:32:10.873Z</time>
      </trkpt>
      <trkpt lat="45.6984" lon="5.66979">
        <ele>226</ele>
        <time>2019-08-24T16:32:15.863Z</time>
      </trkpt>
      <trkpt lat="45.69832" lon="5.66981">
        <ele>226</ele>
        <time>2019-08-24T16:32:20.859Z</time>
      </trkpt>
      <trkpt lat="45.69824" lon="5.66979">
        <ele>226</ele>
        <time>2019-08-24T16:32:25.878Z</time>
      </trkpt>
      <trkpt lat="45.69816" lon="5.66979">
        <ele>226</ele>
        <time>2019-08-24T16:32:30.873Z</time>
      </trkpt>
      <trkpt lat="45.69809" lon="5.66979">
        <ele>226</ele>
        <time>2019-08-24T16:32:34.860Z</time>
      </trkpt>
      <trkpt lat="45.69801" lon="5.66978">
        <ele>226</ele>
        <time>2019-08-24T16:32:39.866Z</time>
      </trkpt>
      <trkpt lat="45.69793" lon="5.66977">
        <ele>226</ele>
        <time>2019-08-24T16:32:44.864Z</time>
      </trkpt>
      <trkpt lat="45.69785" lon="5.66974">
        <ele>225</ele>
        <time>2019-08-24T16:32:49.877Z</time>
      </trkpt>
      <trkpt lat="45.69776" lon="5.66972">
        <ele>225</ele>
        <time>2019-08-24T16:32:54.857Z</time>
      </trkpt>
      <trkpt lat="45.69768" lon="5.66968">
        <ele>225</ele>
        <time>2019-08-24T16:32:59.865Z</time>
      </trkpt>
      <trkpt lat="45.6976" lon="5.66966">
        <ele>223</ele>
        <time>2019-08-24T16:33:04.861Z</time>
      </trkpt>
      <trkpt lat="45.69754" lon="5.66964">
        <ele>223</ele>
        <time>2019-08-24T16:33:08.875Z</time>
      </trkpt>
      <trkpt lat="45.69746" lon="5.66963">
        <ele>223</ele>
        <time>2019-08-24T16:33:13.868Z</time>
      </trkpt>
      <trkpt lat="45.69739" lon="5.66961">
        <ele>223</ele>
        <time>2019-08-24T16:33:18.877Z</time>
      </trkpt>
      <trkpt lat="45.69732" lon="5.66957">
        <ele>222</ele>
        <time>2019-08-24T16:33:23.870Z</time>
      </trkpt>
      <trkpt lat="45.69725" lon="5.66954">
        <ele>222</ele>
        <time>2019-08-24T16:33:27.876Z</time>
      </trkpt>
      <trkpt lat="45.69716" lon="5.6695">
        <ele>222</ele>
        <time>2019-08-24T16:33:32.862Z</time>
      </trkpt>
      <trkpt lat="45.69709" lon="5.66946">
        <ele>222</ele>
        <time>2019-08-24T16:33:37.862Z</time>
      </trkpt>
      <trkpt lat="45.69699" lon="5.66943">
        <ele>221</ele>
        <time>2019-08-24T16:33:42.859Z</time>
      </trkpt>
      <trkpt lat="45.69692" lon="5.6694">
        <ele>221</ele>
        <time>2019-08-24T16:33:47.866Z</time>
      </trkpt>
      <trkpt lat="45.69687" lon="5.66944">
        <ele>221</ele>
        <time>2019-08-24T16:33:52.855Z</time>
      </trkpt>
      <trkpt lat="45.69684" lon="5.66955">
        <ele>221</ele>
        <time>2019-08-24T16:33:57.863Z</time>
      </trkpt>
      <trkpt lat="45.69681" lon="5.66962">
        <ele>223</ele>
        <time>2019-08-24T16:34:01.872Z</time>
      </trkpt>
      <trkpt lat="45.69678" lon="5.66969">
        <ele>223</ele>
        <time>2019-08-24T16:34:05.869Z</time>
      </trkpt>
      <trkpt lat="45.69676" lon="5.66984">
        <ele>223</ele>
        <time>2019-08-24T16:34:10.873Z</time>
      </trkpt>
      <trkpt lat="45.69673" lon="5.66998">
        <ele>223</ele>
        <time>2019-08-24T16:34:15.883Z</time>
      </trkpt>
      <trkpt lat="45.69672" lon="5.67008">
        <ele>223</ele>
        <time>2019-08-24T16:34:20.862Z</time>
      </trkpt>
      <trkpt lat="45.69671" lon="5.67016">
        <ele>223</ele>
        <time>2019-08-24T16:34:24.866Z</time>
      </trkpt>
      <trkpt lat="45.69667" lon="5.67028">
        <ele>223</ele>
        <time>2019-08-24T16:34:29.865Z</time>
      </trkpt>
      <trkpt lat="45.69665" lon="5.67041">
        <ele>223</ele>
        <time>2019-08-24T16:34:34.867Z</time>
      </trkpt>
      <trkpt lat="45.69661" lon="5.67051">
        <ele>224</ele>
        <time>2019-08-24T16:34:39.863Z</time>
      </trkpt>
      <trkpt lat="45.6966" lon="5.67059">
        <ele>224</ele>
        <time>2019-08-24T16:34:43.875Z</time>
      </trkpt>
      <trkpt lat="45.69657" lon="5.67069">
        <ele>224</ele>
        <time>2019-08-24T16:34:48.877Z</time>
      </trkpt>
      <trkpt lat="45.69654" lon="5.67084">
        <ele>224</ele>
        <time>2019-08-24T16:34:53.870Z</time>
      </trkpt>
      <trkpt lat="45.69651" lon="5.67097">
        <ele>223</ele>
        <time>2019-08-24T16:34:58.865Z</time>
      </trkpt>
      <trkpt lat="45.69648" lon="5.67108">
        <ele>224</ele>
        <time>2019-08-24T16:35:03.874Z</time>
      </trkpt>
      <trkpt lat="45.69646" lon="5.67118">
        <ele>224</ele>
        <time>2019-08-24T16:35:08.865Z</time>
      </trkpt>
      <trkpt lat="45.69642" lon="5.67128">
        <ele>224</ele>
        <time>2019-08-24T16:35:13.869Z</time>
      </trkpt>
      <trkpt lat="45.6964" lon="5.67141">
        <ele>224</ele>
        <time>2019-08-24T16:35:18.861Z</time>
      </trkpt>
      <trkpt lat="45.69637" lon="5.67151">
        <ele>224</ele>
        <time>2019-08-24T16:35:23.879Z</time>
      </trkpt>
      <trkpt lat="45.69634" lon="5.67163">
        <ele>224</ele>
        <time>2019-08-24T16:35:28.861Z</time>
      </trkpt>
      <trkpt lat="45.69632" lon="5.67173">
        <ele>224</ele>
        <time>2019-08-24T16:35:33.863Z</time>
      </trkpt>
      <trkpt lat="45.6963" lon="5.67186">
        <ele>224</ele>
        <time>2019-08-24T16:35:38.865Z</time>
      </trkpt>
      <trkpt lat="45.6963" lon="5.67198">
        <ele>224</ele>
        <time>2019-08-24T16:35:42.863Z</time>
      </trkpt>
      <trkpt lat="45.69629" lon="5.67211">
        <ele>224</ele>
        <time>2019-08-24T16:35:47.867Z</time>
      </trkpt>
      <trkpt lat="45.69629" lon="5.67222">
        <ele>224</ele>
        <time>2019-08-24T16:35:52.863Z</time>
      </trkpt>
      <trkpt lat="45.69628" lon="5.67234">
        <ele>224</ele>
        <time>2019-08-24T16:35:57.867Z</time>
      </trkpt>
      <trkpt lat="45.69628" lon="5.67246">
        <ele>224</ele>
        <time>2019-08-24T16:36:02.866Z</time>
      </trkpt>
      <trkpt lat="45.69627" lon="5.67257">
        <ele>224</ele>
        <time>2019-08-24T16:36:07.873Z</time>
      </trkpt>
      <trkpt lat="45.69627" lon="5.67264">
        <ele>224</ele>
        <time>2019-08-24T16:36:11.881Z</time>
      </trkpt>
      <trkpt lat="45.69627" lon="5.67277">
        <ele>224</ele>
        <time>2019-08-24T16:36:16.847Z</time>
      </trkpt>
      <trkpt lat="45.69626" lon="5.67287">
        <ele>224</ele>
        <time>2019-08-24T16:36:20.883Z</time>
      </trkpt>
      <trkpt lat="45.69625" lon="5.67299">
        <ele>223</ele>
        <time>2019-08-24T16:36:25.899Z</time>
      </trkpt>
      <trkpt lat="45.69624" lon="5.67312">
        <ele>222</ele>
        <time>2019-08-24T16:36:30.873Z</time>
      </trkpt>
      <trkpt lat="45.69623" lon="5.67325">
        <ele>221</ele>
        <time>2019-08-24T16:36:35.866Z</time>
      </trkpt>
      <trkpt lat="45.69623" lon="5.67335">
        <ele>221</ele>
        <time>2019-08-24T16:36:40.875Z</time>
      </trkpt>
      <trkpt lat="45.69622" lon="5.67345">
        <ele>221</ele>
        <time>2019-08-24T16:36:44.867Z</time>
      </trkpt>
      <trkpt lat="45.69621" lon="5.67358">
        <ele>220</ele>
        <time>2019-08-24T16:36:49.871Z</time>
      </trkpt>
      <trkpt lat="45.69622" lon="5.67371">
        <ele>220</ele>
        <time>2019-08-24T16:36:54.874Z</time>
      </trkpt>
      <trkpt lat="45.69622" lon="5.67383">
        <ele>220</ele>
        <time>2019-08-24T16:36:59.886Z</time>
      </trkpt>
      <trkpt lat="45.69623" lon="5.67395">
        <ele>220</ele>
        <time>2019-08-24T16:37:04.868Z</time>
      </trkpt>
      <trkpt lat="45.69623" lon="5.67407">
        <ele>220</ele>
        <time>2019-08-24T16:37:09.884Z</time>
      </trkpt>
      <trkpt lat="45.69624" lon="5.6742">
        <ele>220</ele>
        <time>2019-08-24T16:37:14.866Z</time>
      </trkpt>
      <trkpt lat="45.69626" lon="5.67432">
        <ele>220</ele>
        <time>2019-08-24T16:37:19.866Z</time>
      </trkpt>
      <trkpt lat="45.69625" lon="5.67442">
        <ele>220</ele>
        <time>2019-08-24T16:37:24.873Z</time>
      </trkpt>
      <trkpt lat="45.69626" lon="5.67454">
        <ele>220</ele>
        <time>2019-08-24T16:37:29.857Z</time>
      </trkpt>
      <trkpt lat="45.69626" lon="5.67464">
        <ele>220</ele>
        <time>2019-08-24T16:37:34.854Z</time>
      </trkpt>
      <trkpt lat="45.69625" lon="5.67476">
        <ele>220</ele>
        <time>2019-08-24T16:37:39.862Z</time>
      </trkpt>
      <trkpt lat="45.69624" lon="5.67488">
        <ele>221</ele>
        <time>2019-08-24T16:37:44.896Z</time>
      </trkpt>
      <trkpt lat="45.69623" lon="5.675">
        <ele>221</ele>
        <time>2019-08-24T16:37:49.871Z</time>
      </trkpt>
      <trkpt lat="45.69623" lon="5.6751">
        <ele>221</ele>
        <time>2019-08-24T16:37:54.860Z</time>
      </trkpt>
      <trkpt lat="45.69624" lon="5.67522">
        <ele>221</ele>
        <time>2019-08-24T16:37:59.868Z</time>
      </trkpt>
      <trkpt lat="45.69625" lon="5.67535">
        <ele>221</ele>
        <time>2019-08-24T16:38:04.865Z</time>
      </trkpt>
      <trkpt lat="45.69628" lon="5.67546">
        <ele>222</ele>
        <time>2019-08-24T16:38:09.868Z</time>
      </trkpt>
      <trkpt lat="45.69628" lon="5.67556">
        <ele>222</ele>
        <time>2019-08-24T16:38:14.877Z</time>
      </trkpt>
      <trkpt lat="45.6963" lon="5.67567">
        <ele>222</ele>
        <time>2019-08-24T16:38:19.875Z</time>
      </trkpt>
      <trkpt lat="45.69631" lon="5.67575">
        <ele>222</ele>
        <time>2019-08-24T16:38:24.869Z</time>
      </trkpt>
      <trkpt lat="45.69632" lon="5.67586">
        <ele>222</ele>
        <time>2019-08-24T16:38:29.867Z</time>
      </trkpt>
      <trkpt lat="45.69638" lon="5.67598">
        <ele>222</ele>
        <time>2019-08-24T16:38:34.882Z</time>
      </trkpt>
      <trkpt lat="45.69642" lon="5.6761">
        <ele>222</ele>
        <time>2019-08-24T16:38:39.868Z</time>
      </trkpt>
      <trkpt lat="45.69648" lon="5.6762">
        <ele>222</ele>
        <time>2019-08-24T16:38:44.860Z</time>
      </trkpt>
      <trkpt lat="45.69647" lon="5.67624">
        <ele>222</ele>
        <time>2019-08-24T16:38:48.871Z</time>
      </trkpt>
      <trkpt lat="45.69647" lon="5.67624">
        <ele>222</ele>
        <time>2019-08-24T16:38:53.865Z</time>
      </trkpt>
      <trkpt lat="45.69648" lon="5.67628">
        <ele>223</ele>
        <time>2019-08-24T16:38:58.860Z</time>
      </trkpt>
      <trkpt lat="45.69654" lon="5.67638">
        <ele>223</ele>
        <time>2019-08-24T16:39:03.867Z</time>
      </trkpt>
      <trkpt lat="45.69658" lon="5.67649">
        <ele>223</ele>
        <time>2019-08-24T16:39:08.887Z</time>
      </trkpt>
      <trkpt lat="45.69658" lon="5.67658">
        <ele>223</ele>
        <time>2019-08-24T16:39:13.871Z</time>
      </trkpt>
      <trkpt lat="45.6966" lon="5.67668">
        <ele>223</ele>
        <time>2019-08-24T16:39:18.870Z</time>
      </trkpt>
      <trkpt lat="45.69663" lon="5.67679">
        <ele>223</ele>
        <time>2019-08-24T16:39:23.870Z</time>
      </trkpt>
      <trkpt lat="45.69665" lon="5.67688">
        <ele>222</ele>
        <time>2019-08-24T16:39:28.877Z</time>
      </trkpt>
      <trkpt lat="45.69665" lon="5.67697">
        <ele>222</ele>
        <time>2019-08-24T16:39:33.869Z</time>
      </trkpt>
      <trkpt lat="45.69665" lon="5.67714">
        <ele>221</ele>
        <time>2019-08-24T16:39:38.882Z</time>
      </trkpt>
      <trkpt lat="45.69665" lon="5.67728">
        <ele>221</ele>
        <time>2019-08-24T16:39:43.876Z</time>
      </trkpt>
      <trkpt lat="45.69667" lon="5.6774">
        <ele>222</ele>
        <time>2019-08-24T16:39:48.872Z</time>
      </trkpt>
      <trkpt lat="45.69669" lon="5.67748">
        <ele>222</ele>
        <time>2019-08-24T16:39:52.864Z</time>
      </trkpt>
      <trkpt lat="45.6967" lon="5.67759">
        <ele>222</ele>
        <time>2019-08-24T16:39:57.873Z</time>
      </trkpt>
      <trkpt lat="45.69672" lon="5.67772">
        <ele>223</ele>
        <time>2019-08-24T16:40:02.858Z</time>
      </trkpt>
      <trkpt lat="45.69673" lon="5.67783">
        <ele>223</ele>
        <time>2019-08-24T16:40:07.872Z</time>
      </trkpt>
      <trkpt lat="45.69675" lon="5.67788">
        <ele>223</ele>
        <time>2019-08-24T16:40:12.862Z</time>
      </trkpt>
      <trkpt lat="45.69675" lon="5.67795">
        <ele>223</ele>
        <time>2019-08-24T16:40:16.873Z</time>
      </trkpt>
      <trkpt lat="45.69676" lon="5.67804">
        <ele>223</ele>
        <time>2019-08-24T16:40:21.854Z</time>
      </trkpt>
      <trkpt lat="45.69676" lon="5.67813">
        <ele>223</ele>
        <time>2019-08-24T16:40:26.875Z</time>
      </trkpt>
      <trkpt lat="45.69676" lon="5.67823">
        <ele>223</ele>
        <time>2019-08-24T16:40:31.872Z</time>
      </trkpt>
      <trkpt lat="45.69677" lon="5.67831">
        <ele>223</ele>
        <time>2019-08-24T16:40:35.892Z</time>
      </trkpt>
      <trkpt lat="45.69679" lon="5.67842">
        <ele>223</ele>
        <time>2019-08-24T16:40:39.869Z</time>
      </trkpt>
      <trkpt lat="45.69675" lon="5.67849">
        <ele>223</ele>
        <time>2019-08-24T16:40:44.868Z</time>
      </trkpt>
      <trkpt lat="45.69667" lon="5.67853">
        <ele>223</ele>
        <time>2019-08-24T16:40:49.871Z</time>
      </trkpt>
      <trkpt lat="45.6966" lon="5.67855">
        <ele>223</ele>
        <time>2019-08-24T16:40:54.864Z</time>
      </trkpt>
      <trkpt lat="45.6965" lon="5.67857">
        <ele>221</ele>
        <time>2019-08-24T16:40:59.877Z</time>
      </trkpt>
      <trkpt lat="45.6964" lon="5.67859">
        <ele>221</ele>
        <time>2019-08-24T16:41:04.845Z</time>
      </trkpt>
      <trkpt lat="45.69635" lon="5.67861">
        <ele>221</ele>
        <time>2019-08-24T16:41:09.874Z</time>
      </trkpt>
      <trkpt lat="45.69618" lon="5.67862">
        <ele>220</ele>
        <time>2019-08-24T16:41:14.863Z</time>
      </trkpt>
      <trkpt lat="45.69592" lon="5.67867">
        <ele>219</ele>
        <time>2019-08-24T16:41:19.870Z</time>
      </trkpt>
      <trkpt lat="45.69566" lon="5.67867">
        <ele>219</ele>
        <time>2019-08-24T16:41:23.890Z</time>
      </trkpt>
      <trkpt lat="45.69528" lon="5.67867">
        <ele>219</ele>
        <time>2019-08-24T16:41:28.883Z</time>
      </trkpt>
      <trkpt lat="45.69486" lon="5.67868">
        <ele>221</ele>
        <time>2019-08-24T16:41:33.862Z</time>
      </trkpt>
      <trkpt lat="45.69457" lon="5.67869">
        <ele>221</ele>
        <time>2019-08-24T16:41:37.867Z</time>
      </trkpt>
      <trkpt lat="45.69424" lon="5.67869">
        <ele>222</ele>
        <time>2019-08-24T16:41:42.861Z</time>
      </trkpt>
      <trkpt lat="45.69394" lon="5.67869">
        <ele>221</ele>
        <time>2019-08-24T16:41:47.882Z</time>
      </trkpt>
      <trkpt lat="45.69362" lon="5.67871">
        <ele>221</ele>
        <time>2019-08-24T16:41:52.873Z</time>
      </trkpt>
      <trkpt lat="45.69336" lon="5.67869">
        <ele>223</ele>
        <time>2019-08-24T16:41:56.878Z</time>
      </trkpt>
      <trkpt lat="45.69317" lon="5.67865">
        <ele>223</ele>
        <time>2019-08-24T16:42:01.867Z</time>
      </trkpt>
      <trkpt lat="45.69308" lon="5.67862">
        <ele>223</ele>
        <time>2019-08-24T16:42:06.871Z</time>
      </trkpt>
      <trkpt lat="45.693" lon="5.67861">
        <ele>223</ele>
        <time>2019-08-24T16:42:11.876Z</time>
      </trkpt>
      <trkpt lat="45.69292" lon="5.67858">
        <ele>223</ele>
        <time>2019-08-24T16:42:16.865Z</time>
      </trkpt>
      <trkpt lat="45.69284" lon="5.67857">
        <ele>222</ele>
        <time>2019-08-24T16:42:21.863Z</time>
      </trkpt>
      <trkpt lat="45.69278" lon="5.67853">
        <ele>222</ele>
        <time>2019-08-24T16:42:25.865Z</time>
      </trkpt>
      <trkpt lat="45.69271" lon="5.67846">
        <ele>223</ele>
        <time>2019-08-24T16:42:30.869Z</time>
      </trkpt>
      <trkpt lat="45.69267" lon="5.67836">
        <ele>223</ele>
        <time>2019-08-24T16:42:35.867Z</time>
      </trkpt>
      <trkpt lat="45.69264" lon="5.67826">
        <ele>223</ele>
        <time>2019-08-24T16:42:40.872Z</time>
      </trkpt>
      <trkpt lat="45.69262" lon="5.67815">
        <ele>223</ele>
        <time>2019-08-24T16:42:45.874Z</time>
      </trkpt>
      <trkpt lat="45.69259" lon="5.67805">
        <ele>223</ele>
        <time>2019-08-24T16:42:50.869Z</time>
      </trkpt>
      <trkpt lat="45.69256" lon="5.67796">
        <ele>223</ele>
        <time>2019-08-24T16:42:55.872Z</time>
      </trkpt>
      <trkpt lat="45.69252" lon="5.6779">
        <ele>223</ele>
        <time>2019-08-24T16:42:59.870Z</time>
      </trkpt>
      <trkpt lat="45.69247" lon="5.67781">
        <ele>223</ele>
        <time>2019-08-24T16:43:04.877Z</time>
      </trkpt>
      <trkpt lat="45.6924" lon="5.67776">
        <ele>223</ele>
        <time>2019-08-24T16:43:09.869Z</time>
      </trkpt>
      <trkpt lat="45.69234" lon="5.67772">
        <ele>224</ele>
        <time>2019-08-24T16:43:14.865Z</time>
      </trkpt>
      <trkpt lat="45.69227" lon="5.6777">
        <ele>224</ele>
        <time>2019-08-24T16:43:19.867Z</time>
      </trkpt>
      <trkpt lat="45.69219" lon="5.67765">
        <ele>224</ele>
        <time>2019-08-24T16:43:24.878Z</time>
      </trkpt>
      <trkpt lat="45.69214" lon="5.67762">
        <ele>224</ele>
        <time>2019-08-24T16:43:28.832Z</time>
      </trkpt>
      <trkpt lat="45.69207" lon="5.67758">
        <ele>226</ele>
        <time>2019-08-24T16:43:33.848Z</time>
      </trkpt>
      <trkpt lat="45.69202" lon="5.67755">
        <ele>226</ele>
        <time>2019-08-24T16:43:37.863Z</time>
      </trkpt>
      <trkpt lat="45.69195" lon="5.67752">
        <ele>226</ele>
        <time>2019-08-24T16:43:42.874Z</time>
      </trkpt>
      <trkpt lat="45.69188" lon="5.67751">
        <ele>226</ele>
        <time>2019-08-24T16:43:47.873Z</time>
      </trkpt>
      <trkpt lat="45.69181" lon="5.67753">
        <ele>226</ele>
        <time>2019-08-24T16:43:52.872Z</time>
      </trkpt>
      <trkpt lat="45.69175" lon="5.67754">
        <ele>229</ele>
        <time>2019-08-24T16:43:57.857Z</time>
      </trkpt>
      <trkpt lat="45.6917" lon="5.67759">
        <ele>229</ele>
        <time>2019-08-24T16:44:01.860Z</time>
      </trkpt>
      <trkpt lat="45.69163" lon="5.67762">
        <ele>229</ele>
        <time>2019-08-24T16:44:06.892Z</time>
      </trkpt>
      <trkpt lat="45.69155" lon="5.67765">
        <ele>229</ele>
        <time>2019-08-24T16:44:11.854Z</time>
      </trkpt>
      <trkpt lat="45.6915" lon="5.67768">
        <ele>230</ele>
        <time>2019-08-24T16:44:15.869Z</time>
      </trkpt>
      <trkpt lat="45.69145" lon="5.6777">
        <ele>230</ele>
        <time>2019-08-24T16:44:19.878Z</time>
      </trkpt>
      <trkpt lat="45.6914" lon="5.67772">
        <ele>230</ele>
        <time>2019-08-24T16:44:24.877Z</time>
      </trkpt>
      <trkpt lat="45.69135" lon="5.67776">
        <ele>230</ele>
        <time>2019-08-24T16:44:29.864Z</time>
      </trkpt>
      <trkpt lat="45.69129" lon="5.67781">
        <ele>230</ele>
        <time>2019-08-24T16:44:34.871Z</time>
      </trkpt>
      <trkpt lat="45.69122" lon="5.67784">
        <ele>231</ele>
        <time>2019-08-24T16:44:39.848Z</time>
      </trkpt>
      <trkpt lat="45.69117" lon="5.67786">
        <ele>231</ele>
        <time>2019-08-24T16:44:43.878Z</time>
      </trkpt>
      <trkpt lat="45.69112" lon="5.67789">
        <ele>231</ele>
        <time>2019-08-24T16:44:48.864Z</time>
      </trkpt>
      <trkpt lat="45.69108" lon="5.67791">
        <ele>231</ele>
        <time>2019-08-24T16:44:52.871Z</time>
      </trkpt>
      <trkpt lat="45.69103" lon="5.67794">
        <ele>231</ele>
        <time>2019-08-24T16:44:56.868Z</time>
      </trkpt>
      <trkpt lat="45.69098" lon="5.67799">
        <ele>231</ele>
        <time>2019-08-24T16:45:01.861Z</time>
      </trkpt>
      <trkpt lat="45.69091" lon="5.67801">
        <ele>231</ele>
        <time>2019-08-24T16:45:05.861Z</time>
      </trkpt>
      <trkpt lat="45.69085" lon="5.67802">
        <ele>231</ele>
        <time>2019-08-24T16:45:10.873Z</time>
      </trkpt>
      <trkpt lat="45.6908" lon="5.67804">
        <ele>231</ele>
        <time>2019-08-24T16:45:15.866Z</time>
      </trkpt>
      <trkpt lat="45.69074" lon="5.67806">
        <ele>231</ele>
        <time>2019-08-24T16:45:20.875Z</time>
      </trkpt>
      <trkpt lat="45.69069" lon="5.67807">
        <ele>231</ele>
        <time>2019-08-24T16:45:24.874Z</time>
      </trkpt>
      <trkpt lat="45.69062" lon="5.67804">
        <ele>231</ele>
        <time>2019-08-24T16:45:29.862Z</time>
      </trkpt>
      <trkpt lat="45.69057" lon="5.67802">
        <ele>231</ele>
        <time>2019-08-24T16:45:33.877Z</time>
      </trkpt>
      <trkpt lat="45.69051" lon="5.67799">
        <ele>231</ele>
        <time>2019-08-24T16:45:38.875Z</time>
      </trkpt>
      <trkpt lat="45.69046" lon="5.67794">
        <ele>231</ele>
        <time>2019-08-24T16:45:43.863Z</time>
      </trkpt>
      <trkpt lat="45.69042" lon="5.67789">
        <ele>232</ele>
        <time>2019-08-24T16:45:47.870Z</time>
      </trkpt>
      <trkpt lat="45.69035" lon="5.67784">
        <ele>232</ele>
        <time>2019-08-24T16:45:52.865Z</time>
      </trkpt>
      <trkpt lat="45.6903" lon="5.67779">
        <ele>232</ele>
        <time>2019-08-24T16:45:57.877Z</time>
      </trkpt>
      <trkpt lat="45.69023" lon="5.67774">
        <ele>232</ele>
        <time>2019-08-24T16:46:02.873Z</time>
      </trkpt>
      <trkpt lat="45.69018" lon="5.67769">
        <ele>232</ele>
        <time>2019-08-24T16:46:07.870Z</time>
      </trkpt>
      <trkpt lat="45.69011" lon="5.67764">
        <ele>233</ele>
        <time>2019-08-24T16:46:12.869Z</time>
      </trkpt>
      <trkpt lat="45.69006" lon="5.67761">
        <ele>234</ele>
        <time>2019-08-24T16:46:16.867Z</time>
      </trkpt>
      <trkpt lat="45.69" lon="5.67757">
        <ele>234</ele>
        <time>2019-08-24T16:46:21.866Z</time>
      </trkpt>
      <trkpt lat="45.68995" lon="5.67753">
        <ele>234</ele>
        <time>2019-08-24T16:46:26.865Z</time>
      </trkpt>
      <trkpt lat="45.68991" lon="5.67748">
        <ele>234</ele>
        <time>2019-08-24T16:46:30.883Z</time>
      </trkpt>
      <trkpt lat="45.68986" lon="5.67743">
        <ele>235</ele>
        <time>2019-08-24T16:46:35.878Z</time>
      </trkpt>
      <trkpt lat="45.6898" lon="5.67742">
        <ele>235</ele>
        <time>2019-08-24T16:46:40.872Z</time>
      </trkpt>
      <trkpt lat="45.68977" lon="5.67746">
        <ele>235</ele>
        <time>2019-08-24T16:46:45.869Z</time>
      </trkpt>
      <trkpt lat="45.68973" lon="5.67751">
        <ele>235</ele>
        <time>2019-08-24T16:46:50.863Z</time>
      </trkpt>
      <trkpt lat="45.68968" lon="5.67755">
        <ele>235</ele>
        <time>2019-08-24T16:46:55.862Z</time>
      </trkpt>
      <trkpt lat="45.68962" lon="5.6776">
        <ele>235</ele>
        <time>2019-08-24T16:47:00.865Z</time>
      </trkpt>
      <trkpt lat="45.68956" lon="5.67765">
        <ele>235</ele>
        <time>2019-08-24T16:47:04.853Z</time>
      </trkpt>
      <trkpt lat="45.68952" lon="5.67769">
        <ele>235</ele>
        <time>2019-08-24T16:47:08.869Z</time>
      </trkpt>
      <trkpt lat="45.68946" lon="5.67773">
        <ele>235</ele>
        <time>2019-08-24T16:47:13.858Z</time>
      </trkpt>
      <trkpt lat="45.68941" lon="5.67776">
        <ele>235</ele>
        <time>2019-08-24T16:47:17.874Z</time>
      </trkpt>
      <trkpt lat="45.68934" lon="5.67781">
        <ele>235</ele>
        <time>2019-08-24T16:47:22.876Z</time>
      </trkpt>
      <trkpt lat="45.68927" lon="5.67786">
        <ele>237</ele>
        <time>2019-08-24T16:47:27.867Z</time>
      </trkpt>
      <trkpt lat="45.68922" lon="5.67791">
        <ele>237</ele>
        <time>2019-08-24T16:47:32.858Z</time>
      </trkpt>
      <trkpt lat="45.68918" lon="5.67795">
        <ele>236</ele>
        <time>2019-08-24T16:47:36.879Z</time>
      </trkpt>
      <trkpt lat="45.68914" lon="5.67801">
        <ele>236</ele>
        <time>2019-08-24T16:47:41.863Z</time>
      </trkpt>
      <trkpt lat="45.68909" lon="5.67806">
        <ele>236</ele>
        <time>2019-08-24T16:47:45.861Z</time>
      </trkpt>
      <trkpt lat="45.68903" lon="5.67811">
        <ele>236</ele>
        <time>2019-08-24T16:47:50.880Z</time>
      </trkpt>
      <trkpt lat="45.68896" lon="5.67818">
        <ele>236</ele>
        <time>2019-08-24T16:47:55.872Z</time>
      </trkpt>
      <trkpt lat="45.68891" lon="5.67824">
        <ele>236</ele>
        <time>2019-08-24T16:48:00.873Z</time>
      </trkpt>
      <trkpt lat="45.68885" lon="5.67828">
        <ele>236</ele>
        <time>2019-08-24T16:48:05.858Z</time>
      </trkpt>
      <trkpt lat="45.68881" lon="5.67832">
        <ele>236</ele>
        <time>2019-08-24T16:48:09.858Z</time>
      </trkpt>
      <trkpt lat="45.68874" lon="5.67837">
        <ele>236</ele>
        <time>2019-08-24T16:48:14.868Z</time>
      </trkpt>
      <trkpt lat="45.68869" lon="5.67843">
        <ele>236</ele>
        <time>2019-08-24T16:48:19.871Z</time>
      </trkpt>
      <trkpt lat="45.68862" lon="5.67849">
        <ele>236</ele>
        <time>2019-08-24T16:48:24.875Z</time>
      </trkpt>
      <trkpt lat="45.68857" lon="5.67855">
        <ele>236</ele>
        <time>2019-08-24T16:48:29.861Z</time>
      </trkpt>
      <trkpt lat="45.68851" lon="5.67857">
        <ele>236</ele>
        <time>2019-08-24T16:48:33.864Z</time>
      </trkpt>
      <trkpt lat="45.68843" lon="5.67862">
        <ele>237</ele>
        <time>2019-08-24T16:48:38.856Z</time>
      </trkpt>
      <trkpt lat="45.68839" lon="5.67869">
        <ele>237</ele>
        <time>2019-08-24T16:48:43.854Z</time>
      </trkpt>
      <trkpt lat="45.68835" lon="5.67873">
        <ele>237</ele>
        <time>2019-08-24T16:48:47.862Z</time>
      </trkpt>
      <trkpt lat="45.68831" lon="5.67876">
        <ele>237</ele>
        <time>2019-08-24T16:48:51.870Z</time>
      </trkpt>
      <trkpt lat="45.68826" lon="5.67883">
        <ele>237</ele>
        <time>2019-08-24T16:48:56.856Z</time>
      </trkpt>
      <trkpt lat="45.6882" lon="5.67888">
        <ele>237</ele>
        <time>2019-08-24T16:49:01.873Z</time>
      </trkpt>
      <trkpt lat="45.68814" lon="5.67896">
        <ele>237</ele>
        <time>2019-08-24T16:49:06.885Z</time>
      </trkpt>
      <trkpt lat="45.68806" lon="5.67902">
        <ele>237</ele>
        <time>2019-08-24T16:49:11.863Z</time>
      </trkpt>
      <trkpt lat="45.68801" lon="5.67907">
        <ele>237</ele>
        <time>2019-08-24T16:49:15.870Z</time>
      </trkpt>
      <trkpt lat="45.68795" lon="5.67912">
        <ele>237</ele>
        <time>2019-08-24T16:49:20.861Z</time>
      </trkpt>
      <trkpt lat="45.68791" lon="5.67919">
        <ele>236</ele>
        <time>2019-08-24T16:49:25.873Z</time>
      </trkpt>
      <trkpt lat="45.68786" lon="5.67923">
        <ele>236</ele>
        <time>2019-08-24T16:49:30.870Z</time>
      </trkpt>
      <trkpt lat="45.68779" lon="5.67929">
        <ele>236</ele>
        <time>2019-08-24T16:49:35.868Z</time>
      </trkpt>
      <trkpt lat="45.68774" lon="5.67936">
        <ele>236</ele>
        <time>2019-08-24T16:49:40.863Z</time>
      </trkpt>
      <trkpt lat="45.68768" lon="5.67942">
        <ele>236</ele>
        <time>2019-08-24T16:49:44.867Z</time>
      </trkpt>
      <trkpt lat="45.68762" lon="5.67948">
        <ele>235</ele>
        <time>2019-08-24T16:49:49.883Z</time>
      </trkpt>
      <trkpt lat="45.68756" lon="5.67954">
        <ele>235</ele>
        <time>2019-08-24T16:49:54.850Z</time>
      </trkpt>
      <trkpt lat="45.68751" lon="5.67958">
        <ele>235</ele>
        <time>2019-08-24T16:49:58.872Z</time>
      </trkpt>
      <trkpt lat="45.68744" lon="5.67962">
        <ele>234</ele>
        <time>2019-08-24T16:50:03.877Z</time>
      </trkpt>
      <trkpt lat="45.68736" lon="5.67968">
        <ele>234</ele>
        <time>2019-08-24T16:50:08.854Z</time>
      </trkpt>
      <trkpt lat="45.68731" lon="5.67974">
        <ele>234</ele>
        <time>2019-08-24T16:50:13.854Z</time>
      </trkpt>
      <trkpt lat="45.68723" lon="5.6798">
        <ele>234</ele>
        <time>2019-08-24T16:50:27.854Z</time>
      </trkpt>
      <trkpt lat="45.68717" lon="5.67989">
        <ele>234</ele>
        <time>2019-08-24T16:50:32.847Z</time>
      </trkpt>
      <trkpt lat="45.68711" lon="5.67996">
        <ele>234</ele>
        <time>2019-08-24T16:50:36.869Z</time>
      </trkpt>
      <trkpt lat="45.68705" lon="5.68002">
        <ele>234</ele>
        <time>2019-08-24T16:50:40.875Z</time>
      </trkpt>
      <trkpt lat="45.68699" lon="5.68007">
        <ele>234</ele>
        <time>2019-08-24T16:50:45.850Z</time>
      </trkpt>
      <trkpt lat="45.68692" lon="5.68012">
        <ele>234</ele>
        <time>2019-08-24T16:50:50.877Z</time>
      </trkpt>
      <trkpt lat="45.68685" lon="5.68018">
        <ele>233</ele>
        <time>2019-08-24T16:50:55.852Z</time>
      </trkpt>
      <trkpt lat="45.68679" lon="5.68023">
        <ele>234</ele>
        <time>2019-08-24T16:50:59.860Z</time>
      </trkpt>
      <trkpt lat="45.68673" lon="5.68029">
        <ele>234</ele>
        <time>2019-08-24T16:51:04.857Z</time>
      </trkpt>
      <trkpt lat="45.68669" lon="5.68032">
        <ele>234</ele>
        <time>2019-08-24T16:51:08.856Z</time>
      </trkpt>
      <trkpt lat="45.68664" lon="5.68036">
        <ele>234</ele>
        <time>2019-08-24T16:51:12.877Z</time>
      </trkpt>
      <trkpt lat="45.68658" lon="5.68042">
        <ele>233</ele>
        <time>2019-08-24T16:51:17.853Z</time>
      </trkpt>
      <trkpt lat="45.68652" lon="5.68048">
        <ele>234</ele>
        <time>2019-08-24T16:51:22.866Z</time>
      </trkpt>
      <trkpt lat="45.68646" lon="5.68056">
        <ele>234</ele>
        <time>2019-08-24T16:51:27.848Z</time>
      </trkpt>
      <trkpt lat="45.68638" lon="5.68062">
        <ele>234</ele>
        <time>2019-08-24T16:51:32.864Z</time>
      </trkpt>
      <trkpt lat="45.68633" lon="5.68071">
        <ele>234</ele>
        <time>2019-08-24T16:51:36.875Z</time>
      </trkpt>
      <trkpt lat="45.68627" lon="5.68078">
        <ele>234</ele>
        <time>2019-08-24T16:51:41.854Z</time>
      </trkpt>
      <trkpt lat="45.68622" lon="5.68082">
        <ele>234</ele>
        <time>2019-08-24T16:51:46.880Z</time>
      </trkpt>
      <trkpt lat="45.68616" lon="5.68088">
        <ele>234</ele>
        <time>2019-08-24T16:51:51.851Z</time>
      </trkpt>
      <trkpt lat="45.6861" lon="5.68095">
        <ele>234</ele>
        <time>2019-08-24T16:51:56.865Z</time>
      </trkpt>
      <trkpt lat="45.68607" lon="5.681">
        <ele>235</ele>
        <time>2019-08-24T16:52:00.856Z</time>
      </trkpt>
      <trkpt lat="45.68602" lon="5.68106">
        <ele>235</ele>
        <time>2019-08-24T16:52:04.866Z</time>
      </trkpt>
      <trkpt lat="45.68597" lon="5.68112">
        <ele>234</ele>
        <time>2019-08-24T16:52:09.866Z</time>
      </trkpt>
      <trkpt lat="45.68591" lon="5.68119">
        <ele>234</ele>
        <time>2019-08-24T16:52:14.873Z</time>
      </trkpt>
      <trkpt lat="45.68585" lon="5.68124">
        <ele>234</ele>
        <time>2019-08-24T16:52:19.858Z</time>
      </trkpt>
      <trkpt lat="45.6858" lon="5.68132">
        <ele>234</ele>
        <time>2019-08-24T16:52:24.862Z</time>
      </trkpt>
      <trkpt lat="45.68575" lon="5.68138">
        <ele>234</ele>
        <time>2019-08-24T16:52:29.847Z</time>
      </trkpt>
      <trkpt lat="45.6857" lon="5.68145">
        <ele>234</ele>
        <time>2019-08-24T16:52:33.871Z</time>
      </trkpt>
      <trkpt lat="45.68564" lon="5.68151">
        <ele>233</ele>
        <time>2019-08-24T16:52:37.859Z</time>
      </trkpt>
      <trkpt lat="45.68557" lon="5.68159">
        <ele>233</ele>
        <time>2019-08-24T16:52:42.858Z</time>
      </trkpt>
      <trkpt lat="45.68551" lon="5.68165">
        <ele>233</ele>
        <time>2019-08-24T16:52:46.873Z</time>
      </trkpt>
      <trkpt lat="45.68545" lon="5.68172">
        <ele>233</ele>
        <time>2019-08-24T16:52:51.854Z</time>
      </trkpt>
      <trkpt lat="45.6854" lon="5.68177">
        <ele>233</ele>
        <time>2019-08-24T16:52:55.858Z</time>
      </trkpt>
      <trkpt lat="45.68534" lon="5.68183">
        <ele>233</ele>
        <time>2019-08-24T16:53:00.872Z</time>
      </trkpt>
      <trkpt lat="45.68528" lon="5.68192">
        <ele>233</ele>
        <time>2019-08-24T16:53:05.847Z</time>
      </trkpt>
      <trkpt lat="45.68522" lon="5.68199">
        <ele>233</ele>
        <time>2019-08-24T16:53:10.865Z</time>
      </trkpt>
      <trkpt lat="45.68516" lon="5.68207">
        <ele>233</ele>
        <time>2019-08-24T16:53:15.857Z</time>
      </trkpt>
      <trkpt lat="45.68511" lon="5.68213">
        <ele>233</ele>
        <time>2019-08-24T16:53:20.869Z</time>
      </trkpt>
      <trkpt lat="45.68506" lon="5.6822">
        <ele>233</ele>
        <time>2019-08-24T16:53:24.856Z</time>
      </trkpt>
      <trkpt lat="45.68501" lon="5.68227">
        <ele>233</ele>
        <time>2019-08-24T16:53:28.877Z</time>
      </trkpt>
      <trkpt lat="45.68499" lon="5.68228">
        <ele>233</ele>
        <time>2019-08-24T16:53:33.863Z</time>
      </trkpt>
      <trkpt lat="45.68498" lon="5.68229">
        <ele>233</ele>
        <time>2019-08-24T16:53:38.869Z</time>
      </trkpt>
      <trkpt lat="45.68494" lon="5.68233">
        <ele>233</ele>
        <time>2019-08-24T16:53:43.863Z</time>
      </trkpt>
      <trkpt lat="45.68489" lon="5.68242">
        <ele>233</ele>
        <time>2019-08-24T16:53:48.860Z</time>
      </trkpt>
      <trkpt lat="45.68484" lon="5.68247">
        <ele>233</ele>
        <time>2019-08-24T16:53:52.883Z</time>
      </trkpt>
      <trkpt lat="45.68478" lon="5.68256">
        <ele>233</ele>
        <time>2019-08-24T16:53:57.849Z</time>
      </trkpt>
      <trkpt lat="45.68474" lon="5.68261">
        <ele>233</ele>
        <time>2019-08-24T16:54:01.864Z</time>
      </trkpt>
      <trkpt lat="45.68469" lon="5.68266">
        <ele>232</ele>
        <time>2019-08-24T16:54:06.868Z</time>
      </trkpt>
      <trkpt lat="45.68464" lon="5.6827">
        <ele>232</ele>
        <time>2019-08-24T16:54:11.870Z</time>
      </trkpt>
      <trkpt lat="45.68461" lon="5.68275">
        <ele>232</ele>
        <time>2019-08-24T16:54:16.864Z</time>
      </trkpt>
      <trkpt lat="45.68458" lon="5.6828">
        <ele>232</ele>
        <time>2019-08-24T16:54:20.868Z</time>
      </trkpt>
      <trkpt lat="45.68452" lon="5.68284">
        <ele>232</ele>
        <time>2019-08-24T16:54:25.854Z</time>
      </trkpt>
      <trkpt lat="45.68446" lon="5.68288">
        <ele>232</ele>
        <time>2019-08-24T16:54:30.860Z</time>
      </trkpt>
      <trkpt lat="45.68439" lon="5.68286">
        <ele>232</ele>
        <time>2019-08-24T16:54:34.866Z</time>
      </trkpt>
      <trkpt lat="45.68431" lon="5.68248">
        <ele>232</ele>
        <time>2019-08-24T16:54:39.847Z</time>
      </trkpt>
      <trkpt lat="45.68425" lon="5.68205">
        <ele>233</ele>
        <time>2019-08-24T16:54:43.858Z</time>
      </trkpt>
      <trkpt lat="45.68419" lon="5.68149">
        <ele>234</ele>
        <time>2019-08-24T16:54:48.874Z</time>
      </trkpt>
      <trkpt lat="45.68413" lon="5.68091">
        <ele>235</ele>
        <time>2019-08-24T16:54:53.848Z</time>
      </trkpt>
      <trkpt lat="45.68407" lon="5.68046">
        <ele>235</ele>
        <time>2019-08-24T16:54:57.849Z</time>
      </trkpt>
      <trkpt lat="45.68402" lon="5.68002">
        <ele>236</ele>
        <time>2019-08-24T16:55:01.859Z</time>
      </trkpt>
      <trkpt lat="45.68398" lon="5.67956">
        <ele>238</ele>
        <time>2019-08-24T16:55:06.879Z</time>
      </trkpt>
      <trkpt lat="45.68393" lon="5.67912">
        <ele>239</ele>
        <time>2019-08-24T16:55:11.862Z</time>
      </trkpt>
      <trkpt lat="45.6839" lon="5.67887">
        <ele>239</ele>
        <time>2019-08-24T16:55:16.870Z</time>
      </trkpt>
      <trkpt lat="45.68388" lon="5.67878">
        <ele>239</ele>
        <time>2019-08-24T16:55:21.859Z</time>
      </trkpt>
      <trkpt lat="45.68387" lon="5.6787">
        <ele>240</ele>
        <time>2019-08-24T16:55:26.868Z</time>
      </trkpt>
      <trkpt lat="45.68385" lon="5.67861">
        <ele>240</ele>
        <time>2019-08-24T16:55:31.869Z</time>
      </trkpt>
      <trkpt lat="45.68383" lon="5.67854">
        <ele>240</ele>
        <time>2019-08-24T16:55:35.855Z</time>
      </trkpt>
      <trkpt lat="45.68381" lon="5.67843">
        <ele>240</ele>
        <time>2019-08-24T16:55:40.877Z</time>
      </trkpt>
      <trkpt lat="45.68379" lon="5.67831">
        <ele>240</ele>
        <time>2019-08-24T16:55:45.850Z</time>
      </trkpt>
      <trkpt lat="45.68377" lon="5.67821">
        <ele>240</ele>
        <time>2019-08-24T16:55:49.880Z</time>
      </trkpt>
      <trkpt lat="45.68378" lon="5.6781">
        <ele>241</ele>
        <time>2019-08-24T16:55:54.862Z</time>
      </trkpt>
      <trkpt lat="45.68377" lon="5.67801">
        <ele>241</ele>
        <time>2019-08-24T16:55:59.851Z</time>
      </trkpt>
      <trkpt lat="45.68376" lon="5.67793">
        <ele>241</ele>
        <time>2019-08-24T16:56:03.859Z</time>
      </trkpt>
      <trkpt lat="45.68374" lon="5.67785">
        <ele>243</ele>
        <time>2019-08-24T16:56:07.870Z</time>
      </trkpt>
      <trkpt lat="45.68374" lon="5.67776">
        <ele>243</ele>
        <time>2019-08-24T16:56:12.865Z</time>
      </trkpt>
      <trkpt lat="45.68373" lon="5.67764">
        <ele>243</ele>
        <time>2019-08-24T16:56:17.844Z</time>
      </trkpt>
      <trkpt lat="45.68372" lon="5.67759">
        <ele>244</ele>
        <time>2019-08-24T16:56:21.879Z</time>
      </trkpt>
      <trkpt lat="45.6837" lon="5.6775">
        <ele>244</ele>
        <time>2019-08-24T16:56:26.864Z</time>
      </trkpt>
      <trkpt lat="45.68365" lon="5.67743">
        <ele>244</ele>
        <time>2019-08-24T16:56:31.863Z</time>
      </trkpt>
      <trkpt lat="45.68362" lon="5.67738">
        <ele>244</ele>
        <time>2019-08-24T16:56:35.871Z</time>
      </trkpt>
      <trkpt lat="45.68354" lon="5.67736">
        <ele>244</ele>
        <time>2019-08-24T16:56:40.870Z</time>
      </trkpt>
      <trkpt lat="45.68348" lon="5.67736">
        <ele>244</ele>
        <time>2019-08-24T16:56:44.888Z</time>
      </trkpt>
      <trkpt lat="45.68341" lon="5.67737">
        <ele>243</ele>
        <time>2019-08-24T16:56:49.865Z</time>
      </trkpt>
      <trkpt lat="45.68336" lon="5.67737">
        <ele>243</ele>
        <time>2019-08-24T16:56:54.861Z</time>
      </trkpt>
      <trkpt lat="45.6833" lon="5.67737">
        <ele>243</ele>
        <time>2019-08-24T16:56:58.867Z</time>
      </trkpt>
      <trkpt lat="45.68322" lon="5.67738">
        <ele>243</ele>
        <time>2019-08-24T16:57:03.857Z</time>
      </trkpt>
      <trkpt lat="45.68315" lon="5.67739">
        <ele>243</ele>
        <time>2019-08-24T16:57:08.860Z</time>
      </trkpt>
      <trkpt lat="45.6831" lon="5.67739">
        <ele>243</ele>
        <time>2019-08-24T16:57:13.871Z</time>
      </trkpt>
      <trkpt lat="45.68308" lon="5.67738">
        <ele>243</ele>
        <time>2019-08-24T16:57:18.877Z</time>
      </trkpt>
      <trkpt lat="45.68299" lon="5.67741">
        <ele>243</ele>
        <time>2019-08-24T16:57:23.863Z</time>
      </trkpt>
      <trkpt lat="45.68295" lon="5.67741">
        <ele>243</ele>
        <time>2019-08-24T16:57:27.866Z</time>
      </trkpt>
      <trkpt lat="45.68288" lon="5.6774">
        <ele>242</ele>
        <time>2019-08-24T16:57:32.862Z</time>
      </trkpt>
      <trkpt lat="45.68283" lon="5.6774">
        <ele>242</ele>
        <time>2019-08-24T16:57:36.865Z</time>
      </trkpt>
      <trkpt lat="45.68275" lon="5.67741">
        <ele>242</ele>
        <time>2019-08-24T16:57:41.867Z</time>
      </trkpt>
      <trkpt lat="45.68268" lon="5.67742">
        <ele>242</ele>
        <time>2019-08-24T16:57:46.870Z</time>
      </trkpt>
      <trkpt lat="45.6826" lon="5.67743">
        <ele>241</ele>
        <time>2019-08-24T16:57:51.866Z</time>
      </trkpt>
      <trkpt lat="45.68253" lon="5.67744">
        <ele>241</ele>
        <time>2019-08-24T16:57:56.886Z</time>
      </trkpt>
      <trkpt lat="45.68248" lon="5.67744">
        <ele>241</ele>
        <time>2019-08-24T16:58:01.877Z</time>
      </trkpt>
      <trkpt lat="45.68241" lon="5.67745">
        <ele>241</ele>
        <time>2019-08-24T16:58:06.863Z</time>
      </trkpt>
      <trkpt lat="45.68234" lon="5.67746">
        <ele>241</ele>
        <time>2019-08-24T16:58:11.872Z</time>
      </trkpt>
      <trkpt lat="45.68228" lon="5.67747">
        <ele>241</ele>
        <time>2019-08-24T16:58:16.853Z</time>
      </trkpt>
      <trkpt lat="45.68223" lon="5.67748">
        <ele>241</ele>
        <time>2019-08-24T16:58:20.868Z</time>
      </trkpt>
      <trkpt lat="45.68216" lon="5.67748">
        <ele>241</ele>
        <time>2019-08-24T16:58:25.867Z</time>
      </trkpt>
      <trkpt lat="45.6821" lon="5.67748">
        <ele>241</ele>
        <time>2019-08-24T16:58:30.877Z</time>
      </trkpt>
      <trkpt lat="45.68203" lon="5.67747">
        <ele>241</ele>
        <time>2019-08-24T16:58:35.871Z</time>
      </trkpt>
      <trkpt lat="45.68197" lon="5.67745">
        <ele>241</ele>
        <time>2019-08-24T16:58:40.869Z</time>
      </trkpt>
      <trkpt lat="45.68188" lon="5.67747">
        <ele>241</ele>
        <time>2019-08-24T16:58:45.876Z</time>
      </trkpt>
      <trkpt lat="45.6818" lon="5.67749">
        <ele>241</ele>
        <time>2019-08-24T16:58:50.867Z</time>
      </trkpt>
      <trkpt lat="45.68175" lon="5.67752">
        <ele>241</ele>
        <time>2019-08-24T16:58:54.874Z</time>
      </trkpt>
      <trkpt lat="45.68172" lon="5.67761">
        <ele>241</ele>
        <time>2019-08-24T16:58:59.871Z</time>
      </trkpt>
      <trkpt lat="45.68166" lon="5.67769">
        <ele>242</ele>
        <time>2019-08-24T16:59:04.859Z</time>
      </trkpt>
      <trkpt lat="45.68161" lon="5.67775">
        <ele>242</ele>
        <time>2019-08-24T16:59:08.872Z</time>
      </trkpt>
      <trkpt lat="45.6816" lon="5.67776">
        <ele>242</ele>
        <time>2019-08-24T16:59:13.857Z</time>
      </trkpt>
      <trkpt lat="45.6816" lon="5.67779">
        <ele>242</ele>
        <time>2019-08-24T16:59:17.863Z</time>
      </trkpt>
      <trkpt lat="45.6816" lon="5.67787">
        <ele>242</ele>
        <time>2019-08-24T16:59:21.868Z</time>
      </trkpt>
      <trkpt lat="45.6816" lon="5.67795">
        <ele>243</ele>
        <time>2019-08-24T16:59:26.909Z</time>
      </trkpt>
      <trkpt lat="45.68159" lon="5.67804">
        <ele>243</ele>
        <time>2019-08-24T16:59:31.874Z</time>
      </trkpt>
      <trkpt lat="45.68151" lon="5.67811">
        <ele>242</ele>
        <time>2019-08-24T16:59:36.866Z</time>
      </trkpt>
      <trkpt lat="45.68143" lon="5.67816">
        <ele>242</ele>
        <time>2019-08-24T16:59:41.868Z</time>
      </trkpt>
      <trkpt lat="45.68136" lon="5.67819">
        <ele>242</ele>
        <time>2019-08-24T16:59:45.876Z</time>
      </trkpt>
      <trkpt lat="45.68128" lon="5.67823">
        <ele>242</ele>
        <time>2019-08-24T16:59:50.867Z</time>
      </trkpt>
      <trkpt lat="45.68118" lon="5.67828">
        <ele>240</ele>
        <time>2019-08-24T17:00:04.873Z</time>
      </trkpt>
      <trkpt lat="45.68114" lon="5.67832">
        <ele>240</ele>
        <time>2019-08-24T17:00:09.868Z</time>
      </trkpt>
      <trkpt lat="45.68107" lon="5.67838">
        <ele>240</ele>
        <time>2019-08-24T17:00:14.868Z</time>
      </trkpt>
      <trkpt lat="45.681" lon="5.67841">
        <ele>240</ele>
        <time>2019-08-24T17:00:19.872Z</time>
      </trkpt>
      <trkpt lat="45.68094" lon="5.67847">
        <ele>238</ele>
        <time>2019-08-24T17:00:24.858Z</time>
      </trkpt>
      <trkpt lat="45.68089" lon="5.6785">
        <ele>239</ele>
        <time>2019-08-24T17:00:28.869Z</time>
      </trkpt>
      <trkpt lat="45.68082" lon="5.67854">
        <ele>239</ele>
        <time>2019-08-24T17:00:33.870Z</time>
      </trkpt>
      <trkpt lat="45.68079" lon="5.67857">
        <ele>239</ele>
        <time>2019-08-24T17:00:38.871Z</time>
      </trkpt>
      <trkpt lat="45.68074" lon="5.67861">
        <ele>239</ele>
        <time>2019-08-24T17:00:43.866Z</time>
      </trkpt>
      <trkpt lat="45.68066" lon="5.67865">
        <ele>237</ele>
        <time>2019-08-24T17:00:48.862Z</time>
      </trkpt>
      <trkpt lat="45.68061" lon="5.67868">
        <ele>237</ele>
        <time>2019-08-24T17:00:52.877Z</time>
      </trkpt>
      <trkpt lat="45.68055" lon="5.67872">
        <ele>237</ele>
        <time>2019-08-24T17:00:57.849Z</time>
      </trkpt>
      <trkpt lat="45.6805" lon="5.67877">
        <ele>238</ele>
        <time>2019-08-24T17:01:02.870Z</time>
      </trkpt>
      <trkpt lat="45.68046" lon="5.67881">
        <ele>238</ele>
        <time>2019-08-24T17:01:06.870Z</time>
      </trkpt>
      <trkpt lat="45.68041" lon="5.67889">
        <ele>236</ele>
        <time>2019-08-24T17:01:11.876Z</time>
      </trkpt>
      <trkpt lat="45.68036" lon="5.67893">
        <ele>236</ele>
        <time>2019-08-24T17:01:16.872Z</time>
      </trkpt>
      <trkpt lat="45.68031" lon="5.67895">
        <ele>236</ele>
        <time>2019-08-24T17:01:21.858Z</time>
      </trkpt>
      <trkpt lat="45.68027" lon="5.67897">
        <ele>236</ele>
        <time>2019-08-24T17:01:25.874Z</time>
      </trkpt>
      <trkpt lat="45.68022" lon="5.67902">
        <ele>236</ele>
        <time>2019-08-24T17:01:30.882Z</time>
      </trkpt>
      <trkpt lat="45.68019" lon="5.67904">
        <ele>236</ele>
        <time>2019-08-24T17:01:35.867Z</time>
      </trkpt>
      <trkpt lat="45.68013" lon="5.67908">
        <ele>235</ele>
        <time>2019-08-24T17:01:40.866Z</time>
      </trkpt>
      <trkpt lat="45.68009" lon="5.67912">
        <ele>235</ele>
        <time>2019-08-24T17:01:45.868Z</time>
      </trkpt>
      <trkpt lat="45.68005" lon="5.67915">
        <ele>235</ele>
        <time>2019-08-24T17:01:50.868Z</time>
      </trkpt>
      <trkpt lat="45.68001" lon="5.67918">
        <ele>235</ele>
        <time>2019-08-24T17:01:54.869Z</time>
      </trkpt>
      <trkpt lat="45.67995" lon="5.67924">
        <ele>235</ele>
        <time>2019-08-24T17:01:59.871Z</time>
      </trkpt>
      <trkpt lat="45.6799" lon="5.67928">
        <ele>235</ele>
        <time>2019-08-24T17:02:04.881Z</time>
      </trkpt>
      <trkpt lat="45.67985" lon="5.67933">
        <ele>234</ele>
        <time>2019-08-24T17:02:09.861Z</time>
      </trkpt>
      <trkpt lat="45.67982" lon="5.67937">
        <ele>234</ele>
        <time>2019-08-24T17:02:13.869Z</time>
      </trkpt>
      <trkpt lat="45.67975" lon="5.6794">
        <ele>234</ele>
        <time>2019-08-24T17:02:18.874Z</time>
      </trkpt>
      <trkpt lat="45.6797" lon="5.67943">
        <ele>234</ele>
        <time>2019-08-24T17:02:23.857Z</time>
      </trkpt>
      <trkpt lat="45.67966" lon="5.67948">
        <ele>234</ele>
        <time>2019-08-24T17:02:27.866Z</time>
      </trkpt>
      <trkpt lat="45.6796" lon="5.6795">
        <ele>234</ele>
        <time>2019-08-24T17:02:32.870Z</time>
      </trkpt>
      <trkpt lat="45.67955" lon="5.67952">
        <ele>232</ele>
        <time>2019-08-24T17:02:36.857Z</time>
      </trkpt>
      <trkpt lat="45.67951" lon="5.67955">
        <ele>232</ele>
        <time>2019-08-24T17:02:41.854Z</time>
      </trkpt>
      <trkpt lat="45.67946" lon="5.67962">
        <ele>231</ele>
        <time>2019-08-24T17:02:45.848Z</time>
      </trkpt>
      <trkpt lat="45.67941" lon="5.67966">
        <ele>231</ele>
        <time>2019-08-24T17:02:49.873Z</time>
      </trkpt>
      <trkpt lat="45.67934" lon="5.67971">
        <ele>231</ele>
        <time>2019-08-24T17:02:54.873Z</time>
      </trkpt>
      <trkpt lat="45.67924" lon="5.67976">
        <ele>231</ele>
        <time>2019-08-24T17:02:59.860Z</time>
      </trkpt>
      <trkpt lat="45.6792" lon="5.67979">
        <ele>231</ele>
        <time>2019-08-24T17:03:04.867Z</time>
      </trkpt>
      <trkpt lat="45.67916" lon="5.67977">
        <ele>231</ele>
        <time>2019-08-24T17:03:09.856Z</time>
      </trkpt>
      <trkpt lat="45.67905" lon="5.67975">
        <ele>231</ele>
        <time>2019-08-24T17:03:14.862Z</time>
      </trkpt>
      <trkpt lat="45.67896" lon="5.67976">
        <ele>229</ele>
        <time>2019-08-24T17:03:19.844Z</time>
      </trkpt>
      <trkpt lat="45.67889" lon="5.67978">
        <ele>229</ele>
        <time>2019-08-24T17:03:23.859Z</time>
      </trkpt>
      <trkpt lat="45.6788" lon="5.67979">
        <ele>229</ele>
        <time>2019-08-24T17:03:28.846Z</time>
      </trkpt>
      <trkpt lat="45.67871" lon="5.6798">
        <ele>228</ele>
        <time>2019-08-24T17:03:33.866Z</time>
      </trkpt>
      <trkpt lat="45.67863" lon="5.67981">
        <ele>228</ele>
        <time>2019-08-24T17:03:38.861Z</time>
      </trkpt>
      <trkpt lat="45.67856" lon="5.6798">
        <ele>228</ele>
        <time>2019-08-24T17:03:42.868Z</time>
      </trkpt>
      <trkpt lat="45.67848" lon="5.6798">
        <ele>228</ele>
        <time>2019-08-24T17:03:47.877Z</time>
      </trkpt>
      <trkpt lat="45.6784" lon="5.67982">
        <ele>228</ele>
        <time>2019-08-24T17:03:52.862Z</time>
      </trkpt>
      <trkpt lat="45.67832" lon="5.67982">
        <ele>228</ele>
        <time>2019-08-24T17:03:57.862Z</time>
      </trkpt>
      <trkpt lat="45.67824" lon="5.67982">
        <ele>228</ele>
        <time>2019-08-24T17:04:02.843Z</time>
      </trkpt>
      <trkpt lat="45.67818" lon="5.67982">
        <ele>228</ele>
        <time>2019-08-24T17:04:06.862Z</time>
      </trkpt>
      <trkpt lat="45.67811" lon="5.67978">
        <ele>228</ele>
        <time>2019-08-24T17:04:11.864Z</time>
      </trkpt>
      <trkpt lat="45.6781" lon="5.67972">
        <ele>228</ele>
        <time>2019-08-24T17:04:49.873Z</time>
      </trkpt>
      <trkpt lat="45.67799" lon="5.67972">
        <ele>228</ele>
        <time>2019-08-24T17:04:54.866Z</time>
      </trkpt>
      <trkpt lat="45.67791" lon="5.67966">
        <ele>227</ele>
        <time>2019-08-24T17:04:59.852Z</time>
      </trkpt>
      <trkpt lat="45.67786" lon="5.67962">
        <ele>227</ele>
        <time>2019-08-24T17:05:04.853Z</time>
      </trkpt>
      <trkpt lat="45.67781" lon="5.67957">
        <ele>228</ele>
        <time>2019-08-24T17:05:08.855Z</time>
      </trkpt>
      <trkpt lat="45.67775" lon="5.67951">
        <ele>228</ele>
        <time>2019-08-24T17:05:13.862Z</time>
      </trkpt>
      <trkpt lat="45.67771" lon="5.67948">
        <ele>228</ele>
        <time>2019-08-24T17:05:17.871Z</time>
      </trkpt>
      <trkpt lat="45.67764" lon="5.67949">
        <ele>227</ele>
        <time>2019-08-24T17:05:22.867Z</time>
      </trkpt>
      <trkpt lat="45.67756" lon="5.67944">
        <ele>227</ele>
        <time>2019-08-24T17:05:27.871Z</time>
      </trkpt>
      <trkpt lat="45.6775" lon="5.6794">
        <ele>227</ele>
        <time>2019-08-24T17:05:32.853Z</time>
      </trkpt>
      <trkpt lat="45.67743" lon="5.67939">
        <ele>227</ele>
        <time>2019-08-24T17:05:37.870Z</time>
      </trkpt>
      <trkpt lat="45.67736" lon="5.67942">
        <ele>226</ele>
        <time>2019-08-24T17:05:42.866Z</time>
      </trkpt>
      <trkpt lat="45.67728" lon="5.67942">
        <ele>226</ele>
        <time>2019-08-24T17:05:47.871Z</time>
      </trkpt>
      <trkpt lat="45.67721" lon="5.67942">
        <ele>226</ele>
        <time>2019-08-24T17:05:52.858Z</time>
      </trkpt>
      <trkpt lat="45.67717" lon="5.67947">
        <ele>226</ele>
        <time>2019-08-24T17:05:57.868Z</time>
      </trkpt>
      <trkpt lat="45.67716" lon="5.67953">
        <ele>226</ele>
        <time>2019-08-24T17:06:02.861Z</time>
      </trkpt>
      <trkpt lat="45.67714" lon="5.67961">
        <ele>225</ele>
        <time>2019-08-24T17:06:07.876Z</time>
      </trkpt>
      <trkpt lat="45.67711" lon="5.67967">
        <ele>225</ele>
        <time>2019-08-24T17:06:12.867Z</time>
      </trkpt>
      <trkpt lat="45.67705" lon="5.67968">
        <ele>226</ele>
        <time>2019-08-24T17:06:17.870Z</time>
      </trkpt>
      <trkpt lat="45.67697" lon="5.67967">
        <ele>226</ele>
        <time>2019-08-24T17:06:22.846Z</time>
      </trkpt>
      <trkpt lat="45.67693" lon="5.67966">
        <ele>226</ele>
        <time>2019-08-24T17:06:26.846Z</time>
      </trkpt>
      <trkpt lat="45.67685" lon="5.67961">
        <ele>226</ele>
        <time>2019-08-24T17:06:31.869Z</time>
      </trkpt>
      <trkpt lat="45.67677" lon="5.67955">
        <ele>226</ele>
        <time>2019-08-24T17:06:36.853Z</time>
      </trkpt>
      <trkpt lat="45.67671" lon="5.67952">
        <ele>226</ele>
        <time>2019-08-24T17:06:40.868Z</time>
      </trkpt>
      <trkpt lat="45.67662" lon="5.67949">
        <ele>226</ele>
        <time>2019-08-24T17:06:45.875Z</time>
      </trkpt>
      <trkpt lat="45.67655" lon="5.67948">
        <ele>226</ele>
        <time>2019-08-24T17:06:50.843Z</time>
      </trkpt>
      <trkpt lat="45.67649" lon="5.67947">
        <ele>225</ele>
        <time>2019-08-24T17:06:55.865Z</time>
      </trkpt>
      <trkpt lat="45.67643" lon="5.67945">
        <ele>225</ele>
        <time>2019-08-24T17:07:00.866Z</time>
      </trkpt>
      <trkpt lat="45.67636" lon="5.67944">
        <ele>225</ele>
        <time>2019-08-24T17:07:05.856Z</time>
      </trkpt>
    </trkseg>
  </trk>
</gpx>